<?xml version="1.0" encoding="UTF-8" standalone="no" ?>
<gpx xmlns="http://www.topografix.com/GPX/1/1" xmlns:xsi="http://www.w3.org/2001/XMLSchema-instance" xsi:schemaLocation="http://www.topografix.com/GPX/1/1 http://www.topografix.com/GPX/1/1/gpx.xsd" version="1.1" creator="VisuGPX - https://www.visugpx.com">
  <metadata>
    <name>Mantova</name>
  </metadata>
  <trk>
    <name><![CDATA[Mantova]]></name>
    <extensions>
      <line xmlns="http://www.topografix.com/GPX/gpx_style/0/2">
        <color>0000FF</color>
        <width>4</width>
      </line>
    </extensions>
    <trkseg>
      <trkpt lat="45.38066" lon="10.69788">
        <ele>90.498552</ele>
        <time>2021-08-27T08:37:39.000Z</time>
      </trkpt>
      <trkpt lat="45.38073" lon="10.69802">
        <ele>90.498552</ele>
        <time>2021-08-27T08:37:40.000Z</time>
      </trkpt>
      <trkpt lat="45.38039" lon="10.69779">
        <ele>90.498552</ele>
        <time>2021-08-27T08:37:42.000Z</time>
      </trkpt>
      <trkpt lat="45.37999" lon="10.69771">
        <ele>90.49791</ele>
        <time>2021-08-27T08:37:46.000Z</time>
      </trkpt>
      <trkpt lat="45.37996" lon="10.69777">
        <ele>90.494714</ele>
        <time>2021-08-27T08:37:47.000Z</time>
      </trkpt>
      <trkpt lat="45.37987" lon="10.6978">
        <ele>90.488175</ele>
        <time>2021-08-27T08:37:49.000Z</time>
      </trkpt>
      <trkpt lat="45.37985" lon="10.69794">
        <ele>90.480793</ele>
        <time>2021-08-27T08:37:51.000Z</time>
      </trkpt>
      <trkpt lat="45.37969" lon="10.69808">
        <ele>90.467653</ele>
        <time>2021-08-27T08:37:56.000Z</time>
      </trkpt>
      <trkpt lat="45.37959" lon="10.69819">
        <ele>90.458916</ele>
        <time>2021-08-27T08:37:59.000Z</time>
      </trkpt>
      <trkpt lat="45.37949" lon="10.69826">
        <ele>90.450781</ele>
        <time>2021-08-27T08:38:02.000Z</time>
      </trkpt>
      <trkpt lat="45.37936" lon="10.69833">
        <ele>90.441115</ele>
        <time>2021-08-27T08:38:05.000Z</time>
      </trkpt>
      <trkpt lat="45.37904" lon="10.69856">
        <ele>90.415703</ele>
        <time>2021-08-27T08:38:13.000Z</time>
      </trkpt>
      <trkpt lat="45.37889" lon="10.69868">
        <ele>90.403035</ele>
        <time>2021-08-27T08:38:17.000Z</time>
      </trkpt>
      <trkpt lat="45.37869" lon="10.69883">
        <ele>90.386943</ele>
        <time>2021-08-27T08:38:22.000Z</time>
      </trkpt>
      <trkpt lat="45.37861" lon="10.6989">
        <ele>90.38035</ele>
        <time>2021-08-27T08:38:24.000Z</time>
      </trkpt>
      <trkpt lat="45.37844" lon="10.699">
        <ele>90.361109</ele>
        <time>2021-08-27T08:38:28.000Z</time>
      </trkpt>
      <trkpt lat="45.37812" lon="10.69922">
        <ele>90.28435</ele>
        <time>2021-08-27T08:38:36.000Z</time>
      </trkpt>
      <trkpt lat="45.37781" lon="10.69942">
        <ele>90.211381</ele>
        <time>2021-08-27T08:38:44.000Z</time>
      </trkpt>
      <trkpt lat="45.37772" lon="10.69946">
        <ele>90.190932</ele>
        <time>2021-08-27T08:38:46.000Z</time>
      </trkpt>
      <trkpt lat="45.3776" lon="10.69955">
        <ele>90.162495</ele>
        <time>2021-08-27T08:38:49.000Z</time>
      </trkpt>
      <trkpt lat="45.37753" lon="10.69961">
        <ele>90.144642</ele>
        <time>2021-08-27T08:38:51.000Z</time>
      </trkpt>
      <trkpt lat="45.37745" lon="10.69966">
        <ele>90.126498</ele>
        <time>2021-08-27T08:38:53.000Z</time>
      </trkpt>
      <trkpt lat="45.3774" lon="10.69968">
        <ele>90.114147</ele>
        <time>2021-08-27T08:38:54.000Z</time>
      </trkpt>
      <trkpt lat="45.37732" lon="10.69973">
        <ele>90.095061</ele>
        <time>2021-08-27T08:38:56.000Z</time>
      </trkpt>
      <trkpt lat="45.37722" lon="10.69977">
        <ele>90.074139</ele>
        <time>2021-08-27T08:38:58.000Z</time>
      </trkpt>
      <trkpt lat="45.3772" lon="10.6998">
        <ele>90.066491</ele>
        <time>2021-08-27T08:38:59.000Z</time>
      </trkpt>
      <trkpt lat="45.37708" lon="10.6999">
        <ele>90.03664</ele>
        <time>2021-08-27T08:39:02.000Z</time>
      </trkpt>
      <trkpt lat="45.37704" lon="10.69993">
        <ele>90.027055</ele>
        <time>2021-08-27T08:39:03.000Z</time>
      </trkpt>
      <trkpt lat="45.37699" lon="10.69995">
        <ele>90.017585</ele>
        <time>2021-08-27T08:39:04.000Z</time>
      </trkpt>
      <trkpt lat="45.37688" lon="10.70002">
        <ele>89.99045</ele>
        <time>2021-08-27T08:39:07.000Z</time>
      </trkpt>
      <trkpt lat="45.37666" lon="10.70017">
        <ele>89.952435</ele>
        <time>2021-08-27T08:39:13.000Z</time>
      </trkpt>
      <trkpt lat="45.37631" lon="10.70039">
        <ele>89.897028</ele>
        <time>2021-08-27T08:39:22.000Z</time>
      </trkpt>
      <trkpt lat="45.37597" lon="10.70065">
        <ele>89.841199</ele>
        <time>2021-08-27T08:39:30.000Z</time>
      </trkpt>
      <trkpt lat="45.37564" lon="10.70085">
        <ele>89.788378</ele>
        <time>2021-08-27T08:39:38.000Z</time>
      </trkpt>
      <trkpt lat="45.37533" lon="10.70108">
        <ele>89.737315</ele>
        <time>2021-08-27T08:39:46.000Z</time>
      </trkpt>
      <trkpt lat="45.37497" lon="10.70132">
        <ele>89.692656</ele>
        <time>2021-08-27T08:39:55.000Z</time>
      </trkpt>
      <trkpt lat="45.3749" lon="10.70136">
        <ele>89.685033</ele>
        <time>2021-08-27T08:39:57.000Z</time>
      </trkpt>
      <trkpt lat="45.37454" lon="10.70159">
        <ele>89.645269</ele>
        <time>2021-08-27T08:40:06.000Z</time>
      </trkpt>
      <trkpt lat="45.37431" lon="10.70177">
        <ele>89.61815</ele>
        <time>2021-08-27T08:40:13.000Z</time>
      </trkpt>
      <trkpt lat="45.37427" lon="10.7018">
        <ele>89.613984</ele>
        <time>2021-08-27T08:40:14.000Z</time>
      </trkpt>
      <trkpt lat="45.37394" lon="10.70207">
        <ele>89.575368</ele>
        <time>2021-08-27T08:40:23.000Z</time>
      </trkpt>
      <trkpt lat="45.37361" lon="10.70237">
        <ele>89.529276</ele>
        <time>2021-08-27T08:40:32.000Z</time>
      </trkpt>
      <trkpt lat="45.37333" lon="10.70266">
        <ele>89.44096</ele>
        <time>2021-08-27T08:40:40.000Z</time>
      </trkpt>
      <trkpt lat="45.37322" lon="10.70277">
        <ele>89.407418</ele>
        <time>2021-08-27T08:40:43.000Z</time>
      </trkpt>
      <trkpt lat="45.37319" lon="10.70281">
        <ele>89.397175</ele>
        <time>2021-08-27T08:40:44.000Z</time>
      </trkpt>
      <trkpt lat="45.37292" lon="10.70313">
        <ele>89.30643</ele>
        <time>2021-08-27T08:40:52.000Z</time>
      </trkpt>
      <trkpt lat="45.37279" lon="10.7033">
        <ele>89.260904</ele>
        <time>2021-08-27T08:40:56.000Z</time>
      </trkpt>
      <trkpt lat="45.37272" lon="10.70339">
        <ele>89.236795</ele>
        <time>2021-08-27T08:40:58.000Z</time>
      </trkpt>
      <trkpt lat="45.37258" lon="10.70355">
        <ele>89.190287</ele>
        <time>2021-08-27T08:41:02.000Z</time>
      </trkpt>
      <trkpt lat="45.37251" lon="10.70364">
        <ele>89.167587</ele>
        <time>2021-08-27T08:41:04.000Z</time>
      </trkpt>
      <trkpt lat="45.37245" lon="10.70372">
        <ele>89.144254</ele>
        <time>2021-08-27T08:41:06.000Z</time>
      </trkpt>
      <trkpt lat="45.37236" lon="10.70379">
        <ele>89.11982</ele>
        <time>2021-08-27T08:41:08.000Z</time>
      </trkpt>
      <trkpt lat="45.37234" lon="10.70383">
        <ele>89.110573</ele>
        <time>2021-08-27T08:41:09.000Z</time>
      </trkpt>
      <trkpt lat="45.3722" lon="10.70402">
        <ele>89.076369</ele>
        <time>2021-08-27T08:41:13.000Z</time>
      </trkpt>
      <trkpt lat="45.37204" lon="10.70417">
        <ele>89.070282</ele>
        <time>2021-08-27T08:41:17.000Z</time>
      </trkpt>
      <trkpt lat="45.3718" lon="10.70447">
        <ele>89.060066</ele>
        <time>2021-08-27T08:41:24.000Z</time>
      </trkpt>
      <trkpt lat="45.37176" lon="10.70452">
        <ele>89.058551</ele>
        <time>2021-08-27T08:41:25.000Z</time>
      </trkpt>
      <trkpt lat="45.37174" lon="10.70455">
        <ele>89.057393</ele>
        <time>2021-08-27T08:41:26.000Z</time>
      </trkpt>
      <trkpt lat="45.37156" lon="10.70477">
        <ele>89.050032</ele>
        <time>2021-08-27T08:41:31.000Z</time>
      </trkpt>
      <trkpt lat="45.37147" lon="10.70489">
        <ele>89.045979</ele>
        <time>2021-08-27T08:41:34.000Z</time>
      </trkpt>
      <trkpt lat="45.37144" lon="10.70493">
        <ele>89.044673</ele>
        <time>2021-08-27T08:41:35.000Z</time>
      </trkpt>
      <trkpt lat="45.37135" lon="10.70503">
        <ele>89.041056</ele>
        <time>2021-08-27T08:41:38.000Z</time>
      </trkpt>
      <trkpt lat="45.37132" lon="10.70505">
        <ele>89.040066</ele>
        <time>2021-08-27T08:41:39.000Z</time>
      </trkpt>
      <trkpt lat="45.37107" lon="10.70536">
        <ele>89.029534</ele>
        <time>2021-08-27T08:41:47.000Z</time>
      </trkpt>
      <trkpt lat="45.37079" lon="10.70571">
        <ele>89.007117</ele>
        <time>2021-08-27T08:41:56.000Z</time>
      </trkpt>
      <trkpt lat="45.37075" lon="10.70576">
        <ele>89.000685</ele>
        <time>2021-08-27T08:41:57.000Z</time>
      </trkpt>
      <trkpt lat="45.37057" lon="10.70596">
        <ele>88.972362</ele>
        <time>2021-08-27T08:42:02.000Z</time>
      </trkpt>
      <trkpt lat="45.3703" lon="10.70626">
        <ele>88.930298</ele>
        <time>2021-08-27T08:42:10.000Z</time>
      </trkpt>
      <trkpt lat="45.37016" lon="10.70644">
        <ele>88.90711</ele>
        <time>2021-08-27T08:42:14.000Z</time>
      </trkpt>
      <trkpt lat="45.37003" lon="10.70661">
        <ele>88.884843</ele>
        <time>2021-08-27T08:42:18.000Z</time>
      </trkpt>
      <trkpt lat="45.36974" lon="10.70703">
        <ele>88.834466</ele>
        <time>2021-08-27T08:42:27.000Z</time>
      </trkpt>
      <trkpt lat="45.36953" lon="10.7075">
        <ele>88.792621</ele>
        <time>2021-08-27T08:42:36.000Z</time>
      </trkpt>
      <trkpt lat="45.36941" lon="10.7078">
        <ele>88.776663</ele>
        <time>2021-08-27T08:42:42.000Z</time>
      </trkpt>
      <trkpt lat="45.36937" lon="10.70791">
        <ele>88.771015</ele>
        <time>2021-08-27T08:42:44.000Z</time>
      </trkpt>
      <trkpt lat="45.36928" lon="10.70827">
        <ele>88.753583</ele>
        <time>2021-08-27T08:42:51.000Z</time>
      </trkpt>
      <trkpt lat="45.36922" lon="10.70855">
        <ele>88.740069</ele>
        <time>2021-08-27T08:42:57.000Z</time>
      </trkpt>
      <trkpt lat="45.36921" lon="10.70861">
        <ele>88.737635</ele>
        <time>2021-08-27T08:42:58.000Z</time>
      </trkpt>
      <trkpt lat="45.36916" lon="10.709">
        <ele>88.719244</ele>
        <time>2021-08-27T08:43:05.000Z</time>
      </trkpt>
      <trkpt lat="45.36913" lon="10.70948">
        <ele>88.697387</ele>
        <time>2021-08-27T08:43:13.000Z</time>
      </trkpt>
      <trkpt lat="45.36914" lon="10.70977">
        <ele>88.683799</ele>
        <time>2021-08-27T08:43:18.000Z</time>
      </trkpt>
      <trkpt lat="45.36914" lon="10.70989">
        <ele>88.691091</ele>
        <time>2021-08-27T08:43:20.000Z</time>
      </trkpt>
      <trkpt lat="45.36915" lon="10.71035">
        <ele>88.739887</ele>
        <time>2021-08-27T08:43:28.000Z</time>
      </trkpt>
      <trkpt lat="45.36917" lon="10.71081">
        <ele>88.788212</ele>
        <time>2021-08-27T08:43:36.000Z</time>
      </trkpt>
      <trkpt lat="45.3692" lon="10.71147">
        <ele>88.857633</ele>
        <time>2021-08-27T08:43:47.000Z</time>
      </trkpt>
      <trkpt lat="45.36921" lon="10.7116">
        <ele>88.870959</ele>
        <time>2021-08-27T08:43:49.000Z</time>
      </trkpt>
      <trkpt lat="45.36922" lon="10.71212">
        <ele>88.924782</ele>
        <time>2021-08-27T08:43:57.000Z</time>
      </trkpt>
      <trkpt lat="45.36923" lon="10.71253">
        <ele>88.931326</ele>
        <time>2021-08-27T08:44:04.000Z</time>
      </trkpt>
      <trkpt lat="45.36925" lon="10.71309">
        <ele>88.867463</ele>
        <time>2021-08-27T08:44:13.000Z</time>
      </trkpt>
      <trkpt lat="45.36925" lon="10.71328">
        <ele>88.846101</ele>
        <time>2021-08-27T08:44:16.000Z</time>
      </trkpt>
      <trkpt lat="45.36922" lon="10.71366">
        <ele>88.801861</ele>
        <time>2021-08-27T08:44:22.000Z</time>
      </trkpt>
      <trkpt lat="45.36909" lon="10.7143">
        <ele>88.726925</ele>
        <time>2021-08-27T08:44:32.000Z</time>
      </trkpt>
      <trkpt lat="45.369" lon="10.71474">
        <ele>88.674404</ele>
        <time>2021-08-27T08:44:39.000Z</time>
      </trkpt>
      <trkpt lat="45.36884" lon="10.71536">
        <ele>88.654935</ele>
        <time>2021-08-27T08:44:50.000Z</time>
      </trkpt>
      <trkpt lat="45.36879" lon="10.71559">
        <ele>88.652829</ele>
        <time>2021-08-27T08:44:54.000Z</time>
      </trkpt>
      <trkpt lat="45.36874" lon="10.71581">
        <ele>88.650749</ele>
        <time>2021-08-27T08:44:58.000Z</time>
      </trkpt>
      <trkpt lat="45.36868" lon="10.71605">
        <ele>88.648494</ele>
        <time>2021-08-27T08:45:02.000Z</time>
      </trkpt>
      <trkpt lat="45.36865" lon="10.71617">
        <ele>88.647404</ele>
        <time>2021-08-27T08:45:04.000Z</time>
      </trkpt>
      <trkpt lat="45.36863" lon="10.71623">
        <ele>88.646807</ele>
        <time>2021-08-27T08:45:05.000Z</time>
      </trkpt>
      <trkpt lat="45.3685" lon="10.71675">
        <ele>88.641989</ele>
        <time>2021-08-27T08:45:14.000Z</time>
      </trkpt>
      <trkpt lat="45.36846" lon="10.71696">
        <ele>88.640071</ele>
        <time>2021-08-27T08:45:18.000Z</time>
      </trkpt>
      <trkpt lat="45.36838" lon="10.71728">
        <ele>88.637104</ele>
        <time>2021-08-27T08:45:24.000Z</time>
      </trkpt>
      <trkpt lat="45.36837" lon="10.71733">
        <ele>88.635011</ele>
        <time>2021-08-27T08:45:25.000Z</time>
      </trkpt>
      <trkpt lat="45.36824" lon="10.7179">
        <ele>88.612365</ele>
        <time>2021-08-27T08:45:35.000Z</time>
      </trkpt>
      <trkpt lat="45.36814" lon="10.71836">
        <ele>88.593722</ele>
        <time>2021-08-27T08:45:43.000Z</time>
      </trkpt>
      <trkpt lat="45.3681" lon="10.71853">
        <ele>88.586942</ele>
        <time>2021-08-27T08:45:46.000Z</time>
      </trkpt>
      <trkpt lat="45.36805" lon="10.71869">
        <ele>88.58029</ele>
        <time>2021-08-27T08:45:49.000Z</time>
      </trkpt>
      <trkpt lat="45.36793" lon="10.71913">
        <ele>88.562153</ele>
        <time>2021-08-27T08:45:57.000Z</time>
      </trkpt>
      <trkpt lat="45.36789" lon="10.71924">
        <ele>88.557364</ele>
        <time>2021-08-27T08:45:59.000Z</time>
      </trkpt>
      <trkpt lat="45.36775" lon="10.71969">
        <ele>88.538181</ele>
        <time>2021-08-27T08:46:07.000Z</time>
      </trkpt>
      <trkpt lat="45.36767" lon="10.71992">
        <ele>88.527211</ele>
        <time>2021-08-27T08:46:11.000Z</time>
      </trkpt>
      <trkpt lat="45.36752" lon="10.72031">
        <ele>88.50785</ele>
        <time>2021-08-27T08:46:18.000Z</time>
      </trkpt>
      <trkpt lat="45.36728" lon="10.72086">
        <ele>88.479481</ele>
        <time>2021-08-27T08:46:28.000Z</time>
      </trkpt>
      <trkpt lat="45.36704" lon="10.72138">
        <ele>88.45222</ele>
        <time>2021-08-27T08:46:38.000Z</time>
      </trkpt>
      <trkpt lat="45.36679" lon="10.72185">
        <ele>88.420941</ele>
        <time>2021-08-27T08:46:48.000Z</time>
      </trkpt>
      <trkpt lat="45.36663" lon="10.72214">
        <ele>88.266712</ele>
        <time>2021-08-27T08:46:54.000Z</time>
      </trkpt>
      <trkpt lat="45.36652" lon="10.72232">
        <ele>88.166742</ele>
        <time>2021-08-27T08:46:58.000Z</time>
      </trkpt>
      <trkpt lat="45.36632" lon="10.72265">
        <ele>87.981937</ele>
        <time>2021-08-27T08:47:05.000Z</time>
      </trkpt>
      <trkpt lat="45.36603" lon="10.72308">
        <ele>87.725916</ele>
        <time>2021-08-27T08:47:15.000Z</time>
      </trkpt>
      <trkpt lat="45.36593" lon="10.72321">
        <ele>87.64616</ele>
        <time>2021-08-27T08:47:18.000Z</time>
      </trkpt>
      <trkpt lat="45.3659" lon="10.72325">
        <ele>87.619609</ele>
        <time>2021-08-27T08:47:19.000Z</time>
      </trkpt>
      <trkpt lat="45.36569" lon="10.7235">
        <ele>87.456638</ele>
        <time>2021-08-27T08:47:25.000Z</time>
      </trkpt>
      <trkpt lat="45.36558" lon="10.72362">
        <ele>87.376521</ele>
        <time>2021-08-27T08:47:28.000Z</time>
      </trkpt>
      <trkpt lat="45.36538" lon="10.72386">
        <ele>87.743413</ele>
        <time>2021-08-27T08:47:34.000Z</time>
      </trkpt>
      <trkpt lat="45.36524" lon="10.72404">
        <ele>88.095421</ele>
        <time>2021-08-27T08:47:38.000Z</time>
      </trkpt>
      <trkpt lat="45.3651" lon="10.72422">
        <ele>88.461724</ele>
        <time>2021-08-27T08:47:42.000Z</time>
      </trkpt>
      <trkpt lat="45.36507" lon="10.72426">
        <ele>88.528161</ele>
        <time>2021-08-27T08:47:43.000Z</time>
      </trkpt>
      <trkpt lat="45.36495" lon="10.72441">
        <ele>88.838662</ele>
        <time>2021-08-27T08:47:47.000Z</time>
      </trkpt>
      <trkpt lat="45.36492" lon="10.72446">
        <ele>88.918812</ele>
        <time>2021-08-27T08:47:48.000Z</time>
      </trkpt>
      <trkpt lat="45.36485" lon="10.72453">
        <ele>89.084607</ele>
        <time>2021-08-27T08:47:50.000Z</time>
      </trkpt>
      <trkpt lat="45.36458" lon="10.72493">
        <ele>89.819027</ele>
        <time>2021-08-27T08:48:00.000Z</time>
      </trkpt>
      <trkpt lat="45.36458" lon="10.72497">
        <ele>89.878574</ele>
        <time>2021-08-27T08:48:01.000Z</time>
      </trkpt>
      <trkpt lat="45.36459" lon="10.72505">
        <ele>89.981436</ele>
        <time>2021-08-27T08:48:03.000Z</time>
      </trkpt>
      <trkpt lat="45.36471" lon="10.72531">
        <ele>90.394889</ele>
        <time>2021-08-27T08:48:10.000Z</time>
      </trkpt>
      <trkpt lat="45.36475" lon="10.7254">
        <ele>90.537295</ele>
        <time>2021-08-27T08:48:12.000Z</time>
      </trkpt>
      <trkpt lat="45.3649" lon="10.72563">
        <ele>90.990825</ele>
        <time>2021-08-27T08:48:18.000Z</time>
      </trkpt>
      <trkpt lat="45.365" lon="10.72573">
        <ele>91.285944</ele>
        <time>2021-08-27T08:48:23.000Z</time>
      </trkpt>
      <trkpt lat="45.36505" lon="10.72581">
        <ele>91.470788</ele>
        <time>2021-08-27T08:48:27.000Z</time>
      </trkpt>
      <trkpt lat="45.36507" lon="10.7259">
        <ele>91.619411</ele>
        <time>2021-08-27T08:48:30.000Z</time>
      </trkpt>
      <trkpt lat="45.36509" lon="10.72596">
        <ele>91.733471</ele>
        <time>2021-08-27T08:48:32.000Z</time>
      </trkpt>
      <trkpt lat="45.36511" lon="10.72608">
        <ele>91.927238</ele>
        <time>2021-08-27T08:48:36.000Z</time>
      </trkpt>
      <trkpt lat="45.3651" lon="10.72613">
        <ele>92.013731</ele>
        <time>2021-08-27T08:48:38.000Z</time>
      </trkpt>
      <trkpt lat="45.36509" lon="10.72617">
        <ele>92.095139</ele>
        <time>2021-08-27T08:48:42.000Z</time>
      </trkpt>
      <trkpt lat="45.36509" lon="10.72617">
        <ele>92.095139</ele>
        <time>2021-08-27T08:48:43.000Z</time>
      </trkpt>
      <trkpt lat="45.36509" lon="10.72618">
        <ele>92.108401</ele>
        <time>2021-08-27T08:48:52.000Z</time>
      </trkpt>
      <trkpt lat="45.36509" lon="10.72618">
        <ele>92.108401</ele>
        <time>2021-08-27T08:48:57.000Z</time>
      </trkpt>
      <trkpt lat="45.36509" lon="10.72618">
        <ele>92.108401</ele>
        <time>2021-08-27T08:48:59.000Z</time>
      </trkpt>
      <trkpt lat="45.36509" lon="10.72618">
        <ele>92.108401</ele>
        <time>2021-08-27T08:49:02.000Z</time>
      </trkpt>
      <trkpt lat="45.36509" lon="10.72618">
        <ele>92.108401</ele>
        <time>2021-08-27T08:49:06.000Z</time>
      </trkpt>
      <trkpt lat="45.36509" lon="10.72618">
        <ele>92.108401</ele>
        <time>2021-08-27T08:49:24.000Z</time>
      </trkpt>
      <trkpt lat="45.36509" lon="10.72618">
        <ele>92.108401</ele>
        <time>2021-08-27T08:49:34.000Z</time>
      </trkpt>
      <trkpt lat="45.36509" lon="10.72618">
        <ele>92.108401</ele>
        <time>2021-08-27T08:49:48.000Z</time>
      </trkpt>
      <trkpt lat="45.36509" lon="10.72618">
        <ele>92.108401</ele>
        <time>2021-08-27T08:49:56.000Z</time>
      </trkpt>
      <trkpt lat="45.36509" lon="10.72618">
        <ele>92.108401</ele>
        <time>2021-08-27T08:49:58.000Z</time>
      </trkpt>
      <trkpt lat="45.36509" lon="10.72618">
        <ele>92.108401</ele>
        <time>2021-08-27T08:50:01.000Z</time>
      </trkpt>
      <trkpt lat="45.36509" lon="10.72618">
        <ele>92.108401</ele>
        <time>2021-08-27T08:50:10.000Z</time>
      </trkpt>
      <trkpt lat="45.36509" lon="10.72618">
        <ele>92.108401</ele>
        <time>2021-08-27T08:50:19.000Z</time>
      </trkpt>
      <trkpt lat="45.36509" lon="10.72618">
        <ele>92.108401</ele>
        <time>2021-08-27T08:50:23.000Z</time>
      </trkpt>
      <trkpt lat="45.36509" lon="10.72618">
        <ele>92.108401</ele>
        <time>2021-08-27T08:50:33.000Z</time>
      </trkpt>
      <trkpt lat="45.36509" lon="10.72618">
        <ele>92.108401</ele>
        <time>2021-08-27T08:50:54.000Z</time>
      </trkpt>
      <trkpt lat="45.36509" lon="10.72621">
        <ele>92.147679</ele>
        <time>2021-08-27T08:51:11.000Z</time>
      </trkpt>
      <trkpt lat="45.36507" lon="10.72625">
        <ele>92.227825</ele>
        <time>2021-08-27T08:51:13.000Z</time>
      </trkpt>
      <trkpt lat="45.36498" lon="10.72636">
        <ele>92.51168</ele>
        <time>2021-08-27T08:51:17.000Z</time>
      </trkpt>
      <trkpt lat="45.36479" lon="10.72656">
        <ele>93.081781</ele>
        <time>2021-08-27T08:51:23.000Z</time>
      </trkpt>
      <trkpt lat="45.36475" lon="10.7266">
        <ele>93.188475</ele>
        <time>2021-08-27T08:51:24.000Z</time>
      </trkpt>
      <trkpt lat="45.36458" lon="10.72674">
        <ele>93.648321</ele>
        <time>2021-08-27T08:51:28.000Z</time>
      </trkpt>
      <trkpt lat="45.36454" lon="10.72678">
        <ele>93.759986</ele>
        <time>2021-08-27T08:51:29.000Z</time>
      </trkpt>
      <trkpt lat="45.36433" lon="10.72697">
        <ele>94.35798</ele>
        <time>2021-08-27T08:51:35.000Z</time>
      </trkpt>
      <trkpt lat="45.36411" lon="10.72716">
        <ele>94.960857</ele>
        <time>2021-08-27T08:51:41.000Z</time>
      </trkpt>
      <trkpt lat="45.36402" lon="10.72726">
        <ele>94.966978</ele>
        <time>2021-08-27T08:51:44.000Z</time>
      </trkpt>
      <trkpt lat="45.36388" lon="10.72739">
        <ele>94.929468</ele>
        <time>2021-08-27T08:51:48.000Z</time>
      </trkpt>
      <trkpt lat="45.36376" lon="10.7275">
        <ele>94.897676</ele>
        <time>2021-08-27T08:51:51.000Z</time>
      </trkpt>
      <trkpt lat="45.36365" lon="10.72759">
        <ele>94.869035</ele>
        <time>2021-08-27T08:51:54.000Z</time>
      </trkpt>
      <trkpt lat="45.36355" lon="10.72766">
        <ele>94.843273</ele>
        <time>2021-08-27T08:51:56.000Z</time>
      </trkpt>
      <trkpt lat="45.36343" lon="10.72776">
        <ele>94.81205</ele>
        <time>2021-08-27T08:51:59.000Z</time>
      </trkpt>
      <trkpt lat="45.36339" lon="10.72779">
        <ele>94.80269</ele>
        <time>2021-08-27T08:52:00.000Z</time>
      </trkpt>
      <trkpt lat="45.36321" lon="10.72794">
        <ele>94.754315</ele>
        <time>2021-08-27T08:52:05.000Z</time>
      </trkpt>
      <trkpt lat="45.36289" lon="10.7282">
        <ele>94.671565</ele>
        <time>2021-08-27T08:52:13.000Z</time>
      </trkpt>
      <trkpt lat="45.36278" lon="10.72827">
        <ele>94.644129</ele>
        <time>2021-08-27T08:52:16.000Z</time>
      </trkpt>
      <trkpt lat="45.36274" lon="10.7283">
        <ele>94.633549</ele>
        <time>2021-08-27T08:52:17.000Z</time>
      </trkpt>
      <trkpt lat="45.3627" lon="10.72831">
        <ele>94.624482</ele>
        <time>2021-08-27T08:52:18.000Z</time>
      </trkpt>
      <trkpt lat="45.36262" lon="10.72835">
        <ele>94.606137</ele>
        <time>2021-08-27T08:52:20.000Z</time>
      </trkpt>
      <trkpt lat="45.36245" lon="10.72846">
        <ele>94.556407</ele>
        <time>2021-08-27T08:52:24.000Z</time>
      </trkpt>
      <trkpt lat="45.36231" lon="10.72854">
        <ele>94.513971</ele>
        <time>2021-08-27T08:52:27.000Z</time>
      </trkpt>
      <trkpt lat="45.36228" lon="10.72857">
        <ele>94.503038</ele>
        <time>2021-08-27T08:52:28.000Z</time>
      </trkpt>
      <trkpt lat="45.36215" lon="10.72867">
        <ele>94.45876</ele>
        <time>2021-08-27T08:52:31.000Z</time>
      </trkpt>
      <trkpt lat="45.36203" lon="10.72875">
        <ele>94.421668</ele>
        <time>2021-08-27T08:52:34.000Z</time>
      </trkpt>
      <trkpt lat="45.36199" lon="10.72877">
        <ele>94.40747</ele>
        <time>2021-08-27T08:52:35.000Z</time>
      </trkpt>
      <trkpt lat="45.36188" lon="10.7288">
        <ele>94.375536</ele>
        <time>2021-08-27T08:52:38.000Z</time>
      </trkpt>
      <trkpt lat="45.3617" lon="10.72885">
        <ele>94.320595</ele>
        <time>2021-08-27T08:52:42.000Z</time>
      </trkpt>
      <trkpt lat="45.36158" lon="10.72889">
        <ele>94.284018</ele>
        <time>2021-08-27T08:52:45.000Z</time>
      </trkpt>
      <trkpt lat="45.36132" lon="10.72896">
        <ele>94.206249</ele>
        <time>2021-08-27T08:52:51.000Z</time>
      </trkpt>
      <trkpt lat="45.36128" lon="10.72896">
        <ele>94.196808</ele>
        <time>2021-08-27T08:52:52.000Z</time>
      </trkpt>
      <trkpt lat="45.36087" lon="10.72902">
        <ele>94.075404</ele>
        <time>2021-08-27T08:53:01.000Z</time>
      </trkpt>
      <trkpt lat="45.36084" lon="10.72902">
        <ele>94.065066</ele>
        <time>2021-08-27T08:53:02.000Z</time>
      </trkpt>
      <trkpt lat="45.3606" lon="10.72905">
        <ele>94.075317</ele>
        <time>2021-08-27T08:53:07.000Z</time>
      </trkpt>
      <trkpt lat="45.36042" lon="10.72909">
        <ele>94.092011</ele>
        <time>2021-08-27T08:53:11.000Z</time>
      </trkpt>
      <trkpt lat="45.36033" lon="10.72909">
        <ele>94.100103</ele>
        <time>2021-08-27T08:53:13.000Z</time>
      </trkpt>
      <trkpt lat="45.36025" lon="10.7291">
        <ele>94.107554</ele>
        <time>2021-08-27T08:53:15.000Z</time>
      </trkpt>
      <trkpt lat="45.36021" lon="10.72911">
        <ele>94.111291</ele>
        <time>2021-08-27T08:53:16.000Z</time>
      </trkpt>
      <trkpt lat="45.36016" lon="10.72911">
        <ele>94.115675</ele>
        <time>2021-08-27T08:53:17.000Z</time>
      </trkpt>
      <trkpt lat="45.36004" lon="10.72912">
        <ele>94.127479</ele>
        <time>2021-08-27T08:53:20.000Z</time>
      </trkpt>
      <trkpt lat="45.35999" lon="10.72912">
        <ele>94.131938</ele>
        <time>2021-08-27T08:53:21.000Z</time>
      </trkpt>
      <trkpt lat="45.35995" lon="10.72911">
        <ele>94.135938</ele>
        <time>2021-08-27T08:53:22.000Z</time>
      </trkpt>
      <trkpt lat="45.35986" lon="10.7291">
        <ele>94.143881</ele>
        <time>2021-08-27T08:53:24.000Z</time>
      </trkpt>
      <trkpt lat="45.35976" lon="10.72909">
        <ele>94.152921</ele>
        <time>2021-08-27T08:53:26.000Z</time>
      </trkpt>
      <trkpt lat="45.35968" lon="10.72909">
        <ele>94.160633</ele>
        <time>2021-08-27T08:53:28.000Z</time>
      </trkpt>
      <trkpt lat="45.35944" lon="10.7291">
        <ele>94.183415</ele>
        <time>2021-08-27T08:53:34.000Z</time>
      </trkpt>
      <trkpt lat="45.35919" lon="10.72911">
        <ele>94.206465</ele>
        <time>2021-08-27T08:53:40.000Z</time>
      </trkpt>
      <trkpt lat="45.35891" lon="10.72906">
        <ele>94.235321</ele>
        <time>2021-08-27T08:53:47.000Z</time>
      </trkpt>
      <trkpt lat="45.35876" lon="10.72901">
        <ele>94.254987</ele>
        <time>2021-08-27T08:53:50.000Z</time>
      </trkpt>
      <trkpt lat="45.35863" lon="10.72899">
        <ele>94.27072</ele>
        <time>2021-08-27T08:53:54.000Z</time>
      </trkpt>
      <trkpt lat="45.3585" lon="10.72895">
        <ele>94.287035</ele>
        <time>2021-08-27T08:53:57.000Z</time>
      </trkpt>
      <trkpt lat="45.35837" lon="10.72891">
        <ele>94.303985</ele>
        <time>2021-08-27T08:54:01.000Z</time>
      </trkpt>
      <trkpt lat="45.35833" lon="10.7289">
        <ele>94.30878</ele>
        <time>2021-08-27T08:54:02.000Z</time>
      </trkpt>
      <trkpt lat="45.35814" lon="10.72887">
        <ele>94.332175</ele>
        <time>2021-08-27T08:54:08.000Z</time>
      </trkpt>
      <trkpt lat="45.35806" lon="10.7289">
        <ele>94.342003</ele>
        <time>2021-08-27T08:54:12.000Z</time>
      </trkpt>
      <trkpt lat="45.35809" lon="10.72896">
        <ele>94.348002</ele>
        <time>2021-08-27T08:54:15.000Z</time>
      </trkpt>
      <trkpt lat="45.35813" lon="10.72899">
        <ele>94.353853</ele>
        <time>2021-08-27T08:54:20.000Z</time>
      </trkpt>
      <trkpt lat="45.35813" lon="10.72899">
        <ele>94.354066</ele>
        <time>2021-08-27T08:54:26.000Z</time>
      </trkpt>
      <trkpt lat="45.35813" lon="10.72899">
        <ele>94.354066</ele>
        <time>2021-08-27T08:54:30.000Z</time>
      </trkpt>
      <trkpt lat="45.35813" lon="10.72899">
        <ele>94.354066</ele>
        <time>2021-08-27T08:54:39.000Z</time>
      </trkpt>
      <trkpt lat="45.35813" lon="10.72899">
        <ele>94.354066</ele>
        <time>2021-08-27T08:54:42.000Z</time>
      </trkpt>
      <trkpt lat="45.35813" lon="10.729">
        <ele>94.35424</ele>
        <time>2021-08-27T08:54:45.000Z</time>
      </trkpt>
      <trkpt lat="45.35813" lon="10.729">
        <ele>94.354501</ele>
        <time>2021-08-27T08:54:51.000Z</time>
      </trkpt>
      <trkpt lat="45.35813" lon="10.729">
        <ele>94.354501</ele>
        <time>2021-08-27T08:54:53.000Z</time>
      </trkpt>
      <trkpt lat="45.35813" lon="10.729">
        <ele>94.354501</ele>
        <time>2021-08-27T08:54:55.000Z</time>
      </trkpt>
      <trkpt lat="45.35813" lon="10.72901">
        <ele>94.355742</ele>
        <time>2021-08-27T08:55:10.000Z</time>
      </trkpt>
      <trkpt lat="45.35813" lon="10.72901">
        <ele>94.355742</ele>
        <time>2021-08-27T08:55:14.000Z</time>
      </trkpt>
      <trkpt lat="45.35813" lon="10.72901">
        <ele>94.355742</ele>
        <time>2021-08-27T08:55:16.000Z</time>
      </trkpt>
      <trkpt lat="45.35813" lon="10.72901">
        <ele>94.355742</ele>
        <time>2021-08-27T08:55:18.000Z</time>
      </trkpt>
      <trkpt lat="45.35813" lon="10.72901">
        <ele>94.355742</ele>
        <time>2021-08-27T08:55:22.000Z</time>
      </trkpt>
      <trkpt lat="45.35813" lon="10.72901">
        <ele>94.355829</ele>
        <time>2021-08-27T08:55:39.000Z</time>
      </trkpt>
      <trkpt lat="45.35813" lon="10.72901">
        <ele>94.355829</ele>
        <time>2021-08-27T08:55:40.000Z</time>
      </trkpt>
      <trkpt lat="45.35813" lon="10.72901">
        <ele>94.355829</ele>
        <time>2021-08-27T08:55:41.000Z</time>
      </trkpt>
      <trkpt lat="45.35813" lon="10.72901">
        <ele>94.355829</ele>
        <time>2021-08-27T08:55:42.000Z</time>
      </trkpt>
      <trkpt lat="45.35813" lon="10.72901">
        <ele>94.356281</ele>
        <time>2021-08-27T08:55:43.000Z</time>
      </trkpt>
      <trkpt lat="45.35813" lon="10.72899">
        <ele>94.357676</ele>
        <time>2021-08-27T08:55:44.000Z</time>
      </trkpt>
      <trkpt lat="45.35809" lon="10.72892">
        <ele>94.366068</ele>
        <time>2021-08-27T08:55:48.000Z</time>
      </trkpt>
      <trkpt lat="45.35797" lon="10.72885">
        <ele>94.38173</ele>
        <time>2021-08-27T08:55:53.000Z</time>
      </trkpt>
      <trkpt lat="45.35787" lon="10.72883">
        <ele>94.39472</ele>
        <time>2021-08-27T08:55:56.000Z</time>
      </trkpt>
      <trkpt lat="45.35776" lon="10.72882">
        <ele>94.40821</ele>
        <time>2021-08-27T08:55:59.000Z</time>
      </trkpt>
      <trkpt lat="45.35746" lon="10.72879">
        <ele>94.444578</ele>
        <time>2021-08-27T08:56:05.000Z</time>
      </trkpt>
      <trkpt lat="45.35743" lon="10.72879">
        <ele>94.413188</ele>
        <time>2021-08-27T08:56:06.000Z</time>
      </trkpt>
      <trkpt lat="45.35738" lon="10.72881">
        <ele>94.368479</ele>
        <time>2021-08-27T08:56:07.000Z</time>
      </trkpt>
      <trkpt lat="45.3573" lon="10.72883">
        <ele>94.284725</ele>
        <time>2021-08-27T08:56:09.000Z</time>
      </trkpt>
      <trkpt lat="45.35726" lon="10.72882">
        <ele>94.243332</ele>
        <time>2021-08-27T08:56:10.000Z</time>
      </trkpt>
      <trkpt lat="45.35713" lon="10.72883">
        <ele>94.115806</ele>
        <time>2021-08-27T08:56:13.000Z</time>
      </trkpt>
      <trkpt lat="45.35703" lon="10.72883">
        <ele>94.016726</ele>
        <time>2021-08-27T08:56:15.000Z</time>
      </trkpt>
      <trkpt lat="45.35692" lon="10.7288">
        <ele>93.914023</ele>
        <time>2021-08-27T08:56:17.000Z</time>
      </trkpt>
      <trkpt lat="45.35682" lon="10.72872">
        <ele>93.798956</ele>
        <time>2021-08-27T08:56:19.000Z</time>
      </trkpt>
      <trkpt lat="45.35662" lon="10.7287">
        <ele>93.607494</ele>
        <time>2021-08-27T08:56:23.000Z</time>
      </trkpt>
      <trkpt lat="45.35634" lon="10.72865">
        <ele>93.325903</ele>
        <time>2021-08-27T08:56:28.000Z</time>
      </trkpt>
      <trkpt lat="45.35605" lon="10.7286">
        <ele>93.043255</ele>
        <time>2021-08-27T08:56:34.000Z</time>
      </trkpt>
      <trkpt lat="45.35602" lon="10.7286">
        <ele>93.013636</ele>
        <time>2021-08-27T08:56:35.000Z</time>
      </trkpt>
      <trkpt lat="45.35598" lon="10.7286">
        <ele>92.966546</ele>
        <time>2021-08-27T08:56:36.000Z</time>
      </trkpt>
      <trkpt lat="45.3558" lon="10.72857">
        <ele>92.796619</ele>
        <time>2021-08-27T08:56:40.000Z</time>
      </trkpt>
      <trkpt lat="45.35575" lon="10.72857">
        <ele>92.747583</ele>
        <time>2021-08-27T08:56:41.000Z</time>
      </trkpt>
      <trkpt lat="45.35571" lon="10.72857">
        <ele>92.700494</ele>
        <time>2021-08-27T08:56:42.000Z</time>
      </trkpt>
      <trkpt lat="45.35531" lon="10.72854">
        <ele>92.766263</ele>
        <time>2021-08-27T08:56:50.000Z</time>
      </trkpt>
      <trkpt lat="45.35504" lon="10.7285">
        <ele>92.828583</ele>
        <time>2021-08-27T08:56:56.000Z</time>
      </trkpt>
      <trkpt lat="45.35501" lon="10.7285">
        <ele>92.835673</ele>
        <time>2021-08-27T08:56:57.000Z</time>
      </trkpt>
      <trkpt lat="45.35473" lon="10.72845">
        <ele>92.900068</ele>
        <time>2021-08-27T08:57:04.000Z</time>
      </trkpt>
      <trkpt lat="45.35441" lon="10.72836">
        <ele>92.973628</ele>
        <time>2021-08-27T08:57:13.000Z</time>
      </trkpt>
      <trkpt lat="45.3543" lon="10.72831">
        <ele>92.999538</ele>
        <time>2021-08-27T08:57:16.000Z</time>
      </trkpt>
      <trkpt lat="45.35423" lon="10.72828">
        <ele>93.015718</ele>
        <time>2021-08-27T08:57:18.000Z</time>
      </trkpt>
      <trkpt lat="45.35416" lon="10.72828">
        <ele>93.031428</ele>
        <time>2021-08-27T08:57:20.000Z</time>
      </trkpt>
      <trkpt lat="45.35396" lon="10.72817">
        <ele>93.081061</ele>
        <time>2021-08-27T08:57:26.000Z</time>
      </trkpt>
      <trkpt lat="45.35387" lon="10.72803">
        <ele>93.856851</ele>
        <time>2021-08-27T08:57:30.000Z</time>
      </trkpt>
      <trkpt lat="45.35384" lon="10.728">
        <ele>94.168458</ele>
        <time>2021-08-27T08:57:31.000Z</time>
      </trkpt>
      <trkpt lat="45.35375" lon="10.72795">
        <ele>94.92975</ele>
        <time>2021-08-27T08:57:34.000Z</time>
      </trkpt>
      <trkpt lat="45.35372" lon="10.7279">
        <ele>95.33237</ele>
        <time>2021-08-27T08:57:38.000Z</time>
      </trkpt>
      <trkpt lat="45.35372" lon="10.7279">
        <ele>95.33237</ele>
        <time>2021-08-27T08:57:44.000Z</time>
      </trkpt>
      <trkpt lat="45.35372" lon="10.7279">
        <ele>95.33237</ele>
        <time>2021-08-27T08:57:49.000Z</time>
      </trkpt>
      <trkpt lat="45.35372" lon="10.7279">
        <ele>95.33237</ele>
        <time>2021-08-27T08:57:52.000Z</time>
      </trkpt>
      <trkpt lat="45.35372" lon="10.7279">
        <ele>95.33237</ele>
        <time>2021-08-27T08:58:02.000Z</time>
      </trkpt>
      <trkpt lat="45.35371" lon="10.72791">
        <ele>95.42218</ele>
        <time>2021-08-27T08:58:10.000Z</time>
      </trkpt>
      <trkpt lat="45.35371" lon="10.72791">
        <ele>95.4413</ele>
        <time>2021-08-27T08:58:12.000Z</time>
      </trkpt>
      <trkpt lat="45.35371" lon="10.72791">
        <ele>95.4413</ele>
        <time>2021-08-27T08:58:13.000Z</time>
      </trkpt>
      <trkpt lat="45.3537" lon="10.72792">
        <ele>95.507368</ele>
        <time>2021-08-27T08:58:17.000Z</time>
      </trkpt>
      <trkpt lat="45.3537" lon="10.72792">
        <ele>95.507368</ele>
        <time>2021-08-27T08:58:18.000Z</time>
      </trkpt>
      <trkpt lat="45.3537" lon="10.72794">
        <ele>95.625188</ele>
        <time>2021-08-27T08:58:21.000Z</time>
      </trkpt>
      <trkpt lat="45.3537" lon="10.72794">
        <ele>95.625188</ele>
        <time>2021-08-27T08:58:24.000Z</time>
      </trkpt>
      <trkpt lat="45.35368" lon="10.72798">
        <ele>95.861266</ele>
        <time>2021-08-27T08:58:28.000Z</time>
      </trkpt>
      <trkpt lat="45.35367" lon="10.728">
        <ele>96.043827</ele>
        <time>2021-08-27T08:58:30.000Z</time>
      </trkpt>
      <trkpt lat="45.35367" lon="10.72802">
        <ele>96.124164</ele>
        <time>2021-08-27T08:58:31.000Z</time>
      </trkpt>
      <trkpt lat="45.35364" lon="10.72813">
        <ele>96.795144</ele>
        <time>2021-08-27T08:58:38.000Z</time>
      </trkpt>
      <trkpt lat="45.35364" lon="10.72815">
        <ele>96.945763</ele>
        <time>2021-08-27T08:58:40.000Z</time>
      </trkpt>
      <trkpt lat="45.35362" lon="10.72822">
        <ele>97.353261</ele>
        <time>2021-08-27T08:58:47.000Z</time>
      </trkpt>
      <trkpt lat="45.35362" lon="10.72824">
        <ele>97.451056</ele>
        <time>2021-08-27T08:58:49.000Z</time>
      </trkpt>
      <trkpt lat="45.35362" lon="10.72824">
        <ele>97.451056</ele>
        <time>2021-08-27T08:58:56.000Z</time>
      </trkpt>
      <trkpt lat="45.35362" lon="10.72824">
        <ele>97.451056</ele>
        <time>2021-08-27T08:59:10.000Z</time>
      </trkpt>
      <trkpt lat="45.35362" lon="10.72824">
        <ele>97.451056</ele>
        <time>2021-08-27T08:59:11.000Z</time>
      </trkpt>
      <trkpt lat="45.35362" lon="10.72824">
        <ele>97.451056</ele>
        <time>2021-08-27T08:59:12.000Z</time>
      </trkpt>
      <trkpt lat="45.35362" lon="10.72824">
        <ele>97.470177</ele>
        <time>2021-08-27T08:59:13.000Z</time>
      </trkpt>
      <trkpt lat="45.35362" lon="10.72824">
        <ele>97.494626</ele>
        <time>2021-08-27T08:59:14.000Z</time>
      </trkpt>
      <trkpt lat="45.35362" lon="10.72824">
        <ele>97.494626</ele>
        <time>2021-08-27T08:59:15.000Z</time>
      </trkpt>
      <trkpt lat="45.35362" lon="10.72824">
        <ele>97.494626</ele>
        <time>2021-08-27T08:59:16.000Z</time>
      </trkpt>
      <trkpt lat="45.35362" lon="10.72824">
        <ele>97.494626</ele>
        <time>2021-08-27T08:59:17.000Z</time>
      </trkpt>
      <trkpt lat="45.35362" lon="10.72824">
        <ele>97.494626</ele>
        <time>2021-08-27T08:59:22.000Z</time>
      </trkpt>
      <trkpt lat="45.35362" lon="10.72824">
        <ele>97.494626</ele>
        <time>2021-08-27T08:59:42.000Z</time>
      </trkpt>
      <trkpt lat="45.35362" lon="10.72825">
        <ele>97.534936</ele>
        <time>2021-08-27T08:59:55.000Z</time>
      </trkpt>
      <trkpt lat="45.35362" lon="10.72825">
        <ele>97.534936</ele>
        <time>2021-08-27T08:59:57.000Z</time>
      </trkpt>
      <trkpt lat="45.35361" lon="10.72825">
        <ele>97.551326</ele>
        <time>2021-08-27T08:59:59.000Z</time>
      </trkpt>
      <trkpt lat="45.35361" lon="10.72825">
        <ele>97.551326</ele>
        <time>2021-08-27T09:00:03.000Z</time>
      </trkpt>
      <trkpt lat="45.35361" lon="10.72825">
        <ele>97.551326</ele>
        <time>2021-08-27T09:00:10.000Z</time>
      </trkpt>
      <trkpt lat="45.35361" lon="10.72825">
        <ele>97.551326</ele>
        <time>2021-08-27T09:00:13.000Z</time>
      </trkpt>
      <trkpt lat="45.35361" lon="10.72825">
        <ele>97.551326</ele>
        <time>2021-08-27T09:00:16.000Z</time>
      </trkpt>
      <trkpt lat="45.35361" lon="10.72825">
        <ele>97.551326</ele>
        <time>2021-08-27T09:00:21.000Z</time>
      </trkpt>
      <trkpt lat="45.35361" lon="10.72829">
        <ele>97.796635</ele>
        <time>2021-08-27T09:00:27.000Z</time>
      </trkpt>
      <trkpt lat="45.35361" lon="10.72833">
        <ele>98.024929</ele>
        <time>2021-08-27T09:00:28.000Z</time>
      </trkpt>
      <trkpt lat="45.35372" lon="10.72851">
        <ele>99.370617</ele>
        <time>2021-08-27T09:00:34.000Z</time>
      </trkpt>
      <trkpt lat="45.3538" lon="10.72861">
        <ele>100.218194</ele>
        <time>2021-08-27T09:00:38.000Z</time>
      </trkpt>
      <trkpt lat="45.35388" lon="10.72869">
        <ele>101.08299</ele>
        <time>2021-08-27T09:00:42.000Z</time>
      </trkpt>
      <trkpt lat="45.35394" lon="10.72872">
        <ele>101.552565</ele>
        <time>2021-08-27T09:00:44.000Z</time>
      </trkpt>
      <trkpt lat="45.35397" lon="10.72876">
        <ele>101.91043</ele>
        <time>2021-08-27T09:00:46.000Z</time>
      </trkpt>
      <trkpt lat="45.35399" lon="10.7288">
        <ele>102.1711</ele>
        <time>2021-08-27T09:00:48.000Z</time>
      </trkpt>
      <trkpt lat="45.354" lon="10.72881">
        <ele>102.290166</ele>
        <time>2021-08-27T09:00:52.000Z</time>
      </trkpt>
      <trkpt lat="45.35403" lon="10.72882">
        <ele>102.493552</ele>
        <time>2021-08-27T09:00:54.000Z</time>
      </trkpt>
      <trkpt lat="45.35404" lon="10.72883">
        <ele>102.607454</ele>
        <time>2021-08-27T09:00:55.000Z</time>
      </trkpt>
      <trkpt lat="45.35407" lon="10.72884">
        <ele>102.918282</ele>
        <time>2021-08-27T09:00:58.000Z</time>
      </trkpt>
      <trkpt lat="45.35412" lon="10.72886">
        <ele>103.283999</ele>
        <time>2021-08-27T09:01:02.000Z</time>
      </trkpt>
      <trkpt lat="45.35416" lon="10.72888">
        <ele>103.662512</ele>
        <time>2021-08-27T09:01:06.000Z</time>
      </trkpt>
      <trkpt lat="45.35418" lon="10.7289">
        <ele>103.869841</ele>
        <time>2021-08-27T09:01:08.000Z</time>
      </trkpt>
      <trkpt lat="45.3542" lon="10.72891">
        <ele>104.037939</ele>
        <time>2021-08-27T09:01:10.000Z</time>
      </trkpt>
      <trkpt lat="45.35425" lon="10.72893">
        <ele>104.40524</ele>
        <time>2021-08-27T09:01:14.000Z</time>
      </trkpt>
      <trkpt lat="45.35431" lon="10.72896">
        <ele>104.945695</ele>
        <time>2021-08-27T09:01:20.000Z</time>
      </trkpt>
      <trkpt lat="45.35433" lon="10.72898">
        <ele>105.170328</ele>
        <time>2021-08-27T09:01:22.000Z</time>
      </trkpt>
      <trkpt lat="45.35439" lon="10.72903">
        <ele>105.755189</ele>
        <time>2021-08-27T09:01:29.000Z</time>
      </trkpt>
      <trkpt lat="45.35442" lon="10.72907">
        <ele>106.06831</ele>
        <time>2021-08-27T09:01:33.000Z</time>
      </trkpt>
      <trkpt lat="45.35445" lon="10.72913">
        <ele>106.516664</ele>
        <time>2021-08-27T09:01:38.000Z</time>
      </trkpt>
      <trkpt lat="45.35448" lon="10.72918">
        <ele>106.899664</ele>
        <time>2021-08-27T09:01:42.000Z</time>
      </trkpt>
      <trkpt lat="45.3545" lon="10.7292">
        <ele>107.064225</ele>
        <time>2021-08-27T09:01:44.000Z</time>
      </trkpt>
      <trkpt lat="45.35452" lon="10.72922">
        <ele>107.242593</ele>
        <time>2021-08-27T09:01:46.000Z</time>
      </trkpt>
      <trkpt lat="45.35452" lon="10.72923">
        <ele>107.319901</ele>
        <time>2021-08-27T09:01:47.000Z</time>
      </trkpt>
      <trkpt lat="45.35454" lon="10.72926">
        <ele>107.579676</ele>
        <time>2021-08-27T09:01:50.000Z</time>
      </trkpt>
      <trkpt lat="45.35458" lon="10.7293">
        <ele>107.951318</ele>
        <time>2021-08-27T09:01:53.000Z</time>
      </trkpt>
      <trkpt lat="45.3546" lon="10.72932">
        <ele>108.18732</ele>
        <time>2021-08-27T09:01:56.000Z</time>
      </trkpt>
      <trkpt lat="45.35463" lon="10.72935">
        <ele>108.441352</ele>
        <time>2021-08-27T09:01:59.000Z</time>
      </trkpt>
      <trkpt lat="45.35467" lon="10.7294">
        <ele>108.896021</ele>
        <time>2021-08-27T09:02:04.000Z</time>
      </trkpt>
      <trkpt lat="45.35469" lon="10.72943">
        <ele>109.146239</ele>
        <time>2021-08-27T09:02:07.000Z</time>
      </trkpt>
      <trkpt lat="45.35471" lon="10.72944">
        <ele>109.268236</ele>
        <time>2021-08-27T09:02:08.000Z</time>
      </trkpt>
      <trkpt lat="45.35473" lon="10.72946">
        <ele>109.532644</ele>
        <time>2021-08-27T09:02:10.000Z</time>
      </trkpt>
      <trkpt lat="45.35476" lon="10.72949">
        <ele>109.824384</ele>
        <time>2021-08-27T09:02:14.000Z</time>
      </trkpt>
      <trkpt lat="45.35477" lon="10.72951">
        <ele>109.991493</ele>
        <time>2021-08-27T09:02:16.000Z</time>
      </trkpt>
      <trkpt lat="45.35479" lon="10.72952">
        <ele>110.120989</ele>
        <time>2021-08-27T09:02:18.000Z</time>
      </trkpt>
      <trkpt lat="45.35483" lon="10.72958">
        <ele>110.629053</ele>
        <time>2021-08-27T09:02:24.000Z</time>
      </trkpt>
      <trkpt lat="45.35485" lon="10.72959">
        <ele>110.811562</ele>
        <time>2021-08-27T09:02:26.000Z</time>
      </trkpt>
      <trkpt lat="45.35486" lon="10.7296">
        <ele>110.913684</ele>
        <time>2021-08-27T09:02:27.000Z</time>
      </trkpt>
      <trkpt lat="45.35488" lon="10.72963">
        <ele>111.135656</ele>
        <time>2021-08-27T09:02:30.000Z</time>
      </trkpt>
      <trkpt lat="45.35488" lon="10.72964">
        <ele>111.188588</ele>
        <time>2021-08-27T09:02:31.000Z</time>
      </trkpt>
      <trkpt lat="45.35491" lon="10.72966">
        <ele>111.427785</ele>
        <time>2021-08-27T09:02:34.000Z</time>
      </trkpt>
      <trkpt lat="45.35493" lon="10.7297">
        <ele>111.73333</ele>
        <time>2021-08-27T09:02:38.000Z</time>
      </trkpt>
      <trkpt lat="45.35495" lon="10.72973">
        <ele>111.961477</ele>
        <time>2021-08-27T09:02:42.000Z</time>
      </trkpt>
      <trkpt lat="45.35498" lon="10.72975">
        <ele>112.217915</ele>
        <time>2021-08-27T09:02:47.000Z</time>
      </trkpt>
      <trkpt lat="45.35507" lon="10.7298">
        <ele>113.059542</ele>
        <time>2021-08-27T09:02:53.000Z</time>
      </trkpt>
      <trkpt lat="45.35512" lon="10.72983">
        <ele>113.4954</ele>
        <time>2021-08-27T09:02:56.000Z</time>
      </trkpt>
      <trkpt lat="45.35517" lon="10.72986">
        <ele>113.941317</ele>
        <time>2021-08-27T09:02:59.000Z</time>
      </trkpt>
      <trkpt lat="45.3552" lon="10.72987">
        <ele>114.155995</ele>
        <time>2021-08-27T09:03:00.000Z</time>
      </trkpt>
      <trkpt lat="45.35529" lon="10.72989">
        <ele>114.908269</ele>
        <time>2021-08-27T09:03:06.000Z</time>
      </trkpt>
      <trkpt lat="45.35537" lon="10.72993">
        <ele>115.650991</ele>
        <time>2021-08-27T09:03:12.000Z</time>
      </trkpt>
      <trkpt lat="45.35542" lon="10.72995">
        <ele>116.074033</ele>
        <time>2021-08-27T09:03:15.000Z</time>
      </trkpt>
      <trkpt lat="45.35548" lon="10.72998">
        <ele>116.601718</ele>
        <time>2021-08-27T09:03:19.000Z</time>
      </trkpt>
      <trkpt lat="45.35553" lon="10.73001">
        <ele>117.065572</ele>
        <time>2021-08-27T09:03:22.000Z</time>
      </trkpt>
      <trkpt lat="45.35559" lon="10.73005">
        <ele>117.564262</ele>
        <time>2021-08-27T09:03:26.000Z</time>
      </trkpt>
      <trkpt lat="45.3556" lon="10.73005">
        <ele>117.67173</ele>
        <time>2021-08-27T09:03:28.000Z</time>
      </trkpt>
      <trkpt lat="45.3556" lon="10.73006">
        <ele>117.724303</ele>
        <time>2021-08-27T09:03:34.000Z</time>
      </trkpt>
      <trkpt lat="45.35561" lon="10.73005">
        <ele>117.741827</ele>
        <time>2021-08-27T09:03:42.000Z</time>
      </trkpt>
      <trkpt lat="45.35562" lon="10.73006">
        <ele>117.839212</ele>
        <time>2021-08-27T09:03:43.000Z</time>
      </trkpt>
      <trkpt lat="45.35563" lon="10.73007">
        <ele>117.944105</ele>
        <time>2021-08-27T09:03:44.000Z</time>
      </trkpt>
      <trkpt lat="45.35563" lon="10.73008">
        <ele>118.044369</ele>
        <time>2021-08-27T09:03:45.000Z</time>
      </trkpt>
      <trkpt lat="45.35563" lon="10.73015">
        <ele>118.450616</ele>
        <time>2021-08-27T09:03:48.000Z</time>
      </trkpt>
      <trkpt lat="45.35563" lon="10.73018">
        <ele>118.632397</ele>
        <time>2021-08-27T09:03:49.000Z</time>
      </trkpt>
      <trkpt lat="45.35568" lon="10.73039">
        <ele>119.865911</ele>
        <time>2021-08-27T09:03:56.000Z</time>
      </trkpt>
      <trkpt lat="45.35568" lon="10.73042">
        <ele>120.045018</ele>
        <time>2021-08-27T09:03:57.000Z</time>
      </trkpt>
      <trkpt lat="45.35569" lon="10.73045">
        <ele>120.248659</ele>
        <time>2021-08-27T09:03:58.000Z</time>
      </trkpt>
      <trkpt lat="45.35572" lon="10.73065">
        <ele>121.423427</ele>
        <time>2021-08-27T09:04:05.000Z</time>
      </trkpt>
      <trkpt lat="45.35573" lon="10.73068">
        <ele>121.612236</ele>
        <time>2021-08-27T09:04:06.000Z</time>
      </trkpt>
      <trkpt lat="45.35577" lon="10.73085">
        <ele>122.674254</ele>
        <time>2021-08-27T09:04:12.000Z</time>
      </trkpt>
      <trkpt lat="45.3558" lon="10.73105">
        <ele>122.567585</ele>
        <time>2021-08-27T09:04:17.000Z</time>
      </trkpt>
      <trkpt lat="45.35588" lon="10.73128">
        <ele>122.409124</ele>
        <time>2021-08-27T09:04:23.000Z</time>
      </trkpt>
      <trkpt lat="45.3559" lon="10.73151">
        <ele>122.261276</ele>
        <time>2021-08-27T09:04:29.000Z</time>
      </trkpt>
      <trkpt lat="45.35587" lon="10.73167">
        <ele>122.158236</ele>
        <time>2021-08-27T09:04:34.000Z</time>
      </trkpt>
      <trkpt lat="45.35583" lon="10.73178">
        <ele>122.075464</ele>
        <time>2021-08-27T09:04:37.000Z</time>
      </trkpt>
      <trkpt lat="45.35579" lon="10.73192">
        <ele>121.981297</ele>
        <time>2021-08-27T09:04:40.000Z</time>
      </trkpt>
      <trkpt lat="45.35578" lon="10.73197">
        <ele>121.94898</ele>
        <time>2021-08-27T09:04:41.000Z</time>
      </trkpt>
      <trkpt lat="45.35567" lon="10.7322">
        <ele>121.775861</ele>
        <time>2021-08-27T09:04:46.000Z</time>
      </trkpt>
      <trkpt lat="45.35566" lon="10.73225">
        <ele>121.740515</ele>
        <time>2021-08-27T09:04:47.000Z</time>
      </trkpt>
      <trkpt lat="45.35559" lon="10.7324">
        <ele>121.624932</ele>
        <time>2021-08-27T09:04:50.000Z</time>
      </trkpt>
      <trkpt lat="45.35548" lon="10.73263">
        <ele>121.448861</ele>
        <time>2021-08-27T09:04:55.000Z</time>
      </trkpt>
      <trkpt lat="45.35539" lon="10.73269">
        <ele>121.361697</ele>
        <time>2021-08-27T09:04:59.000Z</time>
      </trkpt>
      <trkpt lat="45.35527" lon="10.73263">
        <ele>121.241021</ele>
        <time>2021-08-27T09:05:07.000Z</time>
      </trkpt>
      <trkpt lat="45.35521" lon="10.7326">
        <ele>121.183075</ele>
        <time>2021-08-27T09:05:10.000Z</time>
      </trkpt>
      <trkpt lat="45.35514" lon="10.73254">
        <ele>121.110427</ele>
        <time>2021-08-27T09:05:13.000Z</time>
      </trkpt>
      <trkpt lat="45.35508" lon="10.73254">
        <ele>121.050449</ele>
        <time>2021-08-27T09:05:16.000Z</time>
      </trkpt>
      <trkpt lat="45.35507" lon="10.73256">
        <ele>121.030343</ele>
        <time>2021-08-27T09:05:17.000Z</time>
      </trkpt>
      <trkpt lat="45.35504" lon="10.73264">
        <ele>120.958892</ele>
        <time>2021-08-27T09:05:22.000Z</time>
      </trkpt>
      <trkpt lat="45.35505" lon="10.73269">
        <ele>120.915852</ele>
        <time>2021-08-27T09:05:27.000Z</time>
      </trkpt>
      <trkpt lat="45.35507" lon="10.73271">
        <ele>120.894224</ele>
        <time>2021-08-27T09:05:28.000Z</time>
      </trkpt>
      <trkpt lat="45.35519" lon="10.73278">
        <ele>120.743571</ele>
        <time>2021-08-27T09:05:33.000Z</time>
      </trkpt>
      <trkpt lat="45.35522" lon="10.7328">
        <ele>120.711605</ele>
        <time>2021-08-27T09:05:34.000Z</time>
      </trkpt>
      <trkpt lat="45.35527" lon="10.73282">
        <ele>120.650767</ele>
        <time>2021-08-27T09:05:37.000Z</time>
      </trkpt>
      <trkpt lat="45.35527" lon="10.73283">
        <ele>120.646647</ele>
        <time>2021-08-27T09:05:38.000Z</time>
      </trkpt>
      <trkpt lat="45.35529" lon="10.73283">
        <ele>120.627985</ele>
        <time>2021-08-27T09:05:42.000Z</time>
      </trkpt>
      <trkpt lat="45.35529" lon="10.73284">
        <ele>120.617458</ele>
        <time>2021-08-27T09:05:43.000Z</time>
      </trkpt>
      <trkpt lat="45.3553" lon="10.73289">
        <ele>120.579898</ele>
        <time>2021-08-27T09:05:46.000Z</time>
      </trkpt>
      <trkpt lat="45.35531" lon="10.73294">
        <ele>120.540799</ele>
        <time>2021-08-27T09:05:48.000Z</time>
      </trkpt>
      <trkpt lat="45.35523" lon="10.7331">
        <ele>120.379884</ele>
        <time>2021-08-27T09:05:53.000Z</time>
      </trkpt>
      <trkpt lat="45.35512" lon="10.73335">
        <ele>120.143492</ele>
        <time>2021-08-27T09:05:59.000Z</time>
      </trkpt>
      <trkpt lat="45.35506" lon="10.73357">
        <ele>119.962533</ele>
        <time>2021-08-27T09:06:04.000Z</time>
      </trkpt>
      <trkpt lat="45.35502" lon="10.73365">
        <ele>119.88463</ele>
        <time>2021-08-27T09:06:06.000Z</time>
      </trkpt>
      <trkpt lat="45.35498" lon="10.73378">
        <ele>119.768239</ele>
        <time>2021-08-27T09:06:09.000Z</time>
      </trkpt>
      <trkpt lat="45.3549" lon="10.73398">
        <ele>119.591195</ele>
        <time>2021-08-27T09:06:13.000Z</time>
      </trkpt>
      <trkpt lat="45.35477" lon="10.7342">
        <ele>119.363598</ele>
        <time>2021-08-27T09:06:19.000Z</time>
      </trkpt>
      <trkpt lat="45.35475" lon="10.73421">
        <ele>119.335384</ele>
        <time>2021-08-27T09:06:20.000Z</time>
      </trkpt>
      <trkpt lat="45.35465" lon="10.73428">
        <ele>119.210381</ele>
        <time>2021-08-27T09:06:26.000Z</time>
      </trkpt>
      <trkpt lat="45.35465" lon="10.73428">
        <ele>119.210381</ele>
        <time>2021-08-27T09:06:31.000Z</time>
      </trkpt>
      <trkpt lat="45.35465" lon="10.73428">
        <ele>119.210381</ele>
        <time>2021-08-27T09:06:32.000Z</time>
      </trkpt>
      <trkpt lat="45.35465" lon="10.73428">
        <ele>119.210381</ele>
        <time>2021-08-27T09:06:36.000Z</time>
      </trkpt>
      <trkpt lat="45.35465" lon="10.73428">
        <ele>119.210381</ele>
        <time>2021-08-27T09:06:39.000Z</time>
      </trkpt>
      <trkpt lat="45.35465" lon="10.73428">
        <ele>119.208436</ele>
        <time>2021-08-27T09:06:43.000Z</time>
      </trkpt>
      <trkpt lat="45.35464" lon="10.7343">
        <ele>119.19012</ele>
        <time>2021-08-27T09:06:44.000Z</time>
      </trkpt>
      <trkpt lat="45.35457" lon="10.73435">
        <ele>119.096324</ele>
        <time>2021-08-27T09:06:48.000Z</time>
      </trkpt>
      <trkpt lat="45.35455" lon="10.73439">
        <ele>119.065646</ele>
        <time>2021-08-27T09:06:49.000Z</time>
      </trkpt>
      <trkpt lat="45.35455" lon="10.73441">
        <ele>119.045075</ele>
        <time>2021-08-27T09:06:51.000Z</time>
      </trkpt>
      <trkpt lat="45.35451" lon="10.73444">
        <ele>119.02164</ele>
        <time>2021-08-27T09:06:54.000Z</time>
      </trkpt>
      <trkpt lat="45.35448" lon="10.73446">
        <ele>118.999711</ele>
        <time>2021-08-27T09:06:56.000Z</time>
      </trkpt>
      <trkpt lat="45.35437" lon="10.73448">
        <ele>118.944081</ele>
        <time>2021-08-27T09:07:02.000Z</time>
      </trkpt>
      <trkpt lat="45.35431" lon="10.73451">
        <ele>118.906161</ele>
        <time>2021-08-27T09:07:05.000Z</time>
      </trkpt>
      <trkpt lat="45.35415" lon="10.73448">
        <ele>118.821496</ele>
        <time>2021-08-27T09:07:10.000Z</time>
      </trkpt>
      <trkpt lat="45.35412" lon="10.73445">
        <ele>118.80221</ele>
        <time>2021-08-27T09:07:11.000Z</time>
      </trkpt>
      <trkpt lat="45.35406" lon="10.73443">
        <ele>118.766216</ele>
        <time>2021-08-27T09:07:14.000Z</time>
      </trkpt>
      <trkpt lat="45.35404" lon="10.73443">
        <ele>118.756736</ele>
        <time>2021-08-27T09:07:16.000Z</time>
      </trkpt>
      <trkpt lat="45.35404" lon="10.73442">
        <ele>118.754752</ele>
        <time>2021-08-27T09:07:20.000Z</time>
      </trkpt>
      <trkpt lat="45.35403" lon="10.73441">
        <ele>118.74549</ele>
        <time>2021-08-27T09:07:21.000Z</time>
      </trkpt>
      <trkpt lat="45.35391" lon="10.73439">
        <ele>118.68022</ele>
        <time>2021-08-27T09:07:27.000Z</time>
      </trkpt>
      <trkpt lat="45.35387" lon="10.73438">
        <ele>118.657231</ele>
        <time>2021-08-27T09:07:29.000Z</time>
      </trkpt>
      <trkpt lat="45.35383" lon="10.73438">
        <ele>118.638825</ele>
        <time>2021-08-27T09:07:31.000Z</time>
      </trkpt>
      <trkpt lat="45.35382" lon="10.73438">
        <ele>118.631626</ele>
        <time>2021-08-27T09:07:32.000Z</time>
      </trkpt>
      <trkpt lat="45.3538" lon="10.73438">
        <ele>118.624039</ele>
        <time>2021-08-27T09:07:33.000Z</time>
      </trkpt>
      <trkpt lat="45.35379" lon="10.73437">
        <ele>118.618037</ele>
        <time>2021-08-27T09:07:37.000Z</time>
      </trkpt>
      <trkpt lat="45.35379" lon="10.73437">
        <ele>118.614248</ele>
        <time>2021-08-27T09:07:43.000Z</time>
      </trkpt>
      <trkpt lat="45.35378" lon="10.73436">
        <ele>118.609825</ele>
        <time>2021-08-27T09:07:46.000Z</time>
      </trkpt>
      <trkpt lat="45.35378" lon="10.73436">
        <ele>118.609065</ele>
        <time>2021-08-27T09:07:56.000Z</time>
      </trkpt>
      <trkpt lat="45.35378" lon="10.73436">
        <ele>118.607802</ele>
        <time>2021-08-27T09:08:05.000Z</time>
      </trkpt>
      <trkpt lat="45.35378" lon="10.73436">
        <ele>118.607802</ele>
        <time>2021-08-27T09:08:08.000Z</time>
      </trkpt>
      <trkpt lat="45.35377" lon="10.73439">
        <ele>118.597118</ele>
        <time>2021-08-27T09:08:15.000Z</time>
      </trkpt>
      <trkpt lat="45.35377" lon="10.73439">
        <ele>118.595596</ele>
        <time>2021-08-27T09:08:20.000Z</time>
      </trkpt>
      <trkpt lat="45.35377" lon="10.73439">
        <ele>118.595596</ele>
        <time>2021-08-27T09:08:24.000Z</time>
      </trkpt>
      <trkpt lat="45.35377" lon="10.73439">
        <ele>118.595596</ele>
        <time>2021-08-27T09:08:26.000Z</time>
      </trkpt>
      <trkpt lat="45.35377" lon="10.73441">
        <ele>118.589789</ele>
        <time>2021-08-27T09:08:29.000Z</time>
      </trkpt>
      <trkpt lat="45.35377" lon="10.73442">
        <ele>118.585225</ele>
        <time>2021-08-27T09:08:39.000Z</time>
      </trkpt>
      <trkpt lat="45.35377" lon="10.73442">
        <ele>118.584465</ele>
        <time>2021-08-27T09:08:44.000Z</time>
      </trkpt>
      <trkpt lat="45.35377" lon="10.73442">
        <ele>118.584465</ele>
        <time>2021-08-27T09:08:47.000Z</time>
      </trkpt>
      <trkpt lat="45.35377" lon="10.73443">
        <ele>118.581748</ele>
        <time>2021-08-27T09:08:54.000Z</time>
      </trkpt>
      <trkpt lat="45.35377" lon="10.73443">
        <ele>118.581748</ele>
        <time>2021-08-27T09:08:55.000Z</time>
      </trkpt>
      <trkpt lat="45.35377" lon="10.73445">
        <ele>118.573224</ele>
        <time>2021-08-27T09:09:10.000Z</time>
      </trkpt>
      <trkpt lat="45.35377" lon="10.73445">
        <ele>118.573224</ele>
        <time>2021-08-27T09:09:30.000Z</time>
      </trkpt>
      <trkpt lat="45.35377" lon="10.73445">
        <ele>118.573224</ele>
        <time>2021-08-27T09:09:50.000Z</time>
      </trkpt>
      <trkpt lat="45.35377" lon="10.73445">
        <ele>118.573224</ele>
        <time>2021-08-27T09:09:54.000Z</time>
      </trkpt>
      <trkpt lat="45.35377" lon="10.73445">
        <ele>118.573224</ele>
        <time>2021-08-27T09:09:57.000Z</time>
      </trkpt>
      <trkpt lat="45.35377" lon="10.73445">
        <ele>118.573224</ele>
        <time>2021-08-27T09:10:24.000Z</time>
      </trkpt>
      <trkpt lat="45.35377" lon="10.73445">
        <ele>118.573224</ele>
        <time>2021-08-27T09:10:27.000Z</time>
      </trkpt>
      <trkpt lat="45.35377" lon="10.73445">
        <ele>118.573224</ele>
        <time>2021-08-27T09:11:00.000Z</time>
      </trkpt>
      <trkpt lat="45.35376" lon="10.73446">
        <ele>118.568329</ele>
        <time>2021-08-27T09:11:13.000Z</time>
      </trkpt>
      <trkpt lat="45.35376" lon="10.73446">
        <ele>118.567396</ele>
        <time>2021-08-27T09:11:16.000Z</time>
      </trkpt>
      <trkpt lat="45.35376" lon="10.73447">
        <ele>118.562908</ele>
        <time>2021-08-27T09:11:19.000Z</time>
      </trkpt>
      <trkpt lat="45.35378" lon="10.73451">
        <ele>118.542184</ele>
        <time>2021-08-27T09:11:24.000Z</time>
      </trkpt>
      <trkpt lat="45.35378" lon="10.73451">
        <ele>118.541803</ele>
        <time>2021-08-27T09:11:31.000Z</time>
      </trkpt>
      <trkpt lat="45.35378" lon="10.73449">
        <ele>118.531395</ele>
        <time>2021-08-27T09:11:44.000Z</time>
      </trkpt>
      <trkpt lat="45.35381" lon="10.73453">
        <ele>118.505539</ele>
        <time>2021-08-27T09:11:46.000Z</time>
      </trkpt>
      <trkpt lat="45.35385" lon="10.73456">
        <ele>118.482602</ele>
        <time>2021-08-27T09:11:47.000Z</time>
      </trkpt>
      <trkpt lat="45.35384" lon="10.73452">
        <ele>118.466923</ele>
        <time>2021-08-27T09:11:48.000Z</time>
      </trkpt>
      <trkpt lat="45.35384" lon="10.73454">
        <ele>118.458486</ele>
        <time>2021-08-27T09:11:49.000Z</time>
      </trkpt>
      <trkpt lat="45.35384" lon="10.73461">
        <ele>118.431856</ele>
        <time>2021-08-27T09:11:50.000Z</time>
      </trkpt>
      <trkpt lat="45.35388" lon="10.73473">
        <ele>118.383625</ele>
        <time>2021-08-27T09:11:52.000Z</time>
      </trkpt>
      <trkpt lat="45.3539" lon="10.73454">
        <ele>118.309729</ele>
        <time>2021-08-27T09:13:02.000Z</time>
      </trkpt>
      <trkpt lat="45.35374" lon="10.73464">
        <ele>118.214681</ele>
        <time>2021-08-27T09:13:04.000Z</time>
      </trkpt>
      <trkpt lat="45.35373" lon="10.73457">
        <ele>118.188141</ele>
        <time>2021-08-27T09:13:09.000Z</time>
      </trkpt>
      <trkpt lat="45.35372" lon="10.73459">
        <ele>118.179351</ele>
        <time>2021-08-27T09:13:13.000Z</time>
      </trkpt>
      <trkpt lat="45.35372" lon="10.73459">
        <ele>118.177736</ele>
        <time>2021-08-27T09:13:20.000Z</time>
      </trkpt>
      <trkpt lat="45.35371" lon="10.73463">
        <ele>118.161543</ele>
        <time>2021-08-27T09:13:30.000Z</time>
      </trkpt>
      <trkpt lat="45.35371" lon="10.73463">
        <ele>118.161543</ele>
        <time>2021-08-27T09:13:32.000Z</time>
      </trkpt>
      <trkpt lat="45.35371" lon="10.73463">
        <ele>118.160461</ele>
        <time>2021-08-27T09:13:45.000Z</time>
      </trkpt>
      <trkpt lat="45.35371" lon="10.73463">
        <ele>118.159799</ele>
        <time>2021-08-27T09:13:49.000Z</time>
      </trkpt>
      <trkpt lat="45.35371" lon="10.73463">
        <ele>118.158865</ele>
        <time>2021-08-27T09:13:52.000Z</time>
      </trkpt>
      <trkpt lat="45.35374" lon="10.73419">
        <ele>118.05575</ele>
        <time>2021-08-27T09:38:54.000Z</time>
      </trkpt>
      <trkpt lat="45.35374" lon="10.73418">
        <ele>118.05498</ele>
        <time>2021-08-27T09:38:55.000Z</time>
      </trkpt>
      <trkpt lat="45.35374" lon="10.73416">
        <ele>118.052987</ele>
        <time>2021-08-27T09:38:58.000Z</time>
      </trkpt>
      <trkpt lat="45.35374" lon="10.73416">
        <ele>118.052377</ele>
        <time>2021-08-27T09:38:59.000Z</time>
      </trkpt>
      <trkpt lat="45.35373" lon="10.73421">
        <ele>118.048443</ele>
        <time>2021-08-27T09:39:52.000Z</time>
      </trkpt>
      <trkpt lat="45.35373" lon="10.73421">
        <ele>118.04829</ele>
        <time>2021-08-27T09:39:53.000Z</time>
      </trkpt>
      <trkpt lat="45.35373" lon="10.73421">
        <ele>118.047956</ele>
        <time>2021-08-27T09:39:55.000Z</time>
      </trkpt>
      <trkpt lat="45.35372" lon="10.73421">
        <ele>118.047182</ele>
        <time>2021-08-27T09:39:57.000Z</time>
      </trkpt>
      <trkpt lat="45.35371" lon="10.73421">
        <ele>118.04664</ele>
        <time>2021-08-27T09:39:58.000Z</time>
      </trkpt>
      <trkpt lat="45.35371" lon="10.73421">
        <ele>118.046062</ele>
        <time>2021-08-27T09:39:59.000Z</time>
      </trkpt>
      <trkpt lat="45.35371" lon="10.73422">
        <ele>118.045833</ele>
        <time>2021-08-27T09:40:00.000Z</time>
      </trkpt>
      <trkpt lat="45.35371" lon="10.73422">
        <ele>118.045604</ele>
        <time>2021-08-27T09:40:02.000Z</time>
      </trkpt>
      <trkpt lat="45.3537" lon="10.73421">
        <ele>118.044365</ele>
        <time>2021-08-27T09:40:05.000Z</time>
      </trkpt>
      <trkpt lat="45.35369" lon="10.73419">
        <ele>118.04245</ele>
        <time>2021-08-27T09:40:07.000Z</time>
      </trkpt>
      <trkpt lat="45.35368" lon="10.73417">
        <ele>118.04115</ele>
        <time>2021-08-27T09:40:08.000Z</time>
      </trkpt>
      <trkpt lat="45.35367" lon="10.73415">
        <ele>118.039314</ele>
        <time>2021-08-27T09:40:09.000Z</time>
      </trkpt>
      <trkpt lat="45.35364" lon="10.73413">
        <ele>118.035294</ele>
        <time>2021-08-27T09:40:11.000Z</time>
      </trkpt>
      <trkpt lat="45.35358" lon="10.73412">
        <ele>118.02839</ele>
        <time>2021-08-27T09:40:13.000Z</time>
      </trkpt>
      <trkpt lat="45.35343" lon="10.73407">
        <ele>118.012455</ele>
        <time>2021-08-27T09:40:17.000Z</time>
      </trkpt>
      <trkpt lat="45.35332" lon="10.73404">
        <ele>117.999789</ele>
        <time>2021-08-27T09:40:21.000Z</time>
      </trkpt>
      <trkpt lat="45.3532" lon="10.734">
        <ele>117.986472</ele>
        <time>2021-08-27T09:40:26.000Z</time>
      </trkpt>
      <trkpt lat="45.35313" lon="10.73399">
        <ele>117.978568</ele>
        <time>2021-08-27T09:40:28.000Z</time>
      </trkpt>
      <trkpt lat="45.35305" lon="10.7339">
        <ele>117.967376</ele>
        <time>2021-08-27T09:40:30.000Z</time>
      </trkpt>
      <trkpt lat="45.35299" lon="10.73379">
        <ele>117.957397</ele>
        <time>2021-08-27T09:40:32.000Z</time>
      </trkpt>
      <trkpt lat="45.353" lon="10.7338">
        <ele>117.956153</ele>
        <time>2021-08-27T09:40:34.000Z</time>
      </trkpt>
      <trkpt lat="45.35302" lon="10.73377">
        <ele>117.952717</ele>
        <time>2021-08-27T09:40:37.000Z</time>
      </trkpt>
      <trkpt lat="45.35303" lon="10.73368">
        <ele>117.945768</ele>
        <time>2021-08-27T09:40:41.000Z</time>
      </trkpt>
      <trkpt lat="45.35305" lon="10.73343">
        <ele>117.926462</ele>
        <time>2021-08-27T09:40:48.000Z</time>
      </trkpt>
      <trkpt lat="45.35309" lon="10.73322">
        <ele>117.910183</ele>
        <time>2021-08-27T09:40:54.000Z</time>
      </trkpt>
      <trkpt lat="45.3531" lon="10.73301">
        <ele>117.894485</ele>
        <time>2021-08-27T09:41:00.000Z</time>
      </trkpt>
      <trkpt lat="45.3531" lon="10.73294">
        <ele>117.888768</ele>
        <time>2021-08-27T09:41:02.000Z</time>
      </trkpt>
      <trkpt lat="45.3531" lon="10.7329">
        <ele>117.88549</ele>
        <time>2021-08-27T09:41:03.000Z</time>
      </trkpt>
      <trkpt lat="45.3531" lon="10.73285">
        <ele>117.882287</ele>
        <time>2021-08-27T09:41:04.000Z</time>
      </trkpt>
      <trkpt lat="45.35311" lon="10.73282">
        <ele>117.879373</ele>
        <time>2021-08-27T09:41:05.000Z</time>
      </trkpt>
      <trkpt lat="45.3531" lon="10.7327">
        <ele>117.864124</ele>
        <time>2021-08-27T09:41:08.000Z</time>
      </trkpt>
      <trkpt lat="45.35309" lon="10.73255">
        <ele>117.837696</ele>
        <time>2021-08-27T09:41:12.000Z</time>
      </trkpt>
      <trkpt lat="45.3531" lon="10.73251">
        <ele>117.83157</ele>
        <time>2021-08-27T09:41:13.000Z</time>
      </trkpt>
      <trkpt lat="45.35312" lon="10.73238">
        <ele>117.808978</ele>
        <time>2021-08-27T09:41:17.000Z</time>
      </trkpt>
      <trkpt lat="45.35313" lon="10.73235">
        <ele>117.804392</ele>
        <time>2021-08-27T09:41:18.000Z</time>
      </trkpt>
      <trkpt lat="45.35313" lon="10.73233">
        <ele>117.799899</ele>
        <time>2021-08-27T09:41:19.000Z</time>
      </trkpt>
      <trkpt lat="45.35314" lon="10.7323">
        <ele>117.795666</ele>
        <time>2021-08-27T09:41:20.000Z</time>
      </trkpt>
      <trkpt lat="45.35314" lon="10.73226">
        <ele>117.788651</ele>
        <time>2021-08-27T09:41:22.000Z</time>
      </trkpt>
      <trkpt lat="45.35314" lon="10.73224">
        <ele>117.784284</ele>
        <time>2021-08-27T09:41:24.000Z</time>
      </trkpt>
      <trkpt lat="45.35314" lon="10.73223">
        <ele>117.782549</ele>
        <time>2021-08-27T09:41:27.000Z</time>
      </trkpt>
      <trkpt lat="45.35311" lon="10.73221">
        <ele>117.77516</ele>
        <time>2021-08-27T09:41:34.000Z</time>
      </trkpt>
      <trkpt lat="45.35309" lon="10.73221">
        <ele>117.771301</ele>
        <time>2021-08-27T09:41:40.000Z</time>
      </trkpt>
      <trkpt lat="45.35307" lon="10.7322">
        <ele>117.766992</ele>
        <time>2021-08-27T09:41:44.000Z</time>
      </trkpt>
      <trkpt lat="45.35307" lon="10.7322">
        <ele>117.766992</ele>
        <time>2021-08-27T09:41:48.000Z</time>
      </trkpt>
      <trkpt lat="45.35307" lon="10.7322">
        <ele>117.766992</ele>
        <time>2021-08-27T09:41:50.000Z</time>
      </trkpt>
      <trkpt lat="45.35307" lon="10.7322">
        <ele>117.766992</ele>
        <time>2021-08-27T09:41:59.000Z</time>
      </trkpt>
      <trkpt lat="45.35308" lon="10.73221">
        <ele>117.766412</ele>
        <time>2021-08-27T09:42:06.000Z</time>
      </trkpt>
      <trkpt lat="45.35308" lon="10.73221">
        <ele>117.764459</ele>
        <time>2021-08-27T09:42:17.000Z</time>
      </trkpt>
      <trkpt lat="45.35309" lon="10.73221">
        <ele>117.763271</ele>
        <time>2021-08-27T09:42:21.000Z</time>
      </trkpt>
      <trkpt lat="45.35309" lon="10.73221">
        <ele>117.763271</ele>
        <time>2021-08-27T09:42:22.000Z</time>
      </trkpt>
      <trkpt lat="45.35309" lon="10.73221">
        <ele>117.763033</ele>
        <time>2021-08-27T09:42:23.000Z</time>
      </trkpt>
      <trkpt lat="45.35309" lon="10.73221">
        <ele>117.763033</ele>
        <time>2021-08-27T09:42:25.000Z</time>
      </trkpt>
      <trkpt lat="45.35309" lon="10.73221">
        <ele>117.762558</ele>
        <time>2021-08-27T09:42:27.000Z</time>
      </trkpt>
      <trkpt lat="45.35309" lon="10.73221">
        <ele>117.761739</ele>
        <time>2021-08-27T09:42:32.000Z</time>
      </trkpt>
      <trkpt lat="45.35309" lon="10.73218">
        <ele>117.755891</ele>
        <time>2021-08-27T09:42:35.000Z</time>
      </trkpt>
      <trkpt lat="45.35307" lon="10.73214">
        <ele>117.747543</ele>
        <time>2021-08-27T09:42:37.000Z</time>
      </trkpt>
      <trkpt lat="45.35306" lon="10.73212">
        <ele>117.743572</ele>
        <time>2021-08-27T09:42:38.000Z</time>
      </trkpt>
      <trkpt lat="45.35298" lon="10.73204">
        <ele>117.720335</ele>
        <time>2021-08-27T09:42:42.000Z</time>
      </trkpt>
      <trkpt lat="45.35295" lon="10.73201">
        <ele>117.7123</ele>
        <time>2021-08-27T09:42:43.000Z</time>
      </trkpt>
      <trkpt lat="45.35276" lon="10.73189">
        <ele>117.662931</ele>
        <time>2021-08-27T09:42:48.000Z</time>
      </trkpt>
      <trkpt lat="45.35273" lon="10.73187">
        <ele>117.653689</ele>
        <time>2021-08-27T09:42:49.000Z</time>
      </trkpt>
      <trkpt lat="45.35254" lon="10.73166">
        <ele>117.59799</ele>
        <time>2021-08-27T09:42:55.000Z</time>
      </trkpt>
      <trkpt lat="45.35251" lon="10.73162">
        <ele>117.587361</ele>
        <time>2021-08-27T09:42:56.000Z</time>
      </trkpt>
      <trkpt lat="45.35247" lon="10.73158">
        <ele>117.577063</ele>
        <time>2021-08-27T09:42:57.000Z</time>
      </trkpt>
      <trkpt lat="45.3524" lon="10.7315">
        <ele>117.554886</ele>
        <time>2021-08-27T09:42:59.000Z</time>
      </trkpt>
      <trkpt lat="45.35233" lon="10.73141">
        <ele>117.53201</ele>
        <time>2021-08-27T09:43:01.000Z</time>
      </trkpt>
      <trkpt lat="45.35229" lon="10.73137">
        <ele>117.520201</ele>
        <time>2021-08-27T09:43:02.000Z</time>
      </trkpt>
      <trkpt lat="45.35224" lon="10.73133">
        <ele>117.507616</ele>
        <time>2021-08-27T09:43:03.000Z</time>
      </trkpt>
      <trkpt lat="45.35216" lon="10.73124">
        <ele>117.482931</ele>
        <time>2021-08-27T09:43:05.000Z</time>
      </trkpt>
      <trkpt lat="45.35207" lon="10.73117">
        <ele>117.459396</ele>
        <time>2021-08-27T09:43:07.000Z</time>
      </trkpt>
      <trkpt lat="45.352" lon="10.73112">
        <ele>117.422305</ele>
        <time>2021-08-27T09:43:09.000Z</time>
      </trkpt>
      <trkpt lat="45.35193" lon="10.73106">
        <ele>117.359398</ele>
        <time>2021-08-27T09:43:11.000Z</time>
      </trkpt>
      <trkpt lat="45.3519" lon="10.73102">
        <ele>117.326097</ele>
        <time>2021-08-27T09:43:12.000Z</time>
      </trkpt>
      <trkpt lat="45.35182" lon="10.73094">
        <ele>117.252318</ele>
        <time>2021-08-27T09:43:14.000Z</time>
      </trkpt>
      <trkpt lat="45.35173" lon="10.73086">
        <ele>117.172794</ele>
        <time>2021-08-27T09:43:16.000Z</time>
      </trkpt>
      <trkpt lat="45.35158" lon="10.73077">
        <ele>117.046954</ele>
        <time>2021-08-27T09:43:19.000Z</time>
      </trkpt>
      <trkpt lat="45.35149" lon="10.73069">
        <ele>116.96531</ele>
        <time>2021-08-27T09:43:21.000Z</time>
      </trkpt>
      <trkpt lat="45.35141" lon="10.73062">
        <ele>116.891892</ele>
        <time>2021-08-27T09:43:23.000Z</time>
      </trkpt>
      <trkpt lat="45.35137" lon="10.73059">
        <ele>116.858167</ele>
        <time>2021-08-27T09:43:24.000Z</time>
      </trkpt>
      <trkpt lat="45.35133" lon="10.73056">
        <ele>116.824233</ele>
        <time>2021-08-27T09:43:25.000Z</time>
      </trkpt>
      <trkpt lat="45.35129" lon="10.73052">
        <ele>116.790299</ele>
        <time>2021-08-27T09:43:26.000Z</time>
      </trkpt>
      <trkpt lat="45.35121" lon="10.73045">
        <ele>116.717639</ele>
        <time>2021-08-27T09:43:28.000Z</time>
      </trkpt>
      <trkpt lat="45.35113" lon="10.73037">
        <ele>116.64327</ele>
        <time>2021-08-27T09:43:30.000Z</time>
      </trkpt>
      <trkpt lat="45.35109" lon="10.73033">
        <ele>116.605603</ele>
        <time>2021-08-27T09:43:31.000Z</time>
      </trkpt>
      <trkpt lat="45.35099" lon="10.73023">
        <ele>116.509348</ele>
        <time>2021-08-27T09:43:35.000Z</time>
      </trkpt>
      <trkpt lat="45.35089" lon="10.73016">
        <ele>116.424465</ele>
        <time>2021-08-27T09:43:40.000Z</time>
      </trkpt>
      <trkpt lat="45.35083" lon="10.7301">
        <ele>116.369391</ele>
        <time>2021-08-27T09:43:42.000Z</time>
      </trkpt>
      <trkpt lat="45.35066" lon="10.72985">
        <ele>116.184207</ele>
        <time>2021-08-27T09:43:47.000Z</time>
      </trkpt>
      <trkpt lat="45.3504" lon="10.72946">
        <ele>116.039925</ele>
        <time>2021-08-27T09:43:54.000Z</time>
      </trkpt>
      <trkpt lat="45.35002" lon="10.72897">
        <ele>115.963135</ele>
        <time>2021-08-27T09:44:04.000Z</time>
      </trkpt>
      <trkpt lat="45.34977" lon="10.72874">
        <ele>115.919452</ele>
        <time>2021-08-27T09:44:10.000Z</time>
      </trkpt>
      <trkpt lat="45.34962" lon="10.72859">
        <ele>115.891491</ele>
        <time>2021-08-27T09:44:14.000Z</time>
      </trkpt>
      <trkpt lat="45.3493" lon="10.72826">
        <ele>115.832894</ele>
        <time>2021-08-27T09:44:23.000Z</time>
      </trkpt>
      <trkpt lat="45.34918" lon="10.72816">
        <ele>115.812178</ele>
        <time>2021-08-27T09:44:26.000Z</time>
      </trkpt>
      <trkpt lat="45.34894" lon="10.72798">
        <ele>115.960031</ele>
        <time>2021-08-27T09:44:32.000Z</time>
      </trkpt>
      <trkpt lat="45.34867" lon="10.72778">
        <ele>116.146852</ele>
        <time>2021-08-27T09:44:38.000Z</time>
      </trkpt>
      <trkpt lat="45.3485" lon="10.72767">
        <ele>116.267533</ele>
        <time>2021-08-27T09:44:42.000Z</time>
      </trkpt>
      <trkpt lat="45.34832" lon="10.72757">
        <ele>116.386394</ele>
        <time>2021-08-27T09:44:46.000Z</time>
      </trkpt>
      <trkpt lat="45.34824" lon="10.72754">
        <ele>116.444521</ele>
        <time>2021-08-27T09:44:48.000Z</time>
      </trkpt>
      <trkpt lat="45.34777" lon="10.7273">
        <ele>116.755204</ele>
        <time>2021-08-27T09:44:58.000Z</time>
      </trkpt>
      <trkpt lat="45.34754" lon="10.72717">
        <ele>116.911112</ele>
        <time>2021-08-27T09:45:03.000Z</time>
      </trkpt>
      <trkpt lat="45.34741" lon="10.72708">
        <ele>117.025262</ele>
        <time>2021-08-27T09:45:06.000Z</time>
      </trkpt>
      <trkpt lat="45.34737" lon="10.72705">
        <ele>117.064496</ele>
        <time>2021-08-27T09:45:07.000Z</time>
      </trkpt>
      <trkpt lat="45.34712" lon="10.72687">
        <ele>117.304718</ele>
        <time>2021-08-27T09:45:13.000Z</time>
      </trkpt>
      <trkpt lat="45.34708" lon="10.72685">
        <ele>117.337016</ele>
        <time>2021-08-27T09:45:14.000Z</time>
      </trkpt>
      <trkpt lat="45.34679" lon="10.72662">
        <ele>117.617821</ele>
        <time>2021-08-27T09:45:21.000Z</time>
      </trkpt>
      <trkpt lat="45.34651" lon="10.72639">
        <ele>117.899753</ele>
        <time>2021-08-27T09:45:28.000Z</time>
      </trkpt>
      <trkpt lat="45.34642" lon="10.72633">
        <ele>117.98159</ele>
        <time>2021-08-27T09:45:30.000Z</time>
      </trkpt>
      <trkpt lat="45.34614" lon="10.72613">
        <ele>118.248669</ele>
        <time>2021-08-27T09:45:37.000Z</time>
      </trkpt>
      <trkpt lat="45.34596" lon="10.72601">
        <ele>118.41658</ele>
        <time>2021-08-27T09:45:41.000Z</time>
      </trkpt>
      <trkpt lat="45.34583" lon="10.72592">
        <ele>118.537034</ele>
        <time>2021-08-27T09:45:44.000Z</time>
      </trkpt>
      <trkpt lat="45.34567" lon="10.72581">
        <ele>118.69611</ele>
        <time>2021-08-27T09:45:48.000Z</time>
      </trkpt>
      <trkpt lat="45.34553" lon="10.72572">
        <ele>118.831921</ele>
        <time>2021-08-27T09:45:51.000Z</time>
      </trkpt>
      <trkpt lat="45.34533" lon="10.72558">
        <ele>119.02438</ele>
        <time>2021-08-27T09:45:55.000Z</time>
      </trkpt>
      <trkpt lat="45.3452" lon="10.72548">
        <ele>119.162975</ele>
        <time>2021-08-27T09:45:58.000Z</time>
      </trkpt>
      <trkpt lat="45.34507" lon="10.72538">
        <ele>119.287632</ele>
        <time>2021-08-27T09:46:01.000Z</time>
      </trkpt>
      <trkpt lat="45.34476" lon="10.72509">
        <ele>119.613676</ele>
        <time>2021-08-27T09:46:08.000Z</time>
      </trkpt>
      <trkpt lat="45.34469" lon="10.72501">
        <ele>119.688596</ele>
        <time>2021-08-27T09:46:10.000Z</time>
      </trkpt>
      <trkpt lat="45.34426" lon="10.72449">
        <ele>119.760726</ele>
        <time>2021-08-27T09:46:21.000Z</time>
      </trkpt>
      <trkpt lat="45.34422" lon="10.72444">
        <ele>119.659564</ele>
        <time>2021-08-27T09:46:22.000Z</time>
      </trkpt>
      <trkpt lat="45.34414" lon="10.72435">
        <ele>119.456025</ele>
        <time>2021-08-27T09:46:24.000Z</time>
      </trkpt>
      <trkpt lat="45.34402" lon="10.72422">
        <ele>119.157011</ele>
        <time>2021-08-27T09:46:27.000Z</time>
      </trkpt>
      <trkpt lat="45.34394" lon="10.72413">
        <ele>118.9524</ele>
        <time>2021-08-27T09:46:29.000Z</time>
      </trkpt>
      <trkpt lat="45.34381" lon="10.72401">
        <ele>118.652672</ele>
        <time>2021-08-27T09:46:32.000Z</time>
      </trkpt>
      <trkpt lat="45.34359" lon="10.72379">
        <ele>118.128301</ele>
        <time>2021-08-27T09:46:37.000Z</time>
      </trkpt>
      <trkpt lat="45.3434" lon="10.72359">
        <ele>117.655811</ele>
        <time>2021-08-27T09:46:41.000Z</time>
      </trkpt>
      <trkpt lat="45.34335" lon="10.72353">
        <ele>117.527036</ele>
        <time>2021-08-27T09:46:42.000Z</time>
      </trkpt>
      <trkpt lat="45.34318" lon="10.72336">
        <ele>117.126526</ele>
        <time>2021-08-27T09:46:45.000Z</time>
      </trkpt>
      <trkpt lat="45.34308" lon="10.72324">
        <ele>116.863566</ele>
        <time>2021-08-27T09:46:47.000Z</time>
      </trkpt>
      <trkpt lat="45.34296" lon="10.72313">
        <ele>116.583756</ele>
        <time>2021-08-27T09:46:49.000Z</time>
      </trkpt>
      <trkpt lat="45.3429" lon="10.72307">
        <ele>116.426574</ele>
        <time>2021-08-27T09:46:50.000Z</time>
      </trkpt>
      <trkpt lat="45.34277" lon="10.72295">
        <ele>116.074446</ele>
        <time>2021-08-27T09:46:52.000Z</time>
      </trkpt>
      <trkpt lat="45.3427" lon="10.7229">
        <ele>115.894586</ele>
        <time>2021-08-27T09:46:53.000Z</time>
      </trkpt>
      <trkpt lat="45.34263" lon="10.72284">
        <ele>115.711174</ele>
        <time>2021-08-27T09:46:54.000Z</time>
      </trkpt>
      <trkpt lat="45.34255" lon="10.72278">
        <ele>115.524614</ele>
        <time>2021-08-27T09:46:55.000Z</time>
      </trkpt>
      <trkpt lat="45.3422" lon="10.7225">
        <ele>114.61151</ele>
        <time>2021-08-27T09:47:00.000Z</time>
      </trkpt>
      <trkpt lat="45.34207" lon="10.7224">
        <ele>114.275372</ele>
        <time>2021-08-27T09:47:02.000Z</time>
      </trkpt>
      <trkpt lat="45.34163" lon="10.72207">
        <ele>113.154141</ele>
        <time>2021-08-27T09:47:09.000Z</time>
      </trkpt>
      <trkpt lat="45.34117" lon="10.7218">
        <ele>112.290922</ele>
        <time>2021-08-27T09:47:17.000Z</time>
      </trkpt>
      <trkpt lat="45.34076" lon="10.72158">
        <ele>111.930486</ele>
        <time>2021-08-27T09:47:24.000Z</time>
      </trkpt>
      <trkpt lat="45.34053" lon="10.72145">
        <ele>111.722015</ele>
        <time>2021-08-27T09:47:28.000Z</time>
      </trkpt>
      <trkpt lat="45.34036" lon="10.72136">
        <ele>111.570969</ele>
        <time>2021-08-27T09:47:31.000Z</time>
      </trkpt>
      <trkpt lat="45.33995" lon="10.72114">
        <ele>111.204075</ele>
        <time>2021-08-27T09:47:39.000Z</time>
      </trkpt>
      <trkpt lat="45.33954" lon="10.72093">
        <ele>110.394443</ele>
        <time>2021-08-27T09:47:47.000Z</time>
      </trkpt>
      <trkpt lat="45.33945" lon="10.72088">
        <ele>109.947523</ele>
        <time>2021-08-27T09:47:49.000Z</time>
      </trkpt>
      <trkpt lat="45.33923" lon="10.72075">
        <ele>108.937511</ele>
        <time>2021-08-27T09:47:53.000Z</time>
      </trkpt>
      <trkpt lat="45.33905" lon="10.72064">
        <ele>108.092927</ele>
        <time>2021-08-27T09:47:56.000Z</time>
      </trkpt>
      <trkpt lat="45.33892" lon="10.72056">
        <ele>107.487712</ele>
        <time>2021-08-27T09:47:58.000Z</time>
      </trkpt>
      <trkpt lat="45.33872" lon="10.72044">
        <ele>106.569657</ele>
        <time>2021-08-27T09:48:01.000Z</time>
      </trkpt>
      <trkpt lat="45.33859" lon="10.72036">
        <ele>105.949873</ele>
        <time>2021-08-27T09:48:03.000Z</time>
      </trkpt>
      <trkpt lat="45.33846" lon="10.72029">
        <ele>105.370147</ele>
        <time>2021-08-27T09:48:05.000Z</time>
      </trkpt>
      <trkpt lat="45.33828" lon="10.72019">
        <ele>104.529835</ele>
        <time>2021-08-27T09:48:08.000Z</time>
      </trkpt>
      <trkpt lat="45.33822" lon="10.72015">
        <ele>104.261793</ele>
        <time>2021-08-27T09:48:09.000Z</time>
      </trkpt>
      <trkpt lat="45.33804" lon="10.72004">
        <ele>103.414489</ele>
        <time>2021-08-27T09:48:12.000Z</time>
      </trkpt>
      <trkpt lat="45.33797" lon="10.72">
        <ele>103.094996</ele>
        <time>2021-08-27T09:48:13.000Z</time>
      </trkpt>
      <trkpt lat="45.33778" lon="10.71986">
        <ele>102.012443</ele>
        <time>2021-08-27T09:48:16.000Z</time>
      </trkpt>
      <trkpt lat="45.33771" lon="10.7198">
        <ele>101.62057</ele>
        <time>2021-08-27T09:48:17.000Z</time>
      </trkpt>
      <trkpt lat="45.33744" lon="10.71952">
        <ele>99.963212</ele>
        <time>2021-08-27T09:48:21.000Z</time>
      </trkpt>
      <trkpt lat="45.33737" lon="10.71945">
        <ele>99.538646</ele>
        <time>2021-08-27T09:48:22.000Z</time>
      </trkpt>
      <trkpt lat="45.33731" lon="10.71937">
        <ele>99.104492</ele>
        <time>2021-08-27T09:48:23.000Z</time>
      </trkpt>
      <trkpt lat="45.33718" lon="10.71921">
        <ele>98.272711</ele>
        <time>2021-08-27T09:48:25.000Z</time>
      </trkpt>
      <trkpt lat="45.33694" lon="10.71889">
        <ele>96.656184</ele>
        <time>2021-08-27T09:48:29.000Z</time>
      </trkpt>
      <trkpt lat="45.33682" lon="10.71872">
        <ele>95.831726</ele>
        <time>2021-08-27T09:48:31.000Z</time>
      </trkpt>
      <trkpt lat="45.33653" lon="10.71833">
        <ele>94.25634</ele>
        <time>2021-08-27T09:48:36.000Z</time>
      </trkpt>
      <trkpt lat="45.3363" lon="10.71803">
        <ele>93.962092</ele>
        <time>2021-08-27T09:48:40.000Z</time>
      </trkpt>
      <trkpt lat="45.33618" lon="10.7179">
        <ele>93.823981</ele>
        <time>2021-08-27T09:48:42.000Z</time>
      </trkpt>
      <trkpt lat="45.33606" lon="10.71777">
        <ele>93.683256</ele>
        <time>2021-08-27T09:48:44.000Z</time>
      </trkpt>
      <trkpt lat="45.33577" lon="10.71746">
        <ele>93.342797</ele>
        <time>2021-08-27T09:48:49.000Z</time>
      </trkpt>
      <trkpt lat="45.33541" lon="10.71719">
        <ele>92.95879</ele>
        <time>2021-08-27T09:48:55.000Z</time>
      </trkpt>
      <trkpt lat="45.33514" lon="10.71705">
        <ele>92.691599</ele>
        <time>2021-08-27T09:48:59.000Z</time>
      </trkpt>
      <trkpt lat="45.33487" lon="10.71696">
        <ele>92.58549</ele>
        <time>2021-08-27T09:49:03.000Z</time>
      </trkpt>
      <trkpt lat="45.33481" lon="10.71694">
        <ele>92.56332</ele>
        <time>2021-08-27T09:49:04.000Z</time>
      </trkpt>
      <trkpt lat="45.33449" lon="10.71686">
        <ele>92.456983</ele>
        <time>2021-08-27T09:49:09.000Z</time>
      </trkpt>
      <trkpt lat="45.33437" lon="10.71682">
        <ele>92.415543</ele>
        <time>2021-08-27T09:49:11.000Z</time>
      </trkpt>
      <trkpt lat="45.33425" lon="10.71678">
        <ele>92.375857</ele>
        <time>2021-08-27T09:49:13.000Z</time>
      </trkpt>
      <trkpt lat="45.33414" lon="10.71675">
        <ele>92.338103</ele>
        <time>2021-08-27T09:49:15.000Z</time>
      </trkpt>
      <trkpt lat="45.33403" lon="10.71672">
        <ele>92.301412</ele>
        <time>2021-08-27T09:49:17.000Z</time>
      </trkpt>
      <trkpt lat="45.33349" lon="10.71657">
        <ele>92.121778</ele>
        <time>2021-08-27T09:49:27.000Z</time>
      </trkpt>
      <trkpt lat="45.33339" lon="10.71656">
        <ele>92.08713</ele>
        <time>2021-08-27T09:49:29.000Z</time>
      </trkpt>
      <trkpt lat="45.33319" lon="10.71657">
        <ele>91.832806</ele>
        <time>2021-08-27T09:49:33.000Z</time>
      </trkpt>
      <trkpt lat="45.33313" lon="10.71657">
        <ele>91.756297</ele>
        <time>2021-08-27T09:49:34.000Z</time>
      </trkpt>
      <trkpt lat="45.33308" lon="10.71656">
        <ele>91.683887</ele>
        <time>2021-08-27T09:49:35.000Z</time>
      </trkpt>
      <trkpt lat="45.33298" lon="10.71652">
        <ele>91.53559</ele>
        <time>2021-08-27T09:49:37.000Z</time>
      </trkpt>
      <trkpt lat="45.33294" lon="10.71649">
        <ele>91.462058</ele>
        <time>2021-08-27T09:49:38.000Z</time>
      </trkpt>
      <trkpt lat="45.33288" lon="10.71647">
        <ele>91.381273</ele>
        <time>2021-08-27T09:49:39.000Z</time>
      </trkpt>
      <trkpt lat="45.3327" lon="10.71645">
        <ele>91.117929</ele>
        <time>2021-08-27T09:49:42.000Z</time>
      </trkpt>
      <trkpt lat="45.33257" lon="10.71646">
        <ele>90.925785</ele>
        <time>2021-08-27T09:49:44.000Z</time>
      </trkpt>
      <trkpt lat="45.33211" lon="10.71649">
        <ele>90.25969</ele>
        <time>2021-08-27T09:49:51.000Z</time>
      </trkpt>
      <trkpt lat="45.33154" lon="10.71648">
        <ele>89.479011</ele>
        <time>2021-08-27T09:50:00.000Z</time>
      </trkpt>
      <trkpt lat="45.33148" lon="10.71648">
        <ele>89.477084</ele>
        <time>2021-08-27T09:50:01.000Z</time>
      </trkpt>
      <trkpt lat="45.33132" lon="10.71647">
        <ele>89.471046</ele>
        <time>2021-08-27T09:50:04.000Z</time>
      </trkpt>
      <trkpt lat="45.3311" lon="10.71646">
        <ele>89.463195</ele>
        <time>2021-08-27T09:50:08.000Z</time>
      </trkpt>
      <trkpt lat="45.3308" lon="10.71645">
        <ele>89.452251</ele>
        <time>2021-08-27T09:50:14.000Z</time>
      </trkpt>
      <trkpt lat="45.33054" lon="10.71645">
        <ele>89.442803</ele>
        <time>2021-08-27T09:50:19.000Z</time>
      </trkpt>
      <trkpt lat="45.33029" lon="10.71646">
        <ele>89.43357</ele>
        <time>2021-08-27T09:50:24.000Z</time>
      </trkpt>
      <trkpt lat="45.32992" lon="10.71646">
        <ele>89.420232</ele>
        <time>2021-08-27T09:50:31.000Z</time>
      </trkpt>
      <trkpt lat="45.32954" lon="10.71647">
        <ele>89.376137</ele>
        <time>2021-08-27T09:50:38.000Z</time>
      </trkpt>
      <trkpt lat="45.32928" lon="10.71647">
        <ele>89.330652</ele>
        <time>2021-08-27T09:50:43.000Z</time>
      </trkpt>
      <trkpt lat="45.32917" lon="10.71647">
        <ele>89.312934</ele>
        <time>2021-08-27T09:50:45.000Z</time>
      </trkpt>
      <trkpt lat="45.32907" lon="10.71647">
        <ele>89.295216</ele>
        <time>2021-08-27T09:50:47.000Z</time>
      </trkpt>
      <trkpt lat="45.32886" lon="10.71647">
        <ele>89.259441</ele>
        <time>2021-08-27T09:50:51.000Z</time>
      </trkpt>
      <trkpt lat="45.32871" lon="10.71648">
        <ele>89.234394</ele>
        <time>2021-08-27T09:50:54.000Z</time>
      </trkpt>
      <trkpt lat="45.32866" lon="10.71648">
        <ele>89.226386</ele>
        <time>2021-08-27T09:50:55.000Z</time>
      </trkpt>
      <trkpt lat="45.32862" lon="10.71648">
        <ele>89.218716</ele>
        <time>2021-08-27T09:50:56.000Z</time>
      </trkpt>
      <trkpt lat="45.32857" lon="10.71648">
        <ele>89.210876</ele>
        <time>2021-08-27T09:50:57.000Z</time>
      </trkpt>
      <trkpt lat="45.32853" lon="10.71648">
        <ele>89.20304</ele>
        <time>2021-08-27T09:50:58.000Z</time>
      </trkpt>
      <trkpt lat="45.32848" lon="10.71648">
        <ele>89.195033</ele>
        <time>2021-08-27T09:50:59.000Z</time>
      </trkpt>
      <trkpt lat="45.32824" lon="10.71649">
        <ele>89.154138</ele>
        <time>2021-08-27T09:51:04.000Z</time>
      </trkpt>
      <trkpt lat="45.32819" lon="10.71648">
        <ele>89.145613</ele>
        <time>2021-08-27T09:51:05.000Z</time>
      </trkpt>
      <trkpt lat="45.32809" lon="10.71649">
        <ele>89.128917</ele>
        <time>2021-08-27T09:51:07.000Z</time>
      </trkpt>
      <trkpt lat="45.32799" lon="10.71648">
        <ele>89.111711</ele>
        <time>2021-08-27T09:51:09.000Z</time>
      </trkpt>
      <trkpt lat="45.32794" lon="10.71648">
        <ele>89.077241</ele>
        <time>2021-08-27T09:51:10.000Z</time>
      </trkpt>
      <trkpt lat="45.32789" lon="10.71648">
        <ele>89.026601</ele>
        <time>2021-08-27T09:51:11.000Z</time>
      </trkpt>
      <trkpt lat="45.32784" lon="10.71648">
        <ele>88.973974</ele>
        <time>2021-08-27T09:51:12.000Z</time>
      </trkpt>
      <trkpt lat="45.32778" lon="10.71649">
        <ele>88.921306</ele>
        <time>2021-08-27T09:51:13.000Z</time>
      </trkpt>
      <trkpt lat="45.32762" lon="10.71647">
        <ele>88.760011</ele>
        <time>2021-08-27T09:51:16.000Z</time>
      </trkpt>
      <trkpt lat="45.32741" lon="10.71641">
        <ele>88.550383</ele>
        <time>2021-08-27T09:51:20.000Z</time>
      </trkpt>
      <trkpt lat="45.32727" lon="10.71635">
        <ele>88.397734</ele>
        <time>2021-08-27T09:51:23.000Z</time>
      </trkpt>
      <trkpt lat="45.32702" lon="10.71624">
        <ele>88.142541</ele>
        <time>2021-08-27T09:51:28.000Z</time>
      </trkpt>
      <trkpt lat="45.32682" lon="10.71616">
        <ele>87.937202</ele>
        <time>2021-08-27T09:51:32.000Z</time>
      </trkpt>
      <trkpt lat="45.32651" lon="10.71605">
        <ele>87.623633</ele>
        <time>2021-08-27T09:51:38.000Z</time>
      </trkpt>
      <trkpt lat="45.32637" lon="10.71599">
        <ele>87.470057</ele>
        <time>2021-08-27T09:51:41.000Z</time>
      </trkpt>
      <trkpt lat="45.32626" lon="10.71596">
        <ele>87.364097</ele>
        <time>2021-08-27T09:51:43.000Z</time>
      </trkpt>
      <trkpt lat="45.32616" lon="10.71593">
        <ele>87.320553</ele>
        <time>2021-08-27T09:51:45.000Z</time>
      </trkpt>
      <trkpt lat="45.32611" lon="10.71591">
        <ele>87.318938</ele>
        <time>2021-08-27T09:51:46.000Z</time>
      </trkpt>
      <trkpt lat="45.32588" lon="10.71584">
        <ele>87.311223</ele>
        <time>2021-08-27T09:51:51.000Z</time>
      </trkpt>
      <trkpt lat="45.32572" lon="10.7158">
        <ele>87.306196</ele>
        <time>2021-08-27T09:51:54.000Z</time>
      </trkpt>
      <trkpt lat="45.32561" lon="10.71578">
        <ele>87.302643</ele>
        <time>2021-08-27T09:51:56.000Z</time>
      </trkpt>
      <trkpt lat="45.3255" lon="10.71575">
        <ele>87.29918</ele>
        <time>2021-08-27T09:51:58.000Z</time>
      </trkpt>
      <trkpt lat="45.32518" lon="10.71567">
        <ele>87.288834</ele>
        <time>2021-08-27T09:52:04.000Z</time>
      </trkpt>
      <trkpt lat="45.32507" lon="10.71564">
        <ele>87.285492</ele>
        <time>2021-08-27T09:52:06.000Z</time>
      </trkpt>
      <trkpt lat="45.32486" lon="10.71559">
        <ele>87.27878</ele>
        <time>2021-08-27T09:52:10.000Z</time>
      </trkpt>
      <trkpt lat="45.3245" lon="10.71548">
        <ele>87.267077</ele>
        <time>2021-08-27T09:52:17.000Z</time>
      </trkpt>
      <trkpt lat="45.3243" lon="10.71543">
        <ele>87.199537</ele>
        <time>2021-08-27T09:52:21.000Z</time>
      </trkpt>
      <trkpt lat="45.32409" lon="10.71537">
        <ele>87.114277</ele>
        <time>2021-08-27T09:52:25.000Z</time>
      </trkpt>
      <trkpt lat="45.32361" lon="10.71524">
        <ele>86.915012</ele>
        <time>2021-08-27T09:52:34.000Z</time>
      </trkpt>
      <trkpt lat="45.32309" lon="10.7151">
        <ele>86.698497</ele>
        <time>2021-08-27T09:52:44.000Z</time>
      </trkpt>
      <trkpt lat="45.32273" lon="10.715">
        <ele>86.548432</ele>
        <time>2021-08-27T09:52:51.000Z</time>
      </trkpt>
      <trkpt lat="45.32258" lon="10.71496">
        <ele>86.427451</ele>
        <time>2021-08-27T09:52:54.000Z</time>
      </trkpt>
      <trkpt lat="45.32219" lon="10.71477">
        <ele>86.059583</ele>
        <time>2021-08-27T09:53:01.000Z</time>
      </trkpt>
      <trkpt lat="45.32214" lon="10.71472">
        <ele>86.004087</ele>
        <time>2021-08-27T09:53:02.000Z</time>
      </trkpt>
      <trkpt lat="45.32197" lon="10.7145">
        <ele>85.797867</ele>
        <time>2021-08-27T09:53:06.000Z</time>
      </trkpt>
      <trkpt lat="45.32192" lon="10.71445">
        <ele>85.746423</ele>
        <time>2021-08-27T09:53:07.000Z</time>
      </trkpt>
      <trkpt lat="45.32177" lon="10.71435">
        <ele>85.590804</ele>
        <time>2021-08-27T09:53:10.000Z</time>
      </trkpt>
      <trkpt lat="45.32166" lon="10.71429">
        <ele>85.482889</ele>
        <time>2021-08-27T09:53:12.000Z</time>
      </trkpt>
      <trkpt lat="45.3216" lon="10.71426">
        <ele>85.427004</ele>
        <time>2021-08-27T09:53:13.000Z</time>
      </trkpt>
      <trkpt lat="45.32148" lon="10.71421">
        <ele>85.313515</ele>
        <time>2021-08-27T09:53:15.000Z</time>
      </trkpt>
      <trkpt lat="45.32136" lon="10.71415">
        <ele>85.197324</ele>
        <time>2021-08-27T09:53:17.000Z</time>
      </trkpt>
      <trkpt lat="45.32118" lon="10.71407">
        <ele>85.033199</ele>
        <time>2021-08-27T09:53:20.000Z</time>
      </trkpt>
      <trkpt lat="45.32074" lon="10.71387">
        <ele>84.704442</ele>
        <time>2021-08-27T09:53:28.000Z</time>
      </trkpt>
      <trkpt lat="45.32062" lon="10.71383">
        <ele>84.63044</ele>
        <time>2021-08-27T09:53:30.000Z</time>
      </trkpt>
      <trkpt lat="45.32056" lon="10.71382">
        <ele>84.595864</ele>
        <time>2021-08-27T09:53:31.000Z</time>
      </trkpt>
      <trkpt lat="45.32051" lon="10.7138">
        <ele>84.560151</ele>
        <time>2021-08-27T09:53:32.000Z</time>
      </trkpt>
      <trkpt lat="45.32045" lon="10.71379">
        <ele>84.523289</ele>
        <time>2021-08-27T09:53:33.000Z</time>
      </trkpt>
      <trkpt lat="45.32034" lon="10.71377">
        <ele>84.455988</ele>
        <time>2021-08-27T09:53:35.000Z</time>
      </trkpt>
      <trkpt lat="45.32023" lon="10.71375">
        <ele>84.388745</ele>
        <time>2021-08-27T09:53:37.000Z</time>
      </trkpt>
      <trkpt lat="45.32018" lon="10.71374">
        <ele>84.355176</ele>
        <time>2021-08-27T09:53:38.000Z</time>
      </trkpt>
      <trkpt lat="45.32002" lon="10.71372">
        <ele>84.26004</ele>
        <time>2021-08-27T09:53:41.000Z</time>
      </trkpt>
      <trkpt lat="45.31983" lon="10.71369">
        <ele>84.138989</ele>
        <time>2021-08-27T09:53:45.000Z</time>
      </trkpt>
      <trkpt lat="45.31943" lon="10.71364">
        <ele>83.891649</ele>
        <time>2021-08-27T09:53:53.000Z</time>
      </trkpt>
      <trkpt lat="45.31923" lon="10.71361">
        <ele>83.79917</ele>
        <time>2021-08-27T09:53:57.000Z</time>
      </trkpt>
      <trkpt lat="45.31893" lon="10.7136">
        <ele>83.814523</ele>
        <time>2021-08-27T09:54:03.000Z</time>
      </trkpt>
      <trkpt lat="45.31887" lon="10.71361">
        <ele>83.817242</ele>
        <time>2021-08-27T09:54:04.000Z</time>
      </trkpt>
      <trkpt lat="45.31867" lon="10.71365">
        <ele>83.827923</ele>
        <time>2021-08-27T09:54:08.000Z</time>
      </trkpt>
      <trkpt lat="45.31857" lon="10.71367">
        <ele>83.833119</ele>
        <time>2021-08-27T09:54:10.000Z</time>
      </trkpt>
      <trkpt lat="45.31833" lon="10.71374">
        <ele>83.845558</ele>
        <time>2021-08-27T09:54:15.000Z</time>
      </trkpt>
      <trkpt lat="45.31819" lon="10.71378">
        <ele>83.852931</ele>
        <time>2021-08-27T09:54:18.000Z</time>
      </trkpt>
      <trkpt lat="45.31785" lon="10.71387">
        <ele>83.870341</ele>
        <time>2021-08-27T09:54:25.000Z</time>
      </trkpt>
      <trkpt lat="45.31771" lon="10.71391">
        <ele>83.877749</ele>
        <time>2021-08-27T09:54:28.000Z</time>
      </trkpt>
      <trkpt lat="45.31738" lon="10.71399">
        <ele>83.785522</ele>
        <time>2021-08-27T09:54:35.000Z</time>
      </trkpt>
      <trkpt lat="45.31733" lon="10.714">
        <ele>83.743419</ele>
        <time>2021-08-27T09:54:36.000Z</time>
      </trkpt>
      <trkpt lat="45.31728" lon="10.71401">
        <ele>83.704116</ele>
        <time>2021-08-27T09:54:37.000Z</time>
      </trkpt>
      <trkpt lat="45.31724" lon="10.71403">
        <ele>83.663169</ele>
        <time>2021-08-27T09:54:38.000Z</time>
      </trkpt>
      <trkpt lat="45.31719" lon="10.71404">
        <ele>83.623044</ele>
        <time>2021-08-27T09:54:39.000Z</time>
      </trkpt>
      <trkpt lat="45.31714" lon="10.71405">
        <ele>83.581272</ele>
        <time>2021-08-27T09:54:40.000Z</time>
      </trkpt>
      <trkpt lat="45.3171" lon="10.71407">
        <ele>83.543488</ele>
        <time>2021-08-27T09:54:41.000Z</time>
      </trkpt>
      <trkpt lat="45.31705" lon="10.71408">
        <ele>83.503471</ele>
        <time>2021-08-27T09:54:42.000Z</time>
      </trkpt>
      <trkpt lat="45.31681" lon="10.71414">
        <ele>83.301312</ele>
        <time>2021-08-27T09:54:47.000Z</time>
      </trkpt>
      <trkpt lat="45.31667" lon="10.71419">
        <ele>83.178006</ele>
        <time>2021-08-27T09:54:50.000Z</time>
      </trkpt>
      <trkpt lat="45.31657" lon="10.71421">
        <ele>83.09569</ele>
        <time>2021-08-27T09:54:52.000Z</time>
      </trkpt>
      <trkpt lat="45.31634" lon="10.71425">
        <ele>82.902342</ele>
        <time>2021-08-27T09:54:57.000Z</time>
      </trkpt>
      <trkpt lat="45.3162" lon="10.71428">
        <ele>82.780016</ele>
        <time>2021-08-27T09:55:00.000Z</time>
      </trkpt>
      <trkpt lat="45.3161" lon="10.71431">
        <ele>82.698829</ele>
        <time>2021-08-27T09:55:02.000Z</time>
      </trkpt>
      <trkpt lat="45.31562" lon="10.71443">
        <ele>82.349327</ele>
        <time>2021-08-27T09:55:12.000Z</time>
      </trkpt>
      <trkpt lat="45.31521" lon="10.71451">
        <ele>82.23105</ele>
        <time>2021-08-27T09:55:21.000Z</time>
      </trkpt>
      <trkpt lat="45.31517" lon="10.71452">
        <ele>82.218275</ele>
        <time>2021-08-27T09:55:22.000Z</time>
      </trkpt>
      <trkpt lat="45.3149" lon="10.71458">
        <ele>82.139518</ele>
        <time>2021-08-27T09:55:28.000Z</time>
      </trkpt>
      <trkpt lat="45.31485" lon="10.71459">
        <ele>82.126145</ele>
        <time>2021-08-27T09:55:29.000Z</time>
      </trkpt>
      <trkpt lat="45.31455" lon="10.71466">
        <ele>82.037769</ele>
        <time>2021-08-27T09:55:36.000Z</time>
      </trkpt>
      <trkpt lat="45.31442" lon="10.7147">
        <ele>81.999367</ele>
        <time>2021-08-27T09:55:39.000Z</time>
      </trkpt>
      <trkpt lat="45.31429" lon="10.71475">
        <ele>81.960557</ele>
        <time>2021-08-27T09:55:42.000Z</time>
      </trkpt>
      <trkpt lat="45.31416" lon="10.7148">
        <ele>81.922079</ele>
        <time>2021-08-27T09:55:45.000Z</time>
      </trkpt>
      <trkpt lat="45.31384" lon="10.71492">
        <ele>81.852758</ele>
        <time>2021-08-27T09:55:52.000Z</time>
      </trkpt>
      <trkpt lat="45.31354" lon="10.71503">
        <ele>81.823936</ele>
        <time>2021-08-27T09:55:59.000Z</time>
      </trkpt>
      <trkpt lat="45.3135" lon="10.71504">
        <ele>81.820238</ele>
        <time>2021-08-27T09:56:00.000Z</time>
      </trkpt>
      <trkpt lat="45.31333" lon="10.71508">
        <ele>81.804883</ele>
        <time>2021-08-27T09:56:04.000Z</time>
      </trkpt>
      <trkpt lat="45.31329" lon="10.7151">
        <ele>81.800902</ele>
        <time>2021-08-27T09:56:05.000Z</time>
      </trkpt>
      <trkpt lat="45.3132" lon="10.71512">
        <ele>81.792677</ele>
        <time>2021-08-27T09:56:07.000Z</time>
      </trkpt>
      <trkpt lat="45.31299" lon="10.71518">
        <ele>81.772586</ele>
        <time>2021-08-27T09:56:12.000Z</time>
      </trkpt>
      <trkpt lat="45.31278" lon="10.71523">
        <ele>81.752739</ele>
        <time>2021-08-27T09:56:17.000Z</time>
      </trkpt>
      <trkpt lat="45.31265" lon="10.71527">
        <ele>81.740563</ele>
        <time>2021-08-27T09:56:20.000Z</time>
      </trkpt>
      <trkpt lat="45.31252" lon="10.7153">
        <ele>81.728898</ele>
        <time>2021-08-27T09:56:23.000Z</time>
      </trkpt>
      <trkpt lat="45.31244" lon="10.7153">
        <ele>81.721445</ele>
        <time>2021-08-27T09:56:25.000Z</time>
      </trkpt>
      <trkpt lat="45.31235" lon="10.7153">
        <ele>81.713171</ele>
        <time>2021-08-27T09:56:27.000Z</time>
      </trkpt>
      <trkpt lat="45.31226" lon="10.7153">
        <ele>81.704802</ele>
        <time>2021-08-27T09:56:29.000Z</time>
      </trkpt>
      <trkpt lat="45.31207" lon="10.71528">
        <ele>81.700167</ele>
        <time>2021-08-27T09:56:33.000Z</time>
      </trkpt>
      <trkpt lat="45.31193" lon="10.71526">
        <ele>81.701401</ele>
        <time>2021-08-27T09:56:36.000Z</time>
      </trkpt>
      <trkpt lat="45.31183" lon="10.71525">
        <ele>81.702258</ele>
        <time>2021-08-27T09:56:38.000Z</time>
      </trkpt>
      <trkpt lat="45.31136" lon="10.71515">
        <ele>81.706334</ele>
        <time>2021-08-27T09:56:47.000Z</time>
      </trkpt>
      <trkpt lat="45.31093" lon="10.71505">
        <ele>81.710044</ele>
        <time>2021-08-27T09:56:56.000Z</time>
      </trkpt>
      <trkpt lat="45.31088" lon="10.71504">
        <ele>81.710462</ele>
        <time>2021-08-27T09:56:57.000Z</time>
      </trkpt>
      <trkpt lat="45.31037" lon="10.71496">
        <ele>81.659821</ele>
        <time>2021-08-27T09:57:08.000Z</time>
      </trkpt>
      <trkpt lat="45.31016" lon="10.71495">
        <ele>81.436889</ele>
        <time>2021-08-27T09:57:12.000Z</time>
      </trkpt>
      <trkpt lat="45.30982" lon="10.71494">
        <ele>81.064688</ele>
        <time>2021-08-27T09:57:18.000Z</time>
      </trkpt>
      <trkpt lat="45.30977" lon="10.71494">
        <ele>81.004273</ele>
        <time>2021-08-27T09:57:19.000Z</time>
      </trkpt>
      <trkpt lat="45.30928" lon="10.71492">
        <ele>80.462952</ele>
        <time>2021-08-27T09:57:28.000Z</time>
      </trkpt>
      <trkpt lat="45.30907" lon="10.71492">
        <ele>80.234608</ele>
        <time>2021-08-27T09:57:32.000Z</time>
      </trkpt>
      <trkpt lat="45.30902" lon="10.71492">
        <ele>80.17753</ele>
        <time>2021-08-27T09:57:33.000Z</time>
      </trkpt>
      <trkpt lat="45.30891" lon="10.71492">
        <ele>80.066624</ele>
        <time>2021-08-27T09:57:35.000Z</time>
      </trkpt>
      <trkpt lat="45.30877" lon="10.71493">
        <ele>79.903008</ele>
        <time>2021-08-27T09:57:38.000Z</time>
      </trkpt>
      <trkpt lat="45.30853" lon="10.71496">
        <ele>79.69284</ele>
        <time>2021-08-27T09:57:43.000Z</time>
      </trkpt>
      <trkpt lat="45.30833" lon="10.71499">
        <ele>79.589207</ele>
        <time>2021-08-27T09:57:47.000Z</time>
      </trkpt>
      <trkpt lat="45.3078" lon="10.71514">
        <ele>79.308335</ele>
        <time>2021-08-27T09:57:58.000Z</time>
      </trkpt>
      <trkpt lat="45.30729" lon="10.71532">
        <ele>79.030287</ele>
        <time>2021-08-27T09:58:08.000Z</time>
      </trkpt>
      <trkpt lat="45.30693" lon="10.71549">
        <ele>78.835037</ele>
        <time>2021-08-27T09:58:15.000Z</time>
      </trkpt>
      <trkpt lat="45.3068" lon="10.71557">
        <ele>78.764707</ele>
        <time>2021-08-27T09:58:18.000Z</time>
      </trkpt>
      <trkpt lat="45.30676" lon="10.71558">
        <ele>78.744386</ele>
        <time>2021-08-27T09:58:19.000Z</time>
      </trkpt>
      <trkpt lat="45.30663" lon="10.71563">
        <ele>78.684812</ele>
        <time>2021-08-27T09:58:22.000Z</time>
      </trkpt>
      <trkpt lat="45.30619" lon="10.71582">
        <ele>78.476686</ele>
        <time>2021-08-27T09:58:32.000Z</time>
      </trkpt>
      <trkpt lat="45.30608" lon="10.71586">
        <ele>78.422937</ele>
        <time>2021-08-27T09:58:35.000Z</time>
      </trkpt>
      <trkpt lat="45.306" lon="10.71589">
        <ele>78.38904</ele>
        <time>2021-08-27T09:58:37.000Z</time>
      </trkpt>
      <trkpt lat="45.30597" lon="10.71589">
        <ele>78.373508</ele>
        <time>2021-08-27T09:58:38.000Z</time>
      </trkpt>
      <trkpt lat="45.30594" lon="10.71589">
        <ele>78.35944</ele>
        <time>2021-08-27T09:58:39.000Z</time>
      </trkpt>
      <trkpt lat="45.30585" lon="10.71586">
        <ele>78.319847</ele>
        <time>2021-08-27T09:58:42.000Z</time>
      </trkpt>
      <trkpt lat="45.30567" lon="10.71568">
        <ele>78.218531</ele>
        <time>2021-08-27T09:58:48.000Z</time>
      </trkpt>
      <trkpt lat="45.30539" lon="10.71543">
        <ele>78.069485</ele>
        <time>2021-08-27T09:58:55.000Z</time>
      </trkpt>
      <trkpt lat="45.30519" lon="10.71527">
        <ele>77.967798</ele>
        <time>2021-08-27T09:59:00.000Z</time>
      </trkpt>
      <trkpt lat="45.30511" lon="10.71522">
        <ele>77.929345</ele>
        <time>2021-08-27T09:59:02.000Z</time>
      </trkpt>
      <trkpt lat="45.30503" lon="10.71514">
        <ele>77.889042</ele>
        <time>2021-08-27T09:59:04.000Z</time>
      </trkpt>
      <trkpt lat="45.305" lon="10.7151">
        <ele>77.868803</ele>
        <time>2021-08-27T09:59:05.000Z</time>
      </trkpt>
      <trkpt lat="45.30485" lon="10.71496">
        <ele>77.791152</ele>
        <time>2021-08-27T09:59:09.000Z</time>
      </trkpt>
      <trkpt lat="45.30477" lon="10.71491">
        <ele>77.754713</ele>
        <time>2021-08-27T09:59:11.000Z</time>
      </trkpt>
      <trkpt lat="45.3047" lon="10.71485">
        <ele>77.719117</ele>
        <time>2021-08-27T09:59:13.000Z</time>
      </trkpt>
      <trkpt lat="45.30466" lon="10.71483">
        <ele>77.701061</ele>
        <time>2021-08-27T09:59:14.000Z</time>
      </trkpt>
      <trkpt lat="45.30459" lon="10.71477">
        <ele>77.664287</ele>
        <time>2021-08-27T09:59:16.000Z</time>
      </trkpt>
      <trkpt lat="45.30443" lon="10.71464">
        <ele>77.587637</ele>
        <time>2021-08-27T09:59:21.000Z</time>
      </trkpt>
      <trkpt lat="45.30433" lon="10.71456">
        <ele>77.537921</ele>
        <time>2021-08-27T09:59:26.000Z</time>
      </trkpt>
      <trkpt lat="45.3042" lon="10.71445">
        <ele>77.470805</ele>
        <time>2021-08-27T09:59:32.000Z</time>
      </trkpt>
      <trkpt lat="45.30414" lon="10.71443">
        <ele>77.447079</ele>
        <time>2021-08-27T09:59:34.000Z</time>
      </trkpt>
      <trkpt lat="45.30402" lon="10.71436">
        <ele>77.386979</ele>
        <time>2021-08-27T09:59:39.000Z</time>
      </trkpt>
      <trkpt lat="45.30396" lon="10.71432">
        <ele>77.359688</ele>
        <time>2021-08-27T09:59:42.000Z</time>
      </trkpt>
      <trkpt lat="45.30394" lon="10.71432">
        <ele>77.350979</ele>
        <time>2021-08-27T09:59:43.000Z</time>
      </trkpt>
      <trkpt lat="45.30387" lon="10.71436">
        <ele>77.318634</ele>
        <time>2021-08-27T09:59:46.000Z</time>
      </trkpt>
      <trkpt lat="45.30379" lon="10.71451">
        <ele>77.263025</ele>
        <time>2021-08-27T09:59:50.000Z</time>
      </trkpt>
      <trkpt lat="45.30371" lon="10.71474">
        <ele>77.148879</ele>
        <time>2021-08-27T09:59:56.000Z</time>
      </trkpt>
      <trkpt lat="45.30362" lon="10.71486">
        <ele>77.022038</ele>
        <time>2021-08-27T10:00:00.000Z</time>
      </trkpt>
      <trkpt lat="45.30361" lon="10.71489">
        <ele>76.992323</ele>
        <time>2021-08-27T10:00:01.000Z</time>
      </trkpt>
      <trkpt lat="45.30359" lon="10.71493">
        <ele>76.959507</ele>
        <time>2021-08-27T10:00:02.000Z</time>
      </trkpt>
      <trkpt lat="45.30352" lon="10.71504">
        <ele>76.847465</ele>
        <time>2021-08-27T10:00:05.000Z</time>
      </trkpt>
      <trkpt lat="45.30341" lon="10.71518">
        <ele>76.69432</ele>
        <time>2021-08-27T10:00:09.000Z</time>
      </trkpt>
      <trkpt lat="45.30335" lon="10.71524">
        <ele>76.61936</ele>
        <time>2021-08-27T10:00:11.000Z</time>
      </trkpt>
      <trkpt lat="45.30325" lon="10.71539">
        <ele>76.470586</ele>
        <time>2021-08-27T10:00:16.000Z</time>
      </trkpt>
      <trkpt lat="45.30311" lon="10.71555">
        <ele>76.278937</ele>
        <time>2021-08-27T10:00:22.000Z</time>
      </trkpt>
      <trkpt lat="45.30308" lon="10.71558">
        <ele>76.242037</ele>
        <time>2021-08-27T10:00:23.000Z</time>
      </trkpt>
      <trkpt lat="45.30297" lon="10.71568">
        <ele>76.098295</ele>
        <time>2021-08-27T10:00:27.000Z</time>
      </trkpt>
      <trkpt lat="45.30294" lon="10.71571">
        <ele>76.063968</ele>
        <time>2021-08-27T10:00:28.000Z</time>
      </trkpt>
      <trkpt lat="45.30282" lon="10.71581">
        <ele>75.920858</ele>
        <time>2021-08-27T10:00:34.000Z</time>
      </trkpt>
      <trkpt lat="45.30282" lon="10.71581">
        <ele>75.917614</ele>
        <time>2021-08-27T10:00:41.000Z</time>
      </trkpt>
      <trkpt lat="45.30282" lon="10.71581">
        <ele>75.917614</ele>
        <time>2021-08-27T10:00:46.000Z</time>
      </trkpt>
      <trkpt lat="45.30282" lon="10.71581">
        <ele>75.917614</ele>
        <time>2021-08-27T10:00:53.000Z</time>
      </trkpt>
      <trkpt lat="45.30282" lon="10.71581">
        <ele>75.917614</ele>
        <time>2021-08-27T10:00:57.000Z</time>
      </trkpt>
      <trkpt lat="45.30282" lon="10.71581">
        <ele>75.917614</ele>
        <time>2021-08-27T10:01:22.000Z</time>
      </trkpt>
      <trkpt lat="45.30282" lon="10.71581">
        <ele>75.917614</ele>
        <time>2021-08-27T10:01:27.000Z</time>
      </trkpt>
      <trkpt lat="45.30282" lon="10.71581">
        <ele>75.915393</ele>
        <time>2021-08-27T10:01:29.000Z</time>
      </trkpt>
      <trkpt lat="45.30281" lon="10.71583">
        <ele>75.899512</ele>
        <time>2021-08-27T10:01:30.000Z</time>
      </trkpt>
      <trkpt lat="45.30278" lon="10.71588">
        <ele>75.851265</ele>
        <time>2021-08-27T10:01:32.000Z</time>
      </trkpt>
      <trkpt lat="45.30271" lon="10.71598">
        <ele>75.748075</ele>
        <time>2021-08-27T10:01:36.000Z</time>
      </trkpt>
      <trkpt lat="45.30269" lon="10.71597">
        <ele>75.727414</ele>
        <time>2021-08-27T10:01:37.000Z</time>
      </trkpt>
      <trkpt lat="45.30265" lon="10.71592">
        <ele>75.667185</ele>
        <time>2021-08-27T10:01:40.000Z</time>
      </trkpt>
      <trkpt lat="45.30263" lon="10.71584">
        <ele>75.60531</ele>
        <time>2021-08-27T10:01:43.000Z</time>
      </trkpt>
      <trkpt lat="45.30262" lon="10.71581">
        <ele>75.580261</ele>
        <time>2021-08-27T10:01:44.000Z</time>
      </trkpt>
      <trkpt lat="45.30254" lon="10.7157">
        <ele>75.467429</ele>
        <time>2021-08-27T10:01:48.000Z</time>
      </trkpt>
      <trkpt lat="45.30238" lon="10.71557">
        <ele>75.315138</ele>
        <time>2021-08-27T10:01:54.000Z</time>
      </trkpt>
      <trkpt lat="45.30222" lon="10.71542">
        <ele>75.314013</ele>
        <time>2021-08-27T10:02:01.000Z</time>
      </trkpt>
      <trkpt lat="45.30207" lon="10.7153">
        <ele>75.313039</ele>
        <time>2021-08-27T10:02:10.000Z</time>
      </trkpt>
      <trkpt lat="45.30206" lon="10.71527">
        <ele>75.3129</ele>
        <time>2021-08-27T10:02:18.000Z</time>
      </trkpt>
      <trkpt lat="45.30206" lon="10.71528">
        <ele>75.31288</ele>
        <time>2021-08-27T10:02:22.000Z</time>
      </trkpt>
      <trkpt lat="45.30206" lon="10.71528">
        <ele>75.312855</ele>
        <time>2021-08-27T10:02:24.000Z</time>
      </trkpt>
      <trkpt lat="45.30206" lon="10.71528">
        <ele>75.312855</ele>
        <time>2021-08-27T10:02:25.000Z</time>
      </trkpt>
      <trkpt lat="45.30206" lon="10.71528">
        <ele>75.312843</ele>
        <time>2021-08-27T10:02:26.000Z</time>
      </trkpt>
      <trkpt lat="45.30204" lon="10.71526">
        <ele>75.312679</ele>
        <time>2021-08-27T10:02:28.000Z</time>
      </trkpt>
      <trkpt lat="45.30203" lon="10.71524">
        <ele>75.312605</ele>
        <time>2021-08-27T10:02:29.000Z</time>
      </trkpt>
      <trkpt lat="45.30202" lon="10.71523">
        <ele>75.312529</ele>
        <time>2021-08-27T10:02:30.000Z</time>
      </trkpt>
      <trkpt lat="45.30201" lon="10.71523">
        <ele>75.312495</ele>
        <time>2021-08-27T10:02:33.000Z</time>
      </trkpt>
      <trkpt lat="45.30201" lon="10.71523">
        <ele>75.312495</ele>
        <time>2021-08-27T10:02:36.000Z</time>
      </trkpt>
      <trkpt lat="45.302" lon="10.71523">
        <ele>75.312451</ele>
        <time>2021-08-27T10:02:47.000Z</time>
      </trkpt>
      <trkpt lat="45.302" lon="10.71523">
        <ele>75.312451</ele>
        <time>2021-08-27T10:02:53.000Z</time>
      </trkpt>
      <trkpt lat="45.302" lon="10.71523">
        <ele>75.312451</ele>
        <time>2021-08-27T10:02:58.000Z</time>
      </trkpt>
      <trkpt lat="45.302" lon="10.71523">
        <ele>75.312451</ele>
        <time>2021-08-27T10:03:02.000Z</time>
      </trkpt>
      <trkpt lat="45.302" lon="10.71523">
        <ele>75.312451</ele>
        <time>2021-08-27T10:03:09.000Z</time>
      </trkpt>
      <trkpt lat="45.302" lon="10.71523">
        <ele>75.312451</ele>
        <time>2021-08-27T10:03:17.000Z</time>
      </trkpt>
      <trkpt lat="45.302" lon="10.71523">
        <ele>75.312451</ele>
        <time>2021-08-27T10:03:19.000Z</time>
      </trkpt>
      <trkpt lat="45.302" lon="10.71523">
        <ele>75.312451</ele>
        <time>2021-08-27T10:03:20.000Z</time>
      </trkpt>
      <trkpt lat="45.302" lon="10.71523">
        <ele>75.312451</ele>
        <time>2021-08-27T10:03:22.000Z</time>
      </trkpt>
      <trkpt lat="45.302" lon="10.71523">
        <ele>75.312451</ele>
        <time>2021-08-27T10:03:23.000Z</time>
      </trkpt>
      <trkpt lat="45.302" lon="10.71523">
        <ele>75.312451</ele>
        <time>2021-08-27T10:03:24.000Z</time>
      </trkpt>
      <trkpt lat="45.302" lon="10.71523">
        <ele>75.312451</ele>
        <time>2021-08-27T10:03:27.000Z</time>
      </trkpt>
      <trkpt lat="45.302" lon="10.71523">
        <ele>75.312451</ele>
        <time>2021-08-27T10:03:42.000Z</time>
      </trkpt>
      <trkpt lat="45.302" lon="10.71523">
        <ele>75.312451</ele>
        <time>2021-08-27T10:03:49.000Z</time>
      </trkpt>
      <trkpt lat="45.302" lon="10.71523">
        <ele>75.312451</ele>
        <time>2021-08-27T10:03:51.000Z</time>
      </trkpt>
      <trkpt lat="45.302" lon="10.71523">
        <ele>75.312451</ele>
        <time>2021-08-27T10:04:04.000Z</time>
      </trkpt>
      <trkpt lat="45.302" lon="10.71523">
        <ele>75.312451</ele>
        <time>2021-08-27T10:04:08.000Z</time>
      </trkpt>
      <trkpt lat="45.302" lon="10.71523">
        <ele>75.312451</ele>
        <time>2021-08-27T10:04:12.000Z</time>
      </trkpt>
      <trkpt lat="45.302" lon="10.71523">
        <ele>75.312451</ele>
        <time>2021-08-27T10:04:17.000Z</time>
      </trkpt>
      <trkpt lat="45.302" lon="10.71523">
        <ele>75.312451</ele>
        <time>2021-08-27T10:04:34.000Z</time>
      </trkpt>
      <trkpt lat="45.302" lon="10.71523">
        <ele>75.312451</ele>
        <time>2021-08-27T10:04:39.000Z</time>
      </trkpt>
      <trkpt lat="45.302" lon="10.71523">
        <ele>75.312451</ele>
        <time>2021-08-27T10:04:47.000Z</time>
      </trkpt>
      <trkpt lat="45.302" lon="10.71523">
        <ele>75.312451</ele>
        <time>2021-08-27T10:04:50.000Z</time>
      </trkpt>
      <trkpt lat="45.302" lon="10.71523">
        <ele>75.312451</ele>
        <time>2021-08-27T10:04:53.000Z</time>
      </trkpt>
      <trkpt lat="45.302" lon="10.71523">
        <ele>75.312451</ele>
        <time>2021-08-27T10:05:01.000Z</time>
      </trkpt>
      <trkpt lat="45.302" lon="10.71523">
        <ele>75.312451</ele>
        <time>2021-08-27T10:05:06.000Z</time>
      </trkpt>
      <trkpt lat="45.302" lon="10.71523">
        <ele>75.312444</ele>
        <time>2021-08-27T10:05:10.000Z</time>
      </trkpt>
      <trkpt lat="45.30202" lon="10.71525">
        <ele>75.312295</ele>
        <time>2021-08-27T10:05:12.000Z</time>
      </trkpt>
      <trkpt lat="45.30203" lon="10.71525">
        <ele>75.312233</ele>
        <time>2021-08-27T10:05:13.000Z</time>
      </trkpt>
      <trkpt lat="45.30208" lon="10.71531">
        <ele>75.311854</ele>
        <time>2021-08-27T10:05:20.000Z</time>
      </trkpt>
      <trkpt lat="45.30208" lon="10.71531">
        <ele>75.311854</ele>
        <time>2021-08-27T10:05:24.000Z</time>
      </trkpt>
      <trkpt lat="45.30208" lon="10.71531">
        <ele>75.311854</ele>
        <time>2021-08-27T10:05:25.000Z</time>
      </trkpt>
      <trkpt lat="45.30208" lon="10.7153">
        <ele>75.311786</ele>
        <time>2021-08-27T10:05:37.000Z</time>
      </trkpt>
      <trkpt lat="45.30207" lon="10.71527">
        <ele>75.311651</ele>
        <time>2021-08-27T10:05:39.000Z</time>
      </trkpt>
      <trkpt lat="45.30207" lon="10.71526">
        <ele>75.311609</ele>
        <time>2021-08-27T10:05:45.000Z</time>
      </trkpt>
      <trkpt lat="45.30207" lon="10.71528">
        <ele>75.311535</ele>
        <time>2021-08-27T10:05:54.000Z</time>
      </trkpt>
      <trkpt lat="45.30206" lon="10.71531">
        <ele>75.311397</ele>
        <time>2021-08-27T10:05:57.000Z</time>
      </trkpt>
      <trkpt lat="45.30205" lon="10.71532">
        <ele>75.311322</ele>
        <time>2021-08-27T10:05:58.000Z</time>
      </trkpt>
      <trkpt lat="45.302" lon="10.71541">
        <ele>75.310839</ele>
        <time>2021-08-27T10:06:01.000Z</time>
      </trkpt>
      <trkpt lat="45.30187" lon="10.71568">
        <ele>75.309526</ele>
        <time>2021-08-27T10:06:07.000Z</time>
      </trkpt>
      <trkpt lat="45.30165" lon="10.71613">
        <ele>75.307244</ele>
        <time>2021-08-27T10:06:16.000Z</time>
      </trkpt>
      <trkpt lat="45.30138" lon="10.71665">
        <ele>75.277938</ele>
        <time>2021-08-27T10:06:25.000Z</time>
      </trkpt>
      <trkpt lat="45.3011" lon="10.71716">
        <ele>75.016363</ele>
        <time>2021-08-27T10:06:34.000Z</time>
      </trkpt>
      <trkpt lat="45.30082" lon="10.71759">
        <ele>74.780071</ele>
        <time>2021-08-27T10:06:42.000Z</time>
      </trkpt>
      <trkpt lat="45.30055" lon="10.71803">
        <ele>74.546765</ele>
        <time>2021-08-27T10:06:50.000Z</time>
      </trkpt>
      <trkpt lat="45.30051" lon="10.71808">
        <ele>74.516765</ele>
        <time>2021-08-27T10:06:51.000Z</time>
      </trkpt>
      <trkpt lat="45.30044" lon="10.71818">
        <ele>74.458583</ele>
        <time>2021-08-27T10:06:53.000Z</time>
      </trkpt>
      <trkpt lat="45.30027" lon="10.7184">
        <ele>74.32924</ele>
        <time>2021-08-27T10:06:57.000Z</time>
      </trkpt>
      <trkpt lat="45.30019" lon="10.71851">
        <ele>74.279813</ele>
        <time>2021-08-27T10:06:59.000Z</time>
      </trkpt>
      <trkpt lat="45.30001" lon="10.71873">
        <ele>74.303583</ele>
        <time>2021-08-27T10:07:03.000Z</time>
      </trkpt>
      <trkpt lat="45.29981" lon="10.71902">
        <ele>74.332331</ele>
        <time>2021-08-27T10:07:08.000Z</time>
      </trkpt>
      <trkpt lat="45.29956" lon="10.71936">
        <ele>74.367197</ele>
        <time>2021-08-27T10:07:15.000Z</time>
      </trkpt>
      <trkpt lat="45.29952" lon="10.7194">
        <ele>74.371972</ele>
        <time>2021-08-27T10:07:16.000Z</time>
      </trkpt>
      <trkpt lat="45.29938" lon="10.71959">
        <ele>74.391565</ele>
        <time>2021-08-27T10:07:20.000Z</time>
      </trkpt>
      <trkpt lat="45.29923" lon="10.71977">
        <ele>74.411441</ele>
        <time>2021-08-27T10:07:24.000Z</time>
      </trkpt>
      <trkpt lat="45.29915" lon="10.71987">
        <ele>74.421727</ele>
        <time>2021-08-27T10:07:26.000Z</time>
      </trkpt>
      <trkpt lat="45.29911" lon="10.71992">
        <ele>74.427015</ele>
        <time>2021-08-27T10:07:27.000Z</time>
      </trkpt>
      <trkpt lat="45.299" lon="10.72006">
        <ele>74.442448</ele>
        <time>2021-08-27T10:07:30.000Z</time>
      </trkpt>
      <trkpt lat="45.29887" lon="10.72024">
        <ele>74.4658</ele>
        <time>2021-08-27T10:07:34.000Z</time>
      </trkpt>
      <trkpt lat="45.29885" lon="10.72028">
        <ele>74.481101</ele>
        <time>2021-08-27T10:07:35.000Z</time>
      </trkpt>
      <trkpt lat="45.29873" lon="10.72042">
        <ele>74.545232</ele>
        <time>2021-08-27T10:07:39.000Z</time>
      </trkpt>
      <trkpt lat="45.2987" lon="10.72045">
        <ele>74.563077</ele>
        <time>2021-08-27T10:07:40.000Z</time>
      </trkpt>
      <trkpt lat="45.2984" lon="10.72076">
        <ele>74.720852</ele>
        <time>2021-08-27T10:07:48.000Z</time>
      </trkpt>
      <trkpt lat="45.29808" lon="10.72115">
        <ele>74.900019</ele>
        <time>2021-08-27T10:07:57.000Z</time>
      </trkpt>
      <trkpt lat="45.29805" lon="10.72119">
        <ele>74.917656</ele>
        <time>2021-08-27T10:07:58.000Z</time>
      </trkpt>
      <trkpt lat="45.29779" lon="10.72147">
        <ele>75.055334</ele>
        <time>2021-08-27T10:08:06.000Z</time>
      </trkpt>
      <trkpt lat="45.29756" lon="10.7217">
        <ele>75.174592</ele>
        <time>2021-08-27T10:08:11.000Z</time>
      </trkpt>
      <trkpt lat="45.29751" lon="10.72175">
        <ele>75.199481</ele>
        <time>2021-08-27T10:08:12.000Z</time>
      </trkpt>
      <trkpt lat="45.29723" lon="10.72203">
        <ele>75.188512</ele>
        <time>2021-08-27T10:08:18.000Z</time>
      </trkpt>
      <trkpt lat="45.29705" lon="10.72223">
        <ele>75.162979</ele>
        <time>2021-08-27T10:08:22.000Z</time>
      </trkpt>
      <trkpt lat="45.29668" lon="10.72265">
        <ele>75.109801</ele>
        <time>2021-08-27T10:08:31.000Z</time>
      </trkpt>
      <trkpt lat="45.29644" lon="10.72292">
        <ele>75.076109</ele>
        <time>2021-08-27T10:08:37.000Z</time>
      </trkpt>
      <trkpt lat="45.29628" lon="10.7231">
        <ele>75.053458</ele>
        <time>2021-08-27T10:08:41.000Z</time>
      </trkpt>
      <trkpt lat="45.29609" lon="10.72331">
        <ele>75.025585</ele>
        <time>2021-08-27T10:08:46.000Z</time>
      </trkpt>
      <trkpt lat="45.29589" lon="10.72353">
        <ele>74.929664</ele>
        <time>2021-08-27T10:08:51.000Z</time>
      </trkpt>
      <trkpt lat="45.29545" lon="10.72402">
        <ele>74.677293</ele>
        <time>2021-08-27T10:09:02.000Z</time>
      </trkpt>
      <trkpt lat="45.29541" lon="10.72406">
        <ele>74.654836</ele>
        <time>2021-08-27T10:09:03.000Z</time>
      </trkpt>
      <trkpt lat="45.29498" lon="10.72454">
        <ele>74.409242</ele>
        <time>2021-08-27T10:09:14.000Z</time>
      </trkpt>
      <trkpt lat="45.29494" lon="10.72458">
        <ele>74.387253</ele>
        <time>2021-08-27T10:09:15.000Z</time>
      </trkpt>
      <trkpt lat="45.29468" lon="10.72487">
        <ele>74.239182</ele>
        <time>2021-08-27T10:09:22.000Z</time>
      </trkpt>
      <trkpt lat="45.29458" lon="10.72499">
        <ele>74.207499</ele>
        <time>2021-08-27T10:09:25.000Z</time>
      </trkpt>
      <trkpt lat="45.29433" lon="10.72524">
        <ele>74.206128</ele>
        <time>2021-08-27T10:09:32.000Z</time>
      </trkpt>
      <trkpt lat="45.29423" lon="10.72535">
        <ele>74.205536</ele>
        <time>2021-08-27T10:09:35.000Z</time>
      </trkpt>
      <trkpt lat="45.29404" lon="10.72552">
        <ele>74.204519</ele>
        <time>2021-08-27T10:09:40.000Z</time>
      </trkpt>
      <trkpt lat="45.29381" lon="10.72574">
        <ele>74.203251</ele>
        <time>2021-08-27T10:09:46.000Z</time>
      </trkpt>
      <trkpt lat="45.29374" lon="10.7258">
        <ele>74.202841</ele>
        <time>2021-08-27T10:09:48.000Z</time>
      </trkpt>
      <trkpt lat="45.29348" lon="10.72602">
        <ele>74.201475</ele>
        <time>2021-08-27T10:09:55.000Z</time>
      </trkpt>
      <trkpt lat="45.29339" lon="10.72609">
        <ele>74.201019</ele>
        <time>2021-08-27T10:09:57.000Z</time>
      </trkpt>
      <trkpt lat="45.29309" lon="10.72632">
        <ele>74.209728</ele>
        <time>2021-08-27T10:10:04.000Z</time>
      </trkpt>
      <trkpt lat="45.29299" lon="10.72638">
        <ele>74.247059</ele>
        <time>2021-08-27T10:10:06.000Z</time>
      </trkpt>
      <trkpt lat="45.29255" lon="10.72666">
        <ele>74.419928</ele>
        <time>2021-08-27T10:10:16.000Z</time>
      </trkpt>
      <trkpt lat="45.29215" lon="10.7269">
        <ele>74.573727</ele>
        <time>2021-08-27T10:10:25.000Z</time>
      </trkpt>
      <trkpt lat="45.29171" lon="10.7271">
        <ele>74.740385</ele>
        <time>2021-08-27T10:10:35.000Z</time>
      </trkpt>
      <trkpt lat="45.29166" lon="10.72712">
        <ele>74.756835</ele>
        <time>2021-08-27T10:10:36.000Z</time>
      </trkpt>
      <trkpt lat="45.2914" lon="10.72724">
        <ele>74.848846</ele>
        <time>2021-08-27T10:10:42.000Z</time>
      </trkpt>
      <trkpt lat="45.29135" lon="10.72725">
        <ele>74.859251</ele>
        <time>2021-08-27T10:10:43.000Z</time>
      </trkpt>
      <trkpt lat="45.2912" lon="10.7273">
        <ele>74.892664</ele>
        <time>2021-08-27T10:10:46.000Z</time>
      </trkpt>
      <trkpt lat="45.2907" lon="10.72745">
        <ele>75.005544</ele>
        <time>2021-08-27T10:10:57.000Z</time>
      </trkpt>
      <trkpt lat="45.29017" lon="10.72759">
        <ele>75.124261</ele>
        <time>2021-08-27T10:11:08.000Z</time>
      </trkpt>
      <trkpt lat="45.28973" lon="10.72771">
        <ele>75.220507</ele>
        <time>2021-08-27T10:11:17.000Z</time>
      </trkpt>
      <trkpt lat="45.28929" lon="10.72782">
        <ele>75.075162</ele>
        <time>2021-08-27T10:11:26.000Z</time>
      </trkpt>
      <trkpt lat="45.28925" lon="10.72784">
        <ele>75.058749</ele>
        <time>2021-08-27T10:11:27.000Z</time>
      </trkpt>
      <trkpt lat="45.2891" lon="10.72788">
        <ele>74.995849</ele>
        <time>2021-08-27T10:11:30.000Z</time>
      </trkpt>
      <trkpt lat="45.28876" lon="10.72797">
        <ele>74.858501</ele>
        <time>2021-08-27T10:11:37.000Z</time>
      </trkpt>
      <trkpt lat="45.28838" lon="10.72807">
        <ele>74.700653</ele>
        <time>2021-08-27T10:11:45.000Z</time>
      </trkpt>
      <trkpt lat="45.28789" lon="10.72821">
        <ele>74.502411</ele>
        <time>2021-08-27T10:11:56.000Z</time>
      </trkpt>
      <trkpt lat="45.28762" lon="10.72828">
        <ele>74.450921</ele>
        <time>2021-08-27T10:12:02.000Z</time>
      </trkpt>
      <trkpt lat="45.28745" lon="10.72832">
        <ele>74.419821</ele>
        <time>2021-08-27T10:12:06.000Z</time>
      </trkpt>
      <trkpt lat="45.28727" lon="10.72836">
        <ele>74.385247</ele>
        <time>2021-08-27T10:12:10.000Z</time>
      </trkpt>
      <trkpt lat="45.28701" lon="10.72843">
        <ele>74.333919</ele>
        <time>2021-08-27T10:12:16.000Z</time>
      </trkpt>
      <trkpt lat="45.28679" lon="10.72849">
        <ele>74.293193</ele>
        <time>2021-08-27T10:12:21.000Z</time>
      </trkpt>
      <trkpt lat="45.2867" lon="10.72851">
        <ele>74.276042</ele>
        <time>2021-08-27T10:12:23.000Z</time>
      </trkpt>
      <trkpt lat="45.28656" lon="10.72855">
        <ele>74.248836</ele>
        <time>2021-08-27T10:12:26.000Z</time>
      </trkpt>
      <trkpt lat="45.28615" lon="10.72866">
        <ele>74.170177</ele>
        <time>2021-08-27T10:12:35.000Z</time>
      </trkpt>
      <trkpt lat="45.28557" lon="10.72882">
        <ele>74.315752</ele>
        <time>2021-08-27T10:12:47.000Z</time>
      </trkpt>
      <trkpt lat="45.28509" lon="10.72895">
        <ele>74.438403</ele>
        <time>2021-08-27T10:12:57.000Z</time>
      </trkpt>
      <trkpt lat="45.28451" lon="10.7291">
        <ele>74.587585</ele>
        <time>2021-08-27T10:13:09.000Z</time>
      </trkpt>
      <trkpt lat="45.28446" lon="10.72911">
        <ele>74.600732</ele>
        <time>2021-08-27T10:13:10.000Z</time>
      </trkpt>
      <trkpt lat="45.28389" lon="10.72926">
        <ele>74.796381</ele>
        <time>2021-08-27T10:13:21.000Z</time>
      </trkpt>
      <trkpt lat="45.28384" lon="10.72928">
        <ele>74.81515</ele>
        <time>2021-08-27T10:13:22.000Z</time>
      </trkpt>
      <trkpt lat="45.28362" lon="10.72933">
        <ele>74.892352</ele>
        <time>2021-08-27T10:13:26.000Z</time>
      </trkpt>
      <trkpt lat="45.28351" lon="10.72936">
        <ele>74.930686</ele>
        <time>2021-08-27T10:13:28.000Z</time>
      </trkpt>
      <trkpt lat="45.28346" lon="10.72937">
        <ele>74.949404</ele>
        <time>2021-08-27T10:13:29.000Z</time>
      </trkpt>
      <trkpt lat="45.28336" lon="10.72941">
        <ele>74.986545</ele>
        <time>2021-08-27T10:13:31.000Z</time>
      </trkpt>
      <trkpt lat="45.28325" lon="10.72944">
        <ele>75.024829</ele>
        <time>2021-08-27T10:13:33.000Z</time>
      </trkpt>
      <trkpt lat="45.28315" lon="10.72947">
        <ele>75.06217</ele>
        <time>2021-08-27T10:13:35.000Z</time>
      </trkpt>
      <trkpt lat="45.283" lon="10.72951">
        <ele>75.115963</ele>
        <time>2021-08-27T10:13:38.000Z</time>
      </trkpt>
      <trkpt lat="45.28295" lon="10.72952">
        <ele>75.133115</ele>
        <time>2021-08-27T10:13:39.000Z</time>
      </trkpt>
      <trkpt lat="45.28286" lon="10.72955">
        <ele>75.166851</ele>
        <time>2021-08-27T10:13:41.000Z</time>
      </trkpt>
      <trkpt lat="45.28273" lon="10.72959">
        <ele>75.212621</ele>
        <time>2021-08-27T10:13:44.000Z</time>
      </trkpt>
      <trkpt lat="45.28263" lon="10.72964">
        <ele>75.251181</ele>
        <time>2021-08-27T10:13:47.000Z</time>
      </trkpt>
      <trkpt lat="45.28251" lon="10.7297">
        <ele>75.211805</ele>
        <time>2021-08-27T10:13:51.000Z</time>
      </trkpt>
      <trkpt lat="45.28233" lon="10.72972">
        <ele>75.137111</ele>
        <time>2021-08-27T10:13:55.000Z</time>
      </trkpt>
      <trkpt lat="45.28227" lon="10.72973">
        <ele>75.11439</ele>
        <time>2021-08-27T10:13:56.000Z</time>
      </trkpt>
      <trkpt lat="45.28216" lon="10.72975">
        <ele>75.064762</ele>
        <time>2021-08-27T10:13:58.000Z</time>
      </trkpt>
      <trkpt lat="45.28204" lon="10.72977">
        <ele>75.014077</ele>
        <time>2021-08-27T10:14:00.000Z</time>
      </trkpt>
      <trkpt lat="45.28192" lon="10.7298">
        <ele>74.962891</ele>
        <time>2021-08-27T10:14:02.000Z</time>
      </trkpt>
      <trkpt lat="45.28148" lon="10.72992">
        <ele>74.776834</ele>
        <time>2021-08-27T10:14:10.000Z</time>
      </trkpt>
      <trkpt lat="45.28101" lon="10.73004">
        <ele>74.579171</ele>
        <time>2021-08-27T10:14:19.000Z</time>
      </trkpt>
      <trkpt lat="45.28063" lon="10.73014">
        <ele>74.459423</ele>
        <time>2021-08-27T10:14:27.000Z</time>
      </trkpt>
      <trkpt lat="45.28029" lon="10.73024">
        <ele>74.383467</ele>
        <time>2021-08-27T10:14:34.000Z</time>
      </trkpt>
      <trkpt lat="45.28024" lon="10.73025">
        <ele>74.372883</ele>
        <time>2021-08-27T10:14:35.000Z</time>
      </trkpt>
      <trkpt lat="45.27988" lon="10.73034">
        <ele>74.294621</ele>
        <time>2021-08-27T10:14:42.000Z</time>
      </trkpt>
      <trkpt lat="45.27957" lon="10.7304">
        <ele>74.226611</ele>
        <time>2021-08-27T10:14:48.000Z</time>
      </trkpt>
      <trkpt lat="45.27922" lon="10.73047">
        <ele>74.149111</ele>
        <time>2021-08-27T10:14:55.000Z</time>
      </trkpt>
      <trkpt lat="45.27912" lon="10.73048">
        <ele>74.126409</ele>
        <time>2021-08-27T10:14:57.000Z</time>
      </trkpt>
      <trkpt lat="45.27863" lon="10.73053">
        <ele>73.995381</ele>
        <time>2021-08-27T10:15:06.000Z</time>
      </trkpt>
      <trkpt lat="45.27829" lon="10.73055">
        <ele>73.902905</ele>
        <time>2021-08-27T10:15:12.000Z</time>
      </trkpt>
      <trkpt lat="45.27807" lon="10.73055">
        <ele>73.840652</ele>
        <time>2021-08-27T10:15:16.000Z</time>
      </trkpt>
      <trkpt lat="45.2778" lon="10.73055">
        <ele>73.768247</ele>
        <time>2021-08-27T10:15:21.000Z</time>
      </trkpt>
      <trkpt lat="45.27774" lon="10.73054">
        <ele>73.750669</ele>
        <time>2021-08-27T10:15:22.000Z</time>
      </trkpt>
      <trkpt lat="45.27737" lon="10.73052">
        <ele>73.648804</ele>
        <time>2021-08-27T10:15:29.000Z</time>
      </trkpt>
      <trkpt lat="45.2773" lon="10.73051">
        <ele>73.630927</ele>
        <time>2021-08-27T10:15:30.000Z</time>
      </trkpt>
      <trkpt lat="45.27678" lon="10.73044">
        <ele>73.58004</ele>
        <time>2021-08-27T10:15:40.000Z</time>
      </trkpt>
      <trkpt lat="45.27648" lon="10.73038">
        <ele>73.553087</ele>
        <time>2021-08-27T10:15:46.000Z</time>
      </trkpt>
      <trkpt lat="45.2762" lon="10.73032">
        <ele>73.529119</ele>
        <time>2021-08-27T10:15:51.000Z</time>
      </trkpt>
      <trkpt lat="45.27589" lon="10.73023">
        <ele>73.501942</ele>
        <time>2021-08-27T10:15:57.000Z</time>
      </trkpt>
      <trkpt lat="45.27563" lon="10.73016">
        <ele>73.478578</ele>
        <time>2021-08-27T10:16:02.000Z</time>
      </trkpt>
      <trkpt lat="45.27531" lon="10.73006">
        <ele>73.523075</ele>
        <time>2021-08-27T10:16:08.000Z</time>
      </trkpt>
      <trkpt lat="45.27526" lon="10.73004">
        <ele>73.535551</ele>
        <time>2021-08-27T10:16:09.000Z</time>
      </trkpt>
      <trkpt lat="45.2749" lon="10.72989">
        <ele>73.645757</ele>
        <time>2021-08-27T10:16:16.000Z</time>
      </trkpt>
      <trkpt lat="45.27485" lon="10.72987">
        <ele>73.661211</ele>
        <time>2021-08-27T10:16:17.000Z</time>
      </trkpt>
      <trkpt lat="45.27475" lon="10.72982">
        <ele>73.693494</ele>
        <time>2021-08-27T10:16:19.000Z</time>
      </trkpt>
      <trkpt lat="45.27454" lon="10.72972">
        <ele>73.757997</ele>
        <time>2021-08-27T10:16:23.000Z</time>
      </trkpt>
      <trkpt lat="45.27438" lon="10.72965">
        <ele>73.80662</ele>
        <time>2021-08-27T10:16:26.000Z</time>
      </trkpt>
      <trkpt lat="45.27433" lon="10.72963">
        <ele>73.822448</ele>
        <time>2021-08-27T10:16:27.000Z</time>
      </trkpt>
      <trkpt lat="45.27427" lon="10.7296">
        <ele>73.838915</ele>
        <time>2021-08-27T10:16:28.000Z</time>
      </trkpt>
      <trkpt lat="45.27406" lon="10.72951">
        <ele>73.903292</ele>
        <time>2021-08-27T10:16:32.000Z</time>
      </trkpt>
      <trkpt lat="45.2738" lon="10.72939">
        <ele>73.983146</ele>
        <time>2021-08-27T10:16:37.000Z</time>
      </trkpt>
      <trkpt lat="45.27336" lon="10.72916">
        <ele>73.876324</ele>
        <time>2021-08-27T10:16:46.000Z</time>
      </trkpt>
      <trkpt lat="45.27315" lon="10.72907">
        <ele>73.818668</ele>
        <time>2021-08-27T10:16:50.000Z</time>
      </trkpt>
      <trkpt lat="45.27304" lon="10.72902">
        <ele>73.789906</ele>
        <time>2021-08-27T10:16:52.000Z</time>
      </trkpt>
      <trkpt lat="45.27294" lon="10.72897">
        <ele>73.761451</ele>
        <time>2021-08-27T10:16:54.000Z</time>
      </trkpt>
      <trkpt lat="45.27289" lon="10.72894">
        <ele>73.746948</ele>
        <time>2021-08-27T10:16:55.000Z</time>
      </trkpt>
      <trkpt lat="45.27236" lon="10.72868">
        <ele>73.599821</ele>
        <time>2021-08-27T10:17:05.000Z</time>
      </trkpt>
      <trkpt lat="45.27215" lon="10.72858">
        <ele>73.541418</ele>
        <time>2021-08-27T10:17:09.000Z</time>
      </trkpt>
      <trkpt lat="45.27209" lon="10.72855">
        <ele>73.526846</ele>
        <time>2021-08-27T10:17:10.000Z</time>
      </trkpt>
      <trkpt lat="45.27157" lon="10.72835">
        <ele>73.439592</ele>
        <time>2021-08-27T10:17:20.000Z</time>
      </trkpt>
      <trkpt lat="45.27097" lon="10.72822">
        <ele>73.344956</ele>
        <time>2021-08-27T10:17:31.000Z</time>
      </trkpt>
      <trkpt lat="45.27082" lon="10.72819">
        <ele>73.320975</ele>
        <time>2021-08-27T10:17:34.000Z</time>
      </trkpt>
      <trkpt lat="45.2705" lon="10.72815">
        <ele>73.270182</ele>
        <time>2021-08-27T10:17:40.000Z</time>
      </trkpt>
      <trkpt lat="45.27039" lon="10.72814">
        <ele>73.253056</ele>
        <time>2021-08-27T10:17:42.000Z</time>
      </trkpt>
      <trkpt lat="45.27022" lon="10.72813">
        <ele>73.243759</ele>
        <time>2021-08-27T10:17:45.000Z</time>
      </trkpt>
      <trkpt lat="45.27001" lon="10.72812">
        <ele>73.256812</ele>
        <time>2021-08-27T10:17:49.000Z</time>
      </trkpt>
      <trkpt lat="45.26996" lon="10.72812">
        <ele>73.259922</ele>
        <time>2021-08-27T10:17:50.000Z</time>
      </trkpt>
      <trkpt lat="45.26985" lon="10.72813">
        <ele>73.266329</ele>
        <time>2021-08-27T10:17:52.000Z</time>
      </trkpt>
      <trkpt lat="45.26975" lon="10.72813">
        <ele>73.27286</ele>
        <time>2021-08-27T10:17:54.000Z</time>
      </trkpt>
      <trkpt lat="45.26964" lon="10.72814">
        <ele>73.279447</ele>
        <time>2021-08-27T10:17:56.000Z</time>
      </trkpt>
      <trkpt lat="45.26953" lon="10.72815">
        <ele>73.286051</ele>
        <time>2021-08-27T10:17:58.000Z</time>
      </trkpt>
      <trkpt lat="45.26937" lon="10.72816">
        <ele>73.295892</ele>
        <time>2021-08-27T10:18:01.000Z</time>
      </trkpt>
      <trkpt lat="45.26904" lon="10.7282">
        <ele>73.315917</ele>
        <time>2021-08-27T10:18:07.000Z</time>
      </trkpt>
      <trkpt lat="45.2687" lon="10.72827">
        <ele>73.33684</ele>
        <time>2021-08-27T10:18:13.000Z</time>
      </trkpt>
      <trkpt lat="45.26855" lon="10.7283">
        <ele>73.346013</ele>
        <time>2021-08-27T10:18:16.000Z</time>
      </trkpt>
      <trkpt lat="45.26838" lon="10.72834">
        <ele>73.306698</ele>
        <time>2021-08-27T10:18:19.000Z</time>
      </trkpt>
      <trkpt lat="45.26822" lon="10.72837">
        <ele>73.256526</ele>
        <time>2021-08-27T10:18:22.000Z</time>
      </trkpt>
      <trkpt lat="45.26794" lon="10.72843">
        <ele>73.165734</ele>
        <time>2021-08-27T10:18:27.000Z</time>
      </trkpt>
      <trkpt lat="45.26767" lon="10.72853">
        <ele>73.076262</ele>
        <time>2021-08-27T10:18:33.000Z</time>
      </trkpt>
      <trkpt lat="45.26759" lon="10.72855">
        <ele>73.05053</ele>
        <time>2021-08-27T10:18:35.000Z</time>
      </trkpt>
      <trkpt lat="45.26755" lon="10.72856">
        <ele>73.037553</ele>
        <time>2021-08-27T10:18:36.000Z</time>
      </trkpt>
      <trkpt lat="45.26742" lon="10.7286">
        <ele>72.994549</ele>
        <time>2021-08-27T10:18:39.000Z</time>
      </trkpt>
      <trkpt lat="45.26725" lon="10.72862">
        <ele>72.941486</ele>
        <time>2021-08-27T10:18:42.000Z</time>
      </trkpt>
      <trkpt lat="45.26706" lon="10.72864">
        <ele>72.881616</ele>
        <time>2021-08-27T10:18:45.000Z</time>
      </trkpt>
      <trkpt lat="45.26694" lon="10.72867">
        <ele>72.842129</ele>
        <time>2021-08-27T10:18:47.000Z</time>
      </trkpt>
      <trkpt lat="45.26682" lon="10.72869">
        <ele>72.803906</ele>
        <time>2021-08-27T10:18:49.000Z</time>
      </trkpt>
      <trkpt lat="45.26665" lon="10.72873">
        <ele>72.781208</ele>
        <time>2021-08-27T10:18:52.000Z</time>
      </trkpt>
      <trkpt lat="45.26642" lon="10.72878">
        <ele>72.794607</ele>
        <time>2021-08-27T10:18:56.000Z</time>
      </trkpt>
      <trkpt lat="45.26636" lon="10.72879">
        <ele>72.79792</ele>
        <time>2021-08-27T10:18:57.000Z</time>
      </trkpt>
      <trkpt lat="45.26614" lon="10.72884">
        <ele>72.810781</ele>
        <time>2021-08-27T10:19:01.000Z</time>
      </trkpt>
      <trkpt lat="45.26603" lon="10.72886">
        <ele>72.817394</ele>
        <time>2021-08-27T10:19:03.000Z</time>
      </trkpt>
      <trkpt lat="45.2657" lon="10.72894">
        <ele>72.836919</ele>
        <time>2021-08-27T10:19:09.000Z</time>
      </trkpt>
      <trkpt lat="45.26553" lon="10.72898">
        <ele>72.846979</ele>
        <time>2021-08-27T10:19:12.000Z</time>
      </trkpt>
      <trkpt lat="45.26535" lon="10.72902">
        <ele>72.857725</ele>
        <time>2021-08-27T10:19:15.000Z</time>
      </trkpt>
      <trkpt lat="45.26519" lon="10.72904">
        <ele>72.867186</ele>
        <time>2021-08-27T10:19:18.000Z</time>
      </trkpt>
      <trkpt lat="45.26508" lon="10.72907">
        <ele>72.873588</ele>
        <time>2021-08-27T10:19:20.000Z</time>
      </trkpt>
      <trkpt lat="45.26475" lon="10.72915">
        <ele>72.822142</ele>
        <time>2021-08-27T10:19:26.000Z</time>
      </trkpt>
      <trkpt lat="45.26459" lon="10.7292">
        <ele>72.775072</ele>
        <time>2021-08-27T10:19:29.000Z</time>
      </trkpt>
      <trkpt lat="45.26442" lon="10.72924">
        <ele>72.72731</ele>
        <time>2021-08-27T10:19:32.000Z</time>
      </trkpt>
      <trkpt lat="45.26431" lon="10.72926">
        <ele>72.69599</ele>
        <time>2021-08-27T10:19:34.000Z</time>
      </trkpt>
      <trkpt lat="45.26403" lon="10.72932">
        <ele>72.61853</ele>
        <time>2021-08-27T10:19:39.000Z</time>
      </trkpt>
      <trkpt lat="45.26371" lon="10.7294">
        <ele>72.528883</ele>
        <time>2021-08-27T10:19:45.000Z</time>
      </trkpt>
      <trkpt lat="45.26356" lon="10.72944">
        <ele>72.485796</ele>
        <time>2021-08-27T10:19:48.000Z</time>
      </trkpt>
      <trkpt lat="45.26351" lon="10.72945">
        <ele>72.471375</ele>
        <time>2021-08-27T10:19:49.000Z</time>
      </trkpt>
      <trkpt lat="45.26316" lon="10.72953">
        <ele>72.373276</ele>
        <time>2021-08-27T10:19:56.000Z</time>
      </trkpt>
      <trkpt lat="45.26311" lon="10.72954">
        <ele>72.360684</ele>
        <time>2021-08-27T10:19:57.000Z</time>
      </trkpt>
      <trkpt lat="45.26306" lon="10.72955">
        <ele>72.348115</ele>
        <time>2021-08-27T10:19:58.000Z</time>
      </trkpt>
      <trkpt lat="45.26286" lon="10.7296">
        <ele>72.299072</ele>
        <time>2021-08-27T10:20:02.000Z</time>
      </trkpt>
      <trkpt lat="45.26276" lon="10.72962">
        <ele>72.273486</ele>
        <time>2021-08-27T10:20:04.000Z</time>
      </trkpt>
      <trkpt lat="45.26266" lon="10.72965">
        <ele>72.248318</ele>
        <time>2021-08-27T10:20:06.000Z</time>
      </trkpt>
      <trkpt lat="45.2625" lon="10.72968">
        <ele>72.209207</ele>
        <time>2021-08-27T10:20:09.000Z</time>
      </trkpt>
      <trkpt lat="45.26239" lon="10.7297">
        <ele>72.182569</ele>
        <time>2021-08-27T10:20:11.000Z</time>
      </trkpt>
      <trkpt lat="45.26196" lon="10.72981">
        <ele>72.074383</ele>
        <time>2021-08-27T10:20:19.000Z</time>
      </trkpt>
      <trkpt lat="45.26184" lon="10.72984">
        <ele>72.04681</ele>
        <time>2021-08-27T10:20:21.000Z</time>
      </trkpt>
      <trkpt lat="45.26143" lon="10.72992">
        <ele>71.943993</ele>
        <time>2021-08-27T10:20:29.000Z</time>
      </trkpt>
      <trkpt lat="45.26092" lon="10.73004">
        <ele>72.110463</ele>
        <time>2021-08-27T10:20:39.000Z</time>
      </trkpt>
      <trkpt lat="45.26047" lon="10.73013">
        <ele>72.267327</ele>
        <time>2021-08-27T10:20:48.000Z</time>
      </trkpt>
      <trkpt lat="45.26005" lon="10.73023">
        <ele>72.41278</ele>
        <time>2021-08-27T10:20:56.000Z</time>
      </trkpt>
      <trkpt lat="45.25989" lon="10.73026">
        <ele>72.467056</ele>
        <time>2021-08-27T10:20:59.000Z</time>
      </trkpt>
      <trkpt lat="45.25979" lon="10.73028">
        <ele>72.50188</ele>
        <time>2021-08-27T10:21:01.000Z</time>
      </trkpt>
      <trkpt lat="45.25963" lon="10.73031">
        <ele>72.557418</ele>
        <time>2021-08-27T10:21:04.000Z</time>
      </trkpt>
      <trkpt lat="45.25931" lon="10.73044">
        <ele>72.203918</ele>
        <time>2021-08-27T10:21:10.000Z</time>
      </trkpt>
      <trkpt lat="45.2591" lon="10.73063">
        <ele>71.943428</ele>
        <time>2021-08-27T10:21:14.000Z</time>
      </trkpt>
      <trkpt lat="45.25907" lon="10.73068">
        <ele>71.894703</ele>
        <time>2021-08-27T10:21:15.000Z</time>
      </trkpt>
      <trkpt lat="45.25893" lon="10.73094">
        <ele>71.658097</ele>
        <time>2021-08-27T10:21:19.000Z</time>
      </trkpt>
      <trkpt lat="45.25883" lon="10.73114">
        <ele>71.47661</ele>
        <time>2021-08-27T10:21:22.000Z</time>
      </trkpt>
      <trkpt lat="45.2588" lon="10.73121">
        <ele>71.41249</ele>
        <time>2021-08-27T10:21:23.000Z</time>
      </trkpt>
      <trkpt lat="45.25858" lon="10.73174">
        <ele>70.959207</ele>
        <time>2021-08-27T10:21:30.000Z</time>
      </trkpt>
      <trkpt lat="45.25852" lon="10.73191">
        <ele>70.819369</ele>
        <time>2021-08-27T10:21:32.000Z</time>
      </trkpt>
      <trkpt lat="45.2584" lon="10.73217">
        <ele>70.588352</ele>
        <time>2021-08-27T10:21:35.000Z</time>
      </trkpt>
      <trkpt lat="45.25813" lon="10.73267">
        <ele>70.125653</ele>
        <time>2021-08-27T10:21:41.000Z</time>
      </trkpt>
      <trkpt lat="45.25792" lon="10.7329">
        <ele>69.855713</ele>
        <time>2021-08-27T10:21:45.000Z</time>
      </trkpt>
      <trkpt lat="45.25782" lon="10.73298">
        <ele>69.729768</ele>
        <time>2021-08-27T10:21:47.000Z</time>
      </trkpt>
      <trkpt lat="45.25771" lon="10.73305">
        <ele>69.608071</ele>
        <time>2021-08-27T10:21:49.000Z</time>
      </trkpt>
      <trkpt lat="45.2576" lon="10.73312">
        <ele>69.482179</ele>
        <time>2021-08-27T10:21:51.000Z</time>
      </trkpt>
      <trkpt lat="45.25754" lon="10.73314">
        <ele>69.417512</ele>
        <time>2021-08-27T10:21:52.000Z</time>
      </trkpt>
      <trkpt lat="45.25737" lon="10.7332">
        <ele>69.231866</ele>
        <time>2021-08-27T10:21:55.000Z</time>
      </trkpt>
      <trkpt lat="45.25698" lon="10.73329">
        <ele>68.823076</ele>
        <time>2021-08-27T10:22:02.000Z</time>
      </trkpt>
      <trkpt lat="45.2567" lon="10.7333">
        <ele>68.664707</ele>
        <time>2021-08-27T10:22:07.000Z</time>
      </trkpt>
      <trkpt lat="45.25659" lon="10.73329">
        <ele>68.608073</ele>
        <time>2021-08-27T10:22:09.000Z</time>
      </trkpt>
      <trkpt lat="45.25654" lon="10.73328">
        <ele>68.580121</ele>
        <time>2021-08-27T10:22:10.000Z</time>
      </trkpt>
      <trkpt lat="45.25631" lon="10.73321">
        <ele>68.460028</ele>
        <time>2021-08-27T10:22:14.000Z</time>
      </trkpt>
      <trkpt lat="45.25611" lon="10.73312">
        <ele>68.352491</ele>
        <time>2021-08-27T10:22:18.000Z</time>
      </trkpt>
      <trkpt lat="45.25606" lon="10.7331">
        <ele>68.326449</ele>
        <time>2021-08-27T10:22:19.000Z</time>
      </trkpt>
      <trkpt lat="45.25597" lon="10.73305">
        <ele>68.272457</ele>
        <time>2021-08-27T10:22:21.000Z</time>
      </trkpt>
      <trkpt lat="45.25575" lon="10.73294">
        <ele>68.15287</ele>
        <time>2021-08-27T10:22:26.000Z</time>
      </trkpt>
      <trkpt lat="45.25557" lon="10.73283">
        <ele>68.051556</ele>
        <time>2021-08-27T10:22:30.000Z</time>
      </trkpt>
      <trkpt lat="45.25546" lon="10.7328">
        <ele>67.993988</ele>
        <time>2021-08-27T10:22:32.000Z</time>
      </trkpt>
      <trkpt lat="45.25531" lon="10.73278">
        <ele>67.916791</ele>
        <time>2021-08-27T10:22:35.000Z</time>
      </trkpt>
      <trkpt lat="45.25526" lon="10.73275">
        <ele>67.885145</ele>
        <time>2021-08-27T10:22:37.000Z</time>
      </trkpt>
      <trkpt lat="45.25519" lon="10.7327">
        <ele>67.767121</ele>
        <time>2021-08-27T10:22:41.000Z</time>
      </trkpt>
      <trkpt lat="45.25517" lon="10.73269">
        <ele>67.727291</ele>
        <time>2021-08-27T10:22:45.000Z</time>
      </trkpt>
      <trkpt lat="45.25517" lon="10.73269">
        <ele>67.727291</ele>
        <time>2021-08-27T10:22:52.000Z</time>
      </trkpt>
      <trkpt lat="45.25517" lon="10.73269">
        <ele>67.727291</ele>
        <time>2021-08-27T10:23:09.000Z</time>
      </trkpt>
      <trkpt lat="45.25517" lon="10.73269">
        <ele>67.727291</ele>
        <time>2021-08-27T10:23:12.000Z</time>
      </trkpt>
      <trkpt lat="45.25517" lon="10.73269">
        <ele>67.727291</ele>
        <time>2021-08-27T10:23:21.000Z</time>
      </trkpt>
      <trkpt lat="45.25517" lon="10.73269">
        <ele>67.727291</ele>
        <time>2021-08-27T10:23:26.000Z</time>
      </trkpt>
      <trkpt lat="45.25517" lon="10.73269">
        <ele>67.727291</ele>
        <time>2021-08-27T10:23:28.000Z</time>
      </trkpt>
      <trkpt lat="45.25517" lon="10.73269">
        <ele>67.727291</ele>
        <time>2021-08-27T10:23:32.000Z</time>
      </trkpt>
      <trkpt lat="45.25516" lon="10.73271">
        <ele>67.66919</ele>
        <time>2021-08-27T10:23:39.000Z</time>
      </trkpt>
      <trkpt lat="45.25511" lon="10.73274">
        <ele>67.537809</ele>
        <time>2021-08-27T10:23:41.000Z</time>
      </trkpt>
      <trkpt lat="45.25492" lon="10.73282">
        <ele>66.997936</ele>
        <time>2021-08-27T10:23:47.000Z</time>
      </trkpt>
      <trkpt lat="45.25479" lon="10.73279">
        <ele>66.65126</ele>
        <time>2021-08-27T10:23:52.000Z</time>
      </trkpt>
      <trkpt lat="45.25477" lon="10.73269">
        <ele>66.470854</ele>
        <time>2021-08-27T10:23:55.000Z</time>
      </trkpt>
      <trkpt lat="45.25477" lon="10.73252">
        <ele>66.157601</ele>
        <time>2021-08-27T10:23:58.000Z</time>
      </trkpt>
      <trkpt lat="45.25476" lon="10.73247">
        <ele>66.048751</ele>
        <time>2021-08-27T10:23:59.000Z</time>
      </trkpt>
      <trkpt lat="45.25474" lon="10.73241">
        <ele>65.940188</ele>
        <time>2021-08-27T10:24:00.000Z</time>
      </trkpt>
      <trkpt lat="45.25468" lon="10.73232">
        <ele>65.715455</ele>
        <time>2021-08-27T10:24:02.000Z</time>
      </trkpt>
      <trkpt lat="45.25464" lon="10.73229">
        <ele>65.594617</ele>
        <time>2021-08-27T10:24:03.000Z</time>
      </trkpt>
      <trkpt lat="45.2544" lon="10.73221">
        <ele>64.929499</ele>
        <time>2021-08-27T10:24:08.000Z</time>
      </trkpt>
      <trkpt lat="45.25435" lon="10.7322">
        <ele>64.793111</ele>
        <time>2021-08-27T10:24:09.000Z</time>
      </trkpt>
      <trkpt lat="45.2541" lon="10.73208">
        <ele>64.111558</ele>
        <time>2021-08-27T10:24:14.000Z</time>
      </trkpt>
      <trkpt lat="45.25402" lon="10.73202">
        <ele>63.876034</ele>
        <time>2021-08-27T10:24:16.000Z</time>
      </trkpt>
      <trkpt lat="45.25389" lon="10.73194">
        <ele>63.507189</ele>
        <time>2021-08-27T10:24:19.000Z</time>
      </trkpt>
      <trkpt lat="45.25381" lon="10.7319">
        <ele>63.281741</ele>
        <time>2021-08-27T10:24:21.000Z</time>
      </trkpt>
      <trkpt lat="45.25377" lon="10.73188">
        <ele>63.169316</ele>
        <time>2021-08-27T10:24:22.000Z</time>
      </trkpt>
      <trkpt lat="45.25357" lon="10.73186">
        <ele>62.736065</ele>
        <time>2021-08-27T10:24:26.000Z</time>
      </trkpt>
      <trkpt lat="45.25351" lon="10.73186">
        <ele>62.608446</ele>
        <time>2021-08-27T10:24:27.000Z</time>
      </trkpt>
      <trkpt lat="45.25337" lon="10.73185">
        <ele>62.329845</ele>
        <time>2021-08-27T10:24:29.000Z</time>
      </trkpt>
      <trkpt lat="45.2533" lon="10.73183">
        <ele>62.189499</ele>
        <time>2021-08-27T10:24:30.000Z</time>
      </trkpt>
      <trkpt lat="45.25317" lon="10.73177">
        <ele>61.898056</ele>
        <time>2021-08-27T10:24:32.000Z</time>
      </trkpt>
      <trkpt lat="45.25304" lon="10.73169">
        <ele>61.610322</ele>
        <time>2021-08-27T10:24:34.000Z</time>
      </trkpt>
      <trkpt lat="45.25291" lon="10.7316">
        <ele>61.312665</ele>
        <time>2021-08-27T10:24:36.000Z</time>
      </trkpt>
      <trkpt lat="45.25277" lon="10.73152">
        <ele>61.01079</ele>
        <time>2021-08-27T10:24:38.000Z</time>
      </trkpt>
      <trkpt lat="45.2527" lon="10.73148">
        <ele>60.854946</ele>
        <time>2021-08-27T10:24:39.000Z</time>
      </trkpt>
      <trkpt lat="45.25257" lon="10.73141">
        <ele>60.55327</ele>
        <time>2021-08-27T10:24:41.000Z</time>
      </trkpt>
      <trkpt lat="45.2523" lon="10.73126">
        <ele>59.967368</ele>
        <time>2021-08-27T10:24:45.000Z</time>
      </trkpt>
      <trkpt lat="45.2521" lon="10.73116">
        <ele>59.519763</ele>
        <time>2021-08-27T10:24:48.000Z</time>
      </trkpt>
      <trkpt lat="45.25198" lon="10.73112">
        <ele>59.463015</ele>
        <time>2021-08-27T10:24:50.000Z</time>
      </trkpt>
      <trkpt lat="45.25162" lon="10.73095">
        <ele>59.641088</ele>
        <time>2021-08-27T10:24:56.000Z</time>
      </trkpt>
      <trkpt lat="45.25137" lon="10.73086">
        <ele>59.7614</ele>
        <time>2021-08-27T10:25:00.000Z</time>
      </trkpt>
      <trkpt lat="45.25117" lon="10.7308">
        <ele>59.858427</ele>
        <time>2021-08-27T10:25:03.000Z</time>
      </trkpt>
      <trkpt lat="45.25082" lon="10.73073">
        <ele>60.022341</ele>
        <time>2021-08-27T10:25:08.000Z</time>
      </trkpt>
      <trkpt lat="45.25063" lon="10.73071">
        <ele>60.111165</ele>
        <time>2021-08-27T10:25:11.000Z</time>
      </trkpt>
      <trkpt lat="45.25022" lon="10.73066">
        <ele>60.206769</ele>
        <time>2021-08-27T10:25:18.000Z</time>
      </trkpt>
      <trkpt lat="45.25011" lon="10.73066">
        <ele>60.118802</ele>
        <time>2021-08-27T10:25:20.000Z</time>
      </trkpt>
      <trkpt lat="45.24997" lon="10.73064">
        <ele>59.999832</ele>
        <time>2021-08-27T10:25:23.000Z</time>
      </trkpt>
      <trkpt lat="45.24988" lon="10.73064">
        <ele>59.926063</ele>
        <time>2021-08-27T10:25:25.000Z</time>
      </trkpt>
      <trkpt lat="45.2498" lon="10.73063">
        <ele>59.857373</ele>
        <time>2021-08-27T10:25:27.000Z</time>
      </trkpt>
      <trkpt lat="45.24966" lon="10.73063">
        <ele>59.735197</ele>
        <time>2021-08-27T10:25:31.000Z</time>
      </trkpt>
      <trkpt lat="45.24953" lon="10.73059">
        <ele>59.631189</ele>
        <time>2021-08-27T10:25:34.000Z</time>
      </trkpt>
      <trkpt lat="45.24944" lon="10.73056">
        <ele>59.547563</ele>
        <time>2021-08-27T10:25:36.000Z</time>
      </trkpt>
      <trkpt lat="45.24927" lon="10.73051">
        <ele>59.406298</ele>
        <time>2021-08-27T10:25:39.000Z</time>
      </trkpt>
      <trkpt lat="45.24908" lon="10.73047">
        <ele>59.248454</ele>
        <time>2021-08-27T10:25:42.000Z</time>
      </trkpt>
      <trkpt lat="45.24867" lon="10.73037">
        <ele>58.898634</ele>
        <time>2021-08-27T10:25:48.000Z</time>
      </trkpt>
      <trkpt lat="45.24813" lon="10.73031">
        <ele>58.969132</ele>
        <time>2021-08-27T10:25:56.000Z</time>
      </trkpt>
      <trkpt lat="45.24781" lon="10.73027">
        <ele>59.141595</ele>
        <time>2021-08-27T10:26:01.000Z</time>
      </trkpt>
      <trkpt lat="45.24728" lon="10.7302">
        <ele>59.4222</ele>
        <time>2021-08-27T10:26:09.000Z</time>
      </trkpt>
      <trkpt lat="45.24722" lon="10.73018">
        <ele>59.456402</ele>
        <time>2021-08-27T10:26:10.000Z</time>
      </trkpt>
      <trkpt lat="45.24697" lon="10.73014">
        <ele>59.591396</ele>
        <time>2021-08-27T10:26:14.000Z</time>
      </trkpt>
      <trkpt lat="45.24685" lon="10.73012">
        <ele>59.654559</ele>
        <time>2021-08-27T10:26:16.000Z</time>
      </trkpt>
      <trkpt lat="45.24631" lon="10.73006">
        <ele>59.606291</ele>
        <time>2021-08-27T10:26:25.000Z</time>
      </trkpt>
      <trkpt lat="45.24598" lon="10.73002">
        <ele>59.511954</ele>
        <time>2021-08-27T10:26:31.000Z</time>
      </trkpt>
      <trkpt lat="45.24588" lon="10.73001">
        <ele>59.483298</ele>
        <time>2021-08-27T10:26:33.000Z</time>
      </trkpt>
      <trkpt lat="45.24556" lon="10.72993">
        <ele>59.39072</ele>
        <time>2021-08-27T10:26:39.000Z</time>
      </trkpt>
      <trkpt lat="45.24549" lon="10.72992">
        <ele>59.372246</ele>
        <time>2021-08-27T10:26:40.000Z</time>
      </trkpt>
      <trkpt lat="45.24523" lon="10.72987">
        <ele>59.297549</ele>
        <time>2021-08-27T10:26:44.000Z</time>
      </trkpt>
      <trkpt lat="45.24505" lon="10.72984">
        <ele>59.246383</ele>
        <time>2021-08-27T10:26:47.000Z</time>
      </trkpt>
      <trkpt lat="45.24469" lon="10.72979">
        <ele>59.253742</ele>
        <time>2021-08-27T10:26:53.000Z</time>
      </trkpt>
      <trkpt lat="45.24464" lon="10.72978">
        <ele>59.263157</ele>
        <time>2021-08-27T10:26:54.000Z</time>
      </trkpt>
      <trkpt lat="45.24419" lon="10.72971">
        <ele>59.337123</ele>
        <time>2021-08-27T10:27:02.000Z</time>
      </trkpt>
      <trkpt lat="45.24413" lon="10.7297">
        <ele>59.346539</ele>
        <time>2021-08-27T10:27:03.000Z</time>
      </trkpt>
      <trkpt lat="45.24358" lon="10.7296">
        <ele>59.437938</ele>
        <time>2021-08-27T10:27:13.000Z</time>
      </trkpt>
      <trkpt lat="45.24308" lon="10.72952">
        <ele>59.496843</ele>
        <time>2021-08-27T10:27:22.000Z</time>
      </trkpt>
      <trkpt lat="45.24286" lon="10.7295">
        <ele>59.460053</ele>
        <time>2021-08-27T10:27:26.000Z</time>
      </trkpt>
      <trkpt lat="45.24271" lon="10.72948">
        <ele>59.433677</ele>
        <time>2021-08-27T10:27:29.000Z</time>
      </trkpt>
      <trkpt lat="45.24261" lon="10.72947">
        <ele>59.416758</ele>
        <time>2021-08-27T10:27:31.000Z</time>
      </trkpt>
      <trkpt lat="45.24242" lon="10.72946">
        <ele>59.384463</ele>
        <time>2021-08-27T10:27:35.000Z</time>
      </trkpt>
      <trkpt lat="45.24234" lon="10.72946">
        <ele>59.370266</ele>
        <time>2021-08-27T10:27:37.000Z</time>
      </trkpt>
      <trkpt lat="45.2423" lon="10.72945">
        <ele>59.363069</ele>
        <time>2021-08-27T10:27:38.000Z</time>
      </trkpt>
      <trkpt lat="45.24221" lon="10.72944">
        <ele>59.348835</ele>
        <time>2021-08-27T10:27:40.000Z</time>
      </trkpt>
      <trkpt lat="45.24201" lon="10.72938">
        <ele>59.314171</ele>
        <time>2021-08-27T10:27:44.000Z</time>
      </trkpt>
      <trkpt lat="45.24196" lon="10.72937">
        <ele>59.30425</ele>
        <time>2021-08-27T10:27:45.000Z</time>
      </trkpt>
      <trkpt lat="45.24165" lon="10.7293">
        <ele>59.250963</ele>
        <time>2021-08-27T10:27:50.000Z</time>
      </trkpt>
      <trkpt lat="45.24158" lon="10.72929">
        <ele>59.239432</ele>
        <time>2021-08-27T10:27:51.000Z</time>
      </trkpt>
      <trkpt lat="45.24145" lon="10.72927">
        <ele>59.217201</ele>
        <time>2021-08-27T10:27:53.000Z</time>
      </trkpt>
      <trkpt lat="45.24133" lon="10.72925">
        <ele>59.197301</ele>
        <time>2021-08-27T10:27:55.000Z</time>
      </trkpt>
      <trkpt lat="45.24111" lon="10.72921">
        <ele>59.166911</ele>
        <time>2021-08-27T10:27:59.000Z</time>
      </trkpt>
      <trkpt lat="45.24065" lon="10.72914">
        <ele>59.105594</ele>
        <time>2021-08-27T10:28:08.000Z</time>
      </trkpt>
      <trkpt lat="45.24021" lon="10.72907">
        <ele>59.045462</ele>
        <time>2021-08-27T10:28:16.000Z</time>
      </trkpt>
      <trkpt lat="45.24016" lon="10.72906">
        <ele>59.038143</ele>
        <time>2021-08-27T10:28:17.000Z</time>
      </trkpt>
      <trkpt lat="45.2401" lon="10.72905">
        <ele>59.030774</ele>
        <time>2021-08-27T10:28:18.000Z</time>
      </trkpt>
      <trkpt lat="45.23983" lon="10.72901">
        <ele>58.993419</ele>
        <time>2021-08-27T10:28:23.000Z</time>
      </trkpt>
      <trkpt lat="45.23944" lon="10.72895">
        <ele>58.971543</ele>
        <time>2021-08-27T10:28:30.000Z</time>
      </trkpt>
      <trkpt lat="45.23917" lon="10.7289">
        <ele>58.994762</ele>
        <time>2021-08-27T10:28:35.000Z</time>
      </trkpt>
      <trkpt lat="45.23896" lon="10.72887">
        <ele>59.013503</ele>
        <time>2021-08-27T10:28:39.000Z</time>
      </trkpt>
      <trkpt lat="45.23885" lon="10.72886">
        <ele>59.023251</ele>
        <time>2021-08-27T10:28:41.000Z</time>
      </trkpt>
      <trkpt lat="45.23848" lon="10.7288">
        <ele>59.056239</ele>
        <time>2021-08-27T10:28:48.000Z</time>
      </trkpt>
      <trkpt lat="45.23842" lon="10.72879">
        <ele>59.06074</ele>
        <time>2021-08-27T10:28:49.000Z</time>
      </trkpt>
      <trkpt lat="45.23827" lon="10.72876">
        <ele>59.074149</ele>
        <time>2021-08-27T10:28:52.000Z</time>
      </trkpt>
      <trkpt lat="45.23808" lon="10.72873">
        <ele>59.091312</ele>
        <time>2021-08-27T10:28:56.000Z</time>
      </trkpt>
      <trkpt lat="45.23803" lon="10.72872">
        <ele>59.095711</ele>
        <time>2021-08-27T10:28:57.000Z</time>
      </trkpt>
      <trkpt lat="45.23776" lon="10.72868">
        <ele>59.119314</ele>
        <time>2021-08-27T10:29:02.000Z</time>
      </trkpt>
      <trkpt lat="45.23756" lon="10.72866">
        <ele>59.140967</ele>
        <time>2021-08-27T10:29:06.000Z</time>
      </trkpt>
      <trkpt lat="45.2375" lon="10.72865">
        <ele>59.146707</ele>
        <time>2021-08-27T10:29:07.000Z</time>
      </trkpt>
      <trkpt lat="45.23745" lon="10.72864">
        <ele>59.152473</ele>
        <time>2021-08-27T10:29:08.000Z</time>
      </trkpt>
      <trkpt lat="45.23722" lon="10.7286">
        <ele>59.175773</ele>
        <time>2021-08-27T10:29:12.000Z</time>
      </trkpt>
      <trkpt lat="45.23702" lon="10.72858">
        <ele>59.196397</ele>
        <time>2021-08-27T10:29:16.000Z</time>
      </trkpt>
      <trkpt lat="45.23681" lon="10.72857">
        <ele>59.218832</ele>
        <time>2021-08-27T10:29:21.000Z</time>
      </trkpt>
      <trkpt lat="45.23665" lon="10.72854">
        <ele>59.235381</ele>
        <time>2021-08-27T10:29:25.000Z</time>
      </trkpt>
      <trkpt lat="45.23655" lon="10.72851">
        <ele>59.245687</ele>
        <time>2021-08-27T10:29:27.000Z</time>
      </trkpt>
      <trkpt lat="45.23627" lon="10.72844">
        <ele>59.275164</ele>
        <time>2021-08-27T10:29:32.000Z</time>
      </trkpt>
      <trkpt lat="45.23616" lon="10.72842">
        <ele>59.286902</ele>
        <time>2021-08-27T10:29:34.000Z</time>
      </trkpt>
      <trkpt lat="45.23604" lon="10.7284">
        <ele>59.299342</ele>
        <time>2021-08-27T10:29:36.000Z</time>
      </trkpt>
      <trkpt lat="45.23574" lon="10.72835">
        <ele>59.245118</ele>
        <time>2021-08-27T10:29:42.000Z</time>
      </trkpt>
      <trkpt lat="45.23569" lon="10.72834">
        <ele>59.233483</ele>
        <time>2021-08-27T10:29:43.000Z</time>
      </trkpt>
      <trkpt lat="45.23531" lon="10.72828">
        <ele>59.14912</ele>
        <time>2021-08-27T10:29:50.000Z</time>
      </trkpt>
      <trkpt lat="45.23516" lon="10.72826">
        <ele>59.114758</ele>
        <time>2021-08-27T10:29:53.000Z</time>
      </trkpt>
      <trkpt lat="45.235" lon="10.72825">
        <ele>59.078889</ele>
        <time>2021-08-27T10:29:56.000Z</time>
      </trkpt>
      <trkpt lat="45.23489" lon="10.72822">
        <ele>59.055316</ele>
        <time>2021-08-27T10:29:58.000Z</time>
      </trkpt>
      <trkpt lat="45.23469" lon="10.72819">
        <ele>59.009879</ele>
        <time>2021-08-27T10:30:02.000Z</time>
      </trkpt>
      <trkpt lat="45.23432" lon="10.72815">
        <ele>58.928324</ele>
        <time>2021-08-27T10:30:09.000Z</time>
      </trkpt>
      <trkpt lat="45.23401" lon="10.72808">
        <ele>58.961181</ele>
        <time>2021-08-27T10:30:15.000Z</time>
      </trkpt>
      <trkpt lat="45.2339" lon="10.72806">
        <ele>58.991418</ele>
        <time>2021-08-27T10:30:17.000Z</time>
      </trkpt>
      <trkpt lat="45.23379" lon="10.72805">
        <ele>59.021854</ele>
        <time>2021-08-27T10:30:19.000Z</time>
      </trkpt>
      <trkpt lat="45.23368" lon="10.72803">
        <ele>59.051592</ele>
        <time>2021-08-27T10:30:21.000Z</time>
      </trkpt>
      <trkpt lat="45.23346" lon="10.72799">
        <ele>59.11272</ele>
        <time>2021-08-27T10:30:25.000Z</time>
      </trkpt>
      <trkpt lat="45.23301" lon="10.72792">
        <ele>59.234754</ele>
        <time>2021-08-27T10:30:33.000Z</time>
      </trkpt>
      <trkpt lat="45.23257" lon="10.72786">
        <ele>59.356961</ele>
        <time>2021-08-27T10:30:41.000Z</time>
      </trkpt>
      <trkpt lat="45.2324" lon="10.72783">
        <ele>59.388393</ele>
        <time>2021-08-27T10:30:44.000Z</time>
      </trkpt>
      <trkpt lat="45.23212" lon="10.72779">
        <ele>59.312353</ele>
        <time>2021-08-27T10:30:49.000Z</time>
      </trkpt>
      <trkpt lat="45.23185" lon="10.72774">
        <ele>59.237967</ele>
        <time>2021-08-27T10:30:54.000Z</time>
      </trkpt>
      <trkpt lat="45.2317" lon="10.72771">
        <ele>59.195148</ele>
        <time>2021-08-27T10:30:57.000Z</time>
      </trkpt>
      <trkpt lat="45.23158" lon="10.72769">
        <ele>59.164645</ele>
        <time>2021-08-27T10:30:59.000Z</time>
      </trkpt>
      <trkpt lat="45.23147" lon="10.72768">
        <ele>59.132249</ele>
        <time>2021-08-27T10:31:01.000Z</time>
      </trkpt>
      <trkpt lat="45.23134" lon="10.72767">
        <ele>59.098825</ele>
        <time>2021-08-27T10:31:03.000Z</time>
      </trkpt>
      <trkpt lat="45.23128" lon="10.72766">
        <ele>59.081716</ele>
        <time>2021-08-27T10:31:04.000Z</time>
      </trkpt>
      <trkpt lat="45.23116" lon="10.72765">
        <ele>59.047918</ele>
        <time>2021-08-27T10:31:06.000Z</time>
      </trkpt>
      <trkpt lat="45.23109" lon="10.72764">
        <ele>59.031044</ele>
        <time>2021-08-27T10:31:07.000Z</time>
      </trkpt>
      <trkpt lat="45.23103" lon="10.72763">
        <ele>59.014135</ele>
        <time>2021-08-27T10:31:08.000Z</time>
      </trkpt>
      <trkpt lat="45.23091" lon="10.72761">
        <ele>58.979738</ele>
        <time>2021-08-27T10:31:10.000Z</time>
      </trkpt>
      <trkpt lat="45.23065" lon="10.72756">
        <ele>58.910169</ele>
        <time>2021-08-27T10:31:14.000Z</time>
      </trkpt>
      <trkpt lat="45.23012" lon="10.72745">
        <ele>59.001996</ele>
        <time>2021-08-27T10:31:23.000Z</time>
      </trkpt>
      <trkpt lat="45.23" lon="10.72741">
        <ele>59.024387</ele>
        <time>2021-08-27T10:31:25.000Z</time>
      </trkpt>
      <trkpt lat="45.22969" lon="10.72732">
        <ele>59.080176</ele>
        <time>2021-08-27T10:31:30.000Z</time>
      </trkpt>
      <trkpt lat="45.22952" lon="10.72726">
        <ele>59.113012</ele>
        <time>2021-08-27T10:31:33.000Z</time>
      </trkpt>
      <trkpt lat="45.22946" lon="10.72724">
        <ele>59.123871</ele>
        <time>2021-08-27T10:31:34.000Z</time>
      </trkpt>
      <trkpt lat="45.22907" lon="10.7271">
        <ele>59.196198</ele>
        <time>2021-08-27T10:31:41.000Z</time>
      </trkpt>
      <trkpt lat="45.22902" lon="10.72708">
        <ele>59.205936</ele>
        <time>2021-08-27T10:31:42.000Z</time>
      </trkpt>
      <trkpt lat="45.22891" lon="10.72702">
        <ele>59.226657</ele>
        <time>2021-08-27T10:31:44.000Z</time>
      </trkpt>
      <trkpt lat="45.22873" lon="10.72693">
        <ele>59.281561</ele>
        <time>2021-08-27T10:31:47.000Z</time>
      </trkpt>
      <trkpt lat="45.22856" lon="10.72685">
        <ele>59.336407</ele>
        <time>2021-08-27T10:31:50.000Z</time>
      </trkpt>
      <trkpt lat="45.22808" lon="10.72657">
        <ele>59.493798</ele>
        <time>2021-08-27T10:31:59.000Z</time>
      </trkpt>
      <trkpt lat="45.22797" lon="10.7265">
        <ele>59.530748</ele>
        <time>2021-08-27T10:32:02.000Z</time>
      </trkpt>
      <trkpt lat="45.2279" lon="10.72644">
        <ele>59.554256</ele>
        <time>2021-08-27T10:32:04.000Z</time>
      </trkpt>
      <trkpt lat="45.22778" lon="10.72635">
        <ele>59.596525</ele>
        <time>2021-08-27T10:32:08.000Z</time>
      </trkpt>
      <trkpt lat="45.22772" lon="10.72633">
        <ele>59.614019</ele>
        <time>2021-08-27T10:32:10.000Z</time>
      </trkpt>
      <trkpt lat="45.22757" lon="10.72624">
        <ele>59.664661</ele>
        <time>2021-08-27T10:32:16.000Z</time>
      </trkpt>
      <trkpt lat="45.22741" lon="10.72611">
        <ele>59.721081</ele>
        <time>2021-08-27T10:32:21.000Z</time>
      </trkpt>
      <trkpt lat="45.22737" lon="10.72608">
        <ele>59.733634</ele>
        <time>2021-08-27T10:32:22.000Z</time>
      </trkpt>
      <trkpt lat="45.2273" lon="10.72601">
        <ele>59.761747</ele>
        <time>2021-08-27T10:32:24.000Z</time>
      </trkpt>
      <trkpt lat="45.22725" lon="10.72597">
        <ele>59.776305</ele>
        <time>2021-08-27T10:32:25.000Z</time>
      </trkpt>
      <trkpt lat="45.22707" lon="10.72583">
        <ele>59.696674</ele>
        <time>2021-08-27T10:32:29.000Z</time>
      </trkpt>
      <trkpt lat="45.2268" lon="10.72558">
        <ele>59.571752</ele>
        <time>2021-08-27T10:32:35.000Z</time>
      </trkpt>
      <trkpt lat="45.22642" lon="10.72525">
        <ele>59.39525</ele>
        <time>2021-08-27T10:32:43.000Z</time>
      </trkpt>
      <trkpt lat="45.22617" lon="10.72504">
        <ele>59.282338</ele>
        <time>2021-08-27T10:32:48.000Z</time>
      </trkpt>
      <trkpt lat="45.22598" lon="10.72488">
        <ele>59.196129</ele>
        <time>2021-08-27T10:32:52.000Z</time>
      </trkpt>
      <trkpt lat="45.22566" lon="10.72463">
        <ele>59.069385</ele>
        <time>2021-08-27T10:32:59.000Z</time>
      </trkpt>
      <trkpt lat="45.22555" lon="10.72455">
        <ele>59.058834</ele>
        <time>2021-08-27T10:33:01.000Z</time>
      </trkpt>
      <trkpt lat="45.2254" lon="10.72442">
        <ele>59.041981</ele>
        <time>2021-08-27T10:33:04.000Z</time>
      </trkpt>
      <trkpt lat="45.2253" lon="10.72434">
        <ele>59.031745</ele>
        <time>2021-08-27T10:33:06.000Z</time>
      </trkpt>
      <trkpt lat="45.22511" lon="10.72417">
        <ele>59.010507</ele>
        <time>2021-08-27T10:33:10.000Z</time>
      </trkpt>
      <trkpt lat="45.225" lon="10.72408">
        <ele>58.999301</ele>
        <time>2021-08-27T10:33:12.000Z</time>
      </trkpt>
      <trkpt lat="45.22486" lon="10.72395">
        <ele>58.98362</ele>
        <time>2021-08-27T10:33:15.000Z</time>
      </trkpt>
      <trkpt lat="45.22471" lon="10.7238">
        <ele>58.967125</ele>
        <time>2021-08-27T10:33:18.000Z</time>
      </trkpt>
      <trkpt lat="45.22462" lon="10.72372">
        <ele>58.957068</ele>
        <time>2021-08-27T10:33:20.000Z</time>
      </trkpt>
      <trkpt lat="45.22447" lon="10.72359">
        <ele>58.940881</ele>
        <time>2021-08-27T10:33:23.000Z</time>
      </trkpt>
      <trkpt lat="45.22433" lon="10.72346">
        <ele>58.9252</ele>
        <time>2021-08-27T10:33:26.000Z</time>
      </trkpt>
      <trkpt lat="45.22418" lon="10.72336">
        <ele>58.91</ele>
        <time>2021-08-27T10:33:29.000Z</time>
      </trkpt>
      <trkpt lat="45.22409" lon="10.72326">
        <ele>58.920155</ele>
        <time>2021-08-27T10:33:31.000Z</time>
      </trkpt>
      <trkpt lat="45.22381" lon="10.72302">
        <ele>58.957514</ele>
        <time>2021-08-27T10:33:37.000Z</time>
      </trkpt>
      <trkpt lat="45.22344" lon="10.72271">
        <ele>59.007686</ele>
        <time>2021-08-27T10:33:45.000Z</time>
      </trkpt>
      <trkpt lat="45.22305" lon="10.72238">
        <ele>59.060742</ele>
        <time>2021-08-27T10:33:53.000Z</time>
      </trkpt>
      <trkpt lat="45.2229" lon="10.72227">
        <ele>59.080953</ele>
        <time>2021-08-27T10:33:56.000Z</time>
      </trkpt>
      <trkpt lat="45.22285" lon="10.72223">
        <ele>59.08746</ele>
        <time>2021-08-27T10:33:57.000Z</time>
      </trkpt>
      <trkpt lat="45.22275" lon="10.72215">
        <ele>59.10049</ele>
        <time>2021-08-27T10:33:59.000Z</time>
      </trkpt>
      <trkpt lat="45.22253" lon="10.72197">
        <ele>59.170649</ele>
        <time>2021-08-27T10:34:04.000Z</time>
      </trkpt>
      <trkpt lat="45.22228" lon="10.72174">
        <ele>59.321191</ele>
        <time>2021-08-27T10:34:09.000Z</time>
      </trkpt>
      <trkpt lat="45.22213" lon="10.72161">
        <ele>59.40835</ele>
        <time>2021-08-27T10:34:12.000Z</time>
      </trkpt>
      <trkpt lat="45.22184" lon="10.72136">
        <ele>59.576955</ele>
        <time>2021-08-27T10:34:18.000Z</time>
      </trkpt>
      <trkpt lat="45.22164" lon="10.72119">
        <ele>59.694557</ele>
        <time>2021-08-27T10:34:22.000Z</time>
      </trkpt>
      <trkpt lat="45.22146" lon="10.72104">
        <ele>59.797135</ele>
        <time>2021-08-27T10:34:26.000Z</time>
      </trkpt>
      <trkpt lat="45.22139" lon="10.72098">
        <ele>59.842539</ele>
        <time>2021-08-27T10:34:28.000Z</time>
      </trkpt>
      <trkpt lat="45.22118" lon="10.72081">
        <ele>59.960364</ele>
        <time>2021-08-27T10:34:34.000Z</time>
      </trkpt>
      <trkpt lat="45.22115" lon="10.72078">
        <ele>59.980796</ele>
        <time>2021-08-27T10:34:35.000Z</time>
      </trkpt>
      <trkpt lat="45.22092" lon="10.72058">
        <ele>59.883438</ele>
        <time>2021-08-27T10:34:40.000Z</time>
      </trkpt>
      <trkpt lat="45.22087" lon="10.72054">
        <ele>59.839161</ele>
        <time>2021-08-27T10:34:41.000Z</time>
      </trkpt>
      <trkpt lat="45.22049" lon="10.72018">
        <ele>59.520554</ele>
        <time>2021-08-27T10:34:48.000Z</time>
      </trkpt>
      <trkpt lat="45.22007" lon="10.71981">
        <ele>59.165974</ele>
        <time>2021-08-27T10:34:56.000Z</time>
      </trkpt>
      <trkpt lat="45.22002" lon="10.71976">
        <ele>59.122907</ele>
        <time>2021-08-27T10:34:57.000Z</time>
      </trkpt>
      <trkpt lat="45.21958" lon="10.71939">
        <ele>58.758249</ele>
        <time>2021-08-27T10:35:06.000Z</time>
      </trkpt>
      <trkpt lat="45.21949" lon="10.7193">
        <ele>58.767456</ele>
        <time>2021-08-27T10:35:08.000Z</time>
      </trkpt>
      <trkpt lat="45.21901" lon="10.7189">
        <ele>58.969794</ele>
        <time>2021-08-27T10:35:18.000Z</time>
      </trkpt>
      <trkpt lat="45.21876" lon="10.7187">
        <ele>59.071128</ele>
        <time>2021-08-27T10:35:23.000Z</time>
      </trkpt>
      <trkpt lat="45.21872" lon="10.71866">
        <ele>59.091503</ele>
        <time>2021-08-27T10:35:24.000Z</time>
      </trkpt>
      <trkpt lat="45.21862" lon="10.71858">
        <ele>59.130842</ele>
        <time>2021-08-27T10:35:26.000Z</time>
      </trkpt>
      <trkpt lat="45.21848" lon="10.71845">
        <ele>59.192328</ele>
        <time>2021-08-27T10:35:29.000Z</time>
      </trkpt>
      <trkpt lat="45.21816" lon="10.71818">
        <ele>59.326555</ele>
        <time>2021-08-27T10:35:36.000Z</time>
      </trkpt>
      <trkpt lat="45.21808" lon="10.71811">
        <ele>59.362641</ele>
        <time>2021-08-27T10:35:38.000Z</time>
      </trkpt>
      <trkpt lat="45.21794" lon="10.71799">
        <ele>59.3799</ele>
        <time>2021-08-27T10:35:41.000Z</time>
      </trkpt>
      <trkpt lat="45.2178" lon="10.71787">
        <ele>59.364931</ele>
        <time>2021-08-27T10:35:44.000Z</time>
      </trkpt>
      <trkpt lat="45.21771" lon="10.71779">
        <ele>59.355407</ele>
        <time>2021-08-27T10:35:46.000Z</time>
      </trkpt>
      <trkpt lat="45.21753" lon="10.71764">
        <ele>59.336415</ele>
        <time>2021-08-27T10:35:50.000Z</time>
      </trkpt>
      <trkpt lat="45.21709" lon="10.71724">
        <ele>59.288651</ele>
        <time>2021-08-27T10:35:59.000Z</time>
      </trkpt>
      <trkpt lat="45.21676" lon="10.71695">
        <ele>59.25392</ele>
        <time>2021-08-27T10:36:05.000Z</time>
      </trkpt>
      <trkpt lat="45.21665" lon="10.71686">
        <ele>59.242534</ele>
        <time>2021-08-27T10:36:07.000Z</time>
      </trkpt>
      <trkpt lat="45.21618" lon="10.71647">
        <ele>59.28961</ele>
        <time>2021-08-27T10:36:16.000Z</time>
      </trkpt>
      <trkpt lat="45.21602" lon="10.71634">
        <ele>59.323678</ele>
        <time>2021-08-27T10:36:19.000Z</time>
      </trkpt>
      <trkpt lat="45.21571" lon="10.71607">
        <ele>59.391098</ele>
        <time>2021-08-27T10:36:25.000Z</time>
      </trkpt>
      <trkpt lat="45.21557" lon="10.71594">
        <ele>59.422662</ele>
        <time>2021-08-27T10:36:28.000Z</time>
      </trkpt>
      <trkpt lat="45.21522" lon="10.71564">
        <ele>59.498536</ele>
        <time>2021-08-27T10:36:35.000Z</time>
      </trkpt>
      <trkpt lat="45.21482" lon="10.7153">
        <ele>59.557</ele>
        <time>2021-08-27T10:36:43.000Z</time>
      </trkpt>
      <trkpt lat="45.21463" lon="10.71514">
        <ele>59.55339</ele>
        <time>2021-08-27T10:36:47.000Z</time>
      </trkpt>
      <trkpt lat="45.2143" lon="10.71486">
        <ele>59.546872</ele>
        <time>2021-08-27T10:36:54.000Z</time>
      </trkpt>
      <trkpt lat="45.21421" lon="10.7148">
        <ele>59.545329</ele>
        <time>2021-08-27T10:36:56.000Z</time>
      </trkpt>
      <trkpt lat="45.21418" lon="10.71477">
        <ele>59.544741</ele>
        <time>2021-08-27T10:36:57.000Z</time>
      </trkpt>
      <trkpt lat="45.21411" lon="10.71471">
        <ele>59.543323</ele>
        <time>2021-08-27T10:36:59.000Z</time>
      </trkpt>
      <trkpt lat="45.21402" lon="10.71466">
        <ele>59.541759</ele>
        <time>2021-08-27T10:37:02.000Z</time>
      </trkpt>
      <trkpt lat="45.2139" lon="10.71455">
        <ele>59.539388</ele>
        <time>2021-08-27T10:37:07.000Z</time>
      </trkpt>
      <trkpt lat="45.21385" lon="10.7145">
        <ele>59.538274</ele>
        <time>2021-08-27T10:37:09.000Z</time>
      </trkpt>
      <trkpt lat="45.21371" lon="10.71435">
        <ele>59.535431</ele>
        <time>2021-08-27T10:37:13.000Z</time>
      </trkpt>
      <trkpt lat="45.21367" lon="10.71431">
        <ele>59.534603</ele>
        <time>2021-08-27T10:37:14.000Z</time>
      </trkpt>
      <trkpt lat="45.21358" lon="10.71422">
        <ele>59.532791</ele>
        <time>2021-08-27T10:37:16.000Z</time>
      </trkpt>
      <trkpt lat="45.21354" lon="10.71418">
        <ele>59.531861</ele>
        <time>2021-08-27T10:37:17.000Z</time>
      </trkpt>
      <trkpt lat="45.21339" lon="10.71405">
        <ele>59.52159</ele>
        <time>2021-08-27T10:37:20.000Z</time>
      </trkpt>
      <trkpt lat="45.21312" lon="10.71386">
        <ele>59.414077</ele>
        <time>2021-08-27T10:37:25.000Z</time>
      </trkpt>
      <trkpt lat="45.21306" lon="10.71382">
        <ele>59.394141</ele>
        <time>2021-08-27T10:37:26.000Z</time>
      </trkpt>
      <trkpt lat="45.21281" lon="10.71362">
        <ele>59.293088</ele>
        <time>2021-08-27T10:37:31.000Z</time>
      </trkpt>
      <trkpt lat="45.21261" lon="10.7135">
        <ele>59.215552</ele>
        <time>2021-08-27T10:37:35.000Z</time>
      </trkpt>
      <trkpt lat="45.21213" lon="10.71326">
        <ele>59.041939</ele>
        <time>2021-08-27T10:37:44.000Z</time>
      </trkpt>
      <trkpt lat="45.21203" lon="10.71322">
        <ele>59.004832</ele>
        <time>2021-08-27T10:37:46.000Z</time>
      </trkpt>
      <trkpt lat="45.21193" lon="10.71317">
        <ele>58.966842</ele>
        <time>2021-08-27T10:37:48.000Z</time>
      </trkpt>
      <trkpt lat="45.21155" lon="10.71302">
        <ele>58.698287</ele>
        <time>2021-08-27T10:37:55.000Z</time>
      </trkpt>
      <trkpt lat="45.21139" lon="10.71297">
        <ele>58.534076</ele>
        <time>2021-08-27T10:37:58.000Z</time>
      </trkpt>
      <trkpt lat="45.21116" lon="10.71293">
        <ele>58.305219</ele>
        <time>2021-08-27T10:38:02.000Z</time>
      </trkpt>
      <trkpt lat="45.21088" lon="10.71286">
        <ele>58.021247</ele>
        <time>2021-08-27T10:38:07.000Z</time>
      </trkpt>
      <trkpt lat="45.21077" lon="10.71283">
        <ele>57.906992</ele>
        <time>2021-08-27T10:38:09.000Z</time>
      </trkpt>
      <trkpt lat="45.21065" lon="10.71281">
        <ele>57.792029</ele>
        <time>2021-08-27T10:38:11.000Z</time>
      </trkpt>
      <trkpt lat="45.21048" lon="10.71278">
        <ele>57.621775</ele>
        <time>2021-08-27T10:38:14.000Z</time>
      </trkpt>
      <trkpt lat="45.21027" lon="10.71274">
        <ele>57.405892</ele>
        <time>2021-08-27T10:38:18.000Z</time>
      </trkpt>
      <trkpt lat="45.21017" lon="10.71272">
        <ele>57.305992</ele>
        <time>2021-08-27T10:38:20.000Z</time>
      </trkpt>
      <trkpt lat="45.21008" lon="10.71269">
        <ele>57.216229</ele>
        <time>2021-08-27T10:38:22.000Z</time>
      </trkpt>
      <trkpt lat="45.20989" lon="10.71265">
        <ele>56.998759</ele>
        <time>2021-08-27T10:38:26.000Z</time>
      </trkpt>
      <trkpt lat="45.20983" lon="10.71264">
        <ele>56.926645</ele>
        <time>2021-08-27T10:38:27.000Z</time>
      </trkpt>
      <trkpt lat="45.20971" lon="10.71261">
        <ele>56.773821</ele>
        <time>2021-08-27T10:38:29.000Z</time>
      </trkpt>
      <trkpt lat="45.20951" lon="10.71257">
        <ele>56.53222</ele>
        <time>2021-08-27T10:38:32.000Z</time>
      </trkpt>
      <trkpt lat="45.20945" lon="10.71256">
        <ele>56.449578</ele>
        <time>2021-08-27T10:38:33.000Z</time>
      </trkpt>
      <trkpt lat="45.20918" lon="10.71252">
        <ele>56.119331</ele>
        <time>2021-08-27T10:38:37.000Z</time>
      </trkpt>
      <trkpt lat="45.20893" lon="10.71249">
        <ele>55.813495</ele>
        <time>2021-08-27T10:38:41.000Z</time>
      </trkpt>
      <trkpt lat="45.20859" lon="10.71245">
        <ele>55.386521</ele>
        <time>2021-08-27T10:38:47.000Z</time>
      </trkpt>
      <trkpt lat="45.20848" lon="10.71243">
        <ele>55.256082</ele>
        <time>2021-08-27T10:38:49.000Z</time>
      </trkpt>
      <trkpt lat="45.20838" lon="10.71241">
        <ele>55.125321</ele>
        <time>2021-08-27T10:38:51.000Z</time>
      </trkpt>
      <trkpt lat="45.20828" lon="10.7124">
        <ele>54.998994</ele>
        <time>2021-08-27T10:38:53.000Z</time>
      </trkpt>
      <trkpt lat="45.20801" lon="10.71235">
        <ele>54.963942</ele>
        <time>2021-08-27T10:38:58.000Z</time>
      </trkpt>
      <trkpt lat="45.20791" lon="10.71233">
        <ele>55.001263</ele>
        <time>2021-08-27T10:39:00.000Z</time>
      </trkpt>
      <trkpt lat="45.2078" lon="10.71231">
        <ele>55.040014</ele>
        <time>2021-08-27T10:39:02.000Z</time>
      </trkpt>
      <trkpt lat="45.20771" lon="10.71229">
        <ele>55.072759</ele>
        <time>2021-08-27T10:39:04.000Z</time>
      </trkpt>
      <trkpt lat="45.2074" lon="10.71225">
        <ele>55.182931</ele>
        <time>2021-08-27T10:39:10.000Z</time>
      </trkpt>
      <trkpt lat="45.20724" lon="10.71223">
        <ele>55.236504</ele>
        <time>2021-08-27T10:39:13.000Z</time>
      </trkpt>
      <trkpt lat="45.207" lon="10.71219">
        <ele>55.323806</ele>
        <time>2021-08-27T10:39:18.000Z</time>
      </trkpt>
      <trkpt lat="45.20679" lon="10.71217">
        <ele>55.396209</ele>
        <time>2021-08-27T10:39:22.000Z</time>
      </trkpt>
      <trkpt lat="45.20659" lon="10.71213">
        <ele>55.468888</ele>
        <time>2021-08-27T10:39:26.000Z</time>
      </trkpt>
      <trkpt lat="45.20615" lon="10.71204">
        <ele>55.324563</ele>
        <time>2021-08-27T10:39:34.000Z</time>
      </trkpt>
      <trkpt lat="45.20565" lon="10.71195">
        <ele>54.921933</ele>
        <time>2021-08-27T10:39:43.000Z</time>
      </trkpt>
      <trkpt lat="45.20526" lon="10.71189">
        <ele>54.617814</ele>
        <time>2021-08-27T10:39:50.000Z</time>
      </trkpt>
      <trkpt lat="45.20521" lon="10.71189">
        <ele>54.573226</ele>
        <time>2021-08-27T10:39:51.000Z</time>
      </trkpt>
      <trkpt lat="45.20499" lon="10.71188">
        <ele>54.403621</ele>
        <time>2021-08-27T10:39:55.000Z</time>
      </trkpt>
      <trkpt lat="45.20467" lon="10.71187">
        <ele>54.145314</ele>
        <time>2021-08-27T10:40:01.000Z</time>
      </trkpt>
      <trkpt lat="45.20461" lon="10.71187">
        <ele>54.094514</ele>
        <time>2021-08-27T10:40:02.000Z</time>
      </trkpt>
      <trkpt lat="45.20427" lon="10.71186">
        <ele>53.51628</ele>
        <time>2021-08-27T10:40:08.000Z</time>
      </trkpt>
      <trkpt lat="45.20415" lon="10.71187">
        <ele>53.317887</ele>
        <time>2021-08-27T10:40:10.000Z</time>
      </trkpt>
      <trkpt lat="45.20384" lon="10.71192">
        <ele>52.773149</ele>
        <time>2021-08-27T10:40:15.000Z</time>
      </trkpt>
      <trkpt lat="45.20377" lon="10.71193">
        <ele>52.660195</ele>
        <time>2021-08-27T10:40:16.000Z</time>
      </trkpt>
      <trkpt lat="45.20351" lon="10.71198">
        <ele>52.22062</ele>
        <time>2021-08-27T10:40:20.000Z</time>
      </trkpt>
      <trkpt lat="45.20339" lon="10.712">
        <ele>52.003735</ele>
        <time>2021-08-27T10:40:22.000Z</time>
      </trkpt>
      <trkpt lat="45.20297" lon="10.7121">
        <ele>51.288355</ele>
        <time>2021-08-27T10:40:29.000Z</time>
      </trkpt>
      <trkpt lat="45.20253" lon="10.71224">
        <ele>51.244046</ele>
        <time>2021-08-27T10:40:37.000Z</time>
      </trkpt>
      <trkpt lat="45.20217" lon="10.71234">
        <ele>51.462344</ele>
        <time>2021-08-27T10:40:44.000Z</time>
      </trkpt>
      <trkpt lat="45.20183" lon="10.71244">
        <ele>51.667766</ele>
        <time>2021-08-27T10:40:51.000Z</time>
      </trkpt>
      <trkpt lat="45.20158" lon="10.71249">
        <ele>51.811684</ele>
        <time>2021-08-27T10:40:56.000Z</time>
      </trkpt>
      <trkpt lat="45.20153" lon="10.71251">
        <ele>51.842752</ele>
        <time>2021-08-27T10:40:58.000Z</time>
      </trkpt>
      <trkpt lat="45.20131" lon="10.71259">
        <ele>51.97875</ele>
        <time>2021-08-27T10:41:06.000Z</time>
      </trkpt>
      <trkpt lat="45.20112" lon="10.71262">
        <ele>52.092023</ele>
        <time>2021-08-27T10:41:11.000Z</time>
      </trkpt>
      <trkpt lat="45.20104" lon="10.71264">
        <ele>52.108153</ele>
        <time>2021-08-27T10:41:13.000Z</time>
      </trkpt>
      <trkpt lat="45.20078" lon="10.7127">
        <ele>52.033659</ele>
        <time>2021-08-27T10:41:19.000Z</time>
      </trkpt>
      <trkpt lat="45.20065" lon="10.71274">
        <ele>51.995737</ele>
        <time>2021-08-27T10:41:22.000Z</time>
      </trkpt>
      <trkpt lat="45.20051" lon="10.71278">
        <ele>51.955235</ele>
        <time>2021-08-27T10:41:25.000Z</time>
      </trkpt>
      <trkpt lat="45.20037" lon="10.71283">
        <ele>51.914386</ele>
        <time>2021-08-27T10:41:28.000Z</time>
      </trkpt>
      <trkpt lat="45.20013" lon="10.7129">
        <ele>51.84577</ele>
        <time>2021-08-27T10:41:33.000Z</time>
      </trkpt>
      <trkpt lat="45.20003" lon="10.71292">
        <ele>51.817696</ele>
        <time>2021-08-27T10:41:35.000Z</time>
      </trkpt>
      <trkpt lat="45.19994" lon="10.71295">
        <ele>51.790178</ele>
        <time>2021-08-27T10:41:37.000Z</time>
      </trkpt>
      <trkpt lat="45.19974" lon="10.713">
        <ele>51.733834</ele>
        <time>2021-08-27T10:41:41.000Z</time>
      </trkpt>
      <trkpt lat="45.19959" lon="10.71304">
        <ele>51.690352</ele>
        <time>2021-08-27T10:41:44.000Z</time>
      </trkpt>
      <trkpt lat="45.19924" lon="10.71315">
        <ele>51.585948</ele>
        <time>2021-08-27T10:41:51.000Z</time>
      </trkpt>
      <trkpt lat="45.19905" lon="10.71321">
        <ele>51.522628</ele>
        <time>2021-08-27T10:41:55.000Z</time>
      </trkpt>
      <trkpt lat="45.19881" lon="10.71333">
        <ele>51.440489</ele>
        <time>2021-08-27T10:42:00.000Z</time>
      </trkpt>
      <trkpt lat="45.19867" lon="10.71343">
        <ele>51.390419</ele>
        <time>2021-08-27T10:42:03.000Z</time>
      </trkpt>
      <trkpt lat="45.19832" lon="10.7137">
        <ele>51.263397</ele>
        <time>2021-08-27T10:42:11.000Z</time>
      </trkpt>
      <trkpt lat="45.19798" lon="10.71398">
        <ele>51.135761</ele>
        <time>2021-08-27T10:42:19.000Z</time>
      </trkpt>
      <trkpt lat="45.19757" lon="10.7143">
        <ele>50.923276</ele>
        <time>2021-08-27T10:42:28.000Z</time>
      </trkpt>
      <trkpt lat="45.19753" lon="10.71433">
        <ele>50.889664</ele>
        <time>2021-08-27T10:42:29.000Z</time>
      </trkpt>
      <trkpt lat="45.19743" lon="10.71442">
        <ele>50.794741</ele>
        <time>2021-08-27T10:42:32.000Z</time>
      </trkpt>
      <trkpt lat="45.19735" lon="10.71448">
        <ele>50.730173</ele>
        <time>2021-08-27T10:42:34.000Z</time>
      </trkpt>
      <trkpt lat="45.19722" lon="10.71457">
        <ele>50.615569</ele>
        <time>2021-08-27T10:42:37.000Z</time>
      </trkpt>
      <trkpt lat="45.19708" lon="10.71464">
        <ele>50.496464</ele>
        <time>2021-08-27T10:42:40.000Z</time>
      </trkpt>
      <trkpt lat="45.19677" lon="10.71482">
        <ele>50.240332</ele>
        <time>2021-08-27T10:42:46.000Z</time>
      </trkpt>
      <trkpt lat="45.19666" lon="10.71488">
        <ele>50.151991</ele>
        <time>2021-08-27T10:42:48.000Z</time>
      </trkpt>
      <trkpt lat="45.19631" lon="10.71518">
        <ele>49.832903</ele>
        <time>2021-08-27T10:42:55.000Z</time>
      </trkpt>
      <trkpt lat="45.19614" lon="10.71544">
        <ele>49.64376</ele>
        <time>2021-08-27T10:42:59.000Z</time>
      </trkpt>
      <trkpt lat="45.19611" lon="10.71551">
        <ele>49.649541</ele>
        <time>2021-08-27T10:43:00.000Z</time>
      </trkpt>
      <trkpt lat="45.19599" lon="10.7158">
        <ele>49.690542</ele>
        <time>2021-08-27T10:43:04.000Z</time>
      </trkpt>
      <trkpt lat="45.19594" lon="10.71595">
        <ele>49.710465</ele>
        <time>2021-08-27T10:43:06.000Z</time>
      </trkpt>
      <trkpt lat="45.19586" lon="10.71615">
        <ele>49.738605</ele>
        <time>2021-08-27T10:43:09.000Z</time>
      </trkpt>
      <trkpt lat="45.19576" lon="10.7164">
        <ele>49.773385</ele>
        <time>2021-08-27T10:43:13.000Z</time>
      </trkpt>
      <trkpt lat="45.19567" lon="10.7166">
        <ele>49.801971</ele>
        <time>2021-08-27T10:43:16.000Z</time>
      </trkpt>
      <trkpt lat="45.19565" lon="10.71667">
        <ele>49.810635</ele>
        <time>2021-08-27T10:43:17.000Z</time>
      </trkpt>
      <trkpt lat="45.19555" lon="10.71691">
        <ele>49.844786</ele>
        <time>2021-08-27T10:43:21.000Z</time>
      </trkpt>
      <trkpt lat="45.19545" lon="10.71716">
        <ele>49.87906</ele>
        <time>2021-08-27T10:43:25.000Z</time>
      </trkpt>
      <trkpt lat="45.19535" lon="10.71741">
        <ele>49.914641</ele>
        <time>2021-08-27T10:43:29.000Z</time>
      </trkpt>
      <trkpt lat="45.1953" lon="10.71754">
        <ele>49.932326</ele>
        <time>2021-08-27T10:43:31.000Z</time>
      </trkpt>
      <trkpt lat="45.19525" lon="10.71767">
        <ele>49.947692</ele>
        <time>2021-08-27T10:43:33.000Z</time>
      </trkpt>
      <trkpt lat="45.19518" lon="10.71784">
        <ele>49.925953</ele>
        <time>2021-08-27T10:43:36.000Z</time>
      </trkpt>
      <trkpt lat="45.19514" lon="10.71796">
        <ele>49.912247</ele>
        <time>2021-08-27T10:43:38.000Z</time>
      </trkpt>
      <trkpt lat="45.19508" lon="10.71814">
        <ele>49.889954</ele>
        <time>2021-08-27T10:43:42.000Z</time>
      </trkpt>
      <trkpt lat="45.19502" lon="10.71828">
        <ele>49.872641</ele>
        <time>2021-08-27T10:43:47.000Z</time>
      </trkpt>
      <trkpt lat="45.19502" lon="10.7183">
        <ele>49.870233</ele>
        <time>2021-08-27T10:43:48.000Z</time>
      </trkpt>
      <trkpt lat="45.19501" lon="10.71832">
        <ele>49.86754</ele>
        <time>2021-08-27T10:43:52.000Z</time>
      </trkpt>
      <trkpt lat="45.19501" lon="10.71832">
        <ele>49.86754</ele>
        <time>2021-08-27T10:44:13.000Z</time>
      </trkpt>
      <trkpt lat="45.195" lon="10.71832">
        <ele>49.865997</ele>
        <time>2021-08-27T10:44:22.000Z</time>
      </trkpt>
      <trkpt lat="45.19499" lon="10.71832">
        <ele>49.864894</ele>
        <time>2021-08-27T10:44:31.000Z</time>
      </trkpt>
      <trkpt lat="45.19497" lon="10.71831">
        <ele>49.86201</ele>
        <time>2021-08-27T10:44:37.000Z</time>
      </trkpt>
      <trkpt lat="45.19493" lon="10.71827">
        <ele>49.854828</ele>
        <time>2021-08-27T10:44:39.000Z</time>
      </trkpt>
      <trkpt lat="45.19484" lon="10.71822">
        <ele>49.839458</ele>
        <time>2021-08-27T10:44:42.000Z</time>
      </trkpt>
      <trkpt lat="45.19477" lon="10.71818">
        <ele>49.827236</ele>
        <time>2021-08-27T10:44:44.000Z</time>
      </trkpt>
      <trkpt lat="45.19469" lon="10.71813">
        <ele>49.813556</ele>
        <time>2021-08-27T10:44:46.000Z</time>
      </trkpt>
      <trkpt lat="45.19457" lon="10.71806">
        <ele>49.793173</ele>
        <time>2021-08-27T10:44:49.000Z</time>
      </trkpt>
      <trkpt lat="45.19453" lon="10.71803">
        <ele>49.786381</ele>
        <time>2021-08-27T10:44:50.000Z</time>
      </trkpt>
      <trkpt lat="45.19449" lon="10.71801">
        <ele>49.780589</ele>
        <time>2021-08-27T10:44:51.000Z</time>
      </trkpt>
      <trkpt lat="45.19446" lon="10.71802">
        <ele>49.775322</ele>
        <time>2021-08-27T10:44:52.000Z</time>
      </trkpt>
      <trkpt lat="45.19441" lon="10.71809">
        <ele>49.76483</ele>
        <time>2021-08-27T10:44:54.000Z</time>
      </trkpt>
      <trkpt lat="45.19439" lon="10.71814">
        <ele>49.758495</ele>
        <time>2021-08-27T10:44:55.000Z</time>
      </trkpt>
      <trkpt lat="45.19434" lon="10.71831">
        <ele>49.738211</ele>
        <time>2021-08-27T10:44:58.000Z</time>
      </trkpt>
      <trkpt lat="45.19427" lon="10.71849">
        <ele>49.716445</ele>
        <time>2021-08-27T10:45:01.000Z</time>
      </trkpt>
      <trkpt lat="45.19416" lon="10.71879">
        <ele>49.679968</ele>
        <time>2021-08-27T10:45:06.000Z</time>
      </trkpt>
      <trkpt lat="45.19412" lon="10.7189">
        <ele>49.665428</ele>
        <time>2021-08-27T10:45:08.000Z</time>
      </trkpt>
      <trkpt lat="45.19409" lon="10.71896">
        <ele>49.658459</ele>
        <time>2021-08-27T10:45:09.000Z</time>
      </trkpt>
      <trkpt lat="45.19402" lon="10.71913">
        <ele>49.637966</ele>
        <time>2021-08-27T10:45:12.000Z</time>
      </trkpt>
      <trkpt lat="45.19396" lon="10.7193">
        <ele>49.617586</ele>
        <time>2021-08-27T10:45:15.000Z</time>
      </trkpt>
      <trkpt lat="45.19387" lon="10.71952">
        <ele>49.589498</ele>
        <time>2021-08-27T10:45:19.000Z</time>
      </trkpt>
      <trkpt lat="45.19384" lon="10.71959">
        <ele>49.581106</ele>
        <time>2021-08-27T10:45:20.000Z</time>
      </trkpt>
      <trkpt lat="45.19368" lon="10.71999">
        <ele>49.53173</ele>
        <time>2021-08-27T10:45:27.000Z</time>
      </trkpt>
      <trkpt lat="45.19363" lon="10.72011">
        <ele>49.517946</ele>
        <time>2021-08-27T10:45:29.000Z</time>
      </trkpt>
      <trkpt lat="45.19354" lon="10.72033">
        <ele>49.490304</ele>
        <time>2021-08-27T10:45:33.000Z</time>
      </trkpt>
      <trkpt lat="45.19341" lon="10.72068">
        <ele>49.448157</ele>
        <time>2021-08-27T10:45:39.000Z</time>
      </trkpt>
      <trkpt lat="45.19331" lon="10.72092">
        <ele>49.419366</ele>
        <time>2021-08-27T10:45:43.000Z</time>
      </trkpt>
      <trkpt lat="45.19322" lon="10.72113">
        <ele>49.395775</ele>
        <time>2021-08-27T10:45:47.000Z</time>
      </trkpt>
      <trkpt lat="45.19316" lon="10.72129">
        <ele>49.384707</ele>
        <time>2021-08-27T10:45:50.000Z</time>
      </trkpt>
      <trkpt lat="45.1931" lon="10.72145">
        <ele>49.374005</ele>
        <time>2021-08-27T10:45:53.000Z</time>
      </trkpt>
      <trkpt lat="45.19304" lon="10.72159">
        <ele>49.364258</ele>
        <time>2021-08-27T10:45:56.000Z</time>
      </trkpt>
      <trkpt lat="45.19302" lon="10.72164">
        <ele>49.36092</ele>
        <time>2021-08-27T10:45:57.000Z</time>
      </trkpt>
      <trkpt lat="45.19294" lon="10.72185">
        <ele>49.346616</ele>
        <time>2021-08-27T10:46:01.000Z</time>
      </trkpt>
      <trkpt lat="45.19279" lon="10.72223">
        <ele>49.320864</ele>
        <time>2021-08-27T10:46:08.000Z</time>
      </trkpt>
      <trkpt lat="45.19262" lon="10.72266">
        <ele>49.291471</ele>
        <time>2021-08-27T10:46:16.000Z</time>
      </trkpt>
      <trkpt lat="45.1926" lon="10.72272">
        <ele>49.287381</ele>
        <time>2021-08-27T10:46:17.000Z</time>
      </trkpt>
      <trkpt lat="45.1924" lon="10.72321">
        <ele>49.253515</ele>
        <time>2021-08-27T10:46:25.000Z</time>
      </trkpt>
      <trkpt lat="45.19228" lon="10.7235">
        <ele>49.265102</ele>
        <time>2021-08-27T10:46:30.000Z</time>
      </trkpt>
      <trkpt lat="45.19222" lon="10.72369">
        <ele>49.280795</ele>
        <time>2021-08-27T10:46:33.000Z</time>
      </trkpt>
      <trkpt lat="45.19195" lon="10.72438">
        <ele>49.341177</ele>
        <time>2021-08-27T10:46:45.000Z</time>
      </trkpt>
      <trkpt lat="45.1919" lon="10.72448">
        <ele>49.350394</ele>
        <time>2021-08-27T10:46:47.000Z</time>
      </trkpt>
      <trkpt lat="45.19176" lon="10.72484">
        <ele>49.38165</ele>
        <time>2021-08-27T10:46:54.000Z</time>
      </trkpt>
      <trkpt lat="45.19174" lon="10.72489">
        <ele>49.386226</ele>
        <time>2021-08-27T10:46:55.000Z</time>
      </trkpt>
      <trkpt lat="45.19162" lon="10.72522">
        <ele>49.414759</ele>
        <time>2021-08-27T10:47:02.000Z</time>
      </trkpt>
      <trkpt lat="45.1916" lon="10.72527">
        <ele>49.419334</ele>
        <time>2021-08-27T10:47:03.000Z</time>
      </trkpt>
      <trkpt lat="45.19158" lon="10.72531">
        <ele>49.42249</ele>
        <time>2021-08-27T10:47:04.000Z</time>
      </trkpt>
      <trkpt lat="45.19147" lon="10.7256">
        <ele>49.427826</ele>
        <time>2021-08-27T10:47:10.000Z</time>
      </trkpt>
      <trkpt lat="45.19137" lon="10.72585">
        <ele>49.372951</ele>
        <time>2021-08-27T10:47:15.000Z</time>
      </trkpt>
      <trkpt lat="45.19122" lon="10.72622">
        <ele>49.288867</ele>
        <time>2021-08-27T10:47:24.000Z</time>
      </trkpt>
      <trkpt lat="45.1912" lon="10.72626">
        <ele>49.279992</ele>
        <time>2021-08-27T10:47:25.000Z</time>
      </trkpt>
      <trkpt lat="45.19114" lon="10.72641">
        <ele>49.246569</ele>
        <time>2021-08-27T10:47:29.000Z</time>
      </trkpt>
      <trkpt lat="45.19107" lon="10.72662">
        <ele>49.202197</ele>
        <time>2021-08-27T10:47:33.000Z</time>
      </trkpt>
      <trkpt lat="45.19105" lon="10.72667">
        <ele>49.189445</ele>
        <time>2021-08-27T10:47:34.000Z</time>
      </trkpt>
      <trkpt lat="45.19103" lon="10.72673">
        <ele>49.177118</ele>
        <time>2021-08-27T10:47:35.000Z</time>
      </trkpt>
      <trkpt lat="45.19084" lon="10.72718">
        <ele>49.075396</ele>
        <time>2021-08-27T10:47:43.000Z</time>
      </trkpt>
      <trkpt lat="45.19081" lon="10.72723">
        <ele>49.063362</ele>
        <time>2021-08-27T10:47:44.000Z</time>
      </trkpt>
      <trkpt lat="45.19067" lon="10.72749">
        <ele>49.001426</ele>
        <time>2021-08-27T10:47:49.000Z</time>
      </trkpt>
      <trkpt lat="45.19065" lon="10.72754">
        <ele>48.988803</ele>
        <time>2021-08-27T10:47:50.000Z</time>
      </trkpt>
      <trkpt lat="45.19064" lon="10.72761">
        <ele>48.976295</ele>
        <time>2021-08-27T10:47:51.000Z</time>
      </trkpt>
      <trkpt lat="45.1906" lon="10.72779">
        <ele>48.938354</ele>
        <time>2021-08-27T10:47:54.000Z</time>
      </trkpt>
      <trkpt lat="45.19059" lon="10.72785">
        <ele>48.926271</ele>
        <time>2021-08-27T10:47:55.000Z</time>
      </trkpt>
      <trkpt lat="45.19055" lon="10.72796">
        <ele>48.901413</ele>
        <time>2021-08-27T10:47:57.000Z</time>
      </trkpt>
      <trkpt lat="45.19043" lon="10.72827">
        <ele>48.829723</ele>
        <time>2021-08-27T10:48:03.000Z</time>
      </trkpt>
      <trkpt lat="45.19038" lon="10.72838">
        <ele>48.804542</ele>
        <time>2021-08-27T10:48:05.000Z</time>
      </trkpt>
      <trkpt lat="45.19022" lon="10.72875">
        <ele>48.716265</ele>
        <time>2021-08-27T10:48:12.000Z</time>
      </trkpt>
      <trkpt lat="45.1902" lon="10.72881">
        <ele>48.702657</ele>
        <time>2021-08-27T10:48:13.000Z</time>
      </trkpt>
      <trkpt lat="45.18999" lon="10.72934">
        <ele>48.581156</ele>
        <time>2021-08-27T10:48:22.000Z</time>
      </trkpt>
      <trkpt lat="45.18992" lon="10.7295">
        <ele>48.543534</ele>
        <time>2021-08-27T10:48:25.000Z</time>
      </trkpt>
      <trkpt lat="45.18982" lon="10.72979">
        <ele>48.477784</ele>
        <time>2021-08-27T10:48:31.000Z</time>
      </trkpt>
      <trkpt lat="45.18978" lon="10.7299">
        <ele>48.452859</ele>
        <time>2021-08-27T10:48:33.000Z</time>
      </trkpt>
      <trkpt lat="45.18967" lon="10.73018">
        <ele>48.529659</ele>
        <time>2021-08-27T10:48:38.000Z</time>
      </trkpt>
      <trkpt lat="45.18963" lon="10.7303">
        <ele>48.585083</ele>
        <time>2021-08-27T10:48:40.000Z</time>
      </trkpt>
      <trkpt lat="45.18949" lon="10.73069">
        <ele>48.768119</ele>
        <time>2021-08-27T10:48:47.000Z</time>
      </trkpt>
      <trkpt lat="45.18948" lon="10.73074">
        <ele>48.790523</ele>
        <time>2021-08-27T10:48:48.000Z</time>
      </trkpt>
      <trkpt lat="45.1894" lon="10.73101">
        <ele>48.914657</ele>
        <time>2021-08-27T10:48:53.000Z</time>
      </trkpt>
      <trkpt lat="45.18935" lon="10.73118">
        <ele>48.992208</ele>
        <time>2021-08-27T10:48:56.000Z</time>
      </trkpt>
      <trkpt lat="45.18925" lon="10.73165">
        <ele>49.197517</ele>
        <time>2021-08-27T10:49:04.000Z</time>
      </trkpt>
      <trkpt lat="45.18922" lon="10.73183">
        <ele>49.274319</ele>
        <time>2021-08-27T10:49:07.000Z</time>
      </trkpt>
      <trkpt lat="45.18917" lon="10.7323">
        <ele>49.477644</ele>
        <time>2021-08-27T10:49:15.000Z</time>
      </trkpt>
      <trkpt lat="45.18915" lon="10.73254">
        <ele>49.486347</ele>
        <time>2021-08-27T10:49:19.000Z</time>
      </trkpt>
      <trkpt lat="45.18914" lon="10.7326">
        <ele>49.478511</ele>
        <time>2021-08-27T10:49:20.000Z</time>
      </trkpt>
      <trkpt lat="45.18913" lon="10.73277">
        <ele>49.455759</ele>
        <time>2021-08-27T10:49:23.000Z</time>
      </trkpt>
      <trkpt lat="45.1891" lon="10.73304">
        <ele>49.421274</ele>
        <time>2021-08-27T10:49:28.000Z</time>
      </trkpt>
      <trkpt lat="45.18908" lon="10.73317">
        <ele>49.403708</ele>
        <time>2021-08-27T10:49:31.000Z</time>
      </trkpt>
      <trkpt lat="45.18907" lon="10.73324">
        <ele>49.394505</ele>
        <time>2021-08-27T10:49:33.000Z</time>
      </trkpt>
      <trkpt lat="45.18907" lon="10.73327">
        <ele>49.390728</ele>
        <time>2021-08-27T10:49:36.000Z</time>
      </trkpt>
      <trkpt lat="45.18907" lon="10.73328">
        <ele>49.389512</ele>
        <time>2021-08-27T10:49:37.000Z</time>
      </trkpt>
      <trkpt lat="45.18907" lon="10.73345">
        <ele>49.367717</ele>
        <time>2021-08-27T10:49:42.000Z</time>
      </trkpt>
      <trkpt lat="45.18907" lon="10.73372">
        <ele>49.332131</ele>
        <time>2021-08-27T10:49:47.000Z</time>
      </trkpt>
      <trkpt lat="45.18906" lon="10.73407">
        <ele>49.286745</ele>
        <time>2021-08-27T10:49:52.000Z</time>
      </trkpt>
      <trkpt lat="45.18905" lon="10.73414">
        <ele>49.277589</ele>
        <time>2021-08-27T10:49:53.000Z</time>
      </trkpt>
      <trkpt lat="45.18904" lon="10.73455">
        <ele>49.225487</ele>
        <time>2021-08-27T10:49:59.000Z</time>
      </trkpt>
      <trkpt lat="45.18903" lon="10.73473">
        <ele>49.202093</ele>
        <time>2021-08-27T10:50:02.000Z</time>
      </trkpt>
      <trkpt lat="45.18903" lon="10.73485">
        <ele>49.186234</ele>
        <time>2021-08-27T10:50:04.000Z</time>
      </trkpt>
      <trkpt lat="45.18901" lon="10.73512">
        <ele>49.221499</ele>
        <time>2021-08-27T10:50:08.000Z</time>
      </trkpt>
      <trkpt lat="45.189" lon="10.73525">
        <ele>49.248982</ele>
        <time>2021-08-27T10:50:10.000Z</time>
      </trkpt>
      <trkpt lat="45.18897" lon="10.7358">
        <ele>49.364554</ele>
        <time>2021-08-27T10:50:18.000Z</time>
      </trkpt>
      <trkpt lat="45.18896" lon="10.73612">
        <ele>49.432285</ele>
        <time>2021-08-27T10:50:23.000Z</time>
      </trkpt>
      <trkpt lat="45.18895" lon="10.73618">
        <ele>49.444827</ele>
        <time>2021-08-27T10:50:24.000Z</time>
      </trkpt>
      <trkpt lat="45.18895" lon="10.73626">
        <ele>49.461365</ele>
        <time>2021-08-27T10:50:25.000Z</time>
      </trkpt>
      <trkpt lat="45.18895" lon="10.73638">
        <ele>49.485812</ele>
        <time>2021-08-27T10:50:27.000Z</time>
      </trkpt>
      <trkpt lat="45.18894" lon="10.73644">
        <ele>49.498996</ele>
        <time>2021-08-27T10:50:28.000Z</time>
      </trkpt>
      <trkpt lat="45.18892" lon="10.73703">
        <ele>49.622033</ele>
        <time>2021-08-27T10:50:37.000Z</time>
      </trkpt>
      <trkpt lat="45.18891" lon="10.73736">
        <ele>49.691628</ele>
        <time>2021-08-27T10:50:42.000Z</time>
      </trkpt>
      <trkpt lat="45.18889" lon="10.73778">
        <ele>49.754822</ele>
        <time>2021-08-27T10:50:48.000Z</time>
      </trkpt>
      <trkpt lat="45.18884" lon="10.73858">
        <ele>49.865057</ele>
        <time>2021-08-27T10:50:59.000Z</time>
      </trkpt>
      <trkpt lat="45.18881" lon="10.73903">
        <ele>49.92581</ele>
        <time>2021-08-27T10:51:05.000Z</time>
      </trkpt>
      <trkpt lat="45.18879" lon="10.7394">
        <ele>49.976898</ele>
        <time>2021-08-27T10:51:10.000Z</time>
      </trkpt>
      <trkpt lat="45.18877" lon="10.73988">
        <ele>50.041518</ele>
        <time>2021-08-27T10:51:16.000Z</time>
      </trkpt>
      <trkpt lat="45.18873" lon="10.74064">
        <ele>50.015432</ele>
        <time>2021-08-27T10:51:26.000Z</time>
      </trkpt>
      <trkpt lat="45.18872" lon="10.74085">
        <ele>50.001579</ele>
        <time>2021-08-27T10:51:29.000Z</time>
      </trkpt>
      <trkpt lat="45.18869" lon="10.74143">
        <ele>49.962715</ele>
        <time>2021-08-27T10:51:37.000Z</time>
      </trkpt>
      <trkpt lat="45.18868" lon="10.74172">
        <ele>49.943365</ele>
        <time>2021-08-27T10:51:41.000Z</time>
      </trkpt>
      <trkpt lat="45.18867" lon="10.74193">
        <ele>49.929273</ele>
        <time>2021-08-27T10:51:44.000Z</time>
      </trkpt>
      <trkpt lat="45.18864" lon="10.74229">
        <ele>49.905491</ele>
        <time>2021-08-27T10:51:49.000Z</time>
      </trkpt>
      <trkpt lat="45.18862" lon="10.74277">
        <ele>49.883778</ele>
        <time>2021-08-27T10:51:56.000Z</time>
      </trkpt>
      <trkpt lat="45.18862" lon="10.74284">
        <ele>49.882427</ele>
        <time>2021-08-27T10:51:57.000Z</time>
      </trkpt>
      <trkpt lat="45.18861" lon="10.74298">
        <ele>49.879689</ele>
        <time>2021-08-27T10:51:59.000Z</time>
      </trkpt>
      <trkpt lat="45.1886" lon="10.74313">
        <ele>49.876925</ele>
        <time>2021-08-27T10:52:01.000Z</time>
      </trkpt>
      <trkpt lat="45.1886" lon="10.7432">
        <ele>49.875515</ele>
        <time>2021-08-27T10:52:02.000Z</time>
      </trkpt>
      <trkpt lat="45.18859" lon="10.74335">
        <ele>49.872661</ele>
        <time>2021-08-27T10:52:04.000Z</time>
      </trkpt>
      <trkpt lat="45.18856" lon="10.74376">
        <ele>49.864749</ele>
        <time>2021-08-27T10:52:10.000Z</time>
      </trkpt>
      <trkpt lat="45.18855" lon="10.74382">
        <ele>49.863453</ele>
        <time>2021-08-27T10:52:11.000Z</time>
      </trkpt>
      <trkpt lat="45.18855" lon="10.74413">
        <ele>49.857528</ele>
        <time>2021-08-27T10:52:16.000Z</time>
      </trkpt>
      <trkpt lat="45.18851" lon="10.74487">
        <ele>49.843323</ele>
        <time>2021-08-27T10:52:26.000Z</time>
      </trkpt>
      <trkpt lat="45.18848" lon="10.7455">
        <ele>49.849387</ele>
        <time>2021-08-27T10:52:35.000Z</time>
      </trkpt>
      <trkpt lat="45.18847" lon="10.74571">
        <ele>49.854667</ele>
        <time>2021-08-27T10:52:38.000Z</time>
      </trkpt>
      <trkpt lat="45.18845" lon="10.74599">
        <ele>49.861745</ele>
        <time>2021-08-27T10:52:42.000Z</time>
      </trkpt>
      <trkpt lat="45.18845" lon="10.74612">
        <ele>49.865033</ele>
        <time>2021-08-27T10:52:44.000Z</time>
      </trkpt>
      <trkpt lat="45.18842" lon="10.7468">
        <ele>49.882278</ele>
        <time>2021-08-27T10:52:54.000Z</time>
      </trkpt>
      <trkpt lat="45.18841" lon="10.74727">
        <ele>49.894034</ele>
        <time>2021-08-27T10:53:01.000Z</time>
      </trkpt>
      <trkpt lat="45.18841" lon="10.74747">
        <ele>49.899111</ele>
        <time>2021-08-27T10:53:04.000Z</time>
      </trkpt>
      <trkpt lat="45.18839" lon="10.74796">
        <ele>49.90904</ele>
        <time>2021-08-27T10:53:11.000Z</time>
      </trkpt>
      <trkpt lat="45.18839" lon="10.74804">
        <ele>49.910508</ele>
        <time>2021-08-27T10:53:12.000Z</time>
      </trkpt>
      <trkpt lat="45.18837" lon="10.74839">
        <ele>49.916747</ele>
        <time>2021-08-27T10:53:17.000Z</time>
      </trkpt>
      <trkpt lat="45.18834" lon="10.74869">
        <ele>49.922136</ele>
        <time>2021-08-27T10:53:21.000Z</time>
      </trkpt>
      <trkpt lat="45.18833" lon="10.74884">
        <ele>49.924779</ele>
        <time>2021-08-27T10:53:23.000Z</time>
      </trkpt>
      <trkpt lat="45.18832" lon="10.74927">
        <ele>49.932378</ele>
        <time>2021-08-27T10:53:29.000Z</time>
      </trkpt>
      <trkpt lat="45.18832" lon="10.74942">
        <ele>49.934984</ele>
        <time>2021-08-27T10:53:31.000Z</time>
      </trkpt>
      <trkpt lat="45.18829" lon="10.75014">
        <ele>49.947729</ele>
        <time>2021-08-27T10:53:41.000Z</time>
      </trkpt>
      <trkpt lat="45.18825" lon="10.75064">
        <ele>49.910247</ele>
        <time>2021-08-27T10:53:48.000Z</time>
      </trkpt>
      <trkpt lat="45.18824" lon="10.75092">
        <ele>49.886793</ele>
        <time>2021-08-27T10:53:52.000Z</time>
      </trkpt>
      <trkpt lat="45.18821" lon="10.75142">
        <ele>49.844562</ele>
        <time>2021-08-27T10:53:59.000Z</time>
      </trkpt>
      <trkpt lat="45.18818" lon="10.75172">
        <ele>49.819557</ele>
        <time>2021-08-27T10:54:03.000Z</time>
      </trkpt>
      <trkpt lat="45.18817" lon="10.75192">
        <ele>49.802522</ele>
        <time>2021-08-27T10:54:06.000Z</time>
      </trkpt>
      <trkpt lat="45.18816" lon="10.75219">
        <ele>49.779547</ele>
        <time>2021-08-27T10:54:10.000Z</time>
      </trkpt>
      <trkpt lat="45.18813" lon="10.7528">
        <ele>49.719975</ele>
        <time>2021-08-27T10:54:19.000Z</time>
      </trkpt>
      <trkpt lat="45.18812" lon="10.75294">
        <ele>49.69412</ele>
        <time>2021-08-27T10:54:21.000Z</time>
      </trkpt>
      <trkpt lat="45.18809" lon="10.75352">
        <ele>49.582714</ele>
        <time>2021-08-27T10:54:29.000Z</time>
      </trkpt>
      <trkpt lat="45.18808" lon="10.75366">
        <ele>49.554564</ele>
        <time>2021-08-27T10:54:31.000Z</time>
      </trkpt>
      <trkpt lat="45.18805" lon="10.75425">
        <ele>49.44188</ele>
        <time>2021-08-27T10:54:39.000Z</time>
      </trkpt>
      <trkpt lat="45.18802" lon="10.75499">
        <ele>49.299173</ele>
        <time>2021-08-27T10:54:49.000Z</time>
      </trkpt>
      <trkpt lat="45.18796" lon="10.75578">
        <ele>49.266386</ele>
        <time>2021-08-27T10:55:00.000Z</time>
      </trkpt>
      <trkpt lat="45.18794" lon="10.75633">
        <ele>49.289968</ele>
        <time>2021-08-27T10:55:08.000Z</time>
      </trkpt>
      <trkpt lat="45.18793" lon="10.7564">
        <ele>49.292958</ele>
        <time>2021-08-27T10:55:09.000Z</time>
      </trkpt>
      <trkpt lat="45.18789" lon="10.75716">
        <ele>49.325533</ele>
        <time>2021-08-27T10:55:20.000Z</time>
      </trkpt>
      <trkpt lat="45.18788" lon="10.7573">
        <ele>49.33139</ele>
        <time>2021-08-27T10:55:22.000Z</time>
      </trkpt>
      <trkpt lat="45.18781" lon="10.75809">
        <ele>49.374698</ele>
        <time>2021-08-27T10:55:33.000Z</time>
      </trkpt>
      <trkpt lat="45.18771" lon="10.75892">
        <ele>49.438699</ele>
        <time>2021-08-27T10:55:44.000Z</time>
      </trkpt>
      <trkpt lat="45.18766" lon="10.75936">
        <ele>49.472744</ele>
        <time>2021-08-27T10:55:50.000Z</time>
      </trkpt>
      <trkpt lat="45.18757" lon="10.76008">
        <ele>49.529141</ele>
        <time>2021-08-27T10:56:00.000Z</time>
      </trkpt>
      <trkpt lat="45.18749" lon="10.76061">
        <ele>49.471555</ele>
        <time>2021-08-27T10:56:08.000Z</time>
      </trkpt>
      <trkpt lat="45.18747" lon="10.76081">
        <ele>49.420064</ele>
        <time>2021-08-27T10:56:11.000Z</time>
      </trkpt>
      <trkpt lat="45.18745" lon="10.7611">
        <ele>49.341697</ele>
        <time>2021-08-27T10:56:15.000Z</time>
      </trkpt>
      <trkpt lat="45.18742" lon="10.76148">
        <ele>49.243187</ele>
        <time>2021-08-27T10:56:20.000Z</time>
      </trkpt>
      <trkpt lat="45.18741" lon="10.76155">
        <ele>49.223491</ele>
        <time>2021-08-27T10:56:21.000Z</time>
      </trkpt>
      <trkpt lat="45.18731" lon="10.76237">
        <ele>49.00477</ele>
        <time>2021-08-27T10:56:32.000Z</time>
      </trkpt>
      <trkpt lat="45.1873" lon="10.76244">
        <ele>48.985707</ele>
        <time>2021-08-27T10:56:33.000Z</time>
      </trkpt>
      <trkpt lat="45.18728" lon="10.76259">
        <ele>48.947236</ele>
        <time>2021-08-27T10:56:35.000Z</time>
      </trkpt>
      <trkpt lat="45.18727" lon="10.76265">
        <ele>48.929346</ele>
        <time>2021-08-27T10:56:36.000Z</time>
      </trkpt>
      <trkpt lat="45.18725" lon="10.76284">
        <ele>48.878804</ele>
        <time>2021-08-27T10:56:39.000Z</time>
      </trkpt>
      <trkpt lat="45.18718" lon="10.76348">
        <ele>48.979662</ele>
        <time>2021-08-27T10:56:49.000Z</time>
      </trkpt>
      <trkpt lat="45.1871" lon="10.76414">
        <ele>49.084085</ele>
        <time>2021-08-27T10:56:58.000Z</time>
      </trkpt>
      <trkpt lat="45.1871" lon="10.76421">
        <ele>49.095026</ele>
        <time>2021-08-27T10:56:59.000Z</time>
      </trkpt>
      <trkpt lat="45.18704" lon="10.7647">
        <ele>49.1739</ele>
        <time>2021-08-27T10:57:06.000Z</time>
      </trkpt>
      <trkpt lat="45.18699" lon="10.76512">
        <ele>49.240479</ele>
        <time>2021-08-27T10:57:12.000Z</time>
      </trkpt>
      <trkpt lat="45.18695" lon="10.76546">
        <ele>49.262343</ele>
        <time>2021-08-27T10:57:17.000Z</time>
      </trkpt>
      <trkpt lat="45.18692" lon="10.76571">
        <ele>49.219912</ele>
        <time>2021-08-27T10:57:21.000Z</time>
      </trkpt>
      <trkpt lat="45.1869" lon="10.76593">
        <ele>49.182229</ele>
        <time>2021-08-27T10:57:25.000Z</time>
      </trkpt>
      <trkpt lat="45.18689" lon="10.76598">
        <ele>49.173856</ele>
        <time>2021-08-27T10:57:26.000Z</time>
      </trkpt>
      <trkpt lat="45.18685" lon="10.76625">
        <ele>49.127481</ele>
        <time>2021-08-27T10:57:32.000Z</time>
      </trkpt>
      <trkpt lat="45.18684" lon="10.7663">
        <ele>49.117902</ele>
        <time>2021-08-27T10:57:34.000Z</time>
      </trkpt>
      <trkpt lat="45.18685" lon="10.76631">
        <ele>49.116624</ele>
        <time>2021-08-27T10:57:36.000Z</time>
      </trkpt>
      <trkpt lat="45.18685" lon="10.76631">
        <ele>49.116624</ele>
        <time>2021-08-27T10:57:39.000Z</time>
      </trkpt>
      <trkpt lat="45.18685" lon="10.76631">
        <ele>49.116624</ele>
        <time>2021-08-27T10:57:48.000Z</time>
      </trkpt>
      <trkpt lat="45.18685" lon="10.76631">
        <ele>49.116624</ele>
        <time>2021-08-27T10:57:52.000Z</time>
      </trkpt>
      <trkpt lat="45.18685" lon="10.76631">
        <ele>49.116624</ele>
        <time>2021-08-27T10:57:55.000Z</time>
      </trkpt>
      <trkpt lat="45.18685" lon="10.76631">
        <ele>49.116624</ele>
        <time>2021-08-27T10:58:01.000Z</time>
      </trkpt>
      <trkpt lat="45.18684" lon="10.76631">
        <ele>49.116144</ele>
        <time>2021-08-27T10:58:27.000Z</time>
      </trkpt>
      <trkpt lat="45.18683" lon="10.7664">
        <ele>49.100557</ele>
        <time>2021-08-27T10:58:30.000Z</time>
      </trkpt>
      <trkpt lat="45.18681" lon="10.76666">
        <ele>49.055765</ele>
        <time>2021-08-27T10:58:36.000Z</time>
      </trkpt>
      <trkpt lat="45.18675" lon="10.76711">
        <ele>48.979272</ele>
        <time>2021-08-27T10:58:45.000Z</time>
      </trkpt>
      <trkpt lat="45.1867" lon="10.76753">
        <ele>48.907356</ele>
        <time>2021-08-27T10:58:52.000Z</time>
      </trkpt>
      <trkpt lat="45.18668" lon="10.76765">
        <ele>48.886117</ele>
        <time>2021-08-27T10:58:54.000Z</time>
      </trkpt>
      <trkpt lat="45.18666" lon="10.76783">
        <ele>48.854732</ele>
        <time>2021-08-27T10:58:57.000Z</time>
      </trkpt>
      <trkpt lat="45.18663" lon="10.76814">
        <ele>48.769209</ele>
        <time>2021-08-27T10:59:02.000Z</time>
      </trkpt>
      <trkpt lat="45.18662" lon="10.76827">
        <ele>48.731653</ele>
        <time>2021-08-27T10:59:04.000Z</time>
      </trkpt>
      <trkpt lat="45.1866" lon="10.76844">
        <ele>48.682506</ele>
        <time>2021-08-27T10:59:07.000Z</time>
      </trkpt>
      <trkpt lat="45.18655" lon="10.76886">
        <ele>48.56188</ele>
        <time>2021-08-27T10:59:14.000Z</time>
      </trkpt>
      <trkpt lat="45.18652" lon="10.7691">
        <ele>48.491982</ele>
        <time>2021-08-27T10:59:18.000Z</time>
      </trkpt>
      <trkpt lat="45.18649" lon="10.76937">
        <ele>48.412578</ele>
        <time>2021-08-27T10:59:23.000Z</time>
      </trkpt>
      <trkpt lat="45.18646" lon="10.76955">
        <ele>48.360101</ele>
        <time>2021-08-27T10:59:27.000Z</time>
      </trkpt>
      <trkpt lat="45.18644" lon="10.76958">
        <ele>48.348091</ele>
        <time>2021-08-27T10:59:28.000Z</time>
      </trkpt>
      <trkpt lat="45.18635" lon="10.76979">
        <ele>48.279616</ele>
        <time>2021-08-27T10:59:33.000Z</time>
      </trkpt>
      <trkpt lat="45.18631" lon="10.7698">
        <ele>48.263151</ele>
        <time>2021-08-27T10:59:34.000Z</time>
      </trkpt>
      <trkpt lat="45.18627" lon="10.7698">
        <ele>48.243574</ele>
        <time>2021-08-27T10:59:35.000Z</time>
      </trkpt>
      <trkpt lat="45.18612" lon="10.76977">
        <ele>48.182809</ele>
        <time>2021-08-27T10:59:38.000Z</time>
      </trkpt>
      <trkpt lat="45.18566" lon="10.76969">
        <ele>48.145365</ele>
        <time>2021-08-27T10:59:47.000Z</time>
      </trkpt>
      <trkpt lat="45.18531" lon="10.76961">
        <ele>48.180562</ele>
        <time>2021-08-27T10:59:55.000Z</time>
      </trkpt>
      <trkpt lat="45.18529" lon="10.76962">
        <ele>48.18283</ele>
        <time>2021-08-27T10:59:56.000Z</time>
      </trkpt>
      <trkpt lat="45.18527" lon="10.76968">
        <ele>48.187953</ele>
        <time>2021-08-27T10:59:58.000Z</time>
      </trkpt>
      <trkpt lat="45.18526" lon="10.76985">
        <ele>48.200038</ele>
        <time>2021-08-27T11:00:02.000Z</time>
      </trkpt>
      <trkpt lat="45.18526" lon="10.76994">
        <ele>48.206925</ele>
        <time>2021-08-27T11:00:04.000Z</time>
      </trkpt>
      <trkpt lat="45.18535" lon="10.77017">
        <ele>48.225521</ele>
        <time>2021-08-27T11:00:09.000Z</time>
      </trkpt>
      <trkpt lat="45.1855" lon="10.77038">
        <ele>48.246608</ele>
        <time>2021-08-27T11:00:14.000Z</time>
      </trkpt>
      <trkpt lat="45.18556" lon="10.77046">
        <ele>48.255955</ele>
        <time>2021-08-27T11:00:16.000Z</time>
      </trkpt>
      <trkpt lat="45.18559" lon="10.77051">
        <ele>48.260224</ele>
        <time>2021-08-27T11:00:17.000Z</time>
      </trkpt>
      <trkpt lat="45.18564" lon="10.7706">
        <ele>48.268726</ele>
        <time>2021-08-27T11:00:19.000Z</time>
      </trkpt>
      <trkpt lat="45.18566" lon="10.7707">
        <ele>48.27621</ele>
        <time>2021-08-27T11:00:21.000Z</time>
      </trkpt>
      <trkpt lat="45.18564" lon="10.7708">
        <ele>48.283383</ele>
        <time>2021-08-27T11:00:23.000Z</time>
      </trkpt>
      <trkpt lat="45.18562" lon="10.77084">
        <ele>48.28691</ele>
        <time>2021-08-27T11:00:24.000Z</time>
      </trkpt>
      <trkpt lat="45.18555" lon="10.77092">
        <ele>48.296566</ele>
        <time>2021-08-27T11:00:29.000Z</time>
      </trkpt>
      <trkpt lat="45.18551" lon="10.771">
        <ele>48.285046</ele>
        <time>2021-08-27T11:00:33.000Z</time>
      </trkpt>
      <trkpt lat="45.1855" lon="10.77103">
        <ele>48.278451</ele>
        <time>2021-08-27T11:00:34.000Z</time>
      </trkpt>
      <trkpt lat="45.18548" lon="10.77106">
        <ele>48.270213</ele>
        <time>2021-08-27T11:00:35.000Z</time>
      </trkpt>
      <trkpt lat="45.18538" lon="10.77123">
        <ele>48.228619</ele>
        <time>2021-08-27T11:00:39.000Z</time>
      </trkpt>
      <trkpt lat="45.18536" lon="10.77125">
        <ele>48.222977</ele>
        <time>2021-08-27T11:00:40.000Z</time>
      </trkpt>
      <trkpt lat="45.18535" lon="10.77126">
        <ele>48.219897</ele>
        <time>2021-08-27T11:00:41.000Z</time>
      </trkpt>
      <trkpt lat="45.18535" lon="10.77126">
        <ele>48.219106</ele>
        <time>2021-08-27T11:00:43.000Z</time>
      </trkpt>
      <trkpt lat="45.18536" lon="10.77126">
        <ele>48.217373</ele>
        <time>2021-08-27T11:00:50.000Z</time>
      </trkpt>
      <trkpt lat="45.18536" lon="10.77126">
        <ele>48.217049</ele>
        <time>2021-08-27T11:01:02.000Z</time>
      </trkpt>
      <trkpt lat="45.18536" lon="10.77126">
        <ele>48.217049</ele>
        <time>2021-08-27T11:01:07.000Z</time>
      </trkpt>
      <trkpt lat="45.18536" lon="10.77126">
        <ele>48.217049</ele>
        <time>2021-08-27T11:01:10.000Z</time>
      </trkpt>
      <trkpt lat="45.18536" lon="10.77125">
        <ele>48.215191</ele>
        <time>2021-08-27T11:01:21.000Z</time>
      </trkpt>
      <trkpt lat="45.18539" lon="10.77119">
        <ele>48.202781</ele>
        <time>2021-08-27T11:01:24.000Z</time>
      </trkpt>
      <trkpt lat="45.18548" lon="10.77107">
        <ele>48.167985</ele>
        <time>2021-08-27T11:01:29.000Z</time>
      </trkpt>
      <trkpt lat="45.18559" lon="10.77089">
        <ele>48.125469</ele>
        <time>2021-08-27T11:01:34.000Z</time>
      </trkpt>
      <trkpt lat="45.18568" lon="10.77068">
        <ele>48.08039</ele>
        <time>2021-08-27T11:01:39.000Z</time>
      </trkpt>
      <trkpt lat="45.18567" lon="10.77064">
        <ele>48.071526</ele>
        <time>2021-08-27T11:01:40.000Z</time>
      </trkpt>
      <trkpt lat="45.18557" lon="10.77045">
        <ele>48.028986</ele>
        <time>2021-08-27T11:01:44.000Z</time>
      </trkpt>
      <trkpt lat="45.18554" lon="10.77041">
        <ele>48.017251</ele>
        <time>2021-08-27T11:01:45.000Z</time>
      </trkpt>
      <trkpt lat="45.18531" lon="10.77008">
        <ele>47.928944</ele>
        <time>2021-08-27T11:01:52.000Z</time>
      </trkpt>
      <trkpt lat="45.18526" lon="10.76997">
        <ele>47.904977</ele>
        <time>2021-08-27T11:01:54.000Z</time>
      </trkpt>
      <trkpt lat="45.18525" lon="10.76984">
        <ele>47.880525</ele>
        <time>2021-08-27T11:01:56.000Z</time>
      </trkpt>
      <trkpt lat="45.18529" lon="10.76952">
        <ele>47.818927</ele>
        <time>2021-08-27T11:02:01.000Z</time>
      </trkpt>
      <trkpt lat="45.1853" lon="10.76932">
        <ele>47.760612</ele>
        <time>2021-08-27T11:02:04.000Z</time>
      </trkpt>
      <trkpt lat="45.18537" lon="10.76867">
        <ele>47.563661</ele>
        <time>2021-08-27T11:02:13.000Z</time>
      </trkpt>
      <trkpt lat="45.18552" lon="10.76814">
        <ele>47.395019</ele>
        <time>2021-08-27T11:02:20.000Z</time>
      </trkpt>
      <trkpt lat="45.18559" lon="10.76785">
        <ele>47.302575</ele>
        <time>2021-08-27T11:02:24.000Z</time>
      </trkpt>
      <trkpt lat="45.18559" lon="10.76772">
        <ele>47.264999</ele>
        <time>2021-08-27T11:02:26.000Z</time>
      </trkpt>
      <trkpt lat="45.18551" lon="10.76764">
        <ele>47.226527</ele>
        <time>2021-08-27T11:02:28.000Z</time>
      </trkpt>
      <trkpt lat="45.18547" lon="10.76761">
        <ele>47.205635</ele>
        <time>2021-08-27T11:02:29.000Z</time>
      </trkpt>
      <trkpt lat="45.18532" lon="10.76752">
        <ele>47.138496</ele>
        <time>2021-08-27T11:02:32.000Z</time>
      </trkpt>
      <trkpt lat="45.18505" lon="10.76734">
        <ele>46.987281</ele>
        <time>2021-08-27T11:02:38.000Z</time>
      </trkpt>
      <trkpt lat="45.18472" lon="10.76712">
        <ele>46.755688</ele>
        <time>2021-08-27T11:02:45.000Z</time>
      </trkpt>
      <trkpt lat="45.18453" lon="10.76698">
        <ele>46.617186</ele>
        <time>2021-08-27T11:02:49.000Z</time>
      </trkpt>
      <trkpt lat="45.18412" lon="10.7667">
        <ele>46.328535</ele>
        <time>2021-08-27T11:02:58.000Z</time>
      </trkpt>
      <trkpt lat="45.18398" lon="10.76668">
        <ele>46.23958</ele>
        <time>2021-08-27T11:03:02.000Z</time>
      </trkpt>
      <trkpt lat="45.18395" lon="10.76671">
        <ele>46.222011</ele>
        <time>2021-08-27T11:03:03.000Z</time>
      </trkpt>
      <trkpt lat="45.18394" lon="10.76679">
        <ele>46.183185</ele>
        <time>2021-08-27T11:03:05.000Z</time>
      </trkpt>
      <trkpt lat="45.18389" lon="10.76721">
        <ele>45.991856</ele>
        <time>2021-08-27T11:03:13.000Z</time>
      </trkpt>
      <trkpt lat="45.18381" lon="10.76771">
        <ele>45.855781</ele>
        <time>2021-08-27T11:03:21.000Z</time>
      </trkpt>
      <trkpt lat="45.18377" lon="10.76817">
        <ele>45.767587</ele>
        <time>2021-08-27T11:03:28.000Z</time>
      </trkpt>
      <trkpt lat="45.18374" lon="10.76856">
        <ele>45.694396</ele>
        <time>2021-08-27T11:03:34.000Z</time>
      </trkpt>
      <trkpt lat="45.18372" lon="10.76862">
        <ele>45.682442</ele>
        <time>2021-08-27T11:03:35.000Z</time>
      </trkpt>
      <trkpt lat="45.18371" lon="10.76868">
        <ele>45.670132</ele>
        <time>2021-08-27T11:03:36.000Z</time>
      </trkpt>
      <trkpt lat="45.18366" lon="10.7688">
        <ele>45.644227</ele>
        <time>2021-08-27T11:03:38.000Z</time>
      </trkpt>
      <trkpt lat="45.18354" lon="10.76913">
        <ele>45.574123</ele>
        <time>2021-08-27T11:03:44.000Z</time>
      </trkpt>
      <trkpt lat="45.18347" lon="10.76928">
        <ele>45.539646</ele>
        <time>2021-08-27T11:03:47.000Z</time>
      </trkpt>
      <trkpt lat="45.18336" lon="10.76946">
        <ele>45.495771</ele>
        <time>2021-08-27T11:03:51.000Z</time>
      </trkpt>
      <trkpt lat="45.18328" lon="10.76959">
        <ele>45.462812</ele>
        <time>2021-08-27T11:03:54.000Z</time>
      </trkpt>
      <trkpt lat="45.18321" lon="10.76973">
        <ele>45.463229</ele>
        <time>2021-08-27T11:03:57.000Z</time>
      </trkpt>
      <trkpt lat="45.18321" lon="10.76984">
        <ele>45.509761</ele>
        <time>2021-08-27T11:03:59.000Z</time>
      </trkpt>
      <trkpt lat="45.18327" lon="10.76996">
        <ele>45.568328</ele>
        <time>2021-08-27T11:04:02.000Z</time>
      </trkpt>
      <trkpt lat="45.18322" lon="10.77007">
        <ele>45.622187</ele>
        <time>2021-08-27T11:04:05.000Z</time>
      </trkpt>
      <trkpt lat="45.18313" lon="10.77016">
        <ele>45.68415</ele>
        <time>2021-08-27T11:04:08.000Z</time>
      </trkpt>
      <trkpt lat="45.18298" lon="10.77033">
        <ele>45.798608</ele>
        <time>2021-08-27T11:04:13.000Z</time>
      </trkpt>
      <trkpt lat="45.18295" lon="10.77036">
        <ele>45.8213</ele>
        <time>2021-08-27T11:04:14.000Z</time>
      </trkpt>
      <trkpt lat="45.18285" lon="10.77046">
        <ele>45.88926</ele>
        <time>2021-08-27T11:04:17.000Z</time>
      </trkpt>
      <trkpt lat="45.18268" lon="10.77068">
        <ele>46.024715</ele>
        <time>2021-08-27T11:04:23.000Z</time>
      </trkpt>
      <trkpt lat="45.1826" lon="10.77079">
        <ele>46.091779</ele>
        <time>2021-08-27T11:04:26.000Z</time>
      </trkpt>
      <trkpt lat="45.1824" lon="10.77105">
        <ele>46.24869</ele>
        <time>2021-08-27T11:04:33.000Z</time>
      </trkpt>
      <trkpt lat="45.18223" lon="10.77127">
        <ele>46.382999</ele>
        <time>2021-08-27T11:04:39.000Z</time>
      </trkpt>
      <trkpt lat="45.18203" lon="10.7715">
        <ele>46.50188</ele>
        <time>2021-08-27T11:04:46.000Z</time>
      </trkpt>
      <trkpt lat="45.18185" lon="10.77164">
        <ele>46.532546</ele>
        <time>2021-08-27T11:04:52.000Z</time>
      </trkpt>
      <trkpt lat="45.18182" lon="10.77162">
        <ele>46.536267</ele>
        <time>2021-08-27T11:04:53.000Z</time>
      </trkpt>
      <trkpt lat="45.18178" lon="10.77149">
        <ele>46.551604</ele>
        <time>2021-08-27T11:04:57.000Z</time>
      </trkpt>
      <trkpt lat="45.18177" lon="10.77146">
        <ele>46.555658</ele>
        <time>2021-08-27T11:04:58.000Z</time>
      </trkpt>
      <trkpt lat="45.18175" lon="10.77143">
        <ele>46.55944</ele>
        <time>2021-08-27T11:04:59.000Z</time>
      </trkpt>
      <trkpt lat="45.18168" lon="10.77143">
        <ele>46.569699</ele>
        <time>2021-08-27T11:05:01.000Z</time>
      </trkpt>
      <trkpt lat="45.18137" lon="10.77153">
        <ele>46.616808</ele>
        <time>2021-08-27T11:05:09.000Z</time>
      </trkpt>
      <trkpt lat="45.18124" lon="10.77157">
        <ele>46.636687</ele>
        <time>2021-08-27T11:05:12.000Z</time>
      </trkpt>
      <trkpt lat="45.18115" lon="10.77159">
        <ele>46.650343</ele>
        <time>2021-08-27T11:05:14.000Z</time>
      </trkpt>
      <trkpt lat="45.18101" lon="10.77162">
        <ele>46.671116</ele>
        <time>2021-08-27T11:05:17.000Z</time>
      </trkpt>
      <trkpt lat="45.18064" lon="10.77173">
        <ele>46.726654</ele>
        <time>2021-08-27T11:05:25.000Z</time>
      </trkpt>
      <trkpt lat="45.18055" lon="10.77174">
        <ele>46.740548</ele>
        <time>2021-08-27T11:05:27.000Z</time>
      </trkpt>
      <trkpt lat="45.18041" lon="10.77171">
        <ele>46.748914</ele>
        <time>2021-08-27T11:05:30.000Z</time>
      </trkpt>
      <trkpt lat="45.18027" lon="10.77164">
        <ele>46.662845</ele>
        <time>2021-08-27T11:05:33.000Z</time>
      </trkpt>
      <trkpt lat="45.18017" lon="10.77163">
        <ele>46.604674</ele>
        <time>2021-08-27T11:05:35.000Z</time>
      </trkpt>
      <trkpt lat="45.18012" lon="10.77163">
        <ele>46.576066</ele>
        <time>2021-08-27T11:05:36.000Z</time>
      </trkpt>
      <trkpt lat="45.18002" lon="10.77166">
        <ele>46.519451</ele>
        <time>2021-08-27T11:05:38.000Z</time>
      </trkpt>
      <trkpt lat="45.17978" lon="10.77175">
        <ele>46.376262</ele>
        <time>2021-08-27T11:05:43.000Z</time>
      </trkpt>
      <trkpt lat="45.17943" lon="10.7719">
        <ele>46.166315</ele>
        <time>2021-08-27T11:05:51.000Z</time>
      </trkpt>
      <trkpt lat="45.17928" lon="10.77198">
        <ele>46.077643</ele>
        <time>2021-08-27T11:05:56.000Z</time>
      </trkpt>
      <trkpt lat="45.17908" lon="10.77212">
        <ele>45.949876</ele>
        <time>2021-08-27T11:06:01.000Z</time>
      </trkpt>
      <trkpt lat="45.17901" lon="10.77219">
        <ele>45.896652</ele>
        <time>2021-08-27T11:06:03.000Z</time>
      </trkpt>
      <trkpt lat="45.17897" lon="10.77224">
        <ele>45.868852</ele>
        <time>2021-08-27T11:06:04.000Z</time>
      </trkpt>
      <trkpt lat="45.1789" lon="10.77233">
        <ele>45.815386</ele>
        <time>2021-08-27T11:06:06.000Z</time>
      </trkpt>
      <trkpt lat="45.17883" lon="10.77243">
        <ele>45.760635</ele>
        <time>2021-08-27T11:06:08.000Z</time>
      </trkpt>
      <trkpt lat="45.17872" lon="10.77264">
        <ele>45.657299</ele>
        <time>2021-08-27T11:06:12.000Z</time>
      </trkpt>
      <trkpt lat="45.17867" lon="10.77275">
        <ele>45.605801</ele>
        <time>2021-08-27T11:06:14.000Z</time>
      </trkpt>
      <trkpt lat="45.17861" lon="10.77294">
        <ele>45.527672</ele>
        <time>2021-08-27T11:06:17.000Z</time>
      </trkpt>
      <trkpt lat="45.17856" lon="10.77313">
        <ele>45.450689</ele>
        <time>2021-08-27T11:06:20.000Z</time>
      </trkpt>
      <trkpt lat="45.17854" lon="10.77319">
        <ele>45.423888</ele>
        <time>2021-08-27T11:06:21.000Z</time>
      </trkpt>
      <trkpt lat="45.17852" lon="10.77331">
        <ele>45.376208</ele>
        <time>2021-08-27T11:06:23.000Z</time>
      </trkpt>
      <trkpt lat="45.17851" lon="10.77337">
        <ele>45.353063</ele>
        <time>2021-08-27T11:06:24.000Z</time>
      </trkpt>
      <trkpt lat="45.1785" lon="10.77344">
        <ele>45.328938</ele>
        <time>2021-08-27T11:06:25.000Z</time>
      </trkpt>
      <trkpt lat="45.17849" lon="10.77355">
        <ele>45.28423</ele>
        <time>2021-08-27T11:06:27.000Z</time>
      </trkpt>
      <trkpt lat="45.17847" lon="10.77374">
        <ele>45.212825</ele>
        <time>2021-08-27T11:06:30.000Z</time>
      </trkpt>
      <trkpt lat="45.17848" lon="10.77392">
        <ele>45.14107</ele>
        <time>2021-08-27T11:06:33.000Z</time>
      </trkpt>
      <trkpt lat="45.1785" lon="10.77412">
        <ele>45.067166</ele>
        <time>2021-08-27T11:06:36.000Z</time>
      </trkpt>
      <trkpt lat="45.17853" lon="10.7743">
        <ele>44.9934</ele>
        <time>2021-08-27T11:06:39.000Z</time>
      </trkpt>
      <trkpt lat="45.17854" lon="10.77437">
        <ele>44.967858</ele>
        <time>2021-08-27T11:06:40.000Z</time>
      </trkpt>
      <trkpt lat="45.17855" lon="10.7745">
        <ele>44.918608</ele>
        <time>2021-08-27T11:06:42.000Z</time>
      </trkpt>
      <trkpt lat="45.17856" lon="10.77456">
        <ele>44.894428</ele>
        <time>2021-08-27T11:06:43.000Z</time>
      </trkpt>
      <trkpt lat="45.17854" lon="10.77475">
        <ele>44.822745</ele>
        <time>2021-08-27T11:06:46.000Z</time>
      </trkpt>
      <trkpt lat="45.17852" lon="10.77481">
        <ele>44.797727</ele>
        <time>2021-08-27T11:06:47.000Z</time>
      </trkpt>
      <trkpt lat="45.17846" lon="10.77499">
        <ele>44.728571</ele>
        <time>2021-08-27T11:06:50.000Z</time>
      </trkpt>
      <trkpt lat="45.17837" lon="10.77535">
        <ele>44.619845</ele>
        <time>2021-08-27T11:06:56.000Z</time>
      </trkpt>
      <trkpt lat="45.17834" lon="10.77546">
        <ele>44.583789</ele>
        <time>2021-08-27T11:06:58.000Z</time>
      </trkpt>
      <trkpt lat="45.17828" lon="10.77569">
        <ele>44.512243</ele>
        <time>2021-08-27T11:07:02.000Z</time>
      </trkpt>
      <trkpt lat="45.17823" lon="10.77586">
        <ele>44.457651</ele>
        <time>2021-08-27T11:07:05.000Z</time>
      </trkpt>
      <trkpt lat="45.17821" lon="10.77592">
        <ele>44.439227</ele>
        <time>2021-08-27T11:07:06.000Z</time>
      </trkpt>
      <trkpt lat="45.17815" lon="10.77614">
        <ele>44.370304</ele>
        <time>2021-08-27T11:07:10.000Z</time>
      </trkpt>
      <trkpt lat="45.1781" lon="10.77625">
        <ele>44.333482</ele>
        <time>2021-08-27T11:07:12.000Z</time>
      </trkpt>
      <trkpt lat="45.17807" lon="10.77631">
        <ele>44.31328</ele>
        <time>2021-08-27T11:07:13.000Z</time>
      </trkpt>
      <trkpt lat="45.17792" lon="10.77664">
        <ele>44.197071</ele>
        <time>2021-08-27T11:07:19.000Z</time>
      </trkpt>
      <trkpt lat="45.17785" lon="10.77681">
        <ele>44.14075</ele>
        <time>2021-08-27T11:07:22.000Z</time>
      </trkpt>
      <trkpt lat="45.17769" lon="10.77726">
        <ele>44.044083</ele>
        <time>2021-08-27T11:07:31.000Z</time>
      </trkpt>
      <trkpt lat="45.17763" lon="10.77746">
        <ele>44.131187</ele>
        <time>2021-08-27T11:07:35.000Z</time>
      </trkpt>
      <trkpt lat="45.1776" lon="10.77756">
        <ele>44.173753</ele>
        <time>2021-08-27T11:07:37.000Z</time>
      </trkpt>
      <trkpt lat="45.17757" lon="10.77772">
        <ele>44.239403</ele>
        <time>2021-08-27T11:07:40.000Z</time>
      </trkpt>
      <trkpt lat="45.17746" lon="10.77807">
        <ele>44.393813</ele>
        <time>2021-08-27T11:07:47.000Z</time>
      </trkpt>
      <trkpt lat="45.17743" lon="10.77817">
        <ele>44.437075</ele>
        <time>2021-08-27T11:07:49.000Z</time>
      </trkpt>
      <trkpt lat="45.17741" lon="10.77822">
        <ele>44.458527</ele>
        <time>2021-08-27T11:07:50.000Z</time>
      </trkpt>
      <trkpt lat="45.17739" lon="10.77832">
        <ele>44.499804</ele>
        <time>2021-08-27T11:07:52.000Z</time>
      </trkpt>
      <trkpt lat="45.17734" lon="10.77846">
        <ele>44.564318</ele>
        <time>2021-08-27T11:07:55.000Z</time>
      </trkpt>
      <trkpt lat="45.17728" lon="10.77871">
        <ele>44.670537</ele>
        <time>2021-08-27T11:08:00.000Z</time>
      </trkpt>
      <trkpt lat="45.17708" lon="10.77916">
        <ele>44.881743</ele>
        <time>2021-08-27T11:08:10.000Z</time>
      </trkpt>
      <trkpt lat="45.17695" lon="10.77943">
        <ele>45.011655</ele>
        <time>2021-08-27T11:08:16.000Z</time>
      </trkpt>
      <trkpt lat="45.1769" lon="10.77953">
        <ele>45.052717</ele>
        <time>2021-08-27T11:08:18.000Z</time>
      </trkpt>
      <trkpt lat="45.17688" lon="10.77957">
        <ele>45.067313</ele>
        <time>2021-08-27T11:08:19.000Z</time>
      </trkpt>
      <trkpt lat="45.17679" lon="10.77976">
        <ele>45.135419</ele>
        <time>2021-08-27T11:08:24.000Z</time>
      </trkpt>
      <trkpt lat="45.17677" lon="10.77981">
        <ele>45.152085</ele>
        <time>2021-08-27T11:08:26.000Z</time>
      </trkpt>
      <trkpt lat="45.17677" lon="10.77982">
        <ele>45.155122</ele>
        <time>2021-08-27T11:08:27.000Z</time>
      </trkpt>
      <trkpt lat="45.17677" lon="10.77982">
        <ele>45.155122</ele>
        <time>2021-08-27T11:08:30.000Z</time>
      </trkpt>
      <trkpt lat="45.17677" lon="10.77983">
        <ele>45.156092</ele>
        <time>2021-08-27T11:08:32.000Z</time>
      </trkpt>
      <trkpt lat="45.17676" lon="10.77986">
        <ele>45.166723</ele>
        <time>2021-08-27T11:08:35.000Z</time>
      </trkpt>
      <trkpt lat="45.17677" lon="10.77991">
        <ele>45.180901</ele>
        <time>2021-08-27T11:08:37.000Z</time>
      </trkpt>
      <trkpt lat="45.17686" lon="10.78002">
        <ele>45.230336</ele>
        <time>2021-08-27T11:08:41.000Z</time>
      </trkpt>
      <trkpt lat="45.17696" lon="10.78024">
        <ele>45.307957</ele>
        <time>2021-08-27T11:08:46.000Z</time>
      </trkpt>
      <trkpt lat="45.17701" lon="10.78034">
        <ele>45.343287</ele>
        <time>2021-08-27T11:08:48.000Z</time>
      </trkpt>
      <trkpt lat="45.17706" lon="10.78056">
        <ele>45.410946</ele>
        <time>2021-08-27T11:08:52.000Z</time>
      </trkpt>
      <trkpt lat="45.17709" lon="10.78073">
        <ele>45.46169</ele>
        <time>2021-08-27T11:08:55.000Z</time>
      </trkpt>
      <trkpt lat="45.17713" lon="10.78093">
        <ele>45.523281</ele>
        <time>2021-08-27T11:08:59.000Z</time>
      </trkpt>
      <trkpt lat="45.17719" lon="10.78127">
        <ele>45.626163</ele>
        <time>2021-08-27T11:09:06.000Z</time>
      </trkpt>
      <trkpt lat="45.17725" lon="10.78174">
        <ele>45.763645</ele>
        <time>2021-08-27T11:09:14.000Z</time>
      </trkpt>
      <trkpt lat="45.17736" lon="10.78211">
        <ele>45.863497</ele>
        <time>2021-08-27T11:09:21.000Z</time>
      </trkpt>
      <trkpt lat="45.17743" lon="10.78225">
        <ele>45.90442</ele>
        <time>2021-08-27T11:09:24.000Z</time>
      </trkpt>
      <trkpt lat="45.17748" lon="10.78235">
        <ele>45.932605</ele>
        <time>2021-08-27T11:09:26.000Z</time>
      </trkpt>
      <trkpt lat="45.17754" lon="10.78245">
        <ele>45.963795</ele>
        <time>2021-08-27T11:09:28.000Z</time>
      </trkpt>
      <trkpt lat="45.17756" lon="10.78249">
        <ele>45.975803</ele>
        <time>2021-08-27T11:09:29.000Z</time>
      </trkpt>
      <trkpt lat="45.17759" lon="10.78254">
        <ele>45.990775</ele>
        <time>2021-08-27T11:09:30.000Z</time>
      </trkpt>
      <trkpt lat="45.17769" lon="10.78269">
        <ele>46.03715</ele>
        <time>2021-08-27T11:09:33.000Z</time>
      </trkpt>
      <trkpt lat="45.17779" lon="10.78284">
        <ele>46.088142</ele>
        <time>2021-08-27T11:09:37.000Z</time>
      </trkpt>
      <trkpt lat="45.17793" lon="10.78303">
        <ele>46.15183</ele>
        <time>2021-08-27T11:09:43.000Z</time>
      </trkpt>
      <trkpt lat="45.17788" lon="10.78309">
        <ele>46.171632</ele>
        <time>2021-08-27T11:09:46.000Z</time>
      </trkpt>
      <trkpt lat="45.17782" lon="10.78325">
        <ele>46.215943</ele>
        <time>2021-08-27T11:09:51.000Z</time>
      </trkpt>
      <trkpt lat="45.1777" lon="10.78349">
        <ele>46.286202</ele>
        <time>2021-08-27T11:09:56.000Z</time>
      </trkpt>
      <trkpt lat="45.17767" lon="10.78354">
        <ele>46.300427</ele>
        <time>2021-08-27T11:09:57.000Z</time>
      </trkpt>
      <trkpt lat="45.17756" lon="10.78367">
        <ele>46.347332</ele>
        <time>2021-08-27T11:10:00.000Z</time>
      </trkpt>
      <trkpt lat="45.17742" lon="10.78381">
        <ele>46.331455</ele>
        <time>2021-08-27T11:10:03.000Z</time>
      </trkpt>
      <trkpt lat="45.17735" lon="10.78388">
        <ele>46.267705</ele>
        <time>2021-08-27T11:10:05.000Z</time>
      </trkpt>
      <trkpt lat="45.17727" lon="10.78402">
        <ele>46.177907</ele>
        <time>2021-08-27T11:10:08.000Z</time>
      </trkpt>
      <trkpt lat="45.17715" lon="10.78418">
        <ele>46.059269</ele>
        <time>2021-08-27T11:10:13.000Z</time>
      </trkpt>
      <trkpt lat="45.17703" lon="10.78423">
        <ele>45.974545</ele>
        <time>2021-08-27T11:10:16.000Z</time>
      </trkpt>
      <trkpt lat="45.17689" lon="10.78433">
        <ele>45.858298</ele>
        <time>2021-08-27T11:10:20.000Z</time>
      </trkpt>
      <trkpt lat="45.17664" lon="10.78453">
        <ele>45.65026</ele>
        <time>2021-08-27T11:10:27.000Z</time>
      </trkpt>
      <trkpt lat="45.17657" lon="10.78463">
        <ele>45.580963</ele>
        <time>2021-08-27T11:10:29.000Z</time>
      </trkpt>
      <trkpt lat="45.1765" lon="10.78472">
        <ele>45.515305</ele>
        <time>2021-08-27T11:10:31.000Z</time>
      </trkpt>
      <trkpt lat="45.17646" lon="10.78475">
        <ele>45.483135</ele>
        <time>2021-08-27T11:10:32.000Z</time>
      </trkpt>
      <trkpt lat="45.17643" lon="10.78478">
        <ele>45.45417</ele>
        <time>2021-08-27T11:10:33.000Z</time>
      </trkpt>
      <trkpt lat="45.17621" lon="10.78489">
        <ele>45.287082</ele>
        <time>2021-08-27T11:10:38.000Z</time>
      </trkpt>
      <trkpt lat="45.17614" lon="10.78491">
        <ele>45.242408</ele>
        <time>2021-08-27T11:10:39.000Z</time>
      </trkpt>
      <trkpt lat="45.17608" lon="10.78492">
        <ele>45.194816</ele>
        <time>2021-08-27T11:10:40.000Z</time>
      </trkpt>
      <trkpt lat="45.17595" lon="10.78495">
        <ele>45.100548</ele>
        <time>2021-08-27T11:10:42.000Z</time>
      </trkpt>
      <trkpt lat="45.17576" lon="10.78502">
        <ele>44.97374</ele>
        <time>2021-08-27T11:10:45.000Z</time>
      </trkpt>
      <trkpt lat="45.17558" lon="10.78508">
        <ele>44.851351</ele>
        <time>2021-08-27T11:10:48.000Z</time>
      </trkpt>
      <trkpt lat="45.1754" lon="10.78513">
        <ele>44.728612</ele>
        <time>2021-08-27T11:10:51.000Z</time>
      </trkpt>
      <trkpt lat="45.17519" lon="10.78517">
        <ele>44.586359</ele>
        <time>2021-08-27T11:10:55.000Z</time>
      </trkpt>
      <trkpt lat="45.17514" lon="10.78519">
        <ele>44.551802</ele>
        <time>2021-08-27T11:10:56.000Z</time>
      </trkpt>
      <trkpt lat="45.17499" lon="10.78525">
        <ele>44.448289</ele>
        <time>2021-08-27T11:10:59.000Z</time>
      </trkpt>
      <trkpt lat="45.17494" lon="10.78526">
        <ele>44.416588</ele>
        <time>2021-08-27T11:11:00.000Z</time>
      </trkpt>
      <trkpt lat="45.17484" lon="10.78528">
        <ele>44.35195</ele>
        <time>2021-08-27T11:11:02.000Z</time>
      </trkpt>
      <trkpt lat="45.17474" lon="10.78525">
        <ele>44.284176</ele>
        <time>2021-08-27T11:11:04.000Z</time>
      </trkpt>
      <trkpt lat="45.1747" lon="10.78523">
        <ele>44.251506</ele>
        <time>2021-08-27T11:11:05.000Z</time>
      </trkpt>
      <trkpt lat="45.17456" lon="10.7851">
        <ele>44.145164</ele>
        <time>2021-08-27T11:11:08.000Z</time>
      </trkpt>
      <trkpt lat="45.17452" lon="10.78505">
        <ele>44.11058</ele>
        <time>2021-08-27T11:11:09.000Z</time>
      </trkpt>
      <trkpt lat="45.17434" lon="10.78478">
        <ele>43.936828</ele>
        <time>2021-08-27T11:11:14.000Z</time>
      </trkpt>
      <trkpt lat="45.17431" lon="10.78472">
        <ele>43.907294</ele>
        <time>2021-08-27T11:11:15.000Z</time>
      </trkpt>
      <trkpt lat="45.17422" lon="10.78453">
        <ele>43.982213</ele>
        <time>2021-08-27T11:11:18.000Z</time>
      </trkpt>
      <trkpt lat="45.17418" lon="10.78437">
        <ele>44.037195</ele>
        <time>2021-08-27T11:11:20.000Z</time>
      </trkpt>
      <trkpt lat="45.17407" lon="10.78387">
        <ele>44.209442</ele>
        <time>2021-08-27T11:11:28.000Z</time>
      </trkpt>
      <trkpt lat="45.1741" lon="10.78375">
        <ele>44.250618</ele>
        <time>2021-08-27T11:11:31.000Z</time>
      </trkpt>
      <trkpt lat="45.17409" lon="10.78371">
        <ele>44.263812</ele>
        <time>2021-08-27T11:11:32.000Z</time>
      </trkpt>
      <trkpt lat="45.17407" lon="10.78367">
        <ele>44.283254</ele>
        <time>2021-08-27T11:11:34.000Z</time>
      </trkpt>
      <trkpt lat="45.17394" lon="10.78356">
        <ele>44.351648</ele>
        <time>2021-08-27T11:11:39.000Z</time>
      </trkpt>
      <trkpt lat="45.17385" lon="10.78332">
        <ele>44.442051</ele>
        <time>2021-08-27T11:11:44.000Z</time>
      </trkpt>
      <trkpt lat="45.17375" lon="10.78285">
        <ele>44.602631</ele>
        <time>2021-08-27T11:11:52.000Z</time>
      </trkpt>
      <trkpt lat="45.17371" lon="10.78265">
        <ele>44.669558</ele>
        <time>2021-08-27T11:11:55.000Z</time>
      </trkpt>
      <trkpt lat="45.17366" lon="10.78257">
        <ele>44.706053</ele>
        <time>2021-08-27T11:11:57.000Z</time>
      </trkpt>
      <trkpt lat="45.17359" lon="10.78249">
        <ele>44.753858</ele>
        <time>2021-08-27T11:11:59.000Z</time>
      </trkpt>
      <trkpt lat="45.17351" lon="10.78247">
        <ele>44.839329</ele>
        <time>2021-08-27T11:12:01.000Z</time>
      </trkpt>
      <trkpt lat="45.17339" lon="10.7825">
        <ele>44.971837</ele>
        <time>2021-08-27T11:12:04.000Z</time>
      </trkpt>
      <trkpt lat="45.17335" lon="10.78253">
        <ele>45.018023</ele>
        <time>2021-08-27T11:12:05.000Z</time>
      </trkpt>
      <trkpt lat="45.17299" lon="10.78272">
        <ele>45.425493</ele>
        <time>2021-08-27T11:12:13.000Z</time>
      </trkpt>
      <trkpt lat="45.17296" lon="10.78273">
        <ele>45.465573</ele>
        <time>2021-08-27T11:12:14.000Z</time>
      </trkpt>
      <trkpt lat="45.17272" lon="10.78282">
        <ele>45.735878</ele>
        <time>2021-08-27T11:12:19.000Z</time>
      </trkpt>
      <trkpt lat="45.17268" lon="10.78285">
        <ele>45.785694</ele>
        <time>2021-08-27T11:12:20.000Z</time>
      </trkpt>
      <trkpt lat="45.17264" lon="10.78288">
        <ele>45.828286</ele>
        <time>2021-08-27T11:12:21.000Z</time>
      </trkpt>
      <trkpt lat="45.17263" lon="10.78298">
        <ele>45.904524</ele>
        <time>2021-08-27T11:12:23.000Z</time>
      </trkpt>
      <trkpt lat="45.17264" lon="10.78301">
        <ele>45.928346</ele>
        <time>2021-08-27T11:12:24.000Z</time>
      </trkpt>
      <trkpt lat="45.17267" lon="10.78307">
        <ele>45.979941</ele>
        <time>2021-08-27T11:12:26.000Z</time>
      </trkpt>
      <trkpt lat="45.17267" lon="10.78312">
        <ele>46.018707</ele>
        <time>2021-08-27T11:12:28.000Z</time>
      </trkpt>
      <trkpt lat="45.17269" lon="10.78325">
        <ele>46.121917</ele>
        <time>2021-08-27T11:12:32.000Z</time>
      </trkpt>
      <trkpt lat="45.17275" lon="10.78347">
        <ele>46.294897</ele>
        <time>2021-08-27T11:12:37.000Z</time>
      </trkpt>
      <trkpt lat="45.17286" lon="10.7838">
        <ele>46.576115</ele>
        <time>2021-08-27T11:12:44.000Z</time>
      </trkpt>
      <trkpt lat="45.17306" lon="10.78434">
        <ele>46.67582</ele>
        <time>2021-08-27T11:12:55.000Z</time>
      </trkpt>
      <trkpt lat="45.17308" lon="10.78439">
        <ele>46.675522</ele>
        <time>2021-08-27T11:12:56.000Z</time>
      </trkpt>
      <trkpt lat="45.17314" lon="10.78456">
        <ele>46.674598</ele>
        <time>2021-08-27T11:12:59.000Z</time>
      </trkpt>
      <trkpt lat="45.17316" lon="10.78469">
        <ele>46.673925</ele>
        <time>2021-08-27T11:13:02.000Z</time>
      </trkpt>
      <trkpt lat="45.17312" lon="10.78487">
        <ele>46.672969</ele>
        <time>2021-08-27T11:13:07.000Z</time>
      </trkpt>
      <trkpt lat="45.17312" lon="10.78488">
        <ele>46.672938</ele>
        <time>2021-08-27T11:13:12.000Z</time>
      </trkpt>
      <trkpt lat="45.17312" lon="10.78488">
        <ele>46.672938</ele>
        <time>2021-08-27T11:13:16.000Z</time>
      </trkpt>
      <trkpt lat="45.17312" lon="10.78488">
        <ele>46.672938</ele>
        <time>2021-08-27T11:13:19.000Z</time>
      </trkpt>
      <trkpt lat="45.17312" lon="10.78488">
        <ele>46.672938</ele>
        <time>2021-08-27T11:13:22.000Z</time>
      </trkpt>
      <trkpt lat="45.17312" lon="10.78488">
        <ele>46.672933</ele>
        <time>2021-08-27T11:13:39.000Z</time>
      </trkpt>
      <trkpt lat="45.1731" lon="10.78485">
        <ele>46.672748</ele>
        <time>2021-08-27T11:13:47.000Z</time>
      </trkpt>
      <trkpt lat="45.17302" lon="10.7848">
        <ele>46.672073</ele>
        <time>2021-08-27T11:13:50.000Z</time>
      </trkpt>
      <trkpt lat="45.17299" lon="10.7848">
        <ele>46.67186</ele>
        <time>2021-08-27T11:13:51.000Z</time>
      </trkpt>
      <trkpt lat="45.17275" lon="10.78481">
        <ele>46.670155</ele>
        <time>2021-08-27T11:13:58.000Z</time>
      </trkpt>
      <trkpt lat="45.17256" lon="10.78486">
        <ele>46.668785</ele>
        <time>2021-08-27T11:14:03.000Z</time>
      </trkpt>
      <trkpt lat="45.17248" lon="10.78487">
        <ele>46.668214</ele>
        <time>2021-08-27T11:14:05.000Z</time>
      </trkpt>
      <trkpt lat="45.17206" lon="10.78493">
        <ele>46.661603</ele>
        <time>2021-08-27T11:14:15.000Z</time>
      </trkpt>
      <trkpt lat="45.17194" lon="10.78494">
        <ele>46.637738</ele>
        <time>2021-08-27T11:14:18.000Z</time>
      </trkpt>
      <trkpt lat="45.17172" lon="10.78498">
        <ele>46.596438</ele>
        <time>2021-08-27T11:14:23.000Z</time>
      </trkpt>
      <trkpt lat="45.1716" lon="10.78504">
        <ele>46.573455</ele>
        <time>2021-08-27T11:14:27.000Z</time>
      </trkpt>
      <trkpt lat="45.17156" lon="10.78508">
        <ele>46.563224</ele>
        <time>2021-08-27T11:14:32.000Z</time>
      </trkpt>
      <trkpt lat="45.17146" lon="10.78506">
        <ele>46.54607</ele>
        <time>2021-08-27T11:14:37.000Z</time>
      </trkpt>
      <trkpt lat="45.17126" lon="10.78509">
        <ele>46.508258</ele>
        <time>2021-08-27T11:14:43.000Z</time>
      </trkpt>
      <trkpt lat="45.17121" lon="10.7852">
        <ele>46.490635</ele>
        <time>2021-08-27T11:14:47.000Z</time>
      </trkpt>
      <trkpt lat="45.17122" lon="10.78542">
        <ele>46.461655</ele>
        <time>2021-08-27T11:14:53.000Z</time>
      </trkpt>
      <trkpt lat="45.17119" lon="10.78582">
        <ele>46.408572</ele>
        <time>2021-08-27T11:15:01.000Z</time>
      </trkpt>
      <trkpt lat="45.17117" lon="10.78614">
        <ele>46.364986</ele>
        <time>2021-08-27T11:15:08.000Z</time>
      </trkpt>
      <trkpt lat="45.17119" lon="10.78641">
        <ele>46.330047</ele>
        <time>2021-08-27T11:15:14.000Z</time>
      </trkpt>
      <trkpt lat="45.17115" lon="10.78655">
        <ele>46.336967</ele>
        <time>2021-08-27T11:15:18.000Z</time>
      </trkpt>
      <trkpt lat="45.17113" lon="10.78657">
        <ele>46.339177</ele>
        <time>2021-08-27T11:15:19.000Z</time>
      </trkpt>
      <trkpt lat="45.171" lon="10.78662">
        <ele>46.351551</ele>
        <time>2021-08-27T11:15:24.000Z</time>
      </trkpt>
      <trkpt lat="45.1708" lon="10.78667">
        <ele>46.36999</ele>
        <time>2021-08-27T11:15:29.000Z</time>
      </trkpt>
      <trkpt lat="45.17065" lon="10.78663">
        <ele>46.383244</ele>
        <time>2021-08-27T11:15:33.000Z</time>
      </trkpt>
      <trkpt lat="45.17056" lon="10.78666">
        <ele>46.391572</ele>
        <time>2021-08-27T11:15:36.000Z</time>
      </trkpt>
      <trkpt lat="45.17045" lon="10.78671">
        <ele>46.402196</ele>
        <time>2021-08-27T11:15:40.000Z</time>
      </trkpt>
      <trkpt lat="45.17039" lon="10.78673">
        <ele>46.407706</ele>
        <time>2021-08-27T11:15:44.000Z</time>
      </trkpt>
      <trkpt lat="45.17039" lon="10.78673">
        <ele>46.407984</ele>
        <time>2021-08-27T11:15:52.000Z</time>
      </trkpt>
      <trkpt lat="45.17037" lon="10.78674">
        <ele>46.409793</ele>
        <time>2021-08-27T11:15:54.000Z</time>
      </trkpt>
      <trkpt lat="45.1703" lon="10.78677">
        <ele>46.416093</ele>
        <time>2021-08-27T11:15:57.000Z</time>
      </trkpt>
      <trkpt lat="45.17013" lon="10.78682">
        <ele>46.432092</ele>
        <time>2021-08-27T11:16:02.000Z</time>
      </trkpt>
      <trkpt lat="45.16991" lon="10.7869">
        <ele>46.452221</ele>
        <time>2021-08-27T11:16:07.000Z</time>
      </trkpt>
      <trkpt lat="45.16959" lon="10.78699">
        <ele>46.48209</ele>
        <time>2021-08-27T11:16:15.000Z</time>
      </trkpt>
      <trkpt lat="45.16928" lon="10.78711">
        <ele>46.44882</ele>
        <time>2021-08-27T11:16:23.000Z</time>
      </trkpt>
      <trkpt lat="45.16918" lon="10.78715">
        <ele>46.429113</ele>
        <time>2021-08-27T11:16:26.000Z</time>
      </trkpt>
      <trkpt lat="45.16901" lon="10.7872">
        <ele>46.397966</ele>
        <time>2021-08-27T11:16:31.000Z</time>
      </trkpt>
      <trkpt lat="45.16887" lon="10.78726">
        <ele>46.370349</ele>
        <time>2021-08-27T11:16:37.000Z</time>
      </trkpt>
      <trkpt lat="45.16868" lon="10.78731">
        <ele>46.334413</ele>
        <time>2021-08-27T11:16:44.000Z</time>
      </trkpt>
      <trkpt lat="45.16858" lon="10.78731">
        <ele>46.317236</ele>
        <time>2021-08-27T11:16:47.000Z</time>
      </trkpt>
      <trkpt lat="45.1685" lon="10.78732">
        <ele>46.30189</ele>
        <time>2021-08-27T11:16:49.000Z</time>
      </trkpt>
      <trkpt lat="45.16833" lon="10.78734">
        <ele>46.270553</ele>
        <time>2021-08-27T11:16:53.000Z</time>
      </trkpt>
      <trkpt lat="45.16829" lon="10.78735">
        <ele>46.262391</ele>
        <time>2021-08-27T11:16:54.000Z</time>
      </trkpt>
      <trkpt lat="45.16824" lon="10.78735">
        <ele>46.254442</ele>
        <time>2021-08-27T11:16:55.000Z</time>
      </trkpt>
      <trkpt lat="45.16796" lon="10.7874">
        <ele>46.200866</ele>
        <time>2021-08-27T11:17:03.000Z</time>
      </trkpt>
      <trkpt lat="45.16769" lon="10.78738">
        <ele>46.152012</ele>
        <time>2021-08-27T11:17:10.000Z</time>
      </trkpt>
      <trkpt lat="45.16748" lon="10.78742">
        <ele>46.116283</ele>
        <time>2021-08-27T11:17:15.000Z</time>
      </trkpt>
      <trkpt lat="45.16712" lon="10.7875">
        <ele>46.054005</ele>
        <time>2021-08-27T11:17:23.000Z</time>
      </trkpt>
      <trkpt lat="45.16707" lon="10.78751">
        <ele>46.044635</ele>
        <time>2021-08-27T11:17:24.000Z</time>
      </trkpt>
      <trkpt lat="45.16684" lon="10.78758">
        <ele>46.005958</ele>
        <time>2021-08-27T11:17:29.000Z</time>
      </trkpt>
      <trkpt lat="45.16657" lon="10.78765">
        <ele>45.958002</ele>
        <time>2021-08-27T11:17:35.000Z</time>
      </trkpt>
      <trkpt lat="45.1662" lon="10.78775">
        <ele>45.893991</ele>
        <time>2021-08-27T11:17:44.000Z</time>
      </trkpt>
      <trkpt lat="45.16617" lon="10.78776">
        <ele>45.888252</ele>
        <time>2021-08-27T11:17:45.000Z</time>
      </trkpt>
      <trkpt lat="45.16599" lon="10.78787">
        <ele>45.856424</ele>
        <time>2021-08-27T11:17:51.000Z</time>
      </trkpt>
      <trkpt lat="45.16578" lon="10.78792">
        <ele>45.715536</ele>
        <time>2021-08-27T11:17:56.000Z</time>
      </trkpt>
      <trkpt lat="45.16567" lon="10.78795">
        <ele>45.639802</ele>
        <time>2021-08-27T11:17:58.000Z</time>
      </trkpt>
      <trkpt lat="45.16543" lon="10.78799">
        <ele>45.466053</ele>
        <time>2021-08-27T11:18:02.000Z</time>
      </trkpt>
      <trkpt lat="45.16527" lon="10.78803">
        <ele>45.354304</ele>
        <time>2021-08-27T11:18:05.000Z</time>
      </trkpt>
      <trkpt lat="45.16519" lon="10.78804">
        <ele>45.299356</ele>
        <time>2021-08-27T11:18:07.000Z</time>
      </trkpt>
      <trkpt lat="45.1651" lon="10.78805">
        <ele>45.236039</ele>
        <time>2021-08-27T11:18:10.000Z</time>
      </trkpt>
      <trkpt lat="45.16507" lon="10.78805">
        <ele>45.213565</ele>
        <time>2021-08-27T11:18:11.000Z</time>
      </trkpt>
      <trkpt lat="45.16503" lon="10.78804">
        <ele>45.188051</ele>
        <time>2021-08-27T11:18:13.000Z</time>
      </trkpt>
      <trkpt lat="45.16503" lon="10.78804">
        <ele>45.188051</ele>
        <time>2021-08-27T11:18:15.000Z</time>
      </trkpt>
      <trkpt lat="45.16503" lon="10.78804">
        <ele>45.188051</ele>
        <time>2021-08-27T11:18:26.000Z</time>
      </trkpt>
      <trkpt lat="45.16503" lon="10.78804">
        <ele>45.188051</ele>
        <time>2021-08-27T11:18:27.000Z</time>
      </trkpt>
      <trkpt lat="45.16503" lon="10.78804">
        <ele>45.188051</ele>
        <time>2021-08-27T11:18:31.000Z</time>
      </trkpt>
      <trkpt lat="45.16503" lon="10.78804">
        <ele>45.188051</ele>
        <time>2021-08-27T11:18:38.000Z</time>
      </trkpt>
      <trkpt lat="45.16503" lon="10.78804">
        <ele>45.188051</ele>
        <time>2021-08-27T11:18:39.000Z</time>
      </trkpt>
      <trkpt lat="45.16503" lon="10.78804">
        <ele>45.187556</ele>
        <time>2021-08-27T11:18:45.000Z</time>
      </trkpt>
      <trkpt lat="45.16503" lon="10.78804">
        <ele>45.187556</ele>
        <time>2021-08-27T11:18:48.000Z</time>
      </trkpt>
      <trkpt lat="45.16503" lon="10.78804">
        <ele>45.187061</ele>
        <time>2021-08-27T11:18:52.000Z</time>
      </trkpt>
      <trkpt lat="45.16503" lon="10.78803">
        <ele>45.184009</ele>
        <time>2021-08-27T11:19:21.000Z</time>
      </trkpt>
      <trkpt lat="45.16505" lon="10.78809">
        <ele>45.153659</ele>
        <time>2021-08-27T11:19:23.000Z</time>
      </trkpt>
      <trkpt lat="45.16505" lon="10.78812">
        <ele>45.139172</ele>
        <time>2021-08-27T11:19:24.000Z</time>
      </trkpt>
      <trkpt lat="45.16507" lon="10.78828">
        <ele>45.056811</ele>
        <time>2021-08-27T11:19:28.000Z</time>
      </trkpt>
      <trkpt lat="45.16507" lon="10.78837">
        <ele>45.015226</ele>
        <time>2021-08-27T11:19:32.000Z</time>
      </trkpt>
      <trkpt lat="45.16507" lon="10.7884">
        <ele>44.997404</ele>
        <time>2021-08-27T11:19:33.000Z</time>
      </trkpt>
      <trkpt lat="45.16507" lon="10.78844">
        <ele>44.977552</ele>
        <time>2021-08-27T11:19:34.000Z</time>
      </trkpt>
      <trkpt lat="45.16521" lon="10.78901">
        <ele>44.678967</ele>
        <time>2021-08-27T11:19:49.000Z</time>
      </trkpt>
      <trkpt lat="45.16519" lon="10.78908">
        <ele>44.641306</ele>
        <time>2021-08-27T11:19:50.000Z</time>
      </trkpt>
      <trkpt lat="45.16513" lon="10.78927">
        <ele>44.718465</ele>
        <time>2021-08-27T11:19:55.000Z</time>
      </trkpt>
      <trkpt lat="45.16513" lon="10.78929">
        <ele>44.745001</ele>
        <time>2021-08-27T11:19:57.000Z</time>
      </trkpt>
      <trkpt lat="45.16513" lon="10.7893">
        <ele>44.752461</ele>
        <time>2021-08-27T11:19:58.000Z</time>
      </trkpt>
      <trkpt lat="45.16513" lon="10.7893">
        <ele>44.752461</ele>
        <time>2021-08-27T11:20:00.000Z</time>
      </trkpt>
      <trkpt lat="45.16513" lon="10.7893">
        <ele>44.752461</ele>
        <time>2021-08-27T11:20:01.000Z</time>
      </trkpt>
      <trkpt lat="45.16514" lon="10.78933">
        <ele>44.798663</ele>
        <time>2021-08-27T11:20:06.000Z</time>
      </trkpt>
      <trkpt lat="45.16515" lon="10.78933">
        <ele>44.823455</ele>
        <time>2021-08-27T11:20:07.000Z</time>
      </trkpt>
      <trkpt lat="45.16515" lon="10.78918">
        <ele>45.012966</ele>
        <time>2021-08-27T11:20:11.000Z</time>
      </trkpt>
      <trkpt lat="45.16514" lon="10.78885">
        <ele>45.43812</ele>
        <time>2021-08-27T11:20:18.000Z</time>
      </trkpt>
      <trkpt lat="45.16506" lon="10.78836">
        <ele>46.096588</ele>
        <time>2021-08-27T11:20:28.000Z</time>
      </trkpt>
      <trkpt lat="45.16505" lon="10.78834">
        <ele>46.129691</ele>
        <time>2021-08-27T11:20:29.000Z</time>
      </trkpt>
      <trkpt lat="45.16493" lon="10.78832">
        <ele>46.355599</ele>
        <time>2021-08-27T11:20:32.000Z</time>
      </trkpt>
      <trkpt lat="45.1649" lon="10.78834">
        <ele>46.413304</ele>
        <time>2021-08-27T11:20:33.000Z</time>
      </trkpt>
      <trkpt lat="45.16485" lon="10.78834">
        <ele>46.505373</ele>
        <time>2021-08-27T11:20:35.000Z</time>
      </trkpt>
      <trkpt lat="45.16477" lon="10.78836">
        <ele>46.658103</ele>
        <time>2021-08-27T11:20:38.000Z</time>
      </trkpt>
      <trkpt lat="45.16472" lon="10.78837">
        <ele>46.744192</ele>
        <time>2021-08-27T11:20:40.000Z</time>
      </trkpt>
      <trkpt lat="45.16468" lon="10.78838">
        <ele>46.833312</ele>
        <time>2021-08-27T11:20:42.000Z</time>
      </trkpt>
      <trkpt lat="45.1646" lon="10.7884">
        <ele>46.97717</ele>
        <time>2021-08-27T11:20:45.000Z</time>
      </trkpt>
      <trkpt lat="45.16457" lon="10.78842">
        <ele>47.04397</ele>
        <time>2021-08-27T11:20:47.000Z</time>
      </trkpt>
      <trkpt lat="45.16455" lon="10.78845">
        <ele>47.101283</ele>
        <time>2021-08-27T11:20:51.000Z</time>
      </trkpt>
      <trkpt lat="45.16455" lon="10.78845">
        <ele>47.101283</ele>
        <time>2021-08-27T11:20:54.000Z</time>
      </trkpt>
      <trkpt lat="45.16457" lon="10.78846">
        <ele>47.15161</ele>
        <time>2021-08-27T11:21:02.000Z</time>
      </trkpt>
      <trkpt lat="45.16459" lon="10.78847">
        <ele>47.172023</ele>
        <time>2021-08-27T11:21:03.000Z</time>
      </trkpt>
      <trkpt lat="45.16461" lon="10.78846">
        <ele>47.226169</ele>
        <time>2021-08-27T11:21:05.000Z</time>
      </trkpt>
      <trkpt lat="45.16466" lon="10.78847">
        <ele>47.307665</ele>
        <time>2021-08-27T11:21:07.000Z</time>
      </trkpt>
      <trkpt lat="45.16467" lon="10.78849">
        <ele>47.346942</ele>
        <time>2021-08-27T11:21:08.000Z</time>
      </trkpt>
      <trkpt lat="45.16466" lon="10.78861">
        <ele>47.503208</ele>
        <time>2021-08-27T11:21:11.000Z</time>
      </trkpt>
      <trkpt lat="45.16465" lon="10.78869">
        <ele>47.614878</ele>
        <time>2021-08-27T11:21:13.000Z</time>
      </trkpt>
      <trkpt lat="45.16465" lon="10.78873">
        <ele>47.668119</ele>
        <time>2021-08-27T11:21:14.000Z</time>
      </trkpt>
      <trkpt lat="45.16467" lon="10.78886">
        <ele>47.837409</ele>
        <time>2021-08-27T11:21:18.000Z</time>
      </trkpt>
      <trkpt lat="45.16462" lon="10.78886">
        <ele>47.898683</ele>
        <time>2021-08-27T11:21:21.000Z</time>
      </trkpt>
      <trkpt lat="45.16457" lon="10.78883">
        <ele>47.895454</ele>
        <time>2021-08-27T11:21:23.000Z</time>
      </trkpt>
      <trkpt lat="45.16451" lon="10.7888">
        <ele>47.891522</ele>
        <time>2021-08-27T11:21:25.000Z</time>
      </trkpt>
      <trkpt lat="45.16444" lon="10.7888">
        <ele>47.886912</ele>
        <time>2021-08-27T11:21:27.000Z</time>
      </trkpt>
      <trkpt lat="45.16424" lon="10.78882">
        <ele>47.87352</ele>
        <time>2021-08-27T11:21:33.000Z</time>
      </trkpt>
      <trkpt lat="45.16417" lon="10.78883">
        <ele>47.869284</ele>
        <time>2021-08-27T11:21:35.000Z</time>
      </trkpt>
      <trkpt lat="45.16409" lon="10.78886">
        <ele>47.863974</ele>
        <time>2021-08-27T11:21:38.000Z</time>
      </trkpt>
      <trkpt lat="45.16405" lon="10.78887">
        <ele>47.860835</ele>
        <time>2021-08-27T11:21:40.000Z</time>
      </trkpt>
      <trkpt lat="45.16402" lon="10.78888">
        <ele>47.859137</ele>
        <time>2021-08-27T11:21:41.000Z</time>
      </trkpt>
      <trkpt lat="45.16396" lon="10.78892">
        <ele>47.854594</ele>
        <time>2021-08-27T11:21:44.000Z</time>
      </trkpt>
      <trkpt lat="45.16395" lon="10.78895">
        <ele>47.853166</ele>
        <time>2021-08-27T11:21:45.000Z</time>
      </trkpt>
      <trkpt lat="45.16393" lon="10.7891">
        <ele>47.846247</ele>
        <time>2021-08-27T11:21:51.000Z</time>
      </trkpt>
      <trkpt lat="45.16394" lon="10.78915">
        <ele>47.844132</ele>
        <time>2021-08-27T11:21:53.000Z</time>
      </trkpt>
      <trkpt lat="45.1639" lon="10.78921">
        <ele>47.840105</ele>
        <time>2021-08-27T11:21:56.000Z</time>
      </trkpt>
      <trkpt lat="45.16384" lon="10.78938">
        <ele>47.831376</ele>
        <time>2021-08-27T11:22:00.000Z</time>
      </trkpt>
      <trkpt lat="45.16376" lon="10.78974">
        <ele>47.814209</ele>
        <time>2021-08-27T11:22:07.000Z</time>
      </trkpt>
      <trkpt lat="45.16374" lon="10.7898">
        <ele>47.811548</ele>
        <time>2021-08-27T11:22:08.000Z</time>
      </trkpt>
      <trkpt lat="45.16368" lon="10.79011">
        <ele>47.796425</ele>
        <time>2021-08-27T11:22:14.000Z</time>
      </trkpt>
      <trkpt lat="45.16361" lon="10.79039">
        <ele>47.779814</ele>
        <time>2021-08-27T11:22:19.000Z</time>
      </trkpt>
      <trkpt lat="45.16352" lon="10.79055">
        <ele>47.697055</ele>
        <time>2021-08-27T11:22:21.000Z</time>
      </trkpt>
      <trkpt lat="45.16344" lon="10.79065">
        <ele>47.632712</ele>
        <time>2021-08-27T11:22:23.000Z</time>
      </trkpt>
      <trkpt lat="45.16342" lon="10.79071">
        <ele>47.602633</ele>
        <time>2021-08-27T11:22:24.000Z</time>
      </trkpt>
      <trkpt lat="45.1634" lon="10.79075">
        <ele>47.580868</ele>
        <time>2021-08-27T11:22:25.000Z</time>
      </trkpt>
      <trkpt lat="45.16337" lon="10.79086">
        <ele>47.532725</ele>
        <time>2021-08-27T11:22:27.000Z</time>
      </trkpt>
      <trkpt lat="45.16334" lon="10.79094">
        <ele>47.494446</ele>
        <time>2021-08-27T11:22:29.000Z</time>
      </trkpt>
      <trkpt lat="45.16326" lon="10.79111">
        <ele>47.408816</ele>
        <time>2021-08-27T11:22:33.000Z</time>
      </trkpt>
      <trkpt lat="45.16318" lon="10.79146">
        <ele>47.249448</ele>
        <time>2021-08-27T11:22:39.000Z</time>
      </trkpt>
      <trkpt lat="45.16316" lon="10.79152">
        <ele>47.226513</ele>
        <time>2021-08-27T11:22:40.000Z</time>
      </trkpt>
      <trkpt lat="45.16316" lon="10.79157">
        <ele>47.202403</ele>
        <time>2021-08-27T11:22:41.000Z</time>
      </trkpt>
      <trkpt lat="45.16314" lon="10.79167">
        <ele>47.158552</ele>
        <time>2021-08-27T11:22:43.000Z</time>
      </trkpt>
      <trkpt lat="45.16311" lon="10.79172">
        <ele>47.131364</ele>
        <time>2021-08-27T11:22:44.000Z</time>
      </trkpt>
      <trkpt lat="45.16306" lon="10.79189">
        <ele>47.052066</ele>
        <time>2021-08-27T11:22:47.000Z</time>
      </trkpt>
      <trkpt lat="45.16302" lon="10.79199">
        <ele>47.006057</ele>
        <time>2021-08-27T11:22:49.000Z</time>
      </trkpt>
      <trkpt lat="45.16299" lon="10.79204">
        <ele>46.977217</ele>
        <time>2021-08-27T11:22:50.000Z</time>
      </trkpt>
      <trkpt lat="45.16296" lon="10.79209">
        <ele>46.950899</ele>
        <time>2021-08-27T11:22:51.000Z</time>
      </trkpt>
      <trkpt lat="45.16293" lon="10.79218">
        <ele>46.905891</ele>
        <time>2021-08-27T11:22:53.000Z</time>
      </trkpt>
      <trkpt lat="45.16283" lon="10.79234">
        <ele>46.815645</ele>
        <time>2021-08-27T11:22:57.000Z</time>
      </trkpt>
      <trkpt lat="45.1627" lon="10.79234">
        <ele>46.737083</ele>
        <time>2021-08-27T11:23:00.000Z</time>
      </trkpt>
      <trkpt lat="45.16262" lon="10.79231">
        <ele>46.714528</ele>
        <time>2021-08-27T11:23:02.000Z</time>
      </trkpt>
      <trkpt lat="45.16251" lon="10.79223">
        <ele>46.755041</ele>
        <time>2021-08-27T11:23:05.000Z</time>
      </trkpt>
      <trkpt lat="45.16244" lon="10.79218">
        <ele>46.780347</ele>
        <time>2021-08-27T11:23:07.000Z</time>
      </trkpt>
      <trkpt lat="45.16223" lon="10.79206">
        <ele>46.853318</ele>
        <time>2021-08-27T11:23:12.000Z</time>
      </trkpt>
      <trkpt lat="45.16214" lon="10.79204">
        <ele>46.88275</ele>
        <time>2021-08-27T11:23:14.000Z</time>
      </trkpt>
      <trkpt lat="45.16197" lon="10.79203">
        <ele>46.939145</ele>
        <time>2021-08-27T11:23:18.000Z</time>
      </trkpt>
      <trkpt lat="45.16183" lon="10.79201">
        <ele>46.982786</ele>
        <time>2021-08-27T11:23:21.000Z</time>
      </trkpt>
      <trkpt lat="45.1617" lon="10.792">
        <ele>47.026217</ele>
        <time>2021-08-27T11:23:24.000Z</time>
      </trkpt>
      <trkpt lat="45.16157" lon="10.79201">
        <ele>47.069001</ele>
        <time>2021-08-27T11:23:27.000Z</time>
      </trkpt>
      <trkpt lat="45.16147" lon="10.79201">
        <ele>47.100102</ele>
        <time>2021-08-27T11:23:30.000Z</time>
      </trkpt>
      <trkpt lat="45.16141" lon="10.792">
        <ele>47.119622</ele>
        <time>2021-08-27T11:23:33.000Z</time>
      </trkpt>
      <trkpt lat="45.16137" lon="10.79197">
        <ele>47.135927</ele>
        <time>2021-08-27T11:23:36.000Z</time>
      </trkpt>
      <trkpt lat="45.16136" lon="10.79197">
        <ele>47.137222</ele>
        <time>2021-08-27T11:23:38.000Z</time>
      </trkpt>
      <trkpt lat="45.16134" lon="10.79199">
        <ele>47.143869</ele>
        <time>2021-08-27T11:23:45.000Z</time>
      </trkpt>
      <trkpt lat="45.1613" lon="10.79201">
        <ele>47.158712</ele>
        <time>2021-08-27T11:23:47.000Z</time>
      </trkpt>
      <trkpt lat="45.16126" lon="10.79207">
        <ele>47.177016</ele>
        <time>2021-08-27T11:23:49.000Z</time>
      </trkpt>
      <trkpt lat="45.16121" lon="10.79217">
        <ele>47.20618</ele>
        <time>2021-08-27T11:23:52.000Z</time>
      </trkpt>
      <trkpt lat="45.16116" lon="10.79223">
        <ele>47.225482</ele>
        <time>2021-08-27T11:23:54.000Z</time>
      </trkpt>
      <trkpt lat="45.1611" lon="10.79229">
        <ele>47.250874</ele>
        <time>2021-08-27T11:23:57.000Z</time>
      </trkpt>
      <trkpt lat="45.16107" lon="10.79233">
        <ele>47.263019</ele>
        <time>2021-08-27T11:23:59.000Z</time>
      </trkpt>
      <trkpt lat="45.16104" lon="10.79241">
        <ele>47.284033</ele>
        <time>2021-08-27T11:24:03.000Z</time>
      </trkpt>
      <trkpt lat="45.16104" lon="10.79242">
        <ele>47.286474</ele>
        <time>2021-08-27T11:24:05.000Z</time>
      </trkpt>
      <trkpt lat="45.16104" lon="10.79242">
        <ele>47.286474</ele>
        <time>2021-08-27T11:24:21.000Z</time>
      </trkpt>
      <trkpt lat="45.16104" lon="10.79242">
        <ele>47.286474</ele>
        <time>2021-08-27T11:24:25.000Z</time>
      </trkpt>
      <trkpt lat="45.16104" lon="10.79242">
        <ele>47.286474</ele>
        <time>2021-08-27T11:24:28.000Z</time>
      </trkpt>
      <trkpt lat="45.16104" lon="10.79242">
        <ele>47.286474</ele>
        <time>2021-08-27T11:24:32.000Z</time>
      </trkpt>
      <trkpt lat="45.16103" lon="10.79244">
        <ele>47.288066</ele>
        <time>2021-08-27T11:24:43.000Z</time>
      </trkpt>
      <trkpt lat="45.16103" lon="10.79247">
        <ele>47.28822</ele>
        <time>2021-08-27T11:24:44.000Z</time>
      </trkpt>
      <trkpt lat="45.16103" lon="10.79249">
        <ele>47.288367</ele>
        <time>2021-08-27T11:24:45.000Z</time>
      </trkpt>
      <trkpt lat="45.16105" lon="10.79252">
        <ele>47.288522</ele>
        <time>2021-08-27T11:24:46.000Z</time>
      </trkpt>
      <trkpt lat="45.16109" lon="10.79256">
        <ele>47.288956</ele>
        <time>2021-08-27T11:24:48.000Z</time>
      </trkpt>
      <trkpt lat="45.1612" lon="10.79269">
        <ele>47.290047</ele>
        <time>2021-08-27T11:24:52.000Z</time>
      </trkpt>
      <trkpt lat="45.16123" lon="10.79273">
        <ele>47.290339</ele>
        <time>2021-08-27T11:24:53.000Z</time>
      </trkpt>
      <trkpt lat="45.16134" lon="10.7929">
        <ele>47.291581</ele>
        <time>2021-08-27T11:24:57.000Z</time>
      </trkpt>
      <trkpt lat="45.16139" lon="10.79298">
        <ele>47.292177</ele>
        <time>2021-08-27T11:24:59.000Z</time>
      </trkpt>
      <trkpt lat="45.16149" lon="10.79317">
        <ele>47.29351</ele>
        <time>2021-08-27T11:25:04.000Z</time>
      </trkpt>
      <trkpt lat="45.16149" lon="10.79321">
        <ele>47.293738</ele>
        <time>2021-08-27T11:25:05.000Z</time>
      </trkpt>
      <trkpt lat="45.16149" lon="10.79332">
        <ele>47.294299</ele>
        <time>2021-08-27T11:25:08.000Z</time>
      </trkpt>
      <trkpt lat="45.16142" lon="10.79343">
        <ele>47.295107</ele>
        <time>2021-08-27T11:25:12.000Z</time>
      </trkpt>
      <trkpt lat="45.16138" lon="10.79365">
        <ele>47.296335</ele>
        <time>2021-08-27T11:25:16.000Z</time>
      </trkpt>
      <trkpt lat="45.16138" lon="10.79398">
        <ele>47.29814</ele>
        <time>2021-08-27T11:25:21.000Z</time>
      </trkpt>
      <trkpt lat="45.16149" lon="10.79433">
        <ele>47.300237</ele>
        <time>2021-08-27T11:25:27.000Z</time>
      </trkpt>
      <trkpt lat="45.16156" lon="10.79442">
        <ele>47.300935</ele>
        <time>2021-08-27T11:25:29.000Z</time>
      </trkpt>
      <trkpt lat="45.16162" lon="10.79451">
        <ele>47.301622</ele>
        <time>2021-08-27T11:25:31.000Z</time>
      </trkpt>
      <trkpt lat="45.16175" lon="10.79475">
        <ele>47.556376</ele>
        <time>2021-08-27T11:25:37.000Z</time>
      </trkpt>
      <trkpt lat="45.16189" lon="10.79497">
        <ele>47.838528</ele>
        <time>2021-08-27T11:25:43.000Z</time>
      </trkpt>
      <trkpt lat="45.16195" lon="10.79514">
        <ele>48.026344</ele>
        <time>2021-08-27T11:25:47.000Z</time>
      </trkpt>
      <trkpt lat="45.16195" lon="10.79516">
        <ele>48.046022</ele>
        <time>2021-08-27T11:25:48.000Z</time>
      </trkpt>
      <trkpt lat="45.16191" lon="10.79523">
        <ele>48.126542</ele>
        <time>2021-08-27T11:25:52.000Z</time>
      </trkpt>
      <trkpt lat="45.1619" lon="10.79525">
        <ele>48.149655</ele>
        <time>2021-08-27T11:25:57.000Z</time>
      </trkpt>
      <trkpt lat="45.1619" lon="10.79528">
        <ele>48.183798</ele>
        <time>2021-08-27T11:25:59.000Z</time>
      </trkpt>
      <trkpt lat="45.16186" lon="10.79531">
        <ele>48.235954</ele>
        <time>2021-08-27T11:26:01.000Z</time>
      </trkpt>
      <trkpt lat="45.16184" lon="10.79533">
        <ele>48.279469</ele>
        <time>2021-08-27T11:26:03.000Z</time>
      </trkpt>
      <trkpt lat="45.16183" lon="10.79534">
        <ele>48.299579</ele>
        <time>2021-08-27T11:26:06.000Z</time>
      </trkpt>
      <trkpt lat="45.1618" lon="10.79537">
        <ele>48.342978</ele>
        <time>2021-08-27T11:26:09.000Z</time>
      </trkpt>
      <trkpt lat="45.16178" lon="10.7954">
        <ele>48.385497</ele>
        <time>2021-08-27T11:26:11.000Z</time>
      </trkpt>
      <trkpt lat="45.16175" lon="10.79543">
        <ele>48.431009</ele>
        <time>2021-08-27T11:26:13.000Z</time>
      </trkpt>
      <trkpt lat="45.16173" lon="10.79547">
        <ele>48.479621</ele>
        <time>2021-08-27T11:26:15.000Z</time>
      </trkpt>
      <trkpt lat="45.16172" lon="10.79549">
        <ele>48.506669</ele>
        <time>2021-08-27T11:26:16.000Z</time>
      </trkpt>
      <trkpt lat="45.1617" lon="10.7955">
        <ele>48.536251</ele>
        <time>2021-08-27T11:26:17.000Z</time>
      </trkpt>
      <trkpt lat="45.16169" lon="10.79552">
        <ele>48.559764</ele>
        <time>2021-08-27T11:26:18.000Z</time>
      </trkpt>
      <trkpt lat="45.16165" lon="10.79559">
        <ele>48.648564</ele>
        <time>2021-08-27T11:26:21.000Z</time>
      </trkpt>
      <trkpt lat="45.16163" lon="10.79565">
        <ele>48.714077</ele>
        <time>2021-08-27T11:26:23.000Z</time>
      </trkpt>
      <trkpt lat="45.16158" lon="10.79567">
        <ele>48.777233</ele>
        <time>2021-08-27T11:26:25.000Z</time>
      </trkpt>
      <trkpt lat="45.16155" lon="10.79571">
        <ele>48.836814</ele>
        <time>2021-08-27T11:26:27.000Z</time>
      </trkpt>
      <trkpt lat="45.16151" lon="10.79577">
        <ele>48.916166</ele>
        <time>2021-08-27T11:26:29.000Z</time>
      </trkpt>
      <trkpt lat="45.16145" lon="10.79583">
        <ele>49.016487</ele>
        <time>2021-08-27T11:26:32.000Z</time>
      </trkpt>
      <trkpt lat="45.16141" lon="10.79585">
        <ele>49.069855</ele>
        <time>2021-08-27T11:26:34.000Z</time>
      </trkpt>
      <trkpt lat="45.16134" lon="10.79591">
        <ele>49.194599</ele>
        <time>2021-08-27T11:26:38.000Z</time>
      </trkpt>
      <trkpt lat="45.16131" lon="10.79595">
        <ele>49.242159</ele>
        <time>2021-08-27T11:26:40.000Z</time>
      </trkpt>
      <trkpt lat="45.16129" lon="10.79601">
        <ele>49.309114</ele>
        <time>2021-08-27T11:26:42.000Z</time>
      </trkpt>
      <trkpt lat="45.16119" lon="10.79612">
        <ele>49.479191</ele>
        <time>2021-08-27T11:26:47.000Z</time>
      </trkpt>
      <trkpt lat="45.16115" lon="10.79618">
        <ele>49.565064</ele>
        <time>2021-08-27T11:26:49.000Z</time>
      </trkpt>
      <trkpt lat="45.16108" lon="10.79625">
        <ele>49.678928</ele>
        <time>2021-08-27T11:26:52.000Z</time>
      </trkpt>
      <trkpt lat="45.16095" lon="10.79643">
        <ele>49.83233</ele>
        <time>2021-08-27T11:26:59.000Z</time>
      </trkpt>
      <trkpt lat="45.16089" lon="10.79652">
        <ele>49.872609</ele>
        <time>2021-08-27T11:27:04.000Z</time>
      </trkpt>
      <trkpt lat="45.16089" lon="10.79655">
        <ele>49.881554</ele>
        <time>2021-08-27T11:27:07.000Z</time>
      </trkpt>
      <trkpt lat="45.16088" lon="10.79661">
        <ele>49.899207</ele>
        <time>2021-08-27T11:27:10.000Z</time>
      </trkpt>
      <trkpt lat="45.16084" lon="10.7967">
        <ele>49.935636</ele>
        <time>2021-08-27T11:27:16.000Z</time>
      </trkpt>
      <trkpt lat="45.16082" lon="10.79672">
        <ele>49.946234</ele>
        <time>2021-08-27T11:27:18.000Z</time>
      </trkpt>
      <trkpt lat="45.16081" lon="10.79673">
        <ele>49.95015</ele>
        <time>2021-08-27T11:27:19.000Z</time>
      </trkpt>
      <trkpt lat="45.16081" lon="10.79674">
        <ele>49.954284</ele>
        <time>2021-08-27T11:27:20.000Z</time>
      </trkpt>
      <trkpt lat="45.16079" lon="10.79676">
        <ele>49.965681</ele>
        <time>2021-08-27T11:27:22.000Z</time>
      </trkpt>
      <trkpt lat="45.16078" lon="10.7968">
        <ele>49.979118</ele>
        <time>2021-08-27T11:27:25.000Z</time>
      </trkpt>
      <trkpt lat="45.16078" lon="10.79685">
        <ele>49.993757</ele>
        <time>2021-08-27T11:27:27.000Z</time>
      </trkpt>
      <trkpt lat="45.16076" lon="10.79689">
        <ele>50.010097</ele>
        <time>2021-08-27T11:27:29.000Z</time>
      </trkpt>
      <trkpt lat="45.16076" lon="10.7969">
        <ele>50.013786</ele>
        <time>2021-08-27T11:27:30.000Z</time>
      </trkpt>
      <trkpt lat="45.16075" lon="10.79691">
        <ele>50.020734</ele>
        <time>2021-08-27T11:27:32.000Z</time>
      </trkpt>
      <trkpt lat="45.16072" lon="10.79694">
        <ele>50.033562</ele>
        <time>2021-08-27T11:27:34.000Z</time>
      </trkpt>
      <trkpt lat="45.16071" lon="10.79696">
        <ele>50.042096</ele>
        <time>2021-08-27T11:27:35.000Z</time>
      </trkpt>
      <trkpt lat="45.16071" lon="10.79703">
        <ele>50.064562</ele>
        <time>2021-08-27T11:27:37.000Z</time>
      </trkpt>
      <trkpt lat="45.16069" lon="10.79706">
        <ele>50.075751</ele>
        <time>2021-08-27T11:27:39.000Z</time>
      </trkpt>
      <trkpt lat="45.16065" lon="10.79709">
        <ele>50.096274</ele>
        <time>2021-08-27T11:27:43.000Z</time>
      </trkpt>
      <trkpt lat="45.16062" lon="10.7971">
        <ele>50.109637</ele>
        <time>2021-08-27T11:27:45.000Z</time>
      </trkpt>
      <trkpt lat="45.16061" lon="10.79711">
        <ele>50.11478</ele>
        <time>2021-08-27T11:27:46.000Z</time>
      </trkpt>
      <trkpt lat="45.16059" lon="10.7971">
        <ele>50.125824</ele>
        <time>2021-08-27T11:27:49.000Z</time>
      </trkpt>
      <trkpt lat="45.16056" lon="10.79711">
        <ele>50.138909</ele>
        <time>2021-08-27T11:27:51.000Z</time>
      </trkpt>
      <trkpt lat="45.16051" lon="10.7971">
        <ele>50.160153</ele>
        <time>2021-08-27T11:27:55.000Z</time>
      </trkpt>
      <trkpt lat="45.16044" lon="10.79712">
        <ele>50.191524</ele>
        <time>2021-08-27T11:27:58.000Z</time>
      </trkpt>
      <trkpt lat="45.16044" lon="10.79713">
        <ele>50.195908</ele>
        <time>2021-08-27T11:27:59.000Z</time>
      </trkpt>
      <trkpt lat="45.1604" lon="10.7971">
        <ele>50.211978</ele>
        <time>2021-08-27T11:28:01.000Z</time>
      </trkpt>
      <trkpt lat="45.16038" lon="10.79709">
        <ele>50.222372</ele>
        <time>2021-08-27T11:28:03.000Z</time>
      </trkpt>
      <trkpt lat="45.16034" lon="10.79709">
        <ele>50.240762</ele>
        <time>2021-08-27T11:28:05.000Z</time>
      </trkpt>
      <trkpt lat="45.16022" lon="10.79708">
        <ele>50.293619</ele>
        <time>2021-08-27T11:28:08.000Z</time>
      </trkpt>
      <trkpt lat="45.16013" lon="10.79706">
        <ele>50.337724</ele>
        <time>2021-08-27T11:28:13.000Z</time>
      </trkpt>
      <trkpt lat="45.16012" lon="10.79708">
        <ele>50.344244</ele>
        <time>2021-08-27T11:28:14.000Z</time>
      </trkpt>
      <trkpt lat="45.16013" lon="10.79708">
        <ele>50.350523</ele>
        <time>2021-08-27T11:28:16.000Z</time>
      </trkpt>
      <trkpt lat="45.16017" lon="10.79701">
        <ele>50.378493</ele>
        <time>2021-08-27T11:28:18.000Z</time>
      </trkpt>
      <trkpt lat="45.16016" lon="10.79697">
        <ele>50.391601</ele>
        <time>2021-08-27T11:28:21.000Z</time>
      </trkpt>
      <trkpt lat="45.16016" lon="10.79695">
        <ele>50.397304</ele>
        <time>2021-08-27T11:28:22.000Z</time>
      </trkpt>
      <trkpt lat="45.16014" lon="10.79689">
        <ele>50.41703</ele>
        <time>2021-08-27T11:28:25.000Z</time>
      </trkpt>
      <trkpt lat="45.16011" lon="10.79686">
        <ele>50.436618</ele>
        <time>2021-08-27T11:28:28.000Z</time>
      </trkpt>
      <trkpt lat="45.16009" lon="10.79685">
        <ele>50.444042</ele>
        <time>2021-08-27T11:28:29.000Z</time>
      </trkpt>
      <trkpt lat="45.16008" lon="10.79682">
        <ele>50.455164</ele>
        <time>2021-08-27T11:28:31.000Z</time>
      </trkpt>
      <trkpt lat="45.16005" lon="10.7968">
        <ele>50.470424</ele>
        <time>2021-08-27T11:28:34.000Z</time>
      </trkpt>
      <trkpt lat="45.16003" lon="10.7968">
        <ele>50.476256</ele>
        <time>2021-08-27T11:28:35.000Z</time>
      </trkpt>
      <trkpt lat="45.15999" lon="10.79675">
        <ele>50.500562</ele>
        <time>2021-08-27T11:28:40.000Z</time>
      </trkpt>
      <trkpt lat="45.15998" lon="10.79672">
        <ele>50.511403</ele>
        <time>2021-08-27T11:28:42.000Z</time>
      </trkpt>
      <trkpt lat="45.15998" lon="10.79671">
        <ele>50.517221</ele>
        <time>2021-08-27T11:28:43.000Z</time>
      </trkpt>
      <trkpt lat="45.15996" lon="10.79666">
        <ele>50.535378</ele>
        <time>2021-08-27T11:28:46.000Z</time>
      </trkpt>
      <trkpt lat="45.15992" lon="10.79661">
        <ele>50.558717</ele>
        <time>2021-08-27T11:28:50.000Z</time>
      </trkpt>
      <trkpt lat="45.15986" lon="10.79655">
        <ele>50.588511</ele>
        <time>2021-08-27T11:28:55.000Z</time>
      </trkpt>
      <trkpt lat="45.15978" lon="10.7965">
        <ele>50.533647</ele>
        <time>2021-08-27T11:29:03.000Z</time>
      </trkpt>
      <trkpt lat="45.15977" lon="10.7965">
        <ele>50.527674</ele>
        <time>2021-08-27T11:29:04.000Z</time>
      </trkpt>
      <trkpt lat="45.15975" lon="10.79647">
        <ele>50.507906</ele>
        <time>2021-08-27T11:29:09.000Z</time>
      </trkpt>
      <trkpt lat="45.15975" lon="10.79647">
        <ele>50.507906</ele>
        <time>2021-08-27T11:29:11.000Z</time>
      </trkpt>
      <trkpt lat="45.15975" lon="10.79647">
        <ele>50.507906</ele>
        <time>2021-08-27T11:29:15.000Z</time>
      </trkpt>
      <trkpt lat="45.15975" lon="10.79647">
        <ele>50.507906</ele>
        <time>2021-08-27T11:29:29.000Z</time>
      </trkpt>
      <trkpt lat="45.15975" lon="10.79647">
        <ele>50.507906</ele>
        <time>2021-08-27T11:29:31.000Z</time>
      </trkpt>
      <trkpt lat="45.15975" lon="10.79647">
        <ele>50.507906</ele>
        <time>2021-08-27T11:29:39.000Z</time>
      </trkpt>
      <trkpt lat="45.15975" lon="10.79647">
        <ele>50.506511</ele>
        <time>2021-08-27T11:29:53.000Z</time>
      </trkpt>
      <trkpt lat="45.15975" lon="10.79647">
        <ele>50.506511</ele>
        <time>2021-08-27T11:29:55.000Z</time>
      </trkpt>
      <trkpt lat="45.15975" lon="10.79647">
        <ele>50.506511</ele>
        <time>2021-08-27T11:29:58.000Z</time>
      </trkpt>
      <trkpt lat="45.15975" lon="10.79646">
        <ele>50.502577</ele>
        <time>2021-08-27T11:30:00.000Z</time>
      </trkpt>
      <trkpt lat="45.15975" lon="10.79646">
        <ele>50.500945</ele>
        <time>2021-08-27T11:30:02.000Z</time>
      </trkpt>
      <trkpt lat="45.15976" lon="10.79646">
        <ele>50.492562</ele>
        <time>2021-08-27T11:30:05.000Z</time>
      </trkpt>
      <trkpt lat="45.15976" lon="10.79646">
        <ele>50.492562</ele>
        <time>2021-08-27T11:30:11.000Z</time>
      </trkpt>
      <trkpt lat="45.15976" lon="10.79646">
        <ele>50.492562</ele>
        <time>2021-08-27T11:30:12.000Z</time>
      </trkpt>
      <trkpt lat="45.15976" lon="10.79646">
        <ele>50.491579</ele>
        <time>2021-08-27T11:30:15.000Z</time>
      </trkpt>
      <trkpt lat="45.15976" lon="10.79645">
        <ele>50.487123</ele>
        <time>2021-08-27T11:30:19.000Z</time>
      </trkpt>
      <trkpt lat="45.15976" lon="10.79645">
        <ele>50.487123</ele>
        <time>2021-08-27T11:30:25.000Z</time>
      </trkpt>
      <trkpt lat="45.15977" lon="10.79643">
        <ele>50.476586</ele>
        <time>2021-08-27T11:30:33.000Z</time>
      </trkpt>
      <trkpt lat="45.15977" lon="10.79643">
        <ele>50.476586</ele>
        <time>2021-08-27T11:30:35.000Z</time>
      </trkpt>
      <trkpt lat="45.15831" lon="10.79361">
        <ele>49.246835</ele>
        <time>2021-08-27T12:49:40.000Z</time>
      </trkpt>
      <trkpt lat="45.15828" lon="10.79365">
        <ele>49.242209</ele>
        <time>2021-08-27T12:49:43.000Z</time>
      </trkpt>
      <trkpt lat="45.1583" lon="10.79361">
        <ele>49.238161</ele>
        <time>2021-08-27T12:49:48.000Z</time>
      </trkpt>
      <trkpt lat="45.15829" lon="10.79357">
        <ele>49.23524</ele>
        <time>2021-08-27T12:49:50.000Z</time>
      </trkpt>
      <trkpt lat="45.15825" lon="10.7935">
        <ele>49.227949</ele>
        <time>2021-08-27T12:49:53.000Z</time>
      </trkpt>
      <trkpt lat="45.15813" lon="10.79323">
        <ele>49.203047</ele>
        <time>2021-08-27T12:49:59.000Z</time>
      </trkpt>
      <trkpt lat="45.158" lon="10.79318">
        <ele>49.188563</ele>
        <time>2021-08-27T12:50:03.000Z</time>
      </trkpt>
      <trkpt lat="45.15798" lon="10.79319">
        <ele>49.186468</ele>
        <time>2021-08-27T12:50:04.000Z</time>
      </trkpt>
      <trkpt lat="45.15795" lon="10.79317">
        <ele>49.182942</ele>
        <time>2021-08-27T12:50:06.000Z</time>
      </trkpt>
      <trkpt lat="45.15789" lon="10.7931">
        <ele>49.173709</ele>
        <time>2021-08-27T12:50:09.000Z</time>
      </trkpt>
      <trkpt lat="45.15786" lon="10.79307">
        <ele>49.170262</ele>
        <time>2021-08-27T12:50:11.000Z</time>
      </trkpt>
      <trkpt lat="45.15766" lon="10.79285">
        <ele>49.142745</ele>
        <time>2021-08-27T12:50:18.000Z</time>
      </trkpt>
      <trkpt lat="45.15756" lon="10.79266">
        <ele>49.094802</ele>
        <time>2021-08-27T12:50:24.000Z</time>
      </trkpt>
      <trkpt lat="45.15749" lon="10.7926">
        <ele>49.071351</ele>
        <time>2021-08-27T12:50:28.000Z</time>
      </trkpt>
      <trkpt lat="45.1574" lon="10.79252">
        <ele>49.040926</ele>
        <time>2021-08-27T12:50:32.000Z</time>
      </trkpt>
      <trkpt lat="45.15721" lon="10.79231">
        <ele>48.970352</ele>
        <time>2021-08-27T12:50:41.000Z</time>
      </trkpt>
      <trkpt lat="45.15702" lon="10.79213">
        <ele>48.904454</ele>
        <time>2021-08-27T12:50:49.000Z</time>
      </trkpt>
      <trkpt lat="45.15686" lon="10.792">
        <ele>48.851491</ele>
        <time>2021-08-27T12:50:55.000Z</time>
      </trkpt>
      <trkpt lat="45.1568" lon="10.79194">
        <ele>48.830478</ele>
        <time>2021-08-27T12:50:59.000Z</time>
      </trkpt>
      <trkpt lat="45.15678" lon="10.79191">
        <ele>48.82139</ele>
        <time>2021-08-27T12:51:00.000Z</time>
      </trkpt>
      <trkpt lat="45.1566" lon="10.79169">
        <ele>48.753335</ele>
        <time>2021-08-27T12:51:07.000Z</time>
      </trkpt>
      <trkpt lat="45.15648" lon="10.79152">
        <ele>48.702997</ele>
        <time>2021-08-27T12:51:13.000Z</time>
      </trkpt>
      <trkpt lat="45.15649" lon="10.79139">
        <ele>48.676565</ele>
        <time>2021-08-27T12:51:17.000Z</time>
      </trkpt>
      <trkpt lat="45.15649" lon="10.79139">
        <ele>48.674771</ele>
        <time>2021-08-27T12:51:22.000Z</time>
      </trkpt>
      <trkpt lat="45.15651" lon="10.79141">
        <ele>48.66849</ele>
        <time>2021-08-27T12:51:30.000Z</time>
      </trkpt>
      <trkpt lat="45.15651" lon="10.79141">
        <ele>48.667777</ele>
        <time>2021-08-27T12:51:33.000Z</time>
      </trkpt>
      <trkpt lat="45.15651" lon="10.79141">
        <ele>48.667777</ele>
        <time>2021-08-27T12:51:36.000Z</time>
      </trkpt>
      <trkpt lat="45.15651" lon="10.79141">
        <ele>48.667777</ele>
        <time>2021-08-27T12:51:38.000Z</time>
      </trkpt>
      <trkpt lat="45.15651" lon="10.79141">
        <ele>48.667421</ele>
        <time>2021-08-27T12:51:43.000Z</time>
      </trkpt>
      <trkpt lat="45.15651" lon="10.79141">
        <ele>48.666804</ele>
        <time>2021-08-27T12:51:55.000Z</time>
      </trkpt>
      <trkpt lat="45.15651" lon="10.79141">
        <ele>48.666513</ele>
        <time>2021-08-27T12:51:56.000Z</time>
      </trkpt>
      <trkpt lat="45.15652" lon="10.79141">
        <ele>48.663352</ele>
        <time>2021-08-27T12:52:11.000Z</time>
      </trkpt>
      <trkpt lat="45.15652" lon="10.79141">
        <ele>48.66277</ele>
        <time>2021-08-27T12:52:15.000Z</time>
      </trkpt>
      <trkpt lat="45.15652" lon="10.79141">
        <ele>48.662188</ele>
        <time>2021-08-27T12:52:18.000Z</time>
      </trkpt>
      <trkpt lat="45.15652" lon="10.79141">
        <ele>48.662188</ele>
        <time>2021-08-27T12:52:19.000Z</time>
      </trkpt>
      <trkpt lat="45.15647" lon="10.79136">
        <ele>48.642642</ele>
        <time>2021-08-27T12:52:22.000Z</time>
      </trkpt>
      <trkpt lat="45.15636" lon="10.79123">
        <ele>48.62978</ele>
        <time>2021-08-27T12:52:27.000Z</time>
      </trkpt>
      <trkpt lat="45.15626" lon="10.79099">
        <ele>48.677929</ele>
        <time>2021-08-27T12:52:33.000Z</time>
      </trkpt>
      <trkpt lat="45.15625" lon="10.79094">
        <ele>48.686999</ele>
        <time>2021-08-27T12:52:34.000Z</time>
      </trkpt>
      <trkpt lat="45.15624" lon="10.79089">
        <ele>48.695837</ele>
        <time>2021-08-27T12:52:35.000Z</time>
      </trkpt>
      <trkpt lat="45.15622" lon="10.79081">
        <ele>48.712021</ele>
        <time>2021-08-27T12:52:37.000Z</time>
      </trkpt>
      <trkpt lat="45.15622" lon="10.79076">
        <ele>48.71966</ele>
        <time>2021-08-27T12:52:38.000Z</time>
      </trkpt>
      <trkpt lat="45.15617" lon="10.79052">
        <ele>48.763716</ele>
        <time>2021-08-27T12:52:43.000Z</time>
      </trkpt>
      <trkpt lat="45.15615" lon="10.79046">
        <ele>48.774064</ele>
        <time>2021-08-27T12:52:44.000Z</time>
      </trkpt>
      <trkpt lat="45.15607" lon="10.79007">
        <ele>48.845169</ele>
        <time>2021-08-27T12:52:51.000Z</time>
      </trkpt>
      <trkpt lat="45.15606" lon="10.79002">
        <ele>48.854402</ele>
        <time>2021-08-27T12:52:54.000Z</time>
      </trkpt>
      <trkpt lat="45.15605" lon="10.79">
        <ele>48.85865</ele>
        <time>2021-08-27T12:52:56.000Z</time>
      </trkpt>
      <trkpt lat="45.15604" lon="10.78999">
        <ele>48.860279</ele>
        <time>2021-08-27T12:52:58.000Z</time>
      </trkpt>
      <trkpt lat="45.15604" lon="10.78999">
        <ele>48.861181</ele>
        <time>2021-08-27T12:53:03.000Z</time>
      </trkpt>
      <trkpt lat="45.15604" lon="10.78997">
        <ele>48.865063</ele>
        <time>2021-08-27T12:53:10.000Z</time>
      </trkpt>
      <trkpt lat="45.15604" lon="10.78995">
        <ele>48.868537</ele>
        <time>2021-08-27T12:53:15.000Z</time>
      </trkpt>
      <trkpt lat="45.15604" lon="10.78995">
        <ele>48.868537</ele>
        <time>2021-08-27T12:53:17.000Z</time>
      </trkpt>
      <trkpt lat="45.15604" lon="10.78995">
        <ele>48.868783</ele>
        <time>2021-08-27T12:53:24.000Z</time>
      </trkpt>
      <trkpt lat="45.15604" lon="10.78995">
        <ele>48.869028</ele>
        <time>2021-08-27T12:53:31.000Z</time>
      </trkpt>
      <trkpt lat="45.15604" lon="10.78995">
        <ele>48.869375</ele>
        <time>2021-08-27T12:53:33.000Z</time>
      </trkpt>
      <trkpt lat="45.15604" lon="10.78995">
        <ele>48.869721</ele>
        <time>2021-08-27T12:53:37.000Z</time>
      </trkpt>
      <trkpt lat="45.15605" lon="10.78996">
        <ele>48.873555</ele>
        <time>2021-08-27T12:53:48.000Z</time>
      </trkpt>
      <trkpt lat="45.15606" lon="10.79">
        <ele>48.88026</ele>
        <time>2021-08-27T12:53:50.000Z</time>
      </trkpt>
      <trkpt lat="45.15606" lon="10.79005">
        <ele>48.888264</ele>
        <time>2021-08-27T12:53:52.000Z</time>
      </trkpt>
      <trkpt lat="45.15607" lon="10.79008">
        <ele>48.894902</ele>
        <time>2021-08-27T12:53:53.000Z</time>
      </trkpt>
      <trkpt lat="45.1561" lon="10.7902">
        <ele>48.916826</ele>
        <time>2021-08-27T12:53:56.000Z</time>
      </trkpt>
      <trkpt lat="45.15615" lon="10.79047">
        <ele>48.964753</ele>
        <time>2021-08-27T12:54:02.000Z</time>
      </trkpt>
      <trkpt lat="45.15616" lon="10.79052">
        <ele>48.973413</ele>
        <time>2021-08-27T12:54:03.000Z</time>
      </trkpt>
      <trkpt lat="45.15622" lon="10.79072">
        <ele>49.011229</ele>
        <time>2021-08-27T12:54:08.000Z</time>
      </trkpt>
      <trkpt lat="45.15623" lon="10.79075">
        <ele>49.017684</ele>
        <time>2021-08-27T12:54:09.000Z</time>
      </trkpt>
      <trkpt lat="45.15628" lon="10.79092">
        <ele>49.049384</ele>
        <time>2021-08-27T12:54:14.000Z</time>
      </trkpt>
      <trkpt lat="45.15639" lon="10.79116">
        <ele>49.113351</ele>
        <time>2021-08-27T12:54:20.000Z</time>
      </trkpt>
      <trkpt lat="45.15649" lon="10.79133">
        <ele>49.165606</ele>
        <time>2021-08-27T12:54:26.000Z</time>
      </trkpt>
      <trkpt lat="45.15652" lon="10.79133">
        <ele>49.176752</ele>
        <time>2021-08-27T12:54:27.000Z</time>
      </trkpt>
      <trkpt lat="45.15657" lon="10.79127">
        <ele>49.196839</ele>
        <time>2021-08-27T12:54:29.000Z</time>
      </trkpt>
      <trkpt lat="45.15664" lon="10.79114">
        <ele>49.236286</ele>
        <time>2021-08-27T12:54:33.000Z</time>
      </trkpt>
      <trkpt lat="45.15668" lon="10.79105">
        <ele>49.261538</ele>
        <time>2021-08-27T12:54:35.000Z</time>
      </trkpt>
      <trkpt lat="45.15683" lon="10.79081">
        <ele>49.338179</ele>
        <time>2021-08-27T12:54:41.000Z</time>
      </trkpt>
      <trkpt lat="45.15688" lon="10.79072">
        <ele>49.365468</ele>
        <time>2021-08-27T12:54:43.000Z</time>
      </trkpt>
      <trkpt lat="45.15694" lon="10.79062">
        <ele>49.395156</ele>
        <time>2021-08-27T12:54:45.000Z</time>
      </trkpt>
      <trkpt lat="45.15699" lon="10.79053">
        <ele>49.424322</ele>
        <time>2021-08-27T12:54:47.000Z</time>
      </trkpt>
      <trkpt lat="45.15701" lon="10.7905">
        <ele>49.435183</ele>
        <time>2021-08-27T12:54:48.000Z</time>
      </trkpt>
      <trkpt lat="45.15705" lon="10.79045">
        <ele>49.451838</ele>
        <time>2021-08-27T12:54:49.000Z</time>
      </trkpt>
      <trkpt lat="45.15717" lon="10.79028">
        <ele>49.509489</ele>
        <time>2021-08-27T12:54:53.000Z</time>
      </trkpt>
      <trkpt lat="45.1572" lon="10.79023">
        <ele>49.523501</ele>
        <time>2021-08-27T12:54:54.000Z</time>
      </trkpt>
      <trkpt lat="45.15728" lon="10.79007">
        <ele>49.571148</ele>
        <time>2021-08-27T12:54:58.000Z</time>
      </trkpt>
      <trkpt lat="45.15734" lon="10.79004">
        <ele>49.59299</ele>
        <time>2021-08-27T12:55:00.000Z</time>
      </trkpt>
      <trkpt lat="45.15738" lon="10.79002">
        <ele>49.6071</ele>
        <time>2021-08-27T12:55:01.000Z</time>
      </trkpt>
      <trkpt lat="45.15748" lon="10.79001">
        <ele>49.639564</ele>
        <time>2021-08-27T12:55:04.000Z</time>
      </trkpt>
      <trkpt lat="45.15757" lon="10.78998">
        <ele>49.665067</ele>
        <time>2021-08-27T12:55:07.000Z</time>
      </trkpt>
      <trkpt lat="45.15765" lon="10.78992">
        <ele>49.662814</ele>
        <time>2021-08-27T12:55:10.000Z</time>
      </trkpt>
      <trkpt lat="45.15767" lon="10.78988">
        <ele>49.661833</ele>
        <time>2021-08-27T12:55:11.000Z</time>
      </trkpt>
      <trkpt lat="45.1577" lon="10.78964">
        <ele>49.65748</ele>
        <time>2021-08-27T12:55:16.000Z</time>
      </trkpt>
      <trkpt lat="45.15768" lon="10.7894">
        <ele>49.653354</ele>
        <time>2021-08-27T12:55:20.000Z</time>
      </trkpt>
      <trkpt lat="45.15767" lon="10.78929">
        <ele>49.651293</ele>
        <time>2021-08-27T12:55:22.000Z</time>
      </trkpt>
      <trkpt lat="45.15767" lon="10.78924">
        <ele>49.650416</ele>
        <time>2021-08-27T12:55:23.000Z</time>
      </trkpt>
      <trkpt lat="45.15765" lon="10.78893">
        <ele>49.645046</ele>
        <time>2021-08-27T12:55:28.000Z</time>
      </trkpt>
      <trkpt lat="45.15764" lon="10.7888">
        <ele>49.642802</ele>
        <time>2021-08-27T12:55:30.000Z</time>
      </trkpt>
      <trkpt lat="45.15762" lon="10.78839">
        <ele>49.635638</ele>
        <time>2021-08-27T12:55:36.000Z</time>
      </trkpt>
      <trkpt lat="45.15761" lon="10.78821">
        <ele>49.632317</ele>
        <time>2021-08-27T12:55:39.000Z</time>
      </trkpt>
      <trkpt lat="45.1576" lon="10.78798">
        <ele>49.628294</ele>
        <time>2021-08-27T12:55:43.000Z</time>
      </trkpt>
      <trkpt lat="45.1576" lon="10.78792">
        <ele>49.627364</ele>
        <time>2021-08-27T12:55:45.000Z</time>
      </trkpt>
      <trkpt lat="45.1576" lon="10.78792">
        <ele>49.627201</ele>
        <time>2021-08-27T12:55:47.000Z</time>
      </trkpt>
      <trkpt lat="45.1576" lon="10.78792">
        <ele>49.627129</ele>
        <time>2021-08-27T12:55:49.000Z</time>
      </trkpt>
      <trkpt lat="45.1576" lon="10.78792">
        <ele>49.627059</ele>
        <time>2021-08-27T12:55:52.000Z</time>
      </trkpt>
      <trkpt lat="45.15761" lon="10.7879">
        <ele>49.626611</ele>
        <time>2021-08-27T12:55:56.000Z</time>
      </trkpt>
      <trkpt lat="45.1576" lon="10.78788">
        <ele>49.62626</ele>
        <time>2021-08-27T12:55:57.000Z</time>
      </trkpt>
      <trkpt lat="45.1576" lon="10.7878">
        <ele>49.624916</ele>
        <time>2021-08-27T12:56:00.000Z</time>
      </trkpt>
      <trkpt lat="45.15758" lon="10.78778">
        <ele>49.624373</ele>
        <time>2021-08-27T12:56:01.000Z</time>
      </trkpt>
      <trkpt lat="45.15757" lon="10.78778">
        <ele>49.624043</ele>
        <time>2021-08-27T12:56:02.000Z</time>
      </trkpt>
      <trkpt lat="45.15755" lon="10.78778">
        <ele>49.623622</ele>
        <time>2021-08-27T12:56:04.000Z</time>
      </trkpt>
      <trkpt lat="45.15756" lon="10.78774">
        <ele>49.622825</ele>
        <time>2021-08-27T12:56:06.000Z</time>
      </trkpt>
      <trkpt lat="45.15756" lon="10.78757">
        <ele>49.627967</ele>
        <time>2021-08-27T12:56:10.000Z</time>
      </trkpt>
      <trkpt lat="45.15759" lon="10.78722">
        <ele>49.677421</ele>
        <time>2021-08-27T12:56:17.000Z</time>
      </trkpt>
      <trkpt lat="45.15761" lon="10.78706">
        <ele>49.700795</ele>
        <time>2021-08-27T12:56:20.000Z</time>
      </trkpt>
      <trkpt lat="45.15761" lon="10.78697">
        <ele>49.714553</ele>
        <time>2021-08-27T12:56:22.000Z</time>
      </trkpt>
      <trkpt lat="45.15762" lon="10.78665">
        <ele>49.759109</ele>
        <time>2021-08-27T12:56:28.000Z</time>
      </trkpt>
      <trkpt lat="45.15759" lon="10.78645">
        <ele>49.788142</ele>
        <time>2021-08-27T12:56:32.000Z</time>
      </trkpt>
      <trkpt lat="45.15758" lon="10.78635">
        <ele>49.802699</ele>
        <time>2021-08-27T12:56:34.000Z</time>
      </trkpt>
      <trkpt lat="45.15753" lon="10.78591">
        <ele>49.865887</ele>
        <time>2021-08-27T12:56:42.000Z</time>
      </trkpt>
      <trkpt lat="45.15752" lon="10.7858">
        <ele>49.881779</ele>
        <time>2021-08-27T12:56:44.000Z</time>
      </trkpt>
      <trkpt lat="45.1575" lon="10.78558">
        <ele>49.912674</ele>
        <time>2021-08-27T12:56:48.000Z</time>
      </trkpt>
      <trkpt lat="45.15749" lon="10.78548">
        <ele>49.927063</ele>
        <time>2021-08-27T12:56:50.000Z</time>
      </trkpt>
      <trkpt lat="45.15748" lon="10.78525">
        <ele>49.959903</ele>
        <time>2021-08-27T12:56:54.000Z</time>
      </trkpt>
      <trkpt lat="45.15749" lon="10.78508">
        <ele>49.981424</ele>
        <time>2021-08-27T12:56:57.000Z</time>
      </trkpt>
      <trkpt lat="45.15747" lon="10.78471">
        <ele>49.943605</ele>
        <time>2021-08-27T12:57:04.000Z</time>
      </trkpt>
      <trkpt lat="45.15746" lon="10.78449">
        <ele>49.920626</ele>
        <time>2021-08-27T12:57:08.000Z</time>
      </trkpt>
      <trkpt lat="45.15745" lon="10.78427">
        <ele>49.898893</ele>
        <time>2021-08-27T12:57:12.000Z</time>
      </trkpt>
      <trkpt lat="45.15745" lon="10.78417">
        <ele>49.887788</ele>
        <time>2021-08-27T12:57:14.000Z</time>
      </trkpt>
      <trkpt lat="45.15743" lon="10.78381">
        <ele>49.851332</ele>
        <time>2021-08-27T12:57:21.000Z</time>
      </trkpt>
      <trkpt lat="45.15743" lon="10.78377">
        <ele>49.847394</ele>
        <time>2021-08-27T12:57:22.000Z</time>
      </trkpt>
      <trkpt lat="45.15741" lon="10.78337">
        <ele>49.806557</ele>
        <time>2021-08-27T12:57:30.000Z</time>
      </trkpt>
      <trkpt lat="45.15738" lon="10.78299">
        <ele>49.767571</ele>
        <time>2021-08-27T12:57:38.000Z</time>
      </trkpt>
      <trkpt lat="45.15737" lon="10.78277">
        <ele>49.745326</ele>
        <time>2021-08-27T12:57:43.000Z</time>
      </trkpt>
      <trkpt lat="45.15737" lon="10.7825">
        <ele>49.715224</ele>
        <time>2021-08-27T12:57:49.000Z</time>
      </trkpt>
      <trkpt lat="45.15737" lon="10.78247">
        <ele>49.711583</ele>
        <time>2021-08-27T12:57:50.000Z</time>
      </trkpt>
      <trkpt lat="45.15737" lon="10.78246">
        <ele>49.709676</ele>
        <time>2021-08-27T12:57:52.000Z</time>
      </trkpt>
      <trkpt lat="45.15738" lon="10.78246">
        <ele>49.708641</ele>
        <time>2021-08-27T12:57:57.000Z</time>
      </trkpt>
      <trkpt lat="45.15739" lon="10.78247">
        <ele>49.70651</ele>
        <time>2021-08-27T12:58:03.000Z</time>
      </trkpt>
      <trkpt lat="45.15739" lon="10.78248">
        <ele>49.706237</ele>
        <time>2021-08-27T12:58:06.000Z</time>
      </trkpt>
      <trkpt lat="45.15739" lon="10.78248">
        <ele>49.70545</ele>
        <time>2021-08-27T12:58:22.000Z</time>
      </trkpt>
      <trkpt lat="45.15739" lon="10.78248">
        <ele>49.705256</ele>
        <time>2021-08-27T12:58:24.000Z</time>
      </trkpt>
      <trkpt lat="45.1574" lon="10.78248">
        <ele>49.703316</ele>
        <time>2021-08-27T12:58:26.000Z</time>
      </trkpt>
      <trkpt lat="45.15742" lon="10.78245">
        <ele>49.697131</ele>
        <time>2021-08-27T12:58:28.000Z</time>
      </trkpt>
      <trkpt lat="45.15744" lon="10.78241">
        <ele>49.690979</ele>
        <time>2021-08-27T12:58:29.000Z</time>
      </trkpt>
      <trkpt lat="45.15747" lon="10.78229">
        <ele>49.673163</ele>
        <time>2021-08-27T12:58:32.000Z</time>
      </trkpt>
      <trkpt lat="45.15746" lon="10.78208">
        <ele>49.645111</ele>
        <time>2021-08-27T12:58:37.000Z</time>
      </trkpt>
      <trkpt lat="45.15742" lon="10.78185">
        <ele>49.611688</ele>
        <time>2021-08-27T12:58:42.000Z</time>
      </trkpt>
      <trkpt lat="45.1574" lon="10.78176">
        <ele>49.599118</ele>
        <time>2021-08-27T12:58:44.000Z</time>
      </trkpt>
      <trkpt lat="45.15742" lon="10.78165">
        <ele>49.5838</ele>
        <time>2021-08-27T12:58:47.000Z</time>
      </trkpt>
      <trkpt lat="45.15746" lon="10.7816">
        <ele>49.574682</ele>
        <time>2021-08-27T12:58:50.000Z</time>
      </trkpt>
      <trkpt lat="45.15749" lon="10.78158">
        <ele>49.568065</ele>
        <time>2021-08-27T12:58:52.000Z</time>
      </trkpt>
      <trkpt lat="45.15754" lon="10.78151">
        <ele>49.553683</ele>
        <time>2021-08-27T12:58:57.000Z</time>
      </trkpt>
      <trkpt lat="45.15756" lon="10.7815">
        <ele>49.549289</ele>
        <time>2021-08-27T12:59:01.000Z</time>
      </trkpt>
      <trkpt lat="45.15758" lon="10.7815">
        <ele>49.546518</ele>
        <time>2021-08-27T12:59:06.000Z</time>
      </trkpt>
      <trkpt lat="45.15755" lon="10.78148">
        <ele>49.54159</ele>
        <time>2021-08-27T12:59:13.000Z</time>
      </trkpt>
      <trkpt lat="45.15757" lon="10.7815">
        <ele>49.538575</ele>
        <time>2021-08-27T12:59:15.000Z</time>
      </trkpt>
      <trkpt lat="45.15763" lon="10.78151">
        <ele>49.526371</ele>
        <time>2021-08-27T12:59:21.000Z</time>
      </trkpt>
      <trkpt lat="45.15767" lon="10.78154">
        <ele>49.517306</ele>
        <time>2021-08-27T12:59:23.000Z</time>
      </trkpt>
      <trkpt lat="45.15771" lon="10.7816">
        <ele>49.505599</ele>
        <time>2021-08-27T12:59:25.000Z</time>
      </trkpt>
      <trkpt lat="45.15775" lon="10.78167">
        <ele>49.493409</ele>
        <time>2021-08-27T12:59:27.000Z</time>
      </trkpt>
      <trkpt lat="45.15778" lon="10.78175">
        <ele>49.480403</ele>
        <time>2021-08-27T12:59:29.000Z</time>
      </trkpt>
      <trkpt lat="45.15784" lon="10.78182">
        <ele>49.466063</ele>
        <time>2021-08-27T12:59:31.000Z</time>
      </trkpt>
      <trkpt lat="45.1579" lon="10.78189">
        <ele>49.451732</ele>
        <time>2021-08-27T12:59:33.000Z</time>
      </trkpt>
      <trkpt lat="45.15791" lon="10.78194">
        <ele>49.444696</ele>
        <time>2021-08-27T12:59:34.000Z</time>
      </trkpt>
      <trkpt lat="45.15792" lon="10.78202">
        <ele>49.43226</ele>
        <time>2021-08-27T12:59:36.000Z</time>
      </trkpt>
      <trkpt lat="45.15799" lon="10.78218">
        <ele>49.407075</ele>
        <time>2021-08-27T12:59:39.000Z</time>
      </trkpt>
      <trkpt lat="45.15795" lon="10.78223">
        <ele>49.397381</ele>
        <time>2021-08-27T12:59:40.000Z</time>
      </trkpt>
      <trkpt lat="45.1579" lon="10.78226">
        <ele>49.387203</ele>
        <time>2021-08-27T12:59:41.000Z</time>
      </trkpt>
      <trkpt lat="45.15784" lon="10.78234">
        <ele>49.384718</ele>
        <time>2021-08-27T12:59:44.000Z</time>
      </trkpt>
      <trkpt lat="45.15782" lon="10.78238">
        <ele>49.402466</ele>
        <time>2021-08-27T12:59:46.000Z</time>
      </trkpt>
      <trkpt lat="45.15782" lon="10.78242">
        <ele>49.414864</ele>
        <time>2021-08-27T12:59:48.000Z</time>
      </trkpt>
      <trkpt lat="45.15793" lon="10.78249">
        <ele>49.482158</ele>
        <time>2021-08-27T12:59:52.000Z</time>
      </trkpt>
      <trkpt lat="45.15797" lon="10.78255">
        <ele>49.511524</ele>
        <time>2021-08-27T12:59:53.000Z</time>
      </trkpt>
      <trkpt lat="45.15803" lon="10.78267">
        <ele>49.568935</ele>
        <time>2021-08-27T12:59:56.000Z</time>
      </trkpt>
      <trkpt lat="45.15809" lon="10.78281">
        <ele>49.632342</ele>
        <time>2021-08-27T12:59:59.000Z</time>
      </trkpt>
      <trkpt lat="45.15818" lon="10.78299">
        <ele>49.71726</ele>
        <time>2021-08-27T13:00:03.000Z</time>
      </trkpt>
      <trkpt lat="45.15835" lon="10.78339">
        <ele>49.896576</ele>
        <time>2021-08-27T13:00:11.000Z</time>
      </trkpt>
      <trkpt lat="45.15846" lon="10.78365">
        <ele>50.016251</ele>
        <time>2021-08-27T13:00:17.000Z</time>
      </trkpt>
      <trkpt lat="45.15858" lon="10.78394">
        <ele>50.144464</ele>
        <time>2021-08-27T13:00:23.000Z</time>
      </trkpt>
      <trkpt lat="45.15859" lon="10.7841">
        <ele>50.207329</ele>
        <time>2021-08-27T13:00:27.000Z</time>
      </trkpt>
      <trkpt lat="45.15858" lon="10.78415">
        <ele>50.22828</ele>
        <time>2021-08-27T13:00:29.000Z</time>
      </trkpt>
      <trkpt lat="45.15857" lon="10.78417">
        <ele>50.237035</ele>
        <time>2021-08-27T13:00:31.000Z</time>
      </trkpt>
      <trkpt lat="45.15858" lon="10.78416">
        <ele>50.243319</ele>
        <time>2021-08-27T13:00:42.000Z</time>
      </trkpt>
      <trkpt lat="45.15858" lon="10.78416">
        <ele>50.243319</ele>
        <time>2021-08-27T13:00:50.000Z</time>
      </trkpt>
      <trkpt lat="45.15858" lon="10.78416">
        <ele>50.243705</ele>
        <time>2021-08-27T13:00:54.000Z</time>
      </trkpt>
      <trkpt lat="45.15857" lon="10.78419">
        <ele>50.253896</ele>
        <time>2021-08-27T13:01:04.000Z</time>
      </trkpt>
      <trkpt lat="45.15858" lon="10.78425">
        <ele>50.277315</ele>
        <time>2021-08-27T13:01:06.000Z</time>
      </trkpt>
      <trkpt lat="45.1586" lon="10.78432">
        <ele>50.309536</ele>
        <time>2021-08-27T13:01:08.000Z</time>
      </trkpt>
      <trkpt lat="45.15863" lon="10.78441">
        <ele>50.346509</ele>
        <time>2021-08-27T13:01:10.000Z</time>
      </trkpt>
      <trkpt lat="45.15865" lon="10.78446">
        <ele>50.361313</ele>
        <time>2021-08-27T13:01:11.000Z</time>
      </trkpt>
      <trkpt lat="45.15867" lon="10.78456">
        <ele>50.376926</ele>
        <time>2021-08-27T13:01:13.000Z</time>
      </trkpt>
      <trkpt lat="45.1587" lon="10.78465">
        <ele>50.391951</ele>
        <time>2021-08-27T13:01:15.000Z</time>
      </trkpt>
      <trkpt lat="45.15876" lon="10.78479">
        <ele>50.415728</ele>
        <time>2021-08-27T13:01:18.000Z</time>
      </trkpt>
      <trkpt lat="45.15889" lon="10.78495">
        <ele>50.453314</ele>
        <time>2021-08-27T13:01:24.000Z</time>
      </trkpt>
      <trkpt lat="45.15895" lon="10.78507">
        <ele>50.475893</ele>
        <time>2021-08-27T13:01:28.000Z</time>
      </trkpt>
      <trkpt lat="45.15899" lon="10.7851">
        <ele>50.485467</ele>
        <time>2021-08-27T13:01:30.000Z</time>
      </trkpt>
      <trkpt lat="45.15902" lon="10.7851">
        <ele>50.490166</ele>
        <time>2021-08-27T13:01:31.000Z</time>
      </trkpt>
      <trkpt lat="45.15904" lon="10.78511">
        <ele>50.494794</ele>
        <time>2021-08-27T13:01:32.000Z</time>
      </trkpt>
      <trkpt lat="45.15908" lon="10.78518">
        <ele>50.509396</ele>
        <time>2021-08-27T13:01:35.000Z</time>
      </trkpt>
      <trkpt lat="45.15914" lon="10.78529">
        <ele>50.530276</ele>
        <time>2021-08-27T13:01:38.000Z</time>
      </trkpt>
      <trkpt lat="45.1592" lon="10.78541">
        <ele>50.552779</ele>
        <time>2021-08-27T13:01:41.000Z</time>
      </trkpt>
      <trkpt lat="45.15925" lon="10.78549">
        <ele>50.567579</ele>
        <time>2021-08-27T13:01:43.000Z</time>
      </trkpt>
      <trkpt lat="45.15941" lon="10.78576">
        <ele>50.621086</ele>
        <time>2021-08-27T13:01:50.000Z</time>
      </trkpt>
      <trkpt lat="45.15962" lon="10.78606">
        <ele>50.684193</ele>
        <time>2021-08-27T13:01:58.000Z</time>
      </trkpt>
      <trkpt lat="45.1597" lon="10.78617">
        <ele>50.708353</ele>
        <time>2021-08-27T13:02:01.000Z</time>
      </trkpt>
      <trkpt lat="45.15976" lon="10.78624">
        <ele>50.724845</ele>
        <time>2021-08-27T13:02:03.000Z</time>
      </trkpt>
      <trkpt lat="45.15981" lon="10.78631">
        <ele>50.740558</ele>
        <time>2021-08-27T13:02:05.000Z</time>
      </trkpt>
      <trkpt lat="45.15986" lon="10.78638">
        <ele>50.742624</ele>
        <time>2021-08-27T13:02:07.000Z</time>
      </trkpt>
      <trkpt lat="45.1602" lon="10.78681">
        <ele>50.751519</ele>
        <time>2021-08-27T13:02:19.000Z</time>
      </trkpt>
      <trkpt lat="45.16025" lon="10.78687">
        <ele>50.752932</ele>
        <time>2021-08-27T13:02:21.000Z</time>
      </trkpt>
      <trkpt lat="45.16043" lon="10.78709">
        <ele>50.757575</ele>
        <time>2021-08-27T13:02:27.000Z</time>
      </trkpt>
      <trkpt lat="45.16055" lon="10.78724">
        <ele>50.760744</ele>
        <time>2021-08-27T13:02:31.000Z</time>
      </trkpt>
      <trkpt lat="45.16082" lon="10.78755">
        <ele>50.767745</ele>
        <time>2021-08-27T13:02:40.000Z</time>
      </trkpt>
      <trkpt lat="45.16117" lon="10.78782">
        <ele>50.775667</ele>
        <time>2021-08-27T13:02:50.000Z</time>
      </trkpt>
      <trkpt lat="45.16134" lon="10.78794">
        <ele>50.777311</ele>
        <time>2021-08-27T13:02:54.000Z</time>
      </trkpt>
      <trkpt lat="45.16151" lon="10.78806">
        <ele>50.777811</ele>
        <time>2021-08-27T13:02:58.000Z</time>
      </trkpt>
      <trkpt lat="45.16169" lon="10.78818">
        <ele>50.778313</ele>
        <time>2021-08-27T13:03:02.000Z</time>
      </trkpt>
      <trkpt lat="45.16178" lon="10.78824">
        <ele>50.778556</ele>
        <time>2021-08-27T13:03:04.000Z</time>
      </trkpt>
      <trkpt lat="45.16187" lon="10.78829">
        <ele>50.778801</ele>
        <time>2021-08-27T13:03:06.000Z</time>
      </trkpt>
      <trkpt lat="45.16196" lon="10.78833">
        <ele>50.779046</ele>
        <time>2021-08-27T13:03:08.000Z</time>
      </trkpt>
      <trkpt lat="45.1621" lon="10.78839">
        <ele>50.779428</ele>
        <time>2021-08-27T13:03:11.000Z</time>
      </trkpt>
      <trkpt lat="45.16225" lon="10.78845">
        <ele>50.779811</ele>
        <time>2021-08-27T13:03:14.000Z</time>
      </trkpt>
      <trkpt lat="45.16229" lon="10.78846">
        <ele>50.779939</ele>
        <time>2021-08-27T13:03:15.000Z</time>
      </trkpt>
      <trkpt lat="45.16274" lon="10.78856">
        <ele>50.781085</ele>
        <time>2021-08-27T13:03:24.000Z</time>
      </trkpt>
      <trkpt lat="45.16308" lon="10.78857">
        <ele>50.704892</ele>
        <time>2021-08-27T13:03:31.000Z</time>
      </trkpt>
      <trkpt lat="45.16323" lon="10.78856">
        <ele>50.627842</ele>
        <time>2021-08-27T13:03:34.000Z</time>
      </trkpt>
      <trkpt lat="45.16365" lon="10.78856">
        <ele>50.398352</ele>
        <time>2021-08-27T13:03:43.000Z</time>
      </trkpt>
      <trkpt lat="45.1637" lon="10.78856">
        <ele>50.374108</ele>
        <time>2021-08-27T13:03:44.000Z</time>
      </trkpt>
      <trkpt lat="45.1641" lon="10.78853">
        <ele>50.15725</ele>
        <time>2021-08-27T13:03:53.000Z</time>
      </trkpt>
      <trkpt lat="45.16454" lon="10.78847">
        <ele>49.917659</ele>
        <time>2021-08-27T13:04:04.000Z</time>
      </trkpt>
      <trkpt lat="45.16458" lon="10.78847">
        <ele>49.899845</ele>
        <time>2021-08-27T13:04:08.000Z</time>
      </trkpt>
      <trkpt lat="45.16458" lon="10.78847">
        <ele>49.898585</ele>
        <time>2021-08-27T13:04:09.000Z</time>
      </trkpt>
      <trkpt lat="45.16458" lon="10.78846">
        <ele>49.897324</ele>
        <time>2021-08-27T13:04:17.000Z</time>
      </trkpt>
      <trkpt lat="45.16458" lon="10.78846">
        <ele>49.897324</ele>
        <time>2021-08-27T13:04:24.000Z</time>
      </trkpt>
      <trkpt lat="45.1646" lon="10.78845">
        <ele>49.886269</ele>
        <time>2021-08-27T13:04:28.000Z</time>
      </trkpt>
      <trkpt lat="45.16462" lon="10.78845">
        <ele>49.871483</ele>
        <time>2021-08-27T13:04:29.000Z</time>
      </trkpt>
      <trkpt lat="45.16479" lon="10.78841">
        <ele>49.787091</ele>
        <time>2021-08-27T13:04:33.000Z</time>
      </trkpt>
      <trkpt lat="45.16493" lon="10.78839">
        <ele>49.729255</ele>
        <time>2021-08-27T13:04:36.000Z</time>
      </trkpt>
      <trkpt lat="45.16501" lon="10.78837">
        <ele>49.698886</ele>
        <time>2021-08-27T13:04:38.000Z</time>
      </trkpt>
      <trkpt lat="45.16504" lon="10.78835">
        <ele>49.684805</ele>
        <time>2021-08-27T13:04:39.000Z</time>
      </trkpt>
      <trkpt lat="45.16506" lon="10.78831">
        <ele>49.669507</ele>
        <time>2021-08-27T13:04:40.000Z</time>
      </trkpt>
      <trkpt lat="45.16509" lon="10.78821">
        <ele>49.63623</ele>
        <time>2021-08-27T13:04:42.000Z</time>
      </trkpt>
      <trkpt lat="45.16511" lon="10.78808">
        <ele>49.599231</ele>
        <time>2021-08-27T13:04:44.000Z</time>
      </trkpt>
      <trkpt lat="45.16516" lon="10.78801">
        <ele>49.570504</ele>
        <time>2021-08-27T13:04:46.000Z</time>
      </trkpt>
      <trkpt lat="45.16543" lon="10.78796">
        <ele>49.459581</ele>
        <time>2021-08-27T13:04:52.000Z</time>
      </trkpt>
      <trkpt lat="45.16578" lon="10.78793">
        <ele>49.314562</ele>
        <time>2021-08-27T13:05:00.000Z</time>
      </trkpt>
      <trkpt lat="45.16582" lon="10.78792">
        <ele>49.297914</ele>
        <time>2021-08-27T13:05:01.000Z</time>
      </trkpt>
      <trkpt lat="45.16599" lon="10.78788">
        <ele>49.228543</ele>
        <time>2021-08-27T13:05:05.000Z</time>
      </trkpt>
      <trkpt lat="45.16611" lon="10.78781">
        <ele>49.174382</ele>
        <time>2021-08-27T13:05:08.000Z</time>
      </trkpt>
      <trkpt lat="45.16639" lon="10.78772">
        <ele>49.069649</ele>
        <time>2021-08-27T13:05:14.000Z</time>
      </trkpt>
      <trkpt lat="45.16643" lon="10.78771">
        <ele>49.064105</ele>
        <time>2021-08-27T13:05:15.000Z</time>
      </trkpt>
      <trkpt lat="45.16656" lon="10.78767">
        <ele>49.047433</ele>
        <time>2021-08-27T13:05:18.000Z</time>
      </trkpt>
      <trkpt lat="45.1666" lon="10.78766">
        <ele>49.041535</ele>
        <time>2021-08-27T13:05:19.000Z</time>
      </trkpt>
      <trkpt lat="45.16674" lon="10.78763">
        <ele>49.023391</ele>
        <time>2021-08-27T13:05:22.000Z</time>
      </trkpt>
      <trkpt lat="45.16684" lon="10.7876">
        <ele>49.010879</ele>
        <time>2021-08-27T13:05:24.000Z</time>
      </trkpt>
      <trkpt lat="45.16694" lon="10.78758">
        <ele>48.997897</ele>
        <time>2021-08-27T13:05:26.000Z</time>
      </trkpt>
      <trkpt lat="45.16714" lon="10.78754">
        <ele>48.971466</ele>
        <time>2021-08-27T13:05:30.000Z</time>
      </trkpt>
      <trkpt lat="45.16761" lon="10.78741">
        <ele>48.911353</ele>
        <time>2021-08-27T13:05:39.000Z</time>
      </trkpt>
      <trkpt lat="45.16774" lon="10.7874">
        <ele>48.893644</ele>
        <time>2021-08-27T13:05:42.000Z</time>
      </trkpt>
      <trkpt lat="45.16788" lon="10.7874">
        <ele>48.875739</ele>
        <time>2021-08-27T13:05:45.000Z</time>
      </trkpt>
      <trkpt lat="45.1682" lon="10.78736">
        <ele>48.81597</ele>
        <time>2021-08-27T13:05:51.000Z</time>
      </trkpt>
      <trkpt lat="45.16857" lon="10.78729">
        <ele>48.689416</ele>
        <time>2021-08-27T13:05:57.000Z</time>
      </trkpt>
      <trkpt lat="45.16862" lon="10.78728">
        <ele>48.67167</ele>
        <time>2021-08-27T13:05:58.000Z</time>
      </trkpt>
      <trkpt lat="45.16867" lon="10.78727">
        <ele>48.654229</ele>
        <time>2021-08-27T13:05:59.000Z</time>
      </trkpt>
      <trkpt lat="45.16885" lon="10.78723">
        <ele>48.592584</ele>
        <time>2021-08-27T13:06:03.000Z</time>
      </trkpt>
      <trkpt lat="45.16901" lon="10.7872">
        <ele>48.533962</ele>
        <time>2021-08-27T13:06:07.000Z</time>
      </trkpt>
      <trkpt lat="45.1691" lon="10.78717">
        <ele>48.504945</ele>
        <time>2021-08-27T13:06:09.000Z</time>
      </trkpt>
      <trkpt lat="45.16939" lon="10.78708">
        <ele>48.402405</ele>
        <time>2021-08-27T13:06:15.000Z</time>
      </trkpt>
      <trkpt lat="45.16954" lon="10.78704">
        <ele>48.348733</ele>
        <time>2021-08-27T13:06:18.000Z</time>
      </trkpt>
      <trkpt lat="45.17001" lon="10.78689">
        <ele>48.185757</ele>
        <time>2021-08-27T13:06:27.000Z</time>
      </trkpt>
      <trkpt lat="45.17007" lon="10.78688">
        <ele>48.168704</ele>
        <time>2021-08-27T13:06:28.000Z</time>
      </trkpt>
      <trkpt lat="45.17038" lon="10.78677">
        <ele>48.067331</ele>
        <time>2021-08-27T13:06:35.000Z</time>
      </trkpt>
      <trkpt lat="45.17045" lon="10.78674">
        <ele>48.044698</ele>
        <time>2021-08-27T13:06:37.000Z</time>
      </trkpt>
      <trkpt lat="45.1706" lon="10.78669">
        <ele>47.996016</ele>
        <time>2021-08-27T13:06:41.000Z</time>
      </trkpt>
      <trkpt lat="45.17068" lon="10.78666">
        <ele>47.970611</ele>
        <time>2021-08-27T13:06:43.000Z</time>
      </trkpt>
      <trkpt lat="45.17077" lon="10.78666">
        <ele>47.944083</ele>
        <time>2021-08-27T13:06:45.000Z</time>
      </trkpt>
      <trkpt lat="45.17086" lon="10.78667">
        <ele>47.916479</ele>
        <time>2021-08-27T13:06:47.000Z</time>
      </trkpt>
      <trkpt lat="45.17094" lon="10.78667">
        <ele>47.890886</ele>
        <time>2021-08-27T13:06:49.000Z</time>
      </trkpt>
      <trkpt lat="45.17105" lon="10.78665">
        <ele>47.857017</ele>
        <time>2021-08-27T13:06:52.000Z</time>
      </trkpt>
      <trkpt lat="45.1712" lon="10.78652">
        <ele>47.802148</ele>
        <time>2021-08-27T13:06:57.000Z</time>
      </trkpt>
      <trkpt lat="45.17123" lon="10.78638">
        <ele>47.769504</ele>
        <time>2021-08-27T13:07:00.000Z</time>
      </trkpt>
      <trkpt lat="45.17122" lon="10.78609">
        <ele>47.705698</ele>
        <time>2021-08-27T13:07:06.000Z</time>
      </trkpt>
      <trkpt lat="45.17121" lon="10.78571">
        <ele>47.695684</ele>
        <time>2021-08-27T13:07:13.000Z</time>
      </trkpt>
      <trkpt lat="45.1712" lon="10.78559">
        <ele>47.715621</ele>
        <time>2021-08-27T13:07:15.000Z</time>
      </trkpt>
      <trkpt lat="45.17121" lon="10.78516">
        <ele>47.787319</ele>
        <time>2021-08-27T13:07:24.000Z</time>
      </trkpt>
      <trkpt lat="45.17126" lon="10.78509">
        <ele>47.803252</ele>
        <time>2021-08-27T13:07:27.000Z</time>
      </trkpt>
      <trkpt lat="45.17131" lon="10.78508">
        <ele>47.815809</ele>
        <time>2021-08-27T13:07:29.000Z</time>
      </trkpt>
      <trkpt lat="45.17151" lon="10.78508">
        <ele>47.863027</ele>
        <time>2021-08-27T13:07:35.000Z</time>
      </trkpt>
      <trkpt lat="45.17158" lon="10.78506">
        <ele>47.880073</ele>
        <time>2021-08-27T13:07:39.000Z</time>
      </trkpt>
      <trkpt lat="45.17169" lon="10.78502">
        <ele>47.905562</ele>
        <time>2021-08-27T13:07:43.000Z</time>
      </trkpt>
      <trkpt lat="45.17172" lon="10.78501">
        <ele>47.913864</ele>
        <time>2021-08-27T13:07:44.000Z</time>
      </trkpt>
      <trkpt lat="45.17205" lon="10.78495">
        <ele>47.992045</ele>
        <time>2021-08-27T13:07:52.000Z</time>
      </trkpt>
      <trkpt lat="45.17228" lon="10.78492">
        <ele>48.046979</ele>
        <time>2021-08-27T13:07:57.000Z</time>
      </trkpt>
      <trkpt lat="45.17243" lon="10.7849">
        <ele>48.081518</ele>
        <time>2021-08-27T13:08:00.000Z</time>
      </trkpt>
      <trkpt lat="45.17279" lon="10.78483">
        <ele>48.099066</ele>
        <time>2021-08-27T13:08:07.000Z</time>
      </trkpt>
      <trkpt lat="45.17305" lon="10.7848">
        <ele>48.108111</ele>
        <time>2021-08-27T13:08:12.000Z</time>
      </trkpt>
      <trkpt lat="45.17309" lon="10.78478">
        <ele>48.109825</ele>
        <time>2021-08-27T13:08:13.000Z</time>
      </trkpt>
      <trkpt lat="45.17314" lon="10.78476">
        <ele>48.111445</ele>
        <time>2021-08-27T13:08:14.000Z</time>
      </trkpt>
      <trkpt lat="45.1732" lon="10.78468">
        <ele>48.114314</ele>
        <time>2021-08-27T13:08:16.000Z</time>
      </trkpt>
      <trkpt lat="45.17319" lon="10.78453">
        <ele>48.118107</ele>
        <time>2021-08-27T13:08:19.000Z</time>
      </trkpt>
      <trkpt lat="45.17317" lon="10.78448">
        <ele>48.119507</ele>
        <time>2021-08-27T13:08:20.000Z</time>
      </trkpt>
      <trkpt lat="45.17314" lon="10.78438">
        <ele>48.122231</ele>
        <time>2021-08-27T13:08:22.000Z</time>
      </trkpt>
      <trkpt lat="45.17306" lon="10.78417">
        <ele>48.128078</ele>
        <time>2021-08-27T13:08:26.000Z</time>
      </trkpt>
      <trkpt lat="45.17298" lon="10.78395">
        <ele>48.134202</ele>
        <time>2021-08-27T13:08:30.000Z</time>
      </trkpt>
      <trkpt lat="45.17291" lon="10.7838">
        <ele>48.138714</ele>
        <time>2021-08-27T13:08:33.000Z</time>
      </trkpt>
      <trkpt lat="45.1729" lon="10.78375">
        <ele>48.140192</ele>
        <time>2021-08-27T13:08:34.000Z</time>
      </trkpt>
      <trkpt lat="45.17282" lon="10.78347">
        <ele>48.14775</ele>
        <time>2021-08-27T13:08:39.000Z</time>
      </trkpt>
      <trkpt lat="45.17278" lon="10.78337">
        <ele>48.150693</ele>
        <time>2021-08-27T13:08:41.000Z</time>
      </trkpt>
      <trkpt lat="45.17277" lon="10.78331">
        <ele>48.105283</ele>
        <time>2021-08-27T13:08:42.000Z</time>
      </trkpt>
      <trkpt lat="45.17268" lon="10.78304">
        <ele>47.851442</ele>
        <time>2021-08-27T13:08:48.000Z</time>
      </trkpt>
      <trkpt lat="45.17264" lon="10.78294">
        <ele>47.753933</ele>
        <time>2021-08-27T13:08:51.000Z</time>
      </trkpt>
      <trkpt lat="45.17267" lon="10.78288">
        <ele>47.695546</ele>
        <time>2021-08-27T13:08:53.000Z</time>
      </trkpt>
      <trkpt lat="45.17278" lon="10.78282">
        <ele>47.553134</ele>
        <time>2021-08-27T13:08:56.000Z</time>
      </trkpt>
      <trkpt lat="45.17283" lon="10.7828">
        <ele>47.495521</ele>
        <time>2021-08-27T13:08:57.000Z</time>
      </trkpt>
      <trkpt lat="45.17287" lon="10.78279">
        <ele>47.439704</ele>
        <time>2021-08-27T13:08:58.000Z</time>
      </trkpt>
      <trkpt lat="45.1731" lon="10.78268">
        <ele>47.155865</ele>
        <time>2021-08-27T13:09:03.000Z</time>
      </trkpt>
      <trkpt lat="45.17319" lon="10.78264">
        <ele>47.032539</ele>
        <time>2021-08-27T13:09:05.000Z</time>
      </trkpt>
      <trkpt lat="45.17334" lon="10.78256">
        <ele>46.839766</ele>
        <time>2021-08-27T13:09:08.000Z</time>
      </trkpt>
      <trkpt lat="45.17339" lon="10.78254">
        <ele>46.778532</ele>
        <time>2021-08-27T13:09:09.000Z</time>
      </trkpt>
      <trkpt lat="45.17344" lon="10.78252">
        <ele>46.718036</ele>
        <time>2021-08-27T13:09:10.000Z</time>
      </trkpt>
      <trkpt lat="45.17354" lon="10.78252">
        <ele>46.6001</ele>
        <time>2021-08-27T13:09:12.000Z</time>
      </trkpt>
      <trkpt lat="45.17359" lon="10.78254">
        <ele>46.537596</ele>
        <time>2021-08-27T13:09:13.000Z</time>
      </trkpt>
      <trkpt lat="45.17364" lon="10.78257">
        <ele>46.475234</ele>
        <time>2021-08-27T13:09:14.000Z</time>
      </trkpt>
      <trkpt lat="45.17371" lon="10.78266">
        <ele>46.35612</ele>
        <time>2021-08-27T13:09:16.000Z</time>
      </trkpt>
      <trkpt lat="45.17374" lon="10.78272">
        <ele>46.295059</ele>
        <time>2021-08-27T13:09:17.000Z</time>
      </trkpt>
      <trkpt lat="45.17377" lon="10.78279">
        <ele>46.232823</ele>
        <time>2021-08-27T13:09:18.000Z</time>
      </trkpt>
      <trkpt lat="45.17378" lon="10.78286">
        <ele>46.168827</ele>
        <time>2021-08-27T13:09:19.000Z</time>
      </trkpt>
      <trkpt lat="45.1738" lon="10.78301">
        <ele>46.040785</ele>
        <time>2021-08-27T13:09:21.000Z</time>
      </trkpt>
      <trkpt lat="45.17388" lon="10.78338">
        <ele>45.965876</ele>
        <time>2021-08-27T13:09:26.000Z</time>
      </trkpt>
      <trkpt lat="45.17394" lon="10.78356">
        <ele>45.952907</ele>
        <time>2021-08-27T13:09:29.000Z</time>
      </trkpt>
      <trkpt lat="45.17397" lon="10.78362">
        <ele>45.948586</ele>
        <time>2021-08-27T13:09:30.000Z</time>
      </trkpt>
      <trkpt lat="45.17404" lon="10.78369">
        <ele>45.94048</ele>
        <time>2021-08-27T13:09:32.000Z</time>
      </trkpt>
      <trkpt lat="45.17414" lon="10.78378">
        <ele>45.929728</ele>
        <time>2021-08-27T13:09:36.000Z</time>
      </trkpt>
      <trkpt lat="45.17414" lon="10.78382">
        <ele>45.927179</ele>
        <time>2021-08-27T13:09:37.000Z</time>
      </trkpt>
      <trkpt lat="45.17412" lon="10.78388">
        <ele>45.922506</ele>
        <time>2021-08-27T13:09:39.000Z</time>
      </trkpt>
      <trkpt lat="45.17414" lon="10.78406">
        <ele>45.91084</ele>
        <time>2021-08-27T13:09:43.000Z</time>
      </trkpt>
      <trkpt lat="45.1742" lon="10.78434">
        <ele>45.892177</ele>
        <time>2021-08-27T13:09:48.000Z</time>
      </trkpt>
      <trkpt lat="45.17424" lon="10.78453">
        <ele>45.879921</ele>
        <time>2021-08-27T13:09:51.000Z</time>
      </trkpt>
      <trkpt lat="45.17432" lon="10.7847">
        <ele>45.86695</ele>
        <time>2021-08-27T13:09:54.000Z</time>
      </trkpt>
      <trkpt lat="45.17441" lon="10.78486">
        <ele>45.854014</ele>
        <time>2021-08-27T13:09:57.000Z</time>
      </trkpt>
      <trkpt lat="45.17451" lon="10.785">
        <ele>45.84133</ele>
        <time>2021-08-27T13:10:00.000Z</time>
      </trkpt>
      <trkpt lat="45.17454" lon="10.78505">
        <ele>45.837105</ele>
        <time>2021-08-27T13:10:01.000Z</time>
      </trkpt>
      <trkpt lat="45.17457" lon="10.78509">
        <ele>45.833035</ele>
        <time>2021-08-27T13:10:02.000Z</time>
      </trkpt>
      <trkpt lat="45.17468" lon="10.78522">
        <ele>45.883946</ele>
        <time>2021-08-27T13:10:05.000Z</time>
      </trkpt>
      <trkpt lat="45.17476" lon="10.78528">
        <ele>46.017611</ele>
        <time>2021-08-27T13:10:07.000Z</time>
      </trkpt>
      <trkpt lat="45.17481" lon="10.7853">
        <ele>46.08582</ele>
        <time>2021-08-27T13:10:08.000Z</time>
      </trkpt>
      <trkpt lat="45.17494" lon="10.78533">
        <ele>46.278823</ele>
        <time>2021-08-27T13:10:11.000Z</time>
      </trkpt>
      <trkpt lat="45.17503" lon="10.78531">
        <ele>46.399683</ele>
        <time>2021-08-27T13:10:13.000Z</time>
      </trkpt>
      <trkpt lat="45.17511" lon="10.78527">
        <ele>46.532439</ele>
        <time>2021-08-27T13:10:15.000Z</time>
      </trkpt>
      <trkpt lat="45.1752" lon="10.7852">
        <ele>46.668735</ele>
        <time>2021-08-27T13:10:17.000Z</time>
      </trkpt>
      <trkpt lat="45.17529" lon="10.78516">
        <ele>46.810935</ele>
        <time>2021-08-27T13:10:19.000Z</time>
      </trkpt>
      <trkpt lat="45.17535" lon="10.78515">
        <ele>46.885421</ele>
        <time>2021-08-27T13:10:20.000Z</time>
      </trkpt>
      <trkpt lat="45.1754" lon="10.78515">
        <ele>46.958487</ele>
        <time>2021-08-27T13:10:21.000Z</time>
      </trkpt>
      <trkpt lat="45.17545" lon="10.78514">
        <ele>47.033075</ele>
        <time>2021-08-27T13:10:22.000Z</time>
      </trkpt>
      <trkpt lat="45.17564" lon="10.78508">
        <ele>47.317402</ele>
        <time>2021-08-27T13:10:26.000Z</time>
      </trkpt>
      <trkpt lat="45.17579" lon="10.78502">
        <ele>47.532791</ele>
        <time>2021-08-27T13:10:29.000Z</time>
      </trkpt>
      <trkpt lat="45.17609" lon="10.78489">
        <ele>47.977872</ele>
        <time>2021-08-27T13:10:35.000Z</time>
      </trkpt>
      <trkpt lat="45.17623" lon="10.78485">
        <ele>48.190509</ele>
        <time>2021-08-27T13:10:38.000Z</time>
      </trkpt>
      <trkpt lat="45.17627" lon="10.78484">
        <ele>48.247868</ele>
        <time>2021-08-27T13:10:39.000Z</time>
      </trkpt>
      <trkpt lat="45.17631" lon="10.78484">
        <ele>48.297778</ele>
        <time>2021-08-27T13:10:40.000Z</time>
      </trkpt>
      <trkpt lat="45.17637" lon="10.78483">
        <ele>48.384657</ele>
        <time>2021-08-27T13:10:42.000Z</time>
      </trkpt>
      <trkpt lat="45.1764" lon="10.78482">
        <ele>48.395127</ele>
        <time>2021-08-27T13:10:43.000Z</time>
      </trkpt>
      <trkpt lat="45.17658" lon="10.78466">
        <ele>48.444184</ele>
        <time>2021-08-27T13:10:49.000Z</time>
      </trkpt>
      <trkpt lat="45.17664" lon="10.78457">
        <ele>48.464229</ele>
        <time>2021-08-27T13:10:51.000Z</time>
      </trkpt>
      <trkpt lat="45.17674" lon="10.78445">
        <ele>48.494452</ele>
        <time>2021-08-27T13:10:54.000Z</time>
      </trkpt>
      <trkpt lat="45.17685" lon="10.78437">
        <ele>48.524229</ele>
        <time>2021-08-27T13:10:57.000Z</time>
      </trkpt>
      <trkpt lat="45.17694" lon="10.78431">
        <ele>48.544921</ele>
        <time>2021-08-27T13:10:59.000Z</time>
      </trkpt>
      <trkpt lat="45.17698" lon="10.78429">
        <ele>48.556078</ele>
        <time>2021-08-27T13:11:00.000Z</time>
      </trkpt>
      <trkpt lat="45.1772" lon="10.78415">
        <ele>48.61146</ele>
        <time>2021-08-27T13:11:05.000Z</time>
      </trkpt>
      <trkpt lat="45.17727" lon="10.78406">
        <ele>48.632766</ele>
        <time>2021-08-27T13:11:07.000Z</time>
      </trkpt>
      <trkpt lat="45.17733" lon="10.78394">
        <ele>48.65698</ele>
        <time>2021-08-27T13:11:09.000Z</time>
      </trkpt>
      <trkpt lat="45.17742" lon="10.78382">
        <ele>48.685342</ele>
        <time>2021-08-27T13:11:11.000Z</time>
      </trkpt>
      <trkpt lat="45.17748" lon="10.78377">
        <ele>48.700903</ele>
        <time>2021-08-27T13:11:12.000Z</time>
      </trkpt>
      <trkpt lat="45.17754" lon="10.78372">
        <ele>48.716272</ele>
        <time>2021-08-27T13:11:13.000Z</time>
      </trkpt>
      <trkpt lat="45.17758" lon="10.78366">
        <ele>48.729846</ele>
        <time>2021-08-27T13:11:14.000Z</time>
      </trkpt>
      <trkpt lat="45.17771" lon="10.78349">
        <ele>48.77167</ele>
        <time>2021-08-27T13:11:17.000Z</time>
      </trkpt>
      <trkpt lat="45.17784" lon="10.78322">
        <ele>48.813204</ele>
        <time>2021-08-27T13:11:21.000Z</time>
      </trkpt>
      <trkpt lat="45.17785" lon="10.78315">
        <ele>48.819255</ele>
        <time>2021-08-27T13:11:22.000Z</time>
      </trkpt>
      <trkpt lat="45.17787" lon="10.78306">
        <ele>48.827169</ele>
        <time>2021-08-27T13:11:24.000Z</time>
      </trkpt>
      <trkpt lat="45.17789" lon="10.78304">
        <ele>48.829967</ele>
        <time>2021-08-27T13:11:25.000Z</time>
      </trkpt>
      <trkpt lat="45.17792" lon="10.78299">
        <ele>48.835438</ele>
        <time>2021-08-27T13:11:27.000Z</time>
      </trkpt>
      <trkpt lat="45.1779" lon="10.78292">
        <ele>48.841275</ele>
        <time>2021-08-27T13:11:29.000Z</time>
      </trkpt>
      <trkpt lat="45.17788" lon="10.7829">
        <ele>48.844771</ele>
        <time>2021-08-27T13:11:30.000Z</time>
      </trkpt>
      <trkpt lat="45.1778" lon="10.78281">
        <ele>48.856561</ele>
        <time>2021-08-27T13:11:33.000Z</time>
      </trkpt>
      <trkpt lat="45.1777" lon="10.78267">
        <ele>48.873501</ele>
        <time>2021-08-27T13:11:37.000Z</time>
      </trkpt>
      <trkpt lat="45.17762" lon="10.78255">
        <ele>48.887432</ele>
        <time>2021-08-27T13:11:40.000Z</time>
      </trkpt>
      <trkpt lat="45.17753" lon="10.78242">
        <ele>48.902474</ele>
        <time>2021-08-27T13:11:43.000Z</time>
      </trkpt>
      <trkpt lat="45.17748" lon="10.78233">
        <ele>48.912889</ele>
        <time>2021-08-27T13:11:45.000Z</time>
      </trkpt>
      <trkpt lat="45.17732" lon="10.78196">
        <ele>48.949393</ele>
        <time>2021-08-27T13:11:52.000Z</time>
      </trkpt>
      <trkpt lat="45.17728" lon="10.78184">
        <ele>48.960598</ele>
        <time>2021-08-27T13:11:54.000Z</time>
      </trkpt>
      <trkpt lat="45.17724" lon="10.78158">
        <ele>48.983061</ele>
        <time>2021-08-27T13:11:58.000Z</time>
      </trkpt>
      <trkpt lat="45.17722" lon="10.78145">
        <ele>48.994305</ele>
        <time>2021-08-27T13:12:00.000Z</time>
      </trkpt>
      <trkpt lat="45.17719" lon="10.78125">
        <ele>49.01143</ele>
        <time>2021-08-27T13:12:03.000Z</time>
      </trkpt>
      <trkpt lat="45.17715" lon="10.781">
        <ele>49.00814</ele>
        <time>2021-08-27T13:12:07.000Z</time>
      </trkpt>
      <trkpt lat="45.17713" lon="10.78089">
        <ele>49.000937</ele>
        <time>2021-08-27T13:12:09.000Z</time>
      </trkpt>
      <trkpt lat="45.17705" lon="10.78045">
        <ele>48.974775</ele>
        <time>2021-08-27T13:12:16.000Z</time>
      </trkpt>
      <trkpt lat="45.17692" lon="10.78006">
        <ele>48.949411</ele>
        <time>2021-08-27T13:12:23.000Z</time>
      </trkpt>
      <trkpt lat="45.17682" lon="10.77985">
        <ele>48.934146</ele>
        <time>2021-08-27T13:12:28.000Z</time>
      </trkpt>
      <trkpt lat="45.17681" lon="10.7798">
        <ele>48.931514</ele>
        <time>2021-08-27T13:12:29.000Z</time>
      </trkpt>
      <trkpt lat="45.17682" lon="10.77971">
        <ele>48.925831</ele>
        <time>2021-08-27T13:12:31.000Z</time>
      </trkpt>
      <trkpt lat="45.17695" lon="10.77944">
        <ele>48.906689</ele>
        <time>2021-08-27T13:12:36.000Z</time>
      </trkpt>
      <trkpt lat="45.17716" lon="10.77903">
        <ele>48.877258</ele>
        <time>2021-08-27T13:12:43.000Z</time>
      </trkpt>
      <trkpt lat="45.17719" lon="10.77897">
        <ele>48.872903</ele>
        <time>2021-08-27T13:12:44.000Z</time>
      </trkpt>
      <trkpt lat="45.17736" lon="10.7785">
        <ele>48.989867</ele>
        <time>2021-08-27T13:12:51.000Z</time>
      </trkpt>
      <trkpt lat="45.17752" lon="10.77801">
        <ele>49.132699</ele>
        <time>2021-08-27T13:12:58.000Z</time>
      </trkpt>
      <trkpt lat="45.17754" lon="10.77796">
        <ele>49.147715</ele>
        <time>2021-08-27T13:12:59.000Z</time>
      </trkpt>
      <trkpt lat="45.17756" lon="10.77792">
        <ele>49.159933</ele>
        <time>2021-08-27T13:13:02.000Z</time>
      </trkpt>
      <trkpt lat="45.17756" lon="10.77792">
        <ele>49.161754</ele>
        <time>2021-08-27T13:13:10.000Z</time>
      </trkpt>
      <trkpt lat="45.17756" lon="10.77792">
        <ele>49.161754</ele>
        <time>2021-08-27T13:13:14.000Z</time>
      </trkpt>
      <trkpt lat="45.17757" lon="10.77789">
        <ele>49.167696</ele>
        <time>2021-08-27T13:13:18.000Z</time>
      </trkpt>
      <trkpt lat="45.17758" lon="10.77784">
        <ele>49.182545</ele>
        <time>2021-08-27T13:13:20.000Z</time>
      </trkpt>
      <trkpt lat="45.17764" lon="10.77764">
        <ele>49.239262</ele>
        <time>2021-08-27T13:13:25.000Z</time>
      </trkpt>
      <trkpt lat="45.17772" lon="10.77731">
        <ele>49.330538</ele>
        <time>2021-08-27T13:13:31.000Z</time>
      </trkpt>
      <trkpt lat="45.17778" lon="10.77713">
        <ele>49.38247</ele>
        <time>2021-08-27T13:13:34.000Z</time>
      </trkpt>
      <trkpt lat="45.1778" lon="10.77707">
        <ele>49.401222</ele>
        <time>2021-08-27T13:13:35.000Z</time>
      </trkpt>
      <trkpt lat="45.17785" lon="10.77688">
        <ele>49.454748</ele>
        <time>2021-08-27T13:13:38.000Z</time>
      </trkpt>
      <trkpt lat="45.17794" lon="10.77668">
        <ele>49.515937</ele>
        <time>2021-08-27T13:13:41.000Z</time>
      </trkpt>
      <trkpt lat="45.17804" lon="10.77648">
        <ele>49.54362</ele>
        <time>2021-08-27T13:13:44.000Z</time>
      </trkpt>
      <trkpt lat="45.17815" lon="10.77621">
        <ele>49.554451</ele>
        <time>2021-08-27T13:13:48.000Z</time>
      </trkpt>
      <trkpt lat="45.1782" lon="10.77607">
        <ele>49.560006</ele>
        <time>2021-08-27T13:13:50.000Z</time>
      </trkpt>
      <trkpt lat="45.17822" lon="10.776">
        <ele>49.562734</ele>
        <time>2021-08-27T13:13:51.000Z</time>
      </trkpt>
      <trkpt lat="45.17829" lon="10.77579">
        <ele>49.571047</ele>
        <time>2021-08-27T13:13:54.000Z</time>
      </trkpt>
      <trkpt lat="45.17835" lon="10.77557">
        <ele>49.579348</ele>
        <time>2021-08-27T13:13:57.000Z</time>
      </trkpt>
      <trkpt lat="45.17837" lon="10.77549">
        <ele>49.58206</ele>
        <time>2021-08-27T13:13:58.000Z</time>
      </trkpt>
      <trkpt lat="45.17847" lon="10.77509">
        <ele>49.597169</ele>
        <time>2021-08-27T13:14:04.000Z</time>
      </trkpt>
      <trkpt lat="45.17858" lon="10.77449">
        <ele>49.618891</ele>
        <time>2021-08-27T13:14:12.000Z</time>
      </trkpt>
      <trkpt lat="45.17855" lon="10.77417">
        <ele>49.647008</ele>
        <time>2021-08-27T13:14:16.000Z</time>
      </trkpt>
      <trkpt lat="45.17853" lon="10.77401">
        <ele>49.686484</ele>
        <time>2021-08-27T13:14:18.000Z</time>
      </trkpt>
      <trkpt lat="45.17849" lon="10.77369">
        <ele>49.765947</ele>
        <time>2021-08-27T13:14:22.000Z</time>
      </trkpt>
      <trkpt lat="45.17851" lon="10.77354">
        <ele>49.805689</ele>
        <time>2021-08-27T13:14:24.000Z</time>
      </trkpt>
      <trkpt lat="45.1786" lon="10.77299">
        <ele>49.946466</ele>
        <time>2021-08-27T13:14:31.000Z</time>
      </trkpt>
      <trkpt lat="45.17877" lon="10.77255">
        <ele>50.069321</ele>
        <time>2021-08-27T13:14:37.000Z</time>
      </trkpt>
      <trkpt lat="45.17887" lon="10.77236">
        <ele>50.129924</ele>
        <time>2021-08-27T13:14:40.000Z</time>
      </trkpt>
      <trkpt lat="45.17899" lon="10.77218">
        <ele>50.189564</ele>
        <time>2021-08-27T13:14:43.000Z</time>
      </trkpt>
      <trkpt lat="45.17907" lon="10.77209">
        <ele>50.228278</ele>
        <time>2021-08-27T13:14:45.000Z</time>
      </trkpt>
      <trkpt lat="45.17917" lon="10.77203">
        <ele>50.267062</ele>
        <time>2021-08-27T13:14:47.000Z</time>
      </trkpt>
      <trkpt lat="45.17922" lon="10.772">
        <ele>50.28967</ele>
        <time>2021-08-27T13:14:48.000Z</time>
      </trkpt>
      <trkpt lat="45.17943" lon="10.77191">
        <ele>50.380727</ele>
        <time>2021-08-27T13:14:53.000Z</time>
      </trkpt>
      <trkpt lat="45.17959" lon="10.77184">
        <ele>50.448059</ele>
        <time>2021-08-27T13:14:58.000Z</time>
      </trkpt>
      <trkpt lat="45.17989" lon="10.77172">
        <ele>50.580286</ele>
        <time>2021-08-27T13:15:05.000Z</time>
      </trkpt>
      <trkpt lat="45.18018" lon="10.77163">
        <ele>50.705067</ele>
        <time>2021-08-27T13:15:11.000Z</time>
      </trkpt>
      <trkpt lat="45.18023" lon="10.77163">
        <ele>50.725575</ele>
        <time>2021-08-27T13:15:12.000Z</time>
      </trkpt>
      <trkpt lat="45.18033" lon="10.77166">
        <ele>50.768591</ele>
        <time>2021-08-27T13:15:14.000Z</time>
      </trkpt>
      <trkpt lat="45.18038" lon="10.77168">
        <ele>50.790015</ele>
        <time>2021-08-27T13:15:15.000Z</time>
      </trkpt>
      <trkpt lat="45.18059" lon="10.77175">
        <ele>50.880578</ele>
        <time>2021-08-27T13:15:19.000Z</time>
      </trkpt>
      <trkpt lat="45.1807" lon="10.77174">
        <ele>50.926731</ele>
        <time>2021-08-27T13:15:21.000Z</time>
      </trkpt>
      <trkpt lat="45.18102" lon="10.77166">
        <ele>51.007761</ele>
        <time>2021-08-27T13:15:27.000Z</time>
      </trkpt>
      <trkpt lat="45.18108" lon="10.77164">
        <ele>51.004398</ele>
        <time>2021-08-27T13:15:28.000Z</time>
      </trkpt>
      <trkpt lat="45.18119" lon="10.77161">
        <ele>50.997478</ele>
        <time>2021-08-27T13:15:30.000Z</time>
      </trkpt>
      <trkpt lat="45.18124" lon="10.77159">
        <ele>50.993915</ele>
        <time>2021-08-27T13:15:31.000Z</time>
      </trkpt>
      <trkpt lat="45.18135" lon="10.77155">
        <ele>50.987019</ele>
        <time>2021-08-27T13:15:33.000Z</time>
      </trkpt>
      <trkpt lat="45.18146" lon="10.77152">
        <ele>50.980462</ele>
        <time>2021-08-27T13:15:35.000Z</time>
      </trkpt>
      <trkpt lat="45.18167" lon="10.77146">
        <ele>50.966786</ele>
        <time>2021-08-27T13:15:39.000Z</time>
      </trkpt>
      <trkpt lat="45.18176" lon="10.77143">
        <ele>50.961119</ele>
        <time>2021-08-27T13:15:41.000Z</time>
      </trkpt>
      <trkpt lat="45.18182" lon="10.77145">
        <ele>50.957496</ele>
        <time>2021-08-27T13:15:43.000Z</time>
      </trkpt>
      <trkpt lat="45.18185" lon="10.77151">
        <ele>50.954131</ele>
        <time>2021-08-27T13:15:45.000Z</time>
      </trkpt>
      <trkpt lat="45.18186" lon="10.77156">
        <ele>50.952181</ele>
        <time>2021-08-27T13:15:46.000Z</time>
      </trkpt>
      <trkpt lat="45.18189" lon="10.77163">
        <ele>50.948479</ele>
        <time>2021-08-27T13:15:48.000Z</time>
      </trkpt>
      <trkpt lat="45.18194" lon="10.77164">
        <ele>50.945394</ele>
        <time>2021-08-27T13:15:50.000Z</time>
      </trkpt>
      <trkpt lat="45.18219" lon="10.77141">
        <ele>50.926608</ele>
        <time>2021-08-27T13:15:58.000Z</time>
      </trkpt>
      <trkpt lat="45.18228" lon="10.77129">
        <ele>50.918926</ele>
        <time>2021-08-27T13:16:01.000Z</time>
      </trkpt>
      <trkpt lat="45.18235" lon="10.77121">
        <ele>50.913513</ele>
        <time>2021-08-27T13:16:03.000Z</time>
      </trkpt>
      <trkpt lat="45.18244" lon="10.77107">
        <ele>50.905291</ele>
        <time>2021-08-27T13:16:06.000Z</time>
      </trkpt>
      <trkpt lat="45.18248" lon="10.77103">
        <ele>50.903071</ele>
        <time>2021-08-27T13:16:07.000Z</time>
      </trkpt>
      <trkpt lat="45.18258" lon="10.77089">
        <ele>50.897614</ele>
        <time>2021-08-27T13:16:10.000Z</time>
      </trkpt>
      <trkpt lat="45.18278" lon="10.77061">
        <ele>50.886902</ele>
        <time>2021-08-27T13:16:16.000Z</time>
      </trkpt>
      <trkpt lat="45.18289" lon="10.77048">
        <ele>50.88135</ele>
        <time>2021-08-27T13:16:19.000Z</time>
      </trkpt>
      <trkpt lat="45.18312" lon="10.7702">
        <ele>50.869921</ele>
        <time>2021-08-27T13:16:25.000Z</time>
      </trkpt>
      <trkpt lat="45.1832" lon="10.77012">
        <ele>50.866354</ele>
        <time>2021-08-27T13:16:27.000Z</time>
      </trkpt>
      <trkpt lat="45.18331" lon="10.76996">
        <ele>50.860204</ele>
        <time>2021-08-27T13:16:31.000Z</time>
      </trkpt>
      <trkpt lat="45.18332" lon="10.76992">
        <ele>50.859059</ele>
        <time>2021-08-27T13:16:32.000Z</time>
      </trkpt>
      <trkpt lat="45.18326" lon="10.76976">
        <ele>50.854135</ele>
        <time>2021-08-27T13:16:36.000Z</time>
      </trkpt>
      <trkpt lat="45.18331" lon="10.76962">
        <ele>50.85006</ele>
        <time>2021-08-27T13:16:39.000Z</time>
      </trkpt>
      <trkpt lat="45.18352" lon="10.76924">
        <ele>50.837002</ele>
        <time>2021-08-27T13:16:47.000Z</time>
      </trkpt>
      <trkpt lat="45.18355" lon="10.76919">
        <ele>50.836458</ele>
        <time>2021-08-27T13:16:48.000Z</time>
      </trkpt>
      <trkpt lat="45.18368" lon="10.76883">
        <ele>50.878859</ele>
        <time>2021-08-27T13:16:54.000Z</time>
      </trkpt>
      <trkpt lat="45.18376" lon="10.7685">
        <ele>50.91473</ele>
        <time>2021-08-27T13:16:59.000Z</time>
      </trkpt>
      <trkpt lat="45.18378" lon="10.76829">
        <ele>50.93677</ele>
        <time>2021-08-27T13:17:02.000Z</time>
      </trkpt>
      <trkpt lat="45.18381" lon="10.76786">
        <ele>50.982031</ele>
        <time>2021-08-27T13:17:08.000Z</time>
      </trkpt>
      <trkpt lat="45.18383" lon="10.76772">
        <ele>50.996872</ele>
        <time>2021-08-27T13:17:10.000Z</time>
      </trkpt>
      <trkpt lat="45.18384" lon="10.76765">
        <ele>51.004257</ele>
        <time>2021-08-27T13:17:11.000Z</time>
      </trkpt>
      <trkpt lat="45.18393" lon="10.76702">
        <ele>51.071173</ele>
        <time>2021-08-27T13:17:20.000Z</time>
      </trkpt>
      <trkpt lat="45.18398" lon="10.76669">
        <ele>51.111221</ele>
        <time>2021-08-27T13:17:25.000Z</time>
      </trkpt>
      <trkpt lat="45.18399" lon="10.76666">
        <ele>51.11954</ele>
        <time>2021-08-27T13:17:26.000Z</time>
      </trkpt>
      <trkpt lat="45.18401" lon="10.76663">
        <ele>51.127768</ele>
        <time>2021-08-27T13:17:28.000Z</time>
      </trkpt>
      <trkpt lat="45.18402" lon="10.76663">
        <ele>51.129612</ele>
        <time>2021-08-27T13:17:29.000Z</time>
      </trkpt>
      <trkpt lat="45.18405" lon="10.76666">
        <ele>51.142393</ele>
        <time>2021-08-27T13:17:33.000Z</time>
      </trkpt>
      <trkpt lat="45.18408" lon="10.76667">
        <ele>51.150158</ele>
        <time>2021-08-27T13:17:34.000Z</time>
      </trkpt>
      <trkpt lat="45.18426" lon="10.76677">
        <ele>51.210472</ele>
        <time>2021-08-27T13:17:40.000Z</time>
      </trkpt>
      <trkpt lat="45.18448" lon="10.76693">
        <ele>51.284284</ele>
        <time>2021-08-27T13:17:46.000Z</time>
      </trkpt>
      <trkpt lat="45.18467" lon="10.76707">
        <ele>51.350873</ele>
        <time>2021-08-27T13:17:51.000Z</time>
      </trkpt>
      <trkpt lat="45.18475" lon="10.76713">
        <ele>51.378586</ele>
        <time>2021-08-27T13:17:53.000Z</time>
      </trkpt>
      <trkpt lat="45.18479" lon="10.76716">
        <ele>51.392766</ele>
        <time>2021-08-27T13:17:54.000Z</time>
      </trkpt>
      <trkpt lat="45.18488" lon="10.76722">
        <ele>51.420998</ele>
        <time>2021-08-27T13:17:56.000Z</time>
      </trkpt>
      <trkpt lat="45.18511" lon="10.76739">
        <ele>51.502253</ele>
        <time>2021-08-27T13:18:02.000Z</time>
      </trkpt>
      <trkpt lat="45.18552" lon="10.76768">
        <ele>51.640759</ele>
        <time>2021-08-27T13:18:12.000Z</time>
      </trkpt>
      <trkpt lat="45.18559" lon="10.76774">
        <ele>51.684638</ele>
        <time>2021-08-27T13:18:16.000Z</time>
      </trkpt>
      <trkpt lat="45.18563" lon="10.76775">
        <ele>51.713057</ele>
        <time>2021-08-27T13:18:22.000Z</time>
      </trkpt>
      <trkpt lat="45.18567" lon="10.76772">
        <ele>51.741419</ele>
        <time>2021-08-27T13:18:27.000Z</time>
      </trkpt>
      <trkpt lat="45.18579" lon="10.76756">
        <ele>51.848687</ele>
        <time>2021-08-27T13:18:33.000Z</time>
      </trkpt>
      <trkpt lat="45.18601" lon="10.76732">
        <ele>52.029611</ele>
        <time>2021-08-27T13:18:41.000Z</time>
      </trkpt>
      <trkpt lat="45.18611" lon="10.76719">
        <ele>52.122648</ele>
        <time>2021-08-27T13:18:45.000Z</time>
      </trkpt>
      <trkpt lat="45.1862" lon="10.76703">
        <ele>52.21675</ele>
        <time>2021-08-27T13:18:49.000Z</time>
      </trkpt>
      <trkpt lat="45.1864" lon="10.76651">
        <ele>52.483962</ele>
        <time>2021-08-27T13:19:00.000Z</time>
      </trkpt>
      <trkpt lat="45.18651" lon="10.76619">
        <ele>52.649078</ele>
        <time>2021-08-27T13:19:08.000Z</time>
      </trkpt>
      <trkpt lat="45.18664" lon="10.76601">
        <ele>52.76577</ele>
        <time>2021-08-27T13:19:14.000Z</time>
      </trkpt>
      <trkpt lat="45.18676" lon="10.76612">
        <ele>52.862587</ele>
        <time>2021-08-27T13:19:19.000Z</time>
      </trkpt>
      <trkpt lat="45.18678" lon="10.76614">
        <ele>52.885261</ele>
        <time>2021-08-27T13:19:20.000Z</time>
      </trkpt>
      <trkpt lat="45.18688" lon="10.76617">
        <ele>52.956187</ele>
        <time>2021-08-27T13:19:24.000Z</time>
      </trkpt>
      <trkpt lat="45.18689" lon="10.76615">
        <ele>52.969719</ele>
        <time>2021-08-27T13:19:25.000Z</time>
      </trkpt>
      <trkpt lat="45.18692" lon="10.76601">
        <ele>53.045323</ele>
        <time>2021-08-27T13:19:29.000Z</time>
      </trkpt>
      <trkpt lat="45.18696" lon="10.76569">
        <ele>53.208955</ele>
        <time>2021-08-27T13:19:35.000Z</time>
      </trkpt>
      <trkpt lat="45.18697" lon="10.7655">
        <ele>53.310015</ele>
        <time>2021-08-27T13:19:38.000Z</time>
      </trkpt>
      <trkpt lat="45.18698" lon="10.76539">
        <ele>53.368178</ele>
        <time>2021-08-27T13:19:40.000Z</time>
      </trkpt>
      <trkpt lat="45.187" lon="10.76527">
        <ele>53.431474</ele>
        <time>2021-08-27T13:19:42.000Z</time>
      </trkpt>
      <trkpt lat="45.18706" lon="10.7647">
        <ele>53.725738</ele>
        <time>2021-08-27T13:19:51.000Z</time>
      </trkpt>
      <trkpt lat="45.18712" lon="10.76402">
        <ele>54.079829</ele>
        <time>2021-08-27T13:20:01.000Z</time>
      </trkpt>
      <trkpt lat="45.18723" lon="10.76327">
        <ele>54.246546</ele>
        <time>2021-08-27T13:20:12.000Z</time>
      </trkpt>
      <trkpt lat="45.18725" lon="10.76314">
        <ele>54.268092</ele>
        <time>2021-08-27T13:20:14.000Z</time>
      </trkpt>
      <trkpt lat="45.1873" lon="10.76268">
        <ele>54.346883</ele>
        <time>2021-08-27T13:20:21.000Z</time>
      </trkpt>
      <trkpt lat="45.18737" lon="10.76215">
        <ele>54.437098</ele>
        <time>2021-08-27T13:20:29.000Z</time>
      </trkpt>
      <trkpt lat="45.18741" lon="10.7618">
        <ele>54.495528</ele>
        <time>2021-08-27T13:20:34.000Z</time>
      </trkpt>
      <trkpt lat="45.18747" lon="10.76136">
        <ele>54.559891</ele>
        <time>2021-08-27T13:20:40.000Z</time>
      </trkpt>
      <trkpt lat="45.18752" lon="10.76085">
        <ele>54.519608</ele>
        <time>2021-08-27T13:20:47.000Z</time>
      </trkpt>
      <trkpt lat="45.18752" lon="10.76078">
        <ele>54.514365</ele>
        <time>2021-08-27T13:20:48.000Z</time>
      </trkpt>
      <trkpt lat="45.18755" lon="10.76053">
        <ele>54.494703</ele>
        <time>2021-08-27T13:20:52.000Z</time>
      </trkpt>
      <trkpt lat="45.18755" lon="10.76047">
        <ele>54.489695</ele>
        <time>2021-08-27T13:20:53.000Z</time>
      </trkpt>
      <trkpt lat="45.18764" lon="10.76002">
        <ele>54.453682</ele>
        <time>2021-08-27T13:20:59.000Z</time>
      </trkpt>
      <trkpt lat="45.18764" lon="10.75994">
        <ele>54.447608</ele>
        <time>2021-08-27T13:21:00.000Z</time>
      </trkpt>
      <trkpt lat="45.18773" lon="10.75918">
        <ele>54.387257</ele>
        <time>2021-08-27T13:21:10.000Z</time>
      </trkpt>
      <trkpt lat="45.18777" lon="10.75887">
        <ele>54.364209</ele>
        <time>2021-08-27T13:21:14.000Z</time>
      </trkpt>
      <trkpt lat="45.18778" lon="10.75872">
        <ele>54.367078</ele>
        <time>2021-08-27T13:21:16.000Z</time>
      </trkpt>
      <trkpt lat="45.1878" lon="10.75851">
        <ele>54.371203</ele>
        <time>2021-08-27T13:21:19.000Z</time>
      </trkpt>
      <trkpt lat="45.18782" lon="10.75835">
        <ele>54.374068</ele>
        <time>2021-08-27T13:21:21.000Z</time>
      </trkpt>
      <trkpt lat="45.18784" lon="10.75812">
        <ele>54.378439</ele>
        <time>2021-08-27T13:21:24.000Z</time>
      </trkpt>
      <trkpt lat="45.18788" lon="10.75782">
        <ele>54.384295</ele>
        <time>2021-08-27T13:21:28.000Z</time>
      </trkpt>
      <trkpt lat="45.18791" lon="10.75743">
        <ele>54.391617</ele>
        <time>2021-08-27T13:21:33.000Z</time>
      </trkpt>
      <trkpt lat="45.18795" lon="10.75697">
        <ele>54.400435</ele>
        <time>2021-08-27T13:21:39.000Z</time>
      </trkpt>
      <trkpt lat="45.18796" lon="10.75674">
        <ele>54.404752</ele>
        <time>2021-08-27T13:21:42.000Z</time>
      </trkpt>
      <trkpt lat="45.18797" lon="10.75643">
        <ele>54.410484</ele>
        <time>2021-08-27T13:21:46.000Z</time>
      </trkpt>
      <trkpt lat="45.18799" lon="10.75604">
        <ele>54.349334</ele>
        <time>2021-08-27T13:21:51.000Z</time>
      </trkpt>
      <trkpt lat="45.18804" lon="10.75524">
        <ele>54.191602</ele>
        <time>2021-08-27T13:22:01.000Z</time>
      </trkpt>
      <trkpt lat="45.18807" lon="10.75458">
        <ele>54.06052</ele>
        <time>2021-08-27T13:22:09.000Z</time>
      </trkpt>
      <trkpt lat="45.18809" lon="10.75424">
        <ele>53.993813</ele>
        <time>2021-08-27T13:22:13.000Z</time>
      </trkpt>
      <trkpt lat="45.1881" lon="10.75415">
        <ele>53.976222</ele>
        <time>2021-08-27T13:22:14.000Z</time>
      </trkpt>
      <trkpt lat="45.18811" lon="10.75381">
        <ele>53.909231</ele>
        <time>2021-08-27T13:22:18.000Z</time>
      </trkpt>
      <trkpt lat="45.18812" lon="10.75364">
        <ele>53.94191</ele>
        <time>2021-08-27T13:22:20.000Z</time>
      </trkpt>
      <trkpt lat="45.18813" lon="10.75329">
        <ele>54.008774</ele>
        <time>2021-08-27T13:22:24.000Z</time>
      </trkpt>
      <trkpt lat="45.18814" lon="10.75312">
        <ele>54.04203</ele>
        <time>2021-08-27T13:22:26.000Z</time>
      </trkpt>
      <trkpt lat="45.18815" lon="10.75304">
        <ele>54.058465</ele>
        <time>2021-08-27T13:22:27.000Z</time>
      </trkpt>
      <trkpt lat="45.18815" lon="10.75295">
        <ele>54.075114</ele>
        <time>2021-08-27T13:22:28.000Z</time>
      </trkpt>
      <trkpt lat="45.18815" lon="10.75279">
        <ele>54.106186</ele>
        <time>2021-08-27T13:22:30.000Z</time>
      </trkpt>
      <trkpt lat="45.18816" lon="10.75263">
        <ele>54.137518</ele>
        <time>2021-08-27T13:22:32.000Z</time>
      </trkpt>
      <trkpt lat="45.18817" lon="10.75255">
        <ele>54.153184</ele>
        <time>2021-08-27T13:22:33.000Z</time>
      </trkpt>
      <trkpt lat="45.18817" lon="10.75246">
        <ele>54.168871</ele>
        <time>2021-08-27T13:22:34.000Z</time>
      </trkpt>
      <trkpt lat="45.18819" lon="10.75198">
        <ele>54.262795</ele>
        <time>2021-08-27T13:22:40.000Z</time>
      </trkpt>
      <trkpt lat="45.18819" lon="10.75181">
        <ele>54.295025</ele>
        <time>2021-08-27T13:22:42.000Z</time>
      </trkpt>
      <trkpt lat="45.18821" lon="10.75136">
        <ele>54.381841</ele>
        <time>2021-08-27T13:22:47.000Z</time>
      </trkpt>
      <trkpt lat="45.18822" lon="10.75127">
        <ele>54.400009</ele>
        <time>2021-08-27T13:22:48.000Z</time>
      </trkpt>
      <trkpt lat="45.18827" lon="10.75046">
        <ele>54.144118</ele>
        <time>2021-08-27T13:22:57.000Z</time>
      </trkpt>
      <trkpt lat="45.18827" lon="10.75037">
        <ele>54.116728</ele>
        <time>2021-08-27T13:22:58.000Z</time>
      </trkpt>
      <trkpt lat="45.18829" lon="10.75004">
        <ele>54.00922</ele>
        <time>2021-08-27T13:23:02.000Z</time>
      </trkpt>
      <trkpt lat="45.1883" lon="10.74995">
        <ele>53.982313</ele>
        <time>2021-08-27T13:23:03.000Z</time>
      </trkpt>
      <trkpt lat="45.18831" lon="10.74962">
        <ele>53.875087</ele>
        <time>2021-08-27T13:23:07.000Z</time>
      </trkpt>
      <trkpt lat="45.18833" lon="10.74937">
        <ele>53.795311</ele>
        <time>2021-08-27T13:23:10.000Z</time>
      </trkpt>
      <trkpt lat="45.18836" lon="10.74877">
        <ele>53.604954</ele>
        <time>2021-08-27T13:23:17.000Z</time>
      </trkpt>
      <trkpt lat="45.18837" lon="10.74844">
        <ele>53.575195</ele>
        <time>2021-08-27T13:23:21.000Z</time>
      </trkpt>
      <trkpt lat="45.18839" lon="10.74803">
        <ele>53.554656</ele>
        <time>2021-08-27T13:23:26.000Z</time>
      </trkpt>
      <trkpt lat="45.18841" lon="10.74779">
        <ele>53.542393</ele>
        <time>2021-08-27T13:23:29.000Z</time>
      </trkpt>
      <trkpt lat="45.18843" lon="10.7473">
        <ele>53.517844</ele>
        <time>2021-08-27T13:23:35.000Z</time>
      </trkpt>
      <trkpt lat="45.18845" lon="10.74675">
        <ele>53.490028</ele>
        <time>2021-08-27T13:23:42.000Z</time>
      </trkpt>
      <trkpt lat="45.18847" lon="10.7465">
        <ele>53.477737</ele>
        <time>2021-08-27T13:23:45.000Z</time>
      </trkpt>
      <trkpt lat="45.18848" lon="10.74626">
        <ele>53.465673</ele>
        <time>2021-08-27T13:23:48.000Z</time>
      </trkpt>
      <trkpt lat="45.18851" lon="10.74594">
        <ele>53.469608</ele>
        <time>2021-08-27T13:23:52.000Z</time>
      </trkpt>
      <trkpt lat="45.18853" lon="10.74554">
        <ele>53.483648</ele>
        <time>2021-08-27T13:23:57.000Z</time>
      </trkpt>
      <trkpt lat="45.18855" lon="10.74497">
        <ele>53.503533</ele>
        <time>2021-08-27T13:24:04.000Z</time>
      </trkpt>
      <trkpt lat="45.18857" lon="10.74446">
        <ele>53.521307</ele>
        <time>2021-08-27T13:24:10.000Z</time>
      </trkpt>
      <trkpt lat="45.18859" lon="10.74413">
        <ele>53.532984</ele>
        <time>2021-08-27T13:24:14.000Z</time>
      </trkpt>
      <trkpt lat="45.1886" lon="10.74391">
        <ele>53.540808</ele>
        <time>2021-08-27T13:24:17.000Z</time>
      </trkpt>
      <trkpt lat="45.1886" lon="10.74371">
        <ele>53.547876</ele>
        <time>2021-08-27T13:24:20.000Z</time>
      </trkpt>
      <trkpt lat="45.18861" lon="10.74356">
        <ele>53.543388</ele>
        <time>2021-08-27T13:24:22.000Z</time>
      </trkpt>
      <trkpt lat="45.18862" lon="10.74339">
        <ele>53.526252</ele>
        <time>2021-08-27T13:24:24.000Z</time>
      </trkpt>
      <trkpt lat="45.18863" lon="10.74322">
        <ele>53.508611</ele>
        <time>2021-08-27T13:24:26.000Z</time>
      </trkpt>
      <trkpt lat="45.18863" lon="10.74306">
        <ele>53.491418</ele>
        <time>2021-08-27T13:24:28.000Z</time>
      </trkpt>
      <trkpt lat="45.18865" lon="10.74264">
        <ele>53.448272</ele>
        <time>2021-08-27T13:24:33.000Z</time>
      </trkpt>
      <trkpt lat="45.18867" lon="10.74232">
        <ele>53.414973</ele>
        <time>2021-08-27T13:24:37.000Z</time>
      </trkpt>
      <trkpt lat="45.18867" lon="10.74216">
        <ele>53.398607</ele>
        <time>2021-08-27T13:24:39.000Z</time>
      </trkpt>
      <trkpt lat="45.18868" lon="10.742">
        <ele>53.382138</ele>
        <time>2021-08-27T13:24:41.000Z</time>
      </trkpt>
      <trkpt lat="45.18868" lon="10.74192">
        <ele>53.373828</ele>
        <time>2021-08-27T13:24:42.000Z</time>
      </trkpt>
      <trkpt lat="45.18869" lon="10.74184">
        <ele>53.365503</ele>
        <time>2021-08-27T13:24:43.000Z</time>
      </trkpt>
      <trkpt lat="45.1887" lon="10.74177">
        <ele>53.357295</ele>
        <time>2021-08-27T13:24:44.000Z</time>
      </trkpt>
      <trkpt lat="45.1887" lon="10.7416">
        <ele>53.339768</ele>
        <time>2021-08-27T13:24:46.000Z</time>
      </trkpt>
      <trkpt lat="45.18873" lon="10.74127">
        <ele>53.306278</ele>
        <time>2021-08-27T13:24:50.000Z</time>
      </trkpt>
      <trkpt lat="45.18876" lon="10.7407">
        <ele>53.302636</ele>
        <time>2021-08-27T13:24:57.000Z</time>
      </trkpt>
      <trkpt lat="45.1888" lon="10.7399">
        <ele>53.336277</ele>
        <time>2021-08-27T13:25:07.000Z</time>
      </trkpt>
      <trkpt lat="45.18885" lon="10.73918">
        <ele>53.366518</ele>
        <time>2021-08-27T13:25:16.000Z</time>
      </trkpt>
      <trkpt lat="45.18886" lon="10.73902">
        <ele>53.373058</ele>
        <time>2021-08-27T13:25:18.000Z</time>
      </trkpt>
      <trkpt lat="45.18888" lon="10.7387">
        <ele>53.3867</ele>
        <time>2021-08-27T13:25:22.000Z</time>
      </trkpt>
      <trkpt lat="45.18891" lon="10.73804">
        <ele>53.327065</ele>
        <time>2021-08-27T13:25:30.000Z</time>
      </trkpt>
      <trkpt lat="45.18894" lon="10.73745">
        <ele>53.249406</ele>
        <time>2021-08-27T13:25:37.000Z</time>
      </trkpt>
      <trkpt lat="45.18896" lon="10.73686">
        <ele>53.170515</ele>
        <time>2021-08-27T13:25:44.000Z</time>
      </trkpt>
      <trkpt lat="45.18896" lon="10.73668">
        <ele>53.147763</ele>
        <time>2021-08-27T13:25:46.000Z</time>
      </trkpt>
      <trkpt lat="45.18897" lon="10.73651">
        <ele>53.125129</ele>
        <time>2021-08-27T13:25:48.000Z</time>
      </trkpt>
      <trkpt lat="45.189" lon="10.73617">
        <ele>53.079912</ele>
        <time>2021-08-27T13:25:52.000Z</time>
      </trkpt>
      <trkpt lat="45.18902" lon="10.73556">
        <ele>53.074013</ele>
        <time>2021-08-27T13:25:59.000Z</time>
      </trkpt>
      <trkpt lat="45.18904" lon="10.7353">
        <ele>53.084713</ele>
        <time>2021-08-27T13:26:02.000Z</time>
      </trkpt>
      <trkpt lat="45.18906" lon="10.73497">
        <ele>53.098382</ele>
        <time>2021-08-27T13:26:06.000Z</time>
      </trkpt>
      <trkpt lat="45.18907" lon="10.73481">
        <ele>53.105129</ele>
        <time>2021-08-27T13:26:08.000Z</time>
      </trkpt>
      <trkpt lat="45.18908" lon="10.7344">
        <ele>53.121931</ele>
        <time>2021-08-27T13:26:13.000Z</time>
      </trkpt>
      <trkpt lat="45.1891" lon="10.73391">
        <ele>53.142125</ele>
        <time>2021-08-27T13:26:19.000Z</time>
      </trkpt>
      <trkpt lat="45.1891" lon="10.73353">
        <ele>53.157361</ele>
        <time>2021-08-27T13:26:24.000Z</time>
      </trkpt>
      <trkpt lat="45.1891" lon="10.73347">
        <ele>53.160023</ele>
        <time>2021-08-27T13:26:25.000Z</time>
      </trkpt>
      <trkpt lat="45.1891" lon="10.73321">
        <ele>53.145676</ele>
        <time>2021-08-27T13:26:30.000Z</time>
      </trkpt>
      <trkpt lat="45.18915" lon="10.73282">
        <ele>53.120581</ele>
        <time>2021-08-27T13:26:37.000Z</time>
      </trkpt>
      <trkpt lat="45.18919" lon="10.73232">
        <ele>53.088852</ele>
        <time>2021-08-27T13:26:44.000Z</time>
      </trkpt>
      <trkpt lat="45.1892" lon="10.73217">
        <ele>53.079449</ele>
        <time>2021-08-27T13:26:46.000Z</time>
      </trkpt>
      <trkpt lat="45.18924" lon="10.73187">
        <ele>53.060111</ele>
        <time>2021-08-27T13:26:50.000Z</time>
      </trkpt>
      <trkpt lat="45.18928" lon="10.73164">
        <ele>53.044808</ele>
        <time>2021-08-27T13:26:53.000Z</time>
      </trkpt>
      <trkpt lat="45.18937" lon="10.73117">
        <ele>53.013875</ele>
        <time>2021-08-27T13:26:59.000Z</time>
      </trkpt>
      <trkpt lat="45.18945" lon="10.73086">
        <ele>53.001542</ele>
        <time>2021-08-27T13:27:03.000Z</time>
      </trkpt>
      <trkpt lat="45.18947" lon="10.73078">
        <ele>53.003573</ele>
        <time>2021-08-27T13:27:04.000Z</time>
      </trkpt>
      <trkpt lat="45.18954" lon="10.7305">
        <ele>53.011095</ele>
        <time>2021-08-27T13:27:08.000Z</time>
      </trkpt>
      <trkpt lat="45.18956" lon="10.73044">
        <ele>53.012921</ele>
        <time>2021-08-27T13:27:09.000Z</time>
      </trkpt>
      <trkpt lat="45.18974" lon="10.72999">
        <ele>53.02593</ele>
        <time>2021-08-27T13:27:16.000Z</time>
      </trkpt>
      <trkpt lat="45.18998" lon="10.72941">
        <ele>53.042757</ele>
        <time>2021-08-27T13:27:25.000Z</time>
      </trkpt>
      <trkpt lat="45.19022" lon="10.7288">
        <ele>53.060295</ele>
        <time>2021-08-27T13:27:34.000Z</time>
      </trkpt>
      <trkpt lat="45.19033" lon="10.72854">
        <ele>53.064829</ele>
        <time>2021-08-27T13:27:38.000Z</time>
      </trkpt>
      <trkpt lat="45.19046" lon="10.7282">
        <ele>53.067861</ele>
        <time>2021-08-27T13:27:43.000Z</time>
      </trkpt>
      <trkpt lat="45.19065" lon="10.72758">
        <ele>53.073205</ele>
        <time>2021-08-27T13:27:52.000Z</time>
      </trkpt>
      <trkpt lat="45.1907" lon="10.72745">
        <ele>53.074382</ele>
        <time>2021-08-27T13:27:54.000Z</time>
      </trkpt>
      <trkpt lat="45.1908" lon="10.72726">
        <ele>53.076217</ele>
        <time>2021-08-27T13:27:57.000Z</time>
      </trkpt>
      <trkpt lat="45.19095" lon="10.72694">
        <ele>53.079241</ele>
        <time>2021-08-27T13:28:02.000Z</time>
      </trkpt>
      <trkpt lat="45.191" lon="10.72681">
        <ele>53.080446</ele>
        <time>2021-08-27T13:28:04.000Z</time>
      </trkpt>
      <trkpt lat="45.19118" lon="10.72636">
        <ele>53.045794</ele>
        <time>2021-08-27T13:28:11.000Z</time>
      </trkpt>
      <trkpt lat="45.1913" lon="10.7261">
        <ele>52.960333</ele>
        <time>2021-08-27T13:28:16.000Z</time>
      </trkpt>
      <trkpt lat="45.19146" lon="10.7257">
        <ele>52.833784</ele>
        <time>2021-08-27T13:28:22.000Z</time>
      </trkpt>
      <trkpt lat="45.19167" lon="10.72516">
        <ele>52.661383</ele>
        <time>2021-08-27T13:28:30.000Z</time>
      </trkpt>
      <trkpt lat="45.19188" lon="10.72461">
        <ele>52.489114</ele>
        <time>2021-08-27T13:28:38.000Z</time>
      </trkpt>
      <trkpt lat="45.19211" lon="10.72404">
        <ele>52.441222</ele>
        <time>2021-08-27T13:28:47.000Z</time>
      </trkpt>
      <trkpt lat="45.19228" lon="10.72359">
        <ele>52.575177</ele>
        <time>2021-08-27T13:28:54.000Z</time>
      </trkpt>
      <trkpt lat="45.1924" lon="10.72328">
        <ele>52.666405</ele>
        <time>2021-08-27T13:28:59.000Z</time>
      </trkpt>
      <trkpt lat="45.19244" lon="10.72317">
        <ele>52.70125</ele>
        <time>2021-08-27T13:29:01.000Z</time>
      </trkpt>
      <trkpt lat="45.19255" lon="10.72289">
        <ele>52.785693</ele>
        <time>2021-08-27T13:29:06.000Z</time>
      </trkpt>
      <trkpt lat="45.19265" lon="10.72266">
        <ele>52.856133</ele>
        <time>2021-08-27T13:29:10.000Z</time>
      </trkpt>
      <trkpt lat="45.19286" lon="10.72211">
        <ele>53.021214</ele>
        <time>2021-08-27T13:29:19.000Z</time>
      </trkpt>
      <trkpt lat="45.19314" lon="10.72144">
        <ele>52.963524</ele>
        <time>2021-08-27T13:29:30.000Z</time>
      </trkpt>
      <trkpt lat="45.19316" lon="10.72138">
        <ele>52.954818</ele>
        <time>2021-08-27T13:29:31.000Z</time>
      </trkpt>
      <trkpt lat="45.19341" lon="10.72075">
        <ele>52.864249</ele>
        <time>2021-08-27T13:29:41.000Z</time>
      </trkpt>
      <trkpt lat="45.19349" lon="10.72055">
        <ele>52.836196</ele>
        <time>2021-08-27T13:29:44.000Z</time>
      </trkpt>
      <trkpt lat="45.19362" lon="10.72022">
        <ele>52.788612</ele>
        <time>2021-08-27T13:29:49.000Z</time>
      </trkpt>
      <trkpt lat="45.19386" lon="10.71964">
        <ele>52.716537</ele>
        <time>2021-08-27T13:29:59.000Z</time>
      </trkpt>
      <trkpt lat="45.19388" lon="10.71953">
        <ele>52.709861</ele>
        <time>2021-08-27T13:30:03.000Z</time>
      </trkpt>
      <trkpt lat="45.19388" lon="10.71953">
        <ele>52.709861</ele>
        <time>2021-08-27T13:30:08.000Z</time>
      </trkpt>
      <trkpt lat="45.19387" lon="10.71954">
        <ele>52.709044</ele>
        <time>2021-08-27T13:30:16.000Z</time>
      </trkpt>
      <trkpt lat="45.19387" lon="10.71954">
        <ele>52.708917</ele>
        <time>2021-08-27T13:30:24.000Z</time>
      </trkpt>
      <trkpt lat="45.19387" lon="10.71952">
        <ele>52.707409</ele>
        <time>2021-08-27T13:30:27.000Z</time>
      </trkpt>
      <trkpt lat="45.19387" lon="10.71952">
        <ele>52.707409</ele>
        <time>2021-08-27T13:30:33.000Z</time>
      </trkpt>
      <trkpt lat="45.19387" lon="10.71952">
        <ele>52.707409</ele>
        <time>2021-08-27T13:30:37.000Z</time>
      </trkpt>
      <trkpt lat="45.19388" lon="10.7195">
        <ele>52.706389</ele>
        <time>2021-08-27T13:30:43.000Z</time>
      </trkpt>
      <trkpt lat="45.19388" lon="10.7195">
        <ele>52.706389</ele>
        <time>2021-08-27T13:31:01.000Z</time>
      </trkpt>
      <trkpt lat="45.19387" lon="10.7195">
        <ele>52.706022</ele>
        <time>2021-08-27T13:31:08.000Z</time>
      </trkpt>
      <trkpt lat="45.19387" lon="10.7195">
        <ele>52.706022</ele>
        <time>2021-08-27T13:31:11.000Z</time>
      </trkpt>
      <trkpt lat="45.19387" lon="10.7195">
        <ele>52.706022</ele>
        <time>2021-08-27T13:31:13.000Z</time>
      </trkpt>
      <trkpt lat="45.19387" lon="10.71951">
        <ele>52.705341</ele>
        <time>2021-08-27T13:31:23.000Z</time>
      </trkpt>
      <trkpt lat="45.19387" lon="10.71951">
        <ele>52.705341</ele>
        <time>2021-08-27T13:31:25.000Z</time>
      </trkpt>
      <trkpt lat="45.19387" lon="10.71951">
        <ele>52.705341</ele>
        <time>2021-08-27T13:31:26.000Z</time>
      </trkpt>
      <trkpt lat="45.19387" lon="10.71951">
        <ele>52.705341</ele>
        <time>2021-08-27T13:31:28.000Z</time>
      </trkpt>
      <trkpt lat="45.19387" lon="10.71951">
        <ele>52.705341</ele>
        <time>2021-08-27T13:31:33.000Z</time>
      </trkpt>
      <trkpt lat="45.19387" lon="10.71951">
        <ele>52.705341</ele>
        <time>2021-08-27T13:31:38.000Z</time>
      </trkpt>
      <trkpt lat="45.19387" lon="10.71951">
        <ele>52.705341</ele>
        <time>2021-08-27T13:32:04.000Z</time>
      </trkpt>
      <trkpt lat="45.19387" lon="10.71951">
        <ele>52.705341</ele>
        <time>2021-08-27T13:32:16.000Z</time>
      </trkpt>
      <trkpt lat="45.19387" lon="10.71951">
        <ele>52.705341</ele>
        <time>2021-08-27T13:32:21.000Z</time>
      </trkpt>
      <trkpt lat="45.19387" lon="10.71951">
        <ele>52.705341</ele>
        <time>2021-08-27T13:32:24.000Z</time>
      </trkpt>
      <trkpt lat="45.19387" lon="10.71951">
        <ele>52.705341</ele>
        <time>2021-08-27T13:32:39.000Z</time>
      </trkpt>
      <trkpt lat="45.19387" lon="10.71951">
        <ele>52.705341</ele>
        <time>2021-08-27T13:32:40.000Z</time>
      </trkpt>
      <trkpt lat="45.19387" lon="10.71951">
        <ele>52.705341</ele>
        <time>2021-08-27T13:32:41.000Z</time>
      </trkpt>
      <trkpt lat="45.19387" lon="10.71951">
        <ele>52.705341</ele>
        <time>2021-08-27T13:32:43.000Z</time>
      </trkpt>
      <trkpt lat="45.19387" lon="10.71951">
        <ele>52.705341</ele>
        <time>2021-08-27T13:32:44.000Z</time>
      </trkpt>
      <trkpt lat="45.19387" lon="10.71951">
        <ele>52.705341</ele>
        <time>2021-08-27T13:32:45.000Z</time>
      </trkpt>
      <trkpt lat="45.19387" lon="10.71951">
        <ele>52.705341</ele>
        <time>2021-08-27T13:32:49.000Z</time>
      </trkpt>
      <trkpt lat="45.19387" lon="10.71951">
        <ele>52.705341</ele>
        <time>2021-08-27T13:33:01.000Z</time>
      </trkpt>
      <trkpt lat="45.19387" lon="10.71951">
        <ele>52.705341</ele>
        <time>2021-08-27T13:33:03.000Z</time>
      </trkpt>
      <trkpt lat="45.19387" lon="10.71951">
        <ele>52.705341</ele>
        <time>2021-08-27T13:33:14.000Z</time>
      </trkpt>
      <trkpt lat="45.19387" lon="10.71951">
        <ele>52.705341</ele>
        <time>2021-08-27T13:33:15.000Z</time>
      </trkpt>
      <trkpt lat="45.19387" lon="10.71951">
        <ele>52.705341</ele>
        <time>2021-08-27T13:33:21.000Z</time>
      </trkpt>
      <trkpt lat="45.19387" lon="10.71951">
        <ele>52.705341</ele>
        <time>2021-08-27T13:33:35.000Z</time>
      </trkpt>
      <trkpt lat="45.19387" lon="10.71951">
        <ele>52.705341</ele>
        <time>2021-08-27T13:33:40.000Z</time>
      </trkpt>
      <trkpt lat="45.19387" lon="10.71951">
        <ele>52.705341</ele>
        <time>2021-08-27T13:33:41.000Z</time>
      </trkpt>
      <trkpt lat="45.19387" lon="10.71951">
        <ele>52.705341</ele>
        <time>2021-08-27T13:33:43.000Z</time>
      </trkpt>
      <trkpt lat="45.19387" lon="10.71951">
        <ele>52.705278</ele>
        <time>2021-08-27T13:33:45.000Z</time>
      </trkpt>
      <trkpt lat="45.19387" lon="10.71951">
        <ele>52.705151</ele>
        <time>2021-08-27T13:34:01.000Z</time>
      </trkpt>
      <trkpt lat="45.19387" lon="10.71951">
        <ele>52.70506</ele>
        <time>2021-08-27T13:34:05.000Z</time>
      </trkpt>
      <trkpt lat="45.19387" lon="10.71951">
        <ele>52.70506</ele>
        <time>2021-08-27T13:34:08.000Z</time>
      </trkpt>
      <trkpt lat="45.19387" lon="10.71951">
        <ele>52.70506</ele>
        <time>2021-08-27T13:34:17.000Z</time>
      </trkpt>
      <trkpt lat="45.19387" lon="10.71951">
        <ele>52.70497</ele>
        <time>2021-08-27T13:35:13.000Z</time>
      </trkpt>
      <trkpt lat="45.19387" lon="10.71951">
        <ele>52.70497</ele>
        <time>2021-08-27T13:35:24.000Z</time>
      </trkpt>
      <trkpt lat="45.19387" lon="10.71951">
        <ele>52.70486</ele>
        <time>2021-08-27T13:35:30.000Z</time>
      </trkpt>
      <trkpt lat="45.19387" lon="10.71951">
        <ele>52.704408</ele>
        <time>2021-08-27T13:35:39.000Z</time>
      </trkpt>
      <trkpt lat="45.19387" lon="10.71951">
        <ele>52.704408</ele>
        <time>2021-08-27T13:35:41.000Z</time>
      </trkpt>
      <trkpt lat="45.19388" lon="10.71951">
        <ele>52.704318</ele>
        <time>2021-08-27T13:35:44.000Z</time>
      </trkpt>
      <trkpt lat="45.19389" lon="10.7195">
        <ele>52.702402</ele>
        <time>2021-08-27T13:35:48.000Z</time>
      </trkpt>
      <trkpt lat="45.19391" lon="10.71944">
        <ele>52.698597</ele>
        <time>2021-08-27T13:35:50.000Z</time>
      </trkpt>
      <trkpt lat="45.19395" lon="10.71937">
        <ele>52.693009</ele>
        <time>2021-08-27T13:35:52.000Z</time>
      </trkpt>
      <trkpt lat="45.19398" lon="10.71929">
        <ele>52.687466</ele>
        <time>2021-08-27T13:35:54.000Z</time>
      </trkpt>
      <trkpt lat="45.19404" lon="10.71918">
        <ele>52.678412</ele>
        <time>2021-08-27T13:35:57.000Z</time>
      </trkpt>
      <trkpt lat="45.19412" lon="10.71897">
        <ele>52.662818</ele>
        <time>2021-08-27T13:36:02.000Z</time>
      </trkpt>
      <trkpt lat="45.19416" lon="10.71888">
        <ele>52.656077</ele>
        <time>2021-08-27T13:36:04.000Z</time>
      </trkpt>
      <trkpt lat="45.19424" lon="10.71867">
        <ele>52.640873</ele>
        <time>2021-08-27T13:36:08.000Z</time>
      </trkpt>
      <trkpt lat="45.19432" lon="10.71842">
        <ele>52.623287</ele>
        <time>2021-08-27T13:36:13.000Z</time>
      </trkpt>
      <trkpt lat="45.19448" lon="10.71797">
        <ele>52.591732</ele>
        <time>2021-08-27T13:36:22.000Z</time>
      </trkpt>
      <trkpt lat="45.19457" lon="10.71781">
        <ele>52.578514</ele>
        <time>2021-08-27T13:36:26.000Z</time>
      </trkpt>
      <trkpt lat="45.19465" lon="10.71764">
        <ele>52.567204</ele>
        <time>2021-08-27T13:36:29.000Z</time>
      </trkpt>
      <trkpt lat="45.19479" lon="10.71732">
        <ele>52.582522</ele>
        <time>2021-08-27T13:36:35.000Z</time>
      </trkpt>
      <trkpt lat="45.1948" lon="10.71729">
        <ele>52.583784</ele>
        <time>2021-08-27T13:36:36.000Z</time>
      </trkpt>
      <trkpt lat="45.19479" lon="10.71727">
        <ele>52.584742</ele>
        <time>2021-08-27T13:36:39.000Z</time>
      </trkpt>
      <trkpt lat="45.19479" lon="10.71727">
        <ele>52.584742</ele>
        <time>2021-08-27T13:36:43.000Z</time>
      </trkpt>
      <trkpt lat="45.19479" lon="10.71727">
        <ele>52.584842</ele>
        <time>2021-08-27T13:36:50.000Z</time>
      </trkpt>
      <trkpt lat="45.19479" lon="10.71727">
        <ele>52.584842</ele>
        <time>2021-08-27T13:36:51.000Z</time>
      </trkpt>
      <trkpt lat="45.19479" lon="10.71727">
        <ele>52.584842</ele>
        <time>2021-08-27T13:36:53.000Z</time>
      </trkpt>
      <trkpt lat="45.19479" lon="10.71727">
        <ele>52.584842</ele>
        <time>2021-08-27T13:37:00.000Z</time>
      </trkpt>
      <trkpt lat="45.19479" lon="10.71727">
        <ele>52.584842</ele>
        <time>2021-08-27T13:37:03.000Z</time>
      </trkpt>
      <trkpt lat="45.19479" lon="10.71727">
        <ele>52.584842</ele>
        <time>2021-08-27T13:37:11.000Z</time>
      </trkpt>
      <trkpt lat="45.19479" lon="10.71731">
        <ele>52.58649</ele>
        <time>2021-08-27T13:37:19.000Z</time>
      </trkpt>
      <trkpt lat="45.19479" lon="10.71732">
        <ele>52.586664</ele>
        <time>2021-08-27T13:37:21.000Z</time>
      </trkpt>
      <trkpt lat="45.19479" lon="10.71732">
        <ele>52.586705</ele>
        <time>2021-08-27T13:37:24.000Z</time>
      </trkpt>
      <trkpt lat="45.19478" lon="10.71735">
        <ele>52.588282</ele>
        <time>2021-08-27T13:37:42.000Z</time>
      </trkpt>
      <trkpt lat="45.19476" lon="10.71739">
        <ele>52.590057</ele>
        <time>2021-08-27T13:37:43.000Z</time>
      </trkpt>
      <trkpt lat="45.19467" lon="10.71762">
        <ele>52.600931</ele>
        <time>2021-08-27T13:37:48.000Z</time>
      </trkpt>
      <trkpt lat="45.19457" lon="10.71784">
        <ele>52.611856</ele>
        <time>2021-08-27T13:37:55.000Z</time>
      </trkpt>
      <trkpt lat="45.19454" lon="10.71789">
        <ele>52.614403</ele>
        <time>2021-08-27T13:37:58.000Z</time>
      </trkpt>
      <trkpt lat="45.19453" lon="10.718">
        <ele>52.618722</ele>
        <time>2021-08-27T13:38:01.000Z</time>
      </trkpt>
      <trkpt lat="45.19462" lon="10.71812">
        <ele>52.625942</ele>
        <time>2021-08-27T13:38:05.000Z</time>
      </trkpt>
      <trkpt lat="45.19471" lon="10.71819">
        <ele>52.631612</ele>
        <time>2021-08-27T13:38:08.000Z</time>
      </trkpt>
      <trkpt lat="45.19478" lon="10.71824">
        <ele>52.636253</ele>
        <time>2021-08-27T13:38:10.000Z</time>
      </trkpt>
      <trkpt lat="45.19484" lon="10.71828">
        <ele>52.640316</ele>
        <time>2021-08-27T13:38:12.000Z</time>
      </trkpt>
      <trkpt lat="45.19488" lon="10.7183">
        <ele>52.64261</ele>
        <time>2021-08-27T13:38:13.000Z</time>
      </trkpt>
      <trkpt lat="45.19507" lon="10.71839">
        <ele>52.654455</ele>
        <time>2021-08-27T13:38:18.000Z</time>
      </trkpt>
      <trkpt lat="45.1951" lon="10.71838">
        <ele>52.656017</ele>
        <time>2021-08-27T13:38:19.000Z</time>
      </trkpt>
      <trkpt lat="45.19511" lon="10.71835">
        <ele>52.657475</ele>
        <time>2021-08-27T13:38:20.000Z</time>
      </trkpt>
      <trkpt lat="45.19513" lon="10.71821">
        <ele>52.663192</ele>
        <time>2021-08-27T13:38:24.000Z</time>
      </trkpt>
      <trkpt lat="45.19521" lon="10.71798">
        <ele>52.659535</ele>
        <time>2021-08-27T13:38:28.000Z</time>
      </trkpt>
      <trkpt lat="45.19542" lon="10.71738">
        <ele>52.541748</ele>
        <time>2021-08-27T13:38:37.000Z</time>
      </trkpt>
      <trkpt lat="45.19567" lon="10.7167">
        <ele>52.406873</ele>
        <time>2021-08-27T13:38:47.000Z</time>
      </trkpt>
      <trkpt lat="45.19585" lon="10.71623">
        <ele>52.313252</ele>
        <time>2021-08-27T13:38:54.000Z</time>
      </trkpt>
      <trkpt lat="45.19591" lon="10.71609">
        <ele>52.284406</ele>
        <time>2021-08-27T13:38:56.000Z</time>
      </trkpt>
      <trkpt lat="45.19619" lon="10.71542">
        <ele>52.381259</ele>
        <time>2021-08-27T13:39:06.000Z</time>
      </trkpt>
      <trkpt lat="45.19624" lon="10.71531">
        <ele>52.433091</ele>
        <time>2021-08-27T13:39:08.000Z</time>
      </trkpt>
      <trkpt lat="45.19632" lon="10.71518">
        <ele>52.496363</ele>
        <time>2021-08-27T13:39:10.000Z</time>
      </trkpt>
      <trkpt lat="45.19643" lon="10.71507">
        <ele>52.568655</ele>
        <time>2021-08-27T13:39:13.000Z</time>
      </trkpt>
      <trkpt lat="45.19673" lon="10.71486">
        <ele>52.744361</ele>
        <time>2021-08-27T13:39:20.000Z</time>
      </trkpt>
      <trkpt lat="45.19703" lon="10.71471">
        <ele>52.915957</ele>
        <time>2021-08-27T13:39:28.000Z</time>
      </trkpt>
      <trkpt lat="45.19727" lon="10.71455">
        <ele>53.056002</ele>
        <time>2021-08-27T13:39:34.000Z</time>
      </trkpt>
      <trkpt lat="45.19739" lon="10.71447">
        <ele>53.128519</ele>
        <time>2021-08-27T13:39:37.000Z</time>
      </trkpt>
      <trkpt lat="45.19783" lon="10.71414">
        <ele>53.290544</ele>
        <time>2021-08-27T13:39:47.000Z</time>
      </trkpt>
      <trkpt lat="45.19818" lon="10.71386">
        <ele>53.400564</ele>
        <time>2021-08-27T13:39:55.000Z</time>
      </trkpt>
      <trkpt lat="45.19831" lon="10.71377">
        <ele>53.438418</ele>
        <time>2021-08-27T13:39:58.000Z</time>
      </trkpt>
      <trkpt lat="45.19835" lon="10.71374">
        <ele>53.45158</ele>
        <time>2021-08-27T13:39:59.000Z</time>
      </trkpt>
      <trkpt lat="45.19866" lon="10.71349">
        <ele>53.549151</ele>
        <time>2021-08-27T13:40:06.000Z</time>
      </trkpt>
      <trkpt lat="45.1987" lon="10.71345">
        <ele>53.563075</ele>
        <time>2021-08-27T13:40:07.000Z</time>
      </trkpt>
      <trkpt lat="45.19874" lon="10.71343">
        <ele>53.573574</ele>
        <time>2021-08-27T13:40:08.000Z</time>
      </trkpt>
      <trkpt lat="45.19906" lon="10.71323">
        <ele>53.670796</ele>
        <time>2021-08-27T13:40:15.000Z</time>
      </trkpt>
      <trkpt lat="45.19961" lon="10.71306">
        <ele>53.68847</ele>
        <time>2021-08-27T13:40:26.000Z</time>
      </trkpt>
      <trkpt lat="45.1997" lon="10.71303">
        <ele>53.69122</ele>
        <time>2021-08-27T13:40:28.000Z</time>
      </trkpt>
      <trkpt lat="45.20011" lon="10.71292">
        <ele>53.702638</ele>
        <time>2021-08-27T13:40:37.000Z</time>
      </trkpt>
      <trkpt lat="45.20054" lon="10.7128">
        <ele>53.714836</ele>
        <time>2021-08-27T13:40:46.000Z</time>
      </trkpt>
      <trkpt lat="45.20072" lon="10.71276">
        <ele>53.720001</ele>
        <time>2021-08-27T13:40:50.000Z</time>
      </trkpt>
      <trkpt lat="45.20087" lon="10.71272">
        <ele>53.716638</ele>
        <time>2021-08-27T13:40:53.000Z</time>
      </trkpt>
      <trkpt lat="45.20115" lon="10.71264">
        <ele>53.669606</ele>
        <time>2021-08-27T13:40:59.000Z</time>
      </trkpt>
      <trkpt lat="45.20133" lon="10.7126">
        <ele>53.640966</ele>
        <time>2021-08-27T13:41:03.000Z</time>
      </trkpt>
      <trkpt lat="45.20147" lon="10.71255">
        <ele>53.616348</ele>
        <time>2021-08-27T13:41:08.000Z</time>
      </trkpt>
      <trkpt lat="45.20156" lon="10.71253">
        <ele>53.601748</ele>
        <time>2021-08-27T13:41:12.000Z</time>
      </trkpt>
      <trkpt lat="45.20161" lon="10.71251">
        <ele>53.593145</ele>
        <time>2021-08-27T13:41:14.000Z</time>
      </trkpt>
      <trkpt lat="45.20164" lon="10.71251">
        <ele>53.587788</ele>
        <time>2021-08-27T13:41:15.000Z</time>
      </trkpt>
      <trkpt lat="45.20189" lon="10.71242">
        <ele>53.546634</ele>
        <time>2021-08-27T13:41:21.000Z</time>
      </trkpt>
      <trkpt lat="45.20208" lon="10.71236">
        <ele>53.514164</ele>
        <time>2021-08-27T13:41:25.000Z</time>
      </trkpt>
      <trkpt lat="45.20223" lon="10.71232">
        <ele>53.488896</ele>
        <time>2021-08-27T13:41:28.000Z</time>
      </trkpt>
      <trkpt lat="45.20273" lon="10.71219">
        <ele>53.552017</ele>
        <time>2021-08-27T13:41:38.000Z</time>
      </trkpt>
      <trkpt lat="45.20277" lon="10.71217">
        <ele>53.597883</ele>
        <time>2021-08-27T13:41:39.000Z</time>
      </trkpt>
      <trkpt lat="45.2033" lon="10.71204">
        <ele>54.108828</ele>
        <time>2021-08-27T13:41:50.000Z</time>
      </trkpt>
      <trkpt lat="45.20335" lon="10.71203">
        <ele>54.15547</ele>
        <time>2021-08-27T13:41:51.000Z</time>
      </trkpt>
      <trkpt lat="45.20386" lon="10.71195">
        <ele>54.637076</ele>
        <time>2021-08-27T13:42:01.000Z</time>
      </trkpt>
      <trkpt lat="45.20411" lon="10.71189">
        <ele>54.872573</ele>
        <time>2021-08-27T13:42:07.000Z</time>
      </trkpt>
      <trkpt lat="45.20415" lon="10.71189">
        <ele>54.914611</ele>
        <time>2021-08-27T13:42:08.000Z</time>
      </trkpt>
      <trkpt lat="45.20421" lon="10.71188">
        <ele>54.974246</ele>
        <time>2021-08-27T13:42:10.000Z</time>
      </trkpt>
      <trkpt lat="45.20428" lon="10.71188">
        <ele>55.041391</ele>
        <time>2021-08-27T13:42:12.000Z</time>
      </trkpt>
      <trkpt lat="45.20436" lon="10.71188">
        <ele>55.11813</ele>
        <time>2021-08-27T13:42:14.000Z</time>
      </trkpt>
      <trkpt lat="45.20443" lon="10.71187">
        <ele>55.178886</ele>
        <time>2021-08-27T13:42:16.000Z</time>
      </trkpt>
      <trkpt lat="45.20451" lon="10.71187">
        <ele>55.253518</ele>
        <time>2021-08-27T13:42:18.000Z</time>
      </trkpt>
      <trkpt lat="45.20463" lon="10.71188">
        <ele>55.354451</ele>
        <time>2021-08-27T13:42:21.000Z</time>
      </trkpt>
      <trkpt lat="45.20503" lon="10.7119">
        <ele>55.716067</ele>
        <time>2021-08-27T13:42:31.000Z</time>
      </trkpt>
      <trkpt lat="45.2054" lon="10.71193">
        <ele>56.052682</ele>
        <time>2021-08-27T13:42:39.000Z</time>
      </trkpt>
      <trkpt lat="45.20583" lon="10.71198">
        <ele>56.440725</ele>
        <time>2021-08-27T13:42:48.000Z</time>
      </trkpt>
      <trkpt lat="45.20626" lon="10.71204">
        <ele>56.743075</ele>
        <time>2021-08-27T13:42:57.000Z</time>
      </trkpt>
      <trkpt lat="45.20667" lon="10.71211">
        <ele>56.731691</ele>
        <time>2021-08-27T13:43:05.000Z</time>
      </trkpt>
      <trkpt lat="45.20717" lon="10.71221">
        <ele>56.7179</ele>
        <time>2021-08-27T13:43:15.000Z</time>
      </trkpt>
      <trkpt lat="45.20756" lon="10.71226">
        <ele>56.707107</ele>
        <time>2021-08-27T13:43:23.000Z</time>
      </trkpt>
      <trkpt lat="45.20787" lon="10.71233">
        <ele>56.698263</ele>
        <time>2021-08-27T13:43:29.000Z</time>
      </trkpt>
      <trkpt lat="45.20792" lon="10.71233">
        <ele>56.696932</ele>
        <time>2021-08-27T13:43:30.000Z</time>
      </trkpt>
      <trkpt lat="45.20843" lon="10.71244">
        <ele>57.058695</ele>
        <time>2021-08-27T13:43:40.000Z</time>
      </trkpt>
      <trkpt lat="45.20883" lon="10.7125">
        <ele>57.366369</ele>
        <time>2021-08-27T13:43:48.000Z</time>
      </trkpt>
      <trkpt lat="45.20901" lon="10.71252">
        <ele>57.503998</ele>
        <time>2021-08-27T13:43:51.000Z</time>
      </trkpt>
      <trkpt lat="45.20924" lon="10.71254">
        <ele>57.675659</ele>
        <time>2021-08-27T13:43:55.000Z</time>
      </trkpt>
      <trkpt lat="45.20947" lon="10.71256">
        <ele>57.852759</ele>
        <time>2021-08-27T13:43:59.000Z</time>
      </trkpt>
      <trkpt lat="45.20967" lon="10.7126">
        <ele>58.005591</ele>
        <time>2021-08-27T13:44:03.000Z</time>
      </trkpt>
      <trkpt lat="45.20987" lon="10.71263">
        <ele>58.189897</ele>
        <time>2021-08-27T13:44:07.000Z</time>
      </trkpt>
      <trkpt lat="45.2099" lon="10.71263">
        <ele>58.224384</ele>
        <time>2021-08-27T13:44:08.000Z</time>
      </trkpt>
      <trkpt lat="45.20995" lon="10.71264">
        <ele>58.275037</ele>
        <time>2021-08-27T13:44:09.000Z</time>
      </trkpt>
      <trkpt lat="45.21002" lon="10.71266">
        <ele>58.349674</ele>
        <time>2021-08-27T13:44:11.000Z</time>
      </trkpt>
      <trkpt lat="45.21005" lon="10.71267">
        <ele>58.384652</ele>
        <time>2021-08-27T13:44:12.000Z</time>
      </trkpt>
      <trkpt lat="45.21012" lon="10.7127">
        <ele>58.458045</ele>
        <time>2021-08-27T13:44:14.000Z</time>
      </trkpt>
      <trkpt lat="45.21037" lon="10.71279">
        <ele>58.72285</ele>
        <time>2021-08-27T13:44:21.000Z</time>
      </trkpt>
      <trkpt lat="45.21078" lon="10.71287">
        <ele>59.155124</ele>
        <time>2021-08-27T13:44:31.000Z</time>
      </trkpt>
      <trkpt lat="45.21112" lon="10.71294">
        <ele>59.506834</ele>
        <time>2021-08-27T13:44:39.000Z</time>
      </trkpt>
      <trkpt lat="45.2115" lon="10.71303">
        <ele>59.907943</ele>
        <time>2021-08-27T13:44:48.000Z</time>
      </trkpt>
      <trkpt lat="45.21194" lon="10.71319">
        <ele>59.969007</ele>
        <time>2021-08-27T13:44:58.000Z</time>
      </trkpt>
      <trkpt lat="45.21234" lon="10.71336">
        <ele>60.011103</ele>
        <time>2021-08-27T13:45:07.000Z</time>
      </trkpt>
      <trkpt lat="45.21277" lon="10.7136">
        <ele>60.057917</ele>
        <time>2021-08-27T13:45:17.000Z</time>
      </trkpt>
      <trkpt lat="45.21303" lon="10.71378">
        <ele>60.087903</ele>
        <time>2021-08-27T13:45:23.000Z</time>
      </trkpt>
      <trkpt lat="45.21321" lon="10.71391">
        <ele>60.114287</ele>
        <time>2021-08-27T13:45:27.000Z</time>
      </trkpt>
      <trkpt lat="45.21357" lon="10.71422">
        <ele>60.319183</ele>
        <time>2021-08-27T13:45:35.000Z</time>
      </trkpt>
      <trkpt lat="45.21378" lon="10.71445">
        <ele>60.454034</ele>
        <time>2021-08-27T13:45:41.000Z</time>
      </trkpt>
      <trkpt lat="45.21381" lon="10.71448">
        <ele>60.472214</ele>
        <time>2021-08-27T13:45:42.000Z</time>
      </trkpt>
      <trkpt lat="45.21387" lon="10.71454">
        <ele>60.506723</ele>
        <time>2021-08-27T13:45:44.000Z</time>
      </trkpt>
      <trkpt lat="45.21397" lon="10.71464">
        <ele>60.566472</ele>
        <time>2021-08-27T13:45:48.000Z</time>
      </trkpt>
      <trkpt lat="45.2142" lon="10.71481">
        <ele>60.696293</ele>
        <time>2021-08-27T13:45:55.000Z</time>
      </trkpt>
      <trkpt lat="45.2145" lon="10.71504">
        <ele>60.866248</ele>
        <time>2021-08-27T13:46:01.000Z</time>
      </trkpt>
      <trkpt lat="45.21456" lon="10.71508">
        <ele>60.89724</ele>
        <time>2021-08-27T13:46:02.000Z</time>
      </trkpt>
      <trkpt lat="45.21501" lon="10.71546">
        <ele>60.720873</ele>
        <time>2021-08-27T13:46:11.000Z</time>
      </trkpt>
      <trkpt lat="45.21537" lon="10.71578">
        <ele>60.357413</ele>
        <time>2021-08-27T13:46:19.000Z</time>
      </trkpt>
      <trkpt lat="45.21577" lon="10.71612">
        <ele>59.967678</ele>
        <time>2021-08-27T13:46:28.000Z</time>
      </trkpt>
      <trkpt lat="45.21612" lon="10.71642">
        <ele>59.617109</ele>
        <time>2021-08-27T13:46:36.000Z</time>
      </trkpt>
      <trkpt lat="45.21621" lon="10.7165">
        <ele>59.529602</ele>
        <time>2021-08-27T13:46:38.000Z</time>
      </trkpt>
      <trkpt lat="45.21655" lon="10.71679">
        <ele>59.385926</ele>
        <time>2021-08-27T13:46:46.000Z</time>
      </trkpt>
      <trkpt lat="45.21702" lon="10.71718">
        <ele>59.25139</ele>
        <time>2021-08-27T13:46:57.000Z</time>
      </trkpt>
      <trkpt lat="45.21706" lon="10.71722">
        <ele>59.23996</ele>
        <time>2021-08-27T13:46:58.000Z</time>
      </trkpt>
      <trkpt lat="45.21744" lon="10.71756">
        <ele>59.129802</ele>
        <time>2021-08-27T13:47:07.000Z</time>
      </trkpt>
      <trkpt lat="45.2178" lon="10.71787">
        <ele>59.026496</ele>
        <time>2021-08-27T13:47:15.000Z</time>
      </trkpt>
      <trkpt lat="45.21821" lon="10.71822">
        <ele>59.074249</ele>
        <time>2021-08-27T13:47:24.000Z</time>
      </trkpt>
      <trkpt lat="45.21861" lon="10.71857">
        <ele>59.124891</ele>
        <time>2021-08-27T13:47:33.000Z</time>
      </trkpt>
      <trkpt lat="45.21898" lon="10.71887">
        <ele>59.170641</ele>
        <time>2021-08-27T13:47:41.000Z</time>
      </trkpt>
      <trkpt lat="45.2194" lon="10.71922">
        <ele>59.253201</ele>
        <time>2021-08-27T13:47:50.000Z</time>
      </trkpt>
      <trkpt lat="45.21987" lon="10.71963">
        <ele>59.634992</ele>
        <time>2021-08-27T13:48:00.000Z</time>
      </trkpt>
      <trkpt lat="45.21996" lon="10.7197">
        <ele>59.708725</ele>
        <time>2021-08-27T13:48:02.000Z</time>
      </trkpt>
      <trkpt lat="45.22015" lon="10.71987">
        <ele>59.862294</ele>
        <time>2021-08-27T13:48:06.000Z</time>
      </trkpt>
      <trkpt lat="45.22043" lon="10.72012">
        <ele>60.093752</ele>
        <time>2021-08-27T13:48:12.000Z</time>
      </trkpt>
      <trkpt lat="45.22093" lon="10.72057">
        <ele>60.461165</ele>
        <time>2021-08-27T13:48:22.000Z</time>
      </trkpt>
      <trkpt lat="45.22106" lon="10.7207">
        <ele>60.451694</ele>
        <time>2021-08-27T13:48:25.000Z</time>
      </trkpt>
      <trkpt lat="45.22124" lon="10.72087">
        <ele>60.439147</ele>
        <time>2021-08-27T13:48:30.000Z</time>
      </trkpt>
      <trkpt lat="45.22143" lon="10.72102">
        <ele>60.426888</ele>
        <time>2021-08-27T13:48:35.000Z</time>
      </trkpt>
      <trkpt lat="45.22167" lon="10.72121">
        <ele>60.411052</ele>
        <time>2021-08-27T13:48:40.000Z</time>
      </trkpt>
      <trkpt lat="45.22198" lon="10.72147">
        <ele>60.390348</ele>
        <time>2021-08-27T13:48:46.000Z</time>
      </trkpt>
      <trkpt lat="45.22208" lon="10.72154">
        <ele>60.383669</ele>
        <time>2021-08-27T13:48:48.000Z</time>
      </trkpt>
      <trkpt lat="45.22251" lon="10.72191">
        <ele>60.346134</ele>
        <time>2021-08-27T13:48:57.000Z</time>
      </trkpt>
      <trkpt lat="45.22288" lon="10.72222">
        <ele>60.286639</ele>
        <time>2021-08-27T13:49:05.000Z</time>
      </trkpt>
      <trkpt lat="45.22319" lon="10.72252">
        <ele>60.235213</ele>
        <time>2021-08-27T13:49:12.000Z</time>
      </trkpt>
      <trkpt lat="45.22328" lon="10.7226">
        <ele>60.22016</ele>
        <time>2021-08-27T13:49:14.000Z</time>
      </trkpt>
      <trkpt lat="45.22359" lon="10.72288">
        <ele>60.167877</ele>
        <time>2021-08-27T13:49:21.000Z</time>
      </trkpt>
      <trkpt lat="45.2241" lon="10.72331">
        <ele>60.083972</ele>
        <time>2021-08-27T13:49:32.000Z</time>
      </trkpt>
      <trkpt lat="45.22414" lon="10.72335">
        <ele>60.075713</ele>
        <time>2021-08-27T13:49:33.000Z</time>
      </trkpt>
      <trkpt lat="45.22465" lon="10.72377">
        <ele>59.983612</ele>
        <time>2021-08-27T13:49:44.000Z</time>
      </trkpt>
      <trkpt lat="45.22506" lon="10.72412">
        <ele>59.90866</ele>
        <time>2021-08-27T13:49:53.000Z</time>
      </trkpt>
      <trkpt lat="45.22539" lon="10.72439">
        <ele>59.850598</ele>
        <time>2021-08-27T13:50:00.000Z</time>
      </trkpt>
      <trkpt lat="45.22581" lon="10.72475">
        <ele>59.631099</ele>
        <time>2021-08-27T13:50:09.000Z</time>
      </trkpt>
      <trkpt lat="45.22621" lon="10.72508">
        <ele>59.378573</ele>
        <time>2021-08-27T13:50:17.000Z</time>
      </trkpt>
      <trkpt lat="45.22664" lon="10.72547">
        <ele>59.096964</ele>
        <time>2021-08-27T13:50:26.000Z</time>
      </trkpt>
      <trkpt lat="45.22687" lon="10.72568">
        <ele>58.944611</ele>
        <time>2021-08-27T13:50:31.000Z</time>
      </trkpt>
      <trkpt lat="45.22706" lon="10.72585">
        <ele>58.852365</ele>
        <time>2021-08-27T13:50:35.000Z</time>
      </trkpt>
      <trkpt lat="45.2271" lon="10.7259">
        <ele>58.870557</ele>
        <time>2021-08-27T13:50:36.000Z</time>
      </trkpt>
      <trkpt lat="45.22728" lon="10.72613">
        <ele>58.949716</ele>
        <time>2021-08-27T13:50:40.000Z</time>
      </trkpt>
      <trkpt lat="45.22733" lon="10.72619">
        <ele>58.97097</ele>
        <time>2021-08-27T13:50:41.000Z</time>
      </trkpt>
      <trkpt lat="45.22748" lon="10.72636">
        <ele>59.035387</ele>
        <time>2021-08-27T13:50:44.000Z</time>
      </trkpt>
      <trkpt lat="45.22769" lon="10.72654">
        <ele>59.113683</ele>
        <time>2021-08-27T13:50:47.000Z</time>
      </trkpt>
      <trkpt lat="45.22773" lon="10.72657">
        <ele>59.130347</ele>
        <time>2021-08-27T13:50:48.000Z</time>
      </trkpt>
      <trkpt lat="45.22791" lon="10.72662">
        <ele>59.191182</ele>
        <time>2021-08-27T13:50:52.000Z</time>
      </trkpt>
      <trkpt lat="45.22806" lon="10.72662">
        <ele>59.237926</ele>
        <time>2021-08-27T13:50:56.000Z</time>
      </trkpt>
      <trkpt lat="45.22813" lon="10.72663">
        <ele>59.261463</ele>
        <time>2021-08-27T13:50:58.000Z</time>
      </trkpt>
      <trkpt lat="45.22834" lon="10.72675">
        <ele>59.336642</ele>
        <time>2021-08-27T13:51:04.000Z</time>
      </trkpt>
      <trkpt lat="45.22848" lon="10.72683">
        <ele>59.388193</ele>
        <time>2021-08-27T13:51:08.000Z</time>
      </trkpt>
      <trkpt lat="45.22862" lon="10.72691">
        <ele>59.434495</ele>
        <time>2021-08-27T13:51:12.000Z</time>
      </trkpt>
      <trkpt lat="45.22869" lon="10.72694">
        <ele>59.444351</ele>
        <time>2021-08-27T13:51:14.000Z</time>
      </trkpt>
      <trkpt lat="45.22897" lon="10.72707">
        <ele>59.480897</ele>
        <time>2021-08-27T13:51:21.000Z</time>
      </trkpt>
      <trkpt lat="45.22909" lon="10.72714">
        <ele>59.497158</ele>
        <time>2021-08-27T13:51:24.000Z</time>
      </trkpt>
      <trkpt lat="45.22943" lon="10.72726">
        <ele>59.54229</ele>
        <time>2021-08-27T13:51:32.000Z</time>
      </trkpt>
      <trkpt lat="45.22995" lon="10.72742">
        <ele>59.610108</ele>
        <time>2021-08-27T13:51:43.000Z</time>
      </trkpt>
      <trkpt lat="45.23046" lon="10.72754">
        <ele>59.64111</ele>
        <time>2021-08-27T13:51:54.000Z</time>
      </trkpt>
      <trkpt lat="45.23095" lon="10.72762">
        <ele>59.541017</ele>
        <time>2021-08-27T13:52:04.000Z</time>
      </trkpt>
      <trkpt lat="45.23109" lon="10.72764">
        <ele>59.511502</ele>
        <time>2021-08-27T13:52:07.000Z</time>
      </trkpt>
      <trkpt lat="45.23129" lon="10.72765">
        <ele>59.471762</ele>
        <time>2021-08-27T13:52:11.000Z</time>
      </trkpt>
      <trkpt lat="45.23168" lon="10.7277">
        <ele>59.391189</ele>
        <time>2021-08-27T13:52:19.000Z</time>
      </trkpt>
      <trkpt lat="45.23201" lon="10.72774">
        <ele>59.323785</ele>
        <time>2021-08-27T13:52:26.000Z</time>
      </trkpt>
      <trkpt lat="45.23227" lon="10.72779">
        <ele>59.342494</ele>
        <time>2021-08-27T13:52:31.000Z</time>
      </trkpt>
      <trkpt lat="45.23244" lon="10.72781">
        <ele>59.400683</ele>
        <time>2021-08-27T13:52:34.000Z</time>
      </trkpt>
      <trkpt lat="45.23276" lon="10.72787">
        <ele>59.515357</ele>
        <time>2021-08-27T13:52:40.000Z</time>
      </trkpt>
      <trkpt lat="45.23324" lon="10.72793">
        <ele>59.687472</ele>
        <time>2021-08-27T13:52:49.000Z</time>
      </trkpt>
      <trkpt lat="45.23378" lon="10.72804">
        <ele>59.879634</ele>
        <time>2021-08-27T13:52:59.000Z</time>
      </trkpt>
      <trkpt lat="45.23405" lon="10.7281">
        <ele>59.947148</ele>
        <time>2021-08-27T13:53:04.000Z</time>
      </trkpt>
      <trkpt lat="45.23422" lon="10.72813">
        <ele>59.964114</ele>
        <time>2021-08-27T13:53:07.000Z</time>
      </trkpt>
      <trkpt lat="45.2346" lon="10.72818">
        <ele>60.003377</ele>
        <time>2021-08-27T13:53:14.000Z</time>
      </trkpt>
      <trkpt lat="45.23497" lon="10.72823">
        <ele>60.040812</ele>
        <time>2021-08-27T13:53:21.000Z</time>
      </trkpt>
      <trkpt lat="45.23551" lon="10.72833">
        <ele>60.096772</ele>
        <time>2021-08-27T13:53:31.000Z</time>
      </trkpt>
      <trkpt lat="45.23601" lon="10.7284">
        <ele>60.175094</ele>
        <time>2021-08-27T13:53:40.000Z</time>
      </trkpt>
      <trkpt lat="45.23647" lon="10.7285">
        <ele>60.262595</ele>
        <time>2021-08-27T13:53:48.000Z</time>
      </trkpt>
      <trkpt lat="45.2368" lon="10.72858">
        <ele>60.327083</ele>
        <time>2021-08-27T13:53:55.000Z</time>
      </trkpt>
      <trkpt lat="45.23712" lon="10.7286">
        <ele>60.387021</ele>
        <time>2021-08-27T13:54:02.000Z</time>
      </trkpt>
      <trkpt lat="45.23736" lon="10.72862">
        <ele>60.433068</ele>
        <time>2021-08-27T13:54:06.000Z</time>
      </trkpt>
      <trkpt lat="45.23754" lon="10.72864">
        <ele>60.452854</ele>
        <time>2021-08-27T13:54:09.000Z</time>
      </trkpt>
      <trkpt lat="45.23796" lon="10.7287">
        <ele>60.372922</ele>
        <time>2021-08-27T13:54:16.000Z</time>
      </trkpt>
      <trkpt lat="45.23842" lon="10.72878">
        <ele>60.282277</ele>
        <time>2021-08-27T13:54:24.000Z</time>
      </trkpt>
      <trkpt lat="45.23899" lon="10.72888">
        <ele>60.172131</ele>
        <time>2021-08-27T13:54:34.000Z</time>
      </trkpt>
      <trkpt lat="45.23904" lon="10.72889">
        <ele>60.161621</ele>
        <time>2021-08-27T13:54:35.000Z</time>
      </trkpt>
      <trkpt lat="45.23954" lon="10.72897">
        <ele>60.081385</ele>
        <time>2021-08-27T13:54:44.000Z</time>
      </trkpt>
      <trkpt lat="45.23959" lon="10.72897">
        <ele>60.074181</ele>
        <time>2021-08-27T13:54:45.000Z</time>
      </trkpt>
      <trkpt lat="45.24001" lon="10.72905">
        <ele>60.018977</ele>
        <time>2021-08-27T13:54:53.000Z</time>
      </trkpt>
      <trkpt lat="45.24037" lon="10.72911">
        <ele>59.971116</ele>
        <time>2021-08-27T13:55:00.000Z</time>
      </trkpt>
      <trkpt lat="45.24094" lon="10.7292">
        <ele>59.896086</ele>
        <time>2021-08-27T13:55:11.000Z</time>
      </trkpt>
      <trkpt lat="45.24144" lon="10.72928">
        <ele>60.064295</ele>
        <time>2021-08-27T13:55:20.000Z</time>
      </trkpt>
      <trkpt lat="45.24188" lon="10.72937">
        <ele>60.295229</ele>
        <time>2021-08-27T13:55:28.000Z</time>
      </trkpt>
      <trkpt lat="45.24207" lon="10.72942">
        <ele>60.39543</ele>
        <time>2021-08-27T13:55:32.000Z</time>
      </trkpt>
      <trkpt lat="45.24216" lon="10.72945">
        <ele>60.443087</ele>
        <time>2021-08-27T13:55:34.000Z</time>
      </trkpt>
      <trkpt lat="45.24229" lon="10.72948">
        <ele>60.50757</ele>
        <time>2021-08-27T13:55:37.000Z</time>
      </trkpt>
      <trkpt lat="45.24233" lon="10.72948">
        <ele>60.528127</ele>
        <time>2021-08-27T13:55:38.000Z</time>
      </trkpt>
      <trkpt lat="45.24241" lon="10.72949">
        <ele>60.568119</ele>
        <time>2021-08-27T13:55:40.000Z</time>
      </trkpt>
      <trkpt lat="45.24268" lon="10.72951">
        <ele>60.707293</ele>
        <time>2021-08-27T13:55:46.000Z</time>
      </trkpt>
      <trkpt lat="45.24273" lon="10.72951">
        <ele>60.736021</ele>
        <time>2021-08-27T13:55:47.000Z</time>
      </trkpt>
      <trkpt lat="45.24291" lon="10.72952">
        <ele>60.748481</ele>
        <time>2021-08-27T13:55:50.000Z</time>
      </trkpt>
      <trkpt lat="45.24304" lon="10.72953">
        <ele>60.615765</ele>
        <time>2021-08-27T13:55:52.000Z</time>
      </trkpt>
      <trkpt lat="45.24323" lon="10.72955">
        <ele>60.412255</ele>
        <time>2021-08-27T13:55:55.000Z</time>
      </trkpt>
      <trkpt lat="45.24366" lon="10.72961">
        <ele>59.957792</ele>
        <time>2021-08-27T13:56:02.000Z</time>
      </trkpt>
      <trkpt lat="45.2442" lon="10.7297">
        <ele>59.387383</ele>
        <time>2021-08-27T13:56:11.000Z</time>
      </trkpt>
      <trkpt lat="45.24478" lon="10.72979">
        <ele>58.929399</ele>
        <time>2021-08-27T13:56:21.000Z</time>
      </trkpt>
      <trkpt lat="45.24484" lon="10.72979">
        <ele>58.93814</ele>
        <time>2021-08-27T13:56:22.000Z</time>
      </trkpt>
      <trkpt lat="45.24518" lon="10.72985">
        <ele>58.989121</ele>
        <time>2021-08-27T13:56:28.000Z</time>
      </trkpt>
      <trkpt lat="45.24545" lon="10.7299">
        <ele>59.030509</ele>
        <time>2021-08-27T13:56:33.000Z</time>
      </trkpt>
      <trkpt lat="45.24569" lon="10.72996">
        <ele>59.066632</ele>
        <time>2021-08-27T13:56:38.000Z</time>
      </trkpt>
      <trkpt lat="45.24573" lon="10.72997">
        <ele>59.073143</ele>
        <time>2021-08-27T13:56:39.000Z</time>
      </trkpt>
      <trkpt lat="45.24585" lon="10.72999">
        <ele>59.090676</ele>
        <time>2021-08-27T13:56:42.000Z</time>
      </trkpt>
      <trkpt lat="45.24601" lon="10.73001">
        <ele>59.114564</ele>
        <time>2021-08-27T13:56:46.000Z</time>
      </trkpt>
      <trkpt lat="45.24627" lon="10.73003">
        <ele>59.154328</ele>
        <time>2021-08-27T13:56:51.000Z</time>
      </trkpt>
      <trkpt lat="45.24639" lon="10.73005">
        <ele>59.172086</ele>
        <time>2021-08-27T13:56:53.000Z</time>
      </trkpt>
      <trkpt lat="45.24664" lon="10.73008">
        <ele>59.103831</ele>
        <time>2021-08-27T13:56:57.000Z</time>
      </trkpt>
      <trkpt lat="45.24719" lon="10.73018">
        <ele>58.902228</ele>
        <time>2021-08-27T13:57:06.000Z</time>
      </trkpt>
      <trkpt lat="45.24777" lon="10.73027">
        <ele>58.688291</ele>
        <time>2021-08-27T13:57:16.000Z</time>
      </trkpt>
      <trkpt lat="45.24821" lon="10.73033">
        <ele>58.525708</ele>
        <time>2021-08-27T13:57:24.000Z</time>
      </trkpt>
      <trkpt lat="45.24872" lon="10.73041">
        <ele>58.980959</ele>
        <time>2021-08-27T13:57:33.000Z</time>
      </trkpt>
      <trkpt lat="45.24878" lon="10.73042">
        <ele>59.032712</ele>
        <time>2021-08-27T13:57:34.000Z</time>
      </trkpt>
      <trkpt lat="45.24911" lon="10.73047">
        <ele>59.339</ele>
        <time>2021-08-27T13:57:40.000Z</time>
      </trkpt>
      <trkpt lat="45.24925" lon="10.73051">
        <ele>59.468379</ele>
        <time>2021-08-27T13:57:43.000Z</time>
      </trkpt>
      <trkpt lat="45.24937" lon="10.73054">
        <ele>59.583856</ele>
        <time>2021-08-27T13:57:46.000Z</time>
      </trkpt>
      <trkpt lat="45.24941" lon="10.73055">
        <ele>59.622348</ele>
        <time>2021-08-27T13:57:47.000Z</time>
      </trkpt>
      <trkpt lat="45.24958" lon="10.7306">
        <ele>59.784684</ele>
        <time>2021-08-27T13:57:52.000Z</time>
      </trkpt>
      <trkpt lat="45.24978" lon="10.73065">
        <ele>59.965229</ele>
        <time>2021-08-27T13:57:59.000Z</time>
      </trkpt>
      <trkpt lat="45.24997" lon="10.73064">
        <ele>60.139942</ele>
        <time>2021-08-27T13:58:04.000Z</time>
      </trkpt>
      <trkpt lat="45.25006" lon="10.73065">
        <ele>60.149073</ele>
        <time>2021-08-27T13:58:06.000Z</time>
      </trkpt>
      <trkpt lat="45.25028" lon="10.73067">
        <ele>60.04743</ele>
        <time>2021-08-27T13:58:10.000Z</time>
      </trkpt>
      <trkpt lat="45.25034" lon="10.73068">
        <ele>60.020853</ele>
        <time>2021-08-27T13:58:11.000Z</time>
      </trkpt>
      <trkpt lat="45.25069" lon="10.73072">
        <ele>59.856685</ele>
        <time>2021-08-27T13:58:17.000Z</time>
      </trkpt>
      <trkpt lat="45.25096" lon="10.73076">
        <ele>59.731778</ele>
        <time>2021-08-27T13:58:22.000Z</time>
      </trkpt>
      <trkpt lat="45.25122" lon="10.73081">
        <ele>59.607603</ele>
        <time>2021-08-27T13:58:27.000Z</time>
      </trkpt>
      <trkpt lat="45.25169" lon="10.73096">
        <ele>59.383103</ele>
        <time>2021-08-27T13:58:36.000Z</time>
      </trkpt>
      <trkpt lat="45.25205" lon="10.73113">
        <ele>59.656851</ele>
        <time>2021-08-27T13:58:43.000Z</time>
      </trkpt>
      <trkpt lat="45.2525" lon="10.73136">
        <ele>60.193204</ele>
        <time>2021-08-27T13:58:52.000Z</time>
      </trkpt>
      <trkpt lat="45.25294" lon="10.73161">
        <ele>60.728815</ele>
        <time>2021-08-27T13:59:01.000Z</time>
      </trkpt>
      <trkpt lat="45.25318" lon="10.73177">
        <ele>61.028946</ele>
        <time>2021-08-27T13:59:07.000Z</time>
      </trkpt>
      <trkpt lat="45.25338" lon="10.73187">
        <ele>61.267855</ele>
        <time>2021-08-27T13:59:12.000Z</time>
      </trkpt>
      <trkpt lat="45.25346" lon="10.73189">
        <ele>61.353918</ele>
        <time>2021-08-27T13:59:14.000Z</time>
      </trkpt>
      <trkpt lat="45.25362" lon="10.73191">
        <ele>61.67384</ele>
        <time>2021-08-27T13:59:18.000Z</time>
      </trkpt>
      <trkpt lat="45.25382" lon="10.73193">
        <ele>62.077801</ele>
        <time>2021-08-27T13:59:24.000Z</time>
      </trkpt>
      <trkpt lat="45.25385" lon="10.73194">
        <ele>62.133648</ele>
        <time>2021-08-27T13:59:25.000Z</time>
      </trkpt>
      <trkpt lat="45.254" lon="10.73202">
        <ele>62.453352</ele>
        <time>2021-08-27T13:59:31.000Z</time>
      </trkpt>
      <trkpt lat="45.25421" lon="10.73215">
        <ele>62.906913</ele>
        <time>2021-08-27T13:59:37.000Z</time>
      </trkpt>
      <trkpt lat="45.2544" lon="10.73227">
        <ele>63.337436</ele>
        <time>2021-08-27T13:59:42.000Z</time>
      </trkpt>
      <trkpt lat="45.25443" lon="10.73228">
        <ele>63.390252</ele>
        <time>2021-08-27T13:59:43.000Z</time>
      </trkpt>
      <trkpt lat="45.25448" lon="10.73229">
        <ele>63.493718</ele>
        <time>2021-08-27T13:59:44.000Z</time>
      </trkpt>
      <trkpt lat="45.25468" lon="10.73237">
        <ele>63.902291</ele>
        <time>2021-08-27T13:59:51.000Z</time>
      </trkpt>
      <trkpt lat="45.25471" lon="10.73242">
        <ele>63.990123</ele>
        <time>2021-08-27T13:59:52.000Z</time>
      </trkpt>
      <trkpt lat="45.25477" lon="10.73259">
        <ele>64.26905</ele>
        <time>2021-08-27T13:59:57.000Z</time>
      </trkpt>
      <trkpt lat="45.25478" lon="10.73283">
        <ele>64.604864</ele>
        <time>2021-08-27T14:00:04.000Z</time>
      </trkpt>
      <trkpt lat="45.2548" lon="10.73285">
        <ele>64.655492</ele>
        <time>2021-08-27T14:00:05.000Z</time>
      </trkpt>
      <trkpt lat="45.25487" lon="10.73287">
        <ele>64.793935</ele>
        <time>2021-08-27T14:00:08.000Z</time>
      </trkpt>
      <trkpt lat="45.25489" lon="10.73285">
        <ele>64.84098</ele>
        <time>2021-08-27T14:00:09.000Z</time>
      </trkpt>
      <trkpt lat="45.25491" lon="10.73281">
        <ele>64.911285</ele>
        <time>2021-08-27T14:00:13.000Z</time>
      </trkpt>
      <trkpt lat="45.25491" lon="10.73282">
        <ele>64.918609</ele>
        <time>2021-08-27T14:00:21.000Z</time>
      </trkpt>
      <trkpt lat="45.25491" lon="10.73282">
        <ele>64.918609</ele>
        <time>2021-08-27T14:00:26.000Z</time>
      </trkpt>
      <trkpt lat="45.25491" lon="10.73282">
        <ele>64.918609</ele>
        <time>2021-08-27T14:00:27.000Z</time>
      </trkpt>
      <trkpt lat="45.25491" lon="10.73281">
        <ele>64.923285</ele>
        <time>2021-08-27T14:00:48.000Z</time>
      </trkpt>
      <trkpt lat="45.25491" lon="10.73281">
        <ele>64.923285</ele>
        <time>2021-08-27T14:00:54.000Z</time>
      </trkpt>
      <trkpt lat="45.25491" lon="10.73281">
        <ele>64.923285</ele>
        <time>2021-08-27T14:01:06.000Z</time>
      </trkpt>
      <trkpt lat="45.25491" lon="10.73281">
        <ele>64.923285</ele>
        <time>2021-08-27T14:01:13.000Z</time>
      </trkpt>
      <trkpt lat="45.25491" lon="10.73281">
        <ele>64.923285</ele>
        <time>2021-08-27T14:01:19.000Z</time>
      </trkpt>
      <trkpt lat="45.25494" lon="10.73282">
        <ele>64.96596</ele>
        <time>2021-08-27T14:01:26.000Z</time>
      </trkpt>
      <trkpt lat="45.25499" lon="10.73283">
        <ele>65.017133</ele>
        <time>2021-08-27T14:01:28.000Z</time>
      </trkpt>
      <trkpt lat="45.25508" lon="10.73284">
        <ele>65.116343</ele>
        <time>2021-08-27T14:01:31.000Z</time>
      </trkpt>
      <trkpt lat="45.25519" lon="10.73282">
        <ele>65.225088</ele>
        <time>2021-08-27T14:01:34.000Z</time>
      </trkpt>
      <trkpt lat="45.25527" lon="10.73282">
        <ele>65.300098</ele>
        <time>2021-08-27T14:01:36.000Z</time>
      </trkpt>
      <trkpt lat="45.25537" lon="10.73282">
        <ele>65.402252</ele>
        <time>2021-08-27T14:01:39.000Z</time>
      </trkpt>
      <trkpt lat="45.25552" lon="10.73282">
        <ele>65.558112</ele>
        <time>2021-08-27T14:01:43.000Z</time>
      </trkpt>
      <trkpt lat="45.25568" lon="10.73288">
        <ele>65.722812</ele>
        <time>2021-08-27T14:01:49.000Z</time>
      </trkpt>
      <trkpt lat="45.25573" lon="10.73291">
        <ele>65.777708</ele>
        <time>2021-08-27T14:01:51.000Z</time>
      </trkpt>
      <trkpt lat="45.25587" lon="10.73297">
        <ele>65.932034</ele>
        <time>2021-08-27T14:01:56.000Z</time>
      </trkpt>
      <trkpt lat="45.25612" lon="10.7331">
        <ele>66.200098</ele>
        <time>2021-08-27T14:02:03.000Z</time>
      </trkpt>
      <trkpt lat="45.25642" lon="10.73323">
        <ele>66.516354</ele>
        <time>2021-08-27T14:02:10.000Z</time>
      </trkpt>
      <trkpt lat="45.25666" lon="10.73329">
        <ele>66.761081</ele>
        <time>2021-08-27T14:02:15.000Z</time>
      </trkpt>
      <trkpt lat="45.2568" lon="10.73329">
        <ele>66.81448</ele>
        <time>2021-08-27T14:02:18.000Z</time>
      </trkpt>
      <trkpt lat="45.25685" lon="10.73329">
        <ele>66.829992</ele>
        <time>2021-08-27T14:02:19.000Z</time>
      </trkpt>
      <trkpt lat="45.25715" lon="10.73326">
        <ele>66.91883</ele>
        <time>2021-08-27T14:02:26.000Z</time>
      </trkpt>
      <trkpt lat="45.25729" lon="10.73323">
        <ele>66.960379</ele>
        <time>2021-08-27T14:02:29.000Z</time>
      </trkpt>
      <trkpt lat="45.25766" lon="10.73311">
        <ele>67.070418</ele>
        <time>2021-08-27T14:02:37.000Z</time>
      </trkpt>
      <trkpt lat="45.2577" lon="10.73309">
        <ele>67.084342</ele>
        <time>2021-08-27T14:02:38.000Z</time>
      </trkpt>
      <trkpt lat="45.25787" lon="10.73297">
        <ele>67.138128</ele>
        <time>2021-08-27T14:02:42.000Z</time>
      </trkpt>
      <trkpt lat="45.25802" lon="10.73283">
        <ele>67.192362</ele>
        <time>2021-08-27T14:02:46.000Z</time>
      </trkpt>
      <trkpt lat="45.25824" lon="10.73254">
        <ele>67.279751</ele>
        <time>2021-08-27T14:02:52.000Z</time>
      </trkpt>
      <trkpt lat="45.25834" lon="10.73238">
        <ele>67.382462</ele>
        <time>2021-08-27T14:02:55.000Z</time>
      </trkpt>
      <trkpt lat="45.25849" lon="10.73208">
        <ele>67.738956</ele>
        <time>2021-08-27T14:03:00.000Z</time>
      </trkpt>
      <trkpt lat="45.25861" lon="10.73179">
        <ele>68.0662</ele>
        <time>2021-08-27T14:03:05.000Z</time>
      </trkpt>
      <trkpt lat="45.25864" lon="10.73169">
        <ele>68.173138</ele>
        <time>2021-08-27T14:03:07.000Z</time>
      </trkpt>
      <trkpt lat="45.25868" lon="10.73161">
        <ele>68.269592</ele>
        <time>2021-08-27T14:03:09.000Z</time>
      </trkpt>
      <trkpt lat="45.25877" lon="10.73141">
        <ele>68.502531</ele>
        <time>2021-08-27T14:03:14.000Z</time>
      </trkpt>
      <trkpt lat="45.25882" lon="10.73127">
        <ele>68.651466</ele>
        <time>2021-08-27T14:03:17.000Z</time>
      </trkpt>
      <trkpt lat="45.25888" lon="10.73114">
        <ele>68.803074</ele>
        <time>2021-08-27T14:03:20.000Z</time>
      </trkpt>
      <trkpt lat="45.25892" lon="10.73105">
        <ele>68.899967</ele>
        <time>2021-08-27T14:03:22.000Z</time>
      </trkpt>
      <trkpt lat="45.25908" lon="10.73074">
        <ele>69.278748</ele>
        <time>2021-08-27T14:03:29.000Z</time>
      </trkpt>
      <trkpt lat="45.25916" lon="10.73062">
        <ele>69.434266</ele>
        <time>2021-08-27T14:03:32.000Z</time>
      </trkpt>
      <trkpt lat="45.25941" lon="10.7304">
        <ele>69.787552</ele>
        <time>2021-08-27T14:03:39.000Z</time>
      </trkpt>
      <trkpt lat="45.25969" lon="10.73031">
        <ele>69.785263</ele>
        <time>2021-08-27T14:03:46.000Z</time>
      </trkpt>
      <trkpt lat="45.25973" lon="10.73029">
        <ele>69.784965</ele>
        <time>2021-08-27T14:03:47.000Z</time>
      </trkpt>
      <trkpt lat="45.2598" lon="10.73028">
        <ele>69.784372</ele>
        <time>2021-08-27T14:03:49.000Z</time>
      </trkpt>
      <trkpt lat="45.25988" lon="10.73025">
        <ele>69.783774</ele>
        <time>2021-08-27T14:03:51.000Z</time>
      </trkpt>
      <trkpt lat="45.26001" lon="10.73023">
        <ele>69.782735</ele>
        <time>2021-08-27T14:03:54.000Z</time>
      </trkpt>
      <trkpt lat="45.26013" lon="10.73019">
        <ele>69.781784</ele>
        <time>2021-08-27T14:03:57.000Z</time>
      </trkpt>
      <trkpt lat="45.26017" lon="10.73018">
        <ele>69.781481</ele>
        <time>2021-08-27T14:03:58.000Z</time>
      </trkpt>
      <trkpt lat="45.26055" lon="10.73011">
        <ele>69.778444</ele>
        <time>2021-08-27T14:04:07.000Z</time>
      </trkpt>
      <trkpt lat="45.26073" lon="10.73007">
        <ele>69.777039</ele>
        <time>2021-08-27T14:04:11.000Z</time>
      </trkpt>
      <trkpt lat="45.26091" lon="10.73002">
        <ele>69.775603</ele>
        <time>2021-08-27T14:04:15.000Z</time>
      </trkpt>
      <trkpt lat="45.26131" lon="10.72994">
        <ele>69.774292</ele>
        <time>2021-08-27T14:04:23.000Z</time>
      </trkpt>
      <trkpt lat="45.26182" lon="10.72982">
        <ele>69.775835</ele>
        <time>2021-08-27T14:04:34.000Z</time>
      </trkpt>
      <trkpt lat="45.26207" lon="10.72976">
        <ele>69.77659</ele>
        <time>2021-08-27T14:04:39.000Z</time>
      </trkpt>
      <trkpt lat="45.26216" lon="10.72973">
        <ele>69.776863</ele>
        <time>2021-08-27T14:04:41.000Z</time>
      </trkpt>
      <trkpt lat="45.26251" lon="10.72967">
        <ele>69.777885</ele>
        <time>2021-08-27T14:04:48.000Z</time>
      </trkpt>
      <trkpt lat="45.26288" lon="10.72957">
        <ele>69.779015</ele>
        <time>2021-08-27T14:04:56.000Z</time>
      </trkpt>
      <trkpt lat="45.26299" lon="10.72957">
        <ele>69.795219</ele>
        <time>2021-08-27T14:04:58.000Z</time>
      </trkpt>
      <trkpt lat="45.26353" lon="10.72945">
        <ele>69.903278</ele>
        <time>2021-08-27T14:05:09.000Z</time>
      </trkpt>
      <trkpt lat="45.26402" lon="10.72934">
        <ele>70.001931</ele>
        <time>2021-08-27T14:05:19.000Z</time>
      </trkpt>
      <trkpt lat="45.2645" lon="10.72924">
        <ele>70.098537</ele>
        <time>2021-08-27T14:05:29.000Z</time>
      </trkpt>
      <trkpt lat="45.26502" lon="10.72911">
        <ele>70.19182</ele>
        <time>2021-08-27T14:05:40.000Z</time>
      </trkpt>
      <trkpt lat="45.2655" lon="10.729">
        <ele>70.269394</ele>
        <time>2021-08-27T14:05:50.000Z</time>
      </trkpt>
      <trkpt lat="45.26594" lon="10.72889">
        <ele>70.339965</ele>
        <time>2021-08-27T14:05:59.000Z</time>
      </trkpt>
      <trkpt lat="45.26628" lon="10.72882">
        <ele>70.394639</ele>
        <time>2021-08-27T14:06:06.000Z</time>
      </trkpt>
      <trkpt lat="45.26637" lon="10.72881">
        <ele>70.409393</ele>
        <time>2021-08-27T14:06:08.000Z</time>
      </trkpt>
      <trkpt lat="45.26685" lon="10.7287">
        <ele>70.494235</ele>
        <time>2021-08-27T14:06:17.000Z</time>
      </trkpt>
      <trkpt lat="45.26732" lon="10.72862">
        <ele>70.577785</ele>
        <time>2021-08-27T14:06:26.000Z</time>
      </trkpt>
      <trkpt lat="45.26753" lon="10.72859">
        <ele>70.616258</ele>
        <time>2021-08-27T14:06:31.000Z</time>
      </trkpt>
      <trkpt lat="45.26779" lon="10.72851">
        <ele>70.662419</ele>
        <time>2021-08-27T14:06:38.000Z</time>
      </trkpt>
      <trkpt lat="45.26806" lon="10.72843">
        <ele>70.712618</ele>
        <time>2021-08-27T14:06:43.000Z</time>
      </trkpt>
      <trkpt lat="45.26853" lon="10.72832">
        <ele>70.671139</ele>
        <time>2021-08-27T14:06:51.000Z</time>
      </trkpt>
      <trkpt lat="45.26888" lon="10.72823">
        <ele>70.581954</ele>
        <time>2021-08-27T14:06:58.000Z</time>
      </trkpt>
      <trkpt lat="45.26933" lon="10.72816">
        <ele>70.466169</ele>
        <time>2021-08-27T14:07:07.000Z</time>
      </trkpt>
      <trkpt lat="45.26943" lon="10.72816">
        <ele>70.441564</ele>
        <time>2021-08-27T14:07:09.000Z</time>
      </trkpt>
      <trkpt lat="45.26968" lon="10.72813">
        <ele>70.378205</ele>
        <time>2021-08-27T14:07:14.000Z</time>
      </trkpt>
      <trkpt lat="45.27009" lon="10.72811">
        <ele>70.29567</ele>
        <time>2021-08-27T14:07:23.000Z</time>
      </trkpt>
      <trkpt lat="45.27055" lon="10.72815">
        <ele>70.344039</ele>
        <time>2021-08-27T14:07:33.000Z</time>
      </trkpt>
      <trkpt lat="45.27098" lon="10.72822">
        <ele>70.389398</ele>
        <time>2021-08-27T14:07:42.000Z</time>
      </trkpt>
      <trkpt lat="45.27141" lon="10.72832">
        <ele>70.435122</ele>
        <time>2021-08-27T14:07:51.000Z</time>
      </trkpt>
      <trkpt lat="45.27179" lon="10.72844">
        <ele>70.475009</ele>
        <time>2021-08-27T14:07:59.000Z</time>
      </trkpt>
      <trkpt lat="45.27183" lon="10.72846">
        <ele>70.480273</ele>
        <time>2021-08-27T14:08:00.000Z</time>
      </trkpt>
      <trkpt lat="45.27219" lon="10.7286">
        <ele>70.524577</ele>
        <time>2021-08-27T14:08:08.000Z</time>
      </trkpt>
      <trkpt lat="45.27235" lon="10.72868">
        <ele>70.545906</ele>
        <time>2021-08-27T14:08:12.000Z</time>
      </trkpt>
      <trkpt lat="45.27272" lon="10.72885">
        <ele>70.592115</ele>
        <time>2021-08-27T14:08:21.000Z</time>
      </trkpt>
      <trkpt lat="45.27314" lon="10.72905">
        <ele>70.645992</ele>
        <time>2021-08-27T14:08:31.000Z</time>
      </trkpt>
      <trkpt lat="45.27355" lon="10.72925">
        <ele>70.695649</ele>
        <time>2021-08-27T14:08:40.000Z</time>
      </trkpt>
      <trkpt lat="45.27408" lon="10.72951">
        <ele>70.730047</ele>
        <time>2021-08-27T14:08:52.000Z</time>
      </trkpt>
      <trkpt lat="45.27418" lon="10.72956">
        <ele>70.736076</ele>
        <time>2021-08-27T14:08:54.000Z</time>
      </trkpt>
      <trkpt lat="45.2747" lon="10.72981">
        <ele>70.769501</ele>
        <time>2021-08-27T14:09:05.000Z</time>
      </trkpt>
      <trkpt lat="45.27516" lon="10.73001">
        <ele>70.799261</ele>
        <time>2021-08-27T14:09:15.000Z</time>
      </trkpt>
      <trkpt lat="45.27562" lon="10.73016">
        <ele>70.876221</ele>
        <time>2021-08-27T14:09:25.000Z</time>
      </trkpt>
      <trkpt lat="45.276" lon="10.73027">
        <ele>70.945312</ele>
        <time>2021-08-27T14:09:33.000Z</time>
      </trkpt>
      <trkpt lat="45.2761" lon="10.7303">
        <ele>70.96352</ele>
        <time>2021-08-27T14:09:35.000Z</time>
      </trkpt>
      <trkpt lat="45.27644" lon="10.73039">
        <ele>71.026149</ele>
        <time>2021-08-27T14:09:42.000Z</time>
      </trkpt>
      <trkpt lat="45.27674" lon="10.73046">
        <ele>71.082331</ele>
        <time>2021-08-27T14:09:49.000Z</time>
      </trkpt>
      <trkpt lat="45.27693" lon="10.73049">
        <ele>71.116336</ele>
        <time>2021-08-27T14:09:53.000Z</time>
      </trkpt>
      <trkpt lat="45.27712" lon="10.73051">
        <ele>71.116156</ele>
        <time>2021-08-27T14:09:57.000Z</time>
      </trkpt>
      <trkpt lat="45.27753" lon="10.73053">
        <ele>71.079822</ele>
        <time>2021-08-27T14:10:06.000Z</time>
      </trkpt>
      <trkpt lat="45.27798" lon="10.73056">
        <ele>71.039813</ele>
        <time>2021-08-27T14:10:15.000Z</time>
      </trkpt>
      <trkpt lat="45.27802" lon="10.73055">
        <ele>71.036441</ele>
        <time>2021-08-27T14:10:16.000Z</time>
      </trkpt>
      <trkpt lat="45.27827" lon="10.73054">
        <ele>71.01418</ele>
        <time>2021-08-27T14:10:21.000Z</time>
      </trkpt>
      <trkpt lat="45.27875" lon="10.73052">
        <ele>70.971988</ele>
        <time>2021-08-27T14:10:30.000Z</time>
      </trkpt>
      <trkpt lat="45.27916" lon="10.73048">
        <ele>70.837685</ele>
        <time>2021-08-27T14:10:38.000Z</time>
      </trkpt>
      <trkpt lat="45.27958" lon="10.7304">
        <ele>70.687711</ele>
        <time>2021-08-27T14:10:46.000Z</time>
      </trkpt>
      <trkpt lat="45.28004" lon="10.7303">
        <ele>70.523625</ele>
        <time>2021-08-27T14:10:55.000Z</time>
      </trkpt>
      <trkpt lat="45.28059" lon="10.73016">
        <ele>70.338325</ele>
        <time>2021-08-27T14:11:06.000Z</time>
      </trkpt>
      <trkpt lat="45.28079" lon="10.7301">
        <ele>70.436392</ele>
        <time>2021-08-27T14:11:10.000Z</time>
      </trkpt>
      <trkpt lat="45.2811" lon="10.73002">
        <ele>70.584197</ele>
        <time>2021-08-27T14:11:16.000Z</time>
      </trkpt>
      <trkpt lat="45.28158" lon="10.72989">
        <ele>70.817914</ele>
        <time>2021-08-27T14:11:26.000Z</time>
      </trkpt>
      <trkpt lat="45.28212" lon="10.72977">
        <ele>71.075019</ele>
        <time>2021-08-27T14:11:37.000Z</time>
      </trkpt>
      <trkpt lat="45.28227" lon="10.72974">
        <ele>71.144654</ele>
        <time>2021-08-27T14:11:40.000Z</time>
      </trkpt>
      <trkpt lat="45.28231" lon="10.72974">
        <ele>71.16556</ele>
        <time>2021-08-27T14:11:41.000Z</time>
      </trkpt>
      <trkpt lat="45.28244" lon="10.72971">
        <ele>71.128052</ele>
        <time>2021-08-27T14:11:44.000Z</time>
      </trkpt>
      <trkpt lat="45.28258" lon="10.72969">
        <ele>71.04453</ele>
        <time>2021-08-27T14:11:49.000Z</time>
      </trkpt>
      <trkpt lat="45.28269" lon="10.72966">
        <ele>70.982399</ele>
        <time>2021-08-27T14:11:55.000Z</time>
      </trkpt>
      <trkpt lat="45.28269" lon="10.72966">
        <ele>70.981004</ele>
        <time>2021-08-27T14:11:58.000Z</time>
      </trkpt>
      <trkpt lat="45.28269" lon="10.72966">
        <ele>70.981004</ele>
        <time>2021-08-27T14:12:06.000Z</time>
      </trkpt>
      <trkpt lat="45.28269" lon="10.72966">
        <ele>70.981004</ele>
        <time>2021-08-27T14:12:08.000Z</time>
      </trkpt>
      <trkpt lat="45.28269" lon="10.72966">
        <ele>70.981004</ele>
        <time>2021-08-27T14:12:12.000Z</time>
      </trkpt>
      <trkpt lat="45.28269" lon="10.72966">
        <ele>70.981004</ele>
        <time>2021-08-27T14:12:23.000Z</time>
      </trkpt>
      <trkpt lat="45.28269" lon="10.72966">
        <ele>70.978586</ele>
        <time>2021-08-27T14:12:49.000Z</time>
      </trkpt>
      <trkpt lat="45.28269" lon="10.72966">
        <ele>70.978586</ele>
        <time>2021-08-27T14:12:52.000Z</time>
      </trkpt>
      <trkpt lat="45.28272" lon="10.72963">
        <ele>70.958788</ele>
        <time>2021-08-27T14:13:07.000Z</time>
      </trkpt>
      <trkpt lat="45.28275" lon="10.72962">
        <ele>70.943604</ele>
        <time>2021-08-27T14:13:08.000Z</time>
      </trkpt>
      <trkpt lat="45.28288" lon="10.72956">
        <ele>70.863891</ele>
        <time>2021-08-27T14:13:12.000Z</time>
      </trkpt>
      <trkpt lat="45.28292" lon="10.72954">
        <ele>70.840624</ele>
        <time>2021-08-27T14:13:13.000Z</time>
      </trkpt>
      <trkpt lat="45.28305" lon="10.7295">
        <ele>70.762764</ele>
        <time>2021-08-27T14:13:16.000Z</time>
      </trkpt>
      <trkpt lat="45.2832" lon="10.72946">
        <ele>70.678515</ele>
        <time>2021-08-27T14:13:19.000Z</time>
      </trkpt>
      <trkpt lat="45.28361" lon="10.72935">
        <ele>70.437273</ele>
        <time>2021-08-27T14:13:28.000Z</time>
      </trkpt>
      <trkpt lat="45.28406" lon="10.72921">
        <ele>70.174715</ele>
        <time>2021-08-27T14:13:37.000Z</time>
      </trkpt>
      <trkpt lat="45.28464" lon="10.72907">
        <ele>70.322872</ele>
        <time>2021-08-27T14:13:48.000Z</time>
      </trkpt>
      <trkpt lat="45.28468" lon="10.72906">
        <ele>70.338158</ele>
        <time>2021-08-27T14:13:49.000Z</time>
      </trkpt>
      <trkpt lat="45.28506" lon="10.72895">
        <ele>70.456995</ele>
        <time>2021-08-27T14:13:56.000Z</time>
      </trkpt>
      <trkpt lat="45.28539" lon="10.72887">
        <ele>70.557508</ele>
        <time>2021-08-27T14:14:02.000Z</time>
      </trkpt>
      <trkpt lat="45.28582" lon="10.72876">
        <ele>70.69232</ele>
        <time>2021-08-27T14:14:10.000Z</time>
      </trkpt>
      <trkpt lat="45.28604" lon="10.7287">
        <ele>70.721735</ele>
        <time>2021-08-27T14:14:14.000Z</time>
      </trkpt>
      <trkpt lat="45.2862" lon="10.72866">
        <ele>70.735493</ele>
        <time>2021-08-27T14:14:17.000Z</time>
      </trkpt>
      <trkpt lat="45.28675" lon="10.72851">
        <ele>70.782402</ele>
        <time>2021-08-27T14:14:27.000Z</time>
      </trkpt>
      <trkpt lat="45.28686" lon="10.72849">
        <ele>70.791073</ele>
        <time>2021-08-27T14:14:29.000Z</time>
      </trkpt>
      <trkpt lat="45.28736" lon="10.72835">
        <ele>70.834244</ele>
        <time>2021-08-27T14:14:38.000Z</time>
      </trkpt>
      <trkpt lat="45.28753" lon="10.7283">
        <ele>70.848724</ele>
        <time>2021-08-27T14:14:41.000Z</time>
      </trkpt>
      <trkpt lat="45.28765" lon="10.72826">
        <ele>70.85838</ele>
        <time>2021-08-27T14:14:43.000Z</time>
      </trkpt>
      <trkpt lat="45.28798" lon="10.72816">
        <ele>70.875028</ele>
        <time>2021-08-27T14:14:49.000Z</time>
      </trkpt>
      <trkpt lat="45.28826" lon="10.72809">
        <ele>70.889054</ele>
        <time>2021-08-27T14:14:54.000Z</time>
      </trkpt>
      <trkpt lat="45.28853" lon="10.72802">
        <ele>70.902602</ele>
        <time>2021-08-27T14:14:59.000Z</time>
      </trkpt>
      <trkpt lat="45.28908" lon="10.72788">
        <ele>70.930809</ele>
        <time>2021-08-27T14:15:09.000Z</time>
      </trkpt>
      <trkpt lat="45.28954" lon="10.72776">
        <ele>70.941131</ele>
        <time>2021-08-27T14:15:17.000Z</time>
      </trkpt>
      <trkpt lat="45.28995" lon="10.72766">
        <ele>70.923945</ele>
        <time>2021-08-27T14:15:24.000Z</time>
      </trkpt>
      <trkpt lat="45.29019" lon="10.7276">
        <ele>70.914051</ele>
        <time>2021-08-27T14:15:28.000Z</time>
      </trkpt>
      <trkpt lat="45.29071" lon="10.72745">
        <ele>70.89242</ele>
        <time>2021-08-27T14:15:37.000Z</time>
      </trkpt>
      <trkpt lat="45.29125" lon="10.7273">
        <ele>70.872245</ele>
        <time>2021-08-27T14:15:46.000Z</time>
      </trkpt>
      <trkpt lat="45.29136" lon="10.72726">
        <ele>70.870568</ele>
        <time>2021-08-27T14:15:48.000Z</time>
      </trkpt>
      <trkpt lat="45.2919" lon="10.72703">
        <ele>70.862286</ele>
        <time>2021-08-27T14:15:58.000Z</time>
      </trkpt>
      <trkpt lat="45.29227" lon="10.72684">
        <ele>70.85642</ele>
        <time>2021-08-27T14:16:05.000Z</time>
      </trkpt>
      <trkpt lat="45.29238" lon="10.72679">
        <ele>70.854809</ele>
        <time>2021-08-27T14:16:07.000Z</time>
      </trkpt>
      <trkpt lat="45.29281" lon="10.72652">
        <ele>70.847754</ele>
        <time>2021-08-27T14:16:16.000Z</time>
      </trkpt>
      <trkpt lat="45.29301" lon="10.72639">
        <ele>70.859703</ele>
        <time>2021-08-27T14:16:20.000Z</time>
      </trkpt>
      <trkpt lat="45.2933" lon="10.72617">
        <ele>70.886242</ele>
        <time>2021-08-27T14:16:26.000Z</time>
      </trkpt>
      <trkpt lat="45.29368" lon="10.72586">
        <ele>70.92115</ele>
        <time>2021-08-27T14:16:34.000Z</time>
      </trkpt>
      <trkpt lat="45.29373" lon="10.72582">
        <ele>70.92546</ele>
        <time>2021-08-27T14:16:35.000Z</time>
      </trkpt>
      <trkpt lat="45.2941" lon="10.72546">
        <ele>70.961667</ele>
        <time>2021-08-27T14:16:44.000Z</time>
      </trkpt>
      <trkpt lat="45.29418" lon="10.72539">
        <ele>70.969168</ele>
        <time>2021-08-27T14:16:46.000Z</time>
      </trkpt>
      <trkpt lat="45.29432" lon="10.72525">
        <ele>70.98285</ele>
        <time>2021-08-27T14:16:49.000Z</time>
      </trkpt>
      <trkpt lat="45.29445" lon="10.72512">
        <ele>71.000309</ele>
        <time>2021-08-27T14:16:52.000Z</time>
      </trkpt>
      <trkpt lat="45.29481" lon="10.72473">
        <ele>71.07871</ele>
        <time>2021-08-27T14:17:01.000Z</time>
      </trkpt>
      <trkpt lat="45.29489" lon="10.72463">
        <ele>71.096722</ele>
        <time>2021-08-27T14:17:03.000Z</time>
      </trkpt>
      <trkpt lat="45.29511" lon="10.72438">
        <ele>71.146005</ele>
        <time>2021-08-27T14:17:09.000Z</time>
      </trkpt>
      <trkpt lat="45.29527" lon="10.72421">
        <ele>71.180027</ele>
        <time>2021-08-27T14:17:13.000Z</time>
      </trkpt>
      <trkpt lat="45.29554" lon="10.72391">
        <ele>71.239172</ele>
        <time>2021-08-27T14:17:20.000Z</time>
      </trkpt>
      <trkpt lat="45.29599" lon="10.72342">
        <ele>71.310628</ele>
        <time>2021-08-27T14:17:31.000Z</time>
      </trkpt>
      <trkpt lat="45.29602" lon="10.72339">
        <ele>71.312641</ele>
        <time>2021-08-27T14:17:32.000Z</time>
      </trkpt>
      <trkpt lat="45.29645" lon="10.72292">
        <ele>71.338563</ele>
        <time>2021-08-27T14:17:42.000Z</time>
      </trkpt>
      <trkpt lat="45.2965" lon="10.72286">
        <ele>71.341733</ele>
        <time>2021-08-27T14:17:43.000Z</time>
      </trkpt>
      <trkpt lat="45.29694" lon="10.72239">
        <ele>71.368093</ele>
        <time>2021-08-27T14:17:53.000Z</time>
      </trkpt>
      <trkpt lat="45.29737" lon="10.72192">
        <ele>71.446513</ele>
        <time>2021-08-27T14:18:03.000Z</time>
      </trkpt>
      <trkpt lat="45.29778" lon="10.72149">
        <ele>71.649126</ele>
        <time>2021-08-27T14:18:13.000Z</time>
      </trkpt>
      <trkpt lat="45.29787" lon="10.72139">
        <ele>71.69602</ele>
        <time>2021-08-27T14:18:16.000Z</time>
      </trkpt>
      <trkpt lat="45.29792" lon="10.72133">
        <ele>71.721783</ele>
        <time>2021-08-27T14:18:18.000Z</time>
      </trkpt>
      <trkpt lat="45.29797" lon="10.72124">
        <ele>71.752348</ele>
        <time>2021-08-27T14:18:23.000Z</time>
      </trkpt>
      <trkpt lat="45.29797" lon="10.72124">
        <ele>71.752348</ele>
        <time>2021-08-27T14:18:51.000Z</time>
      </trkpt>
      <trkpt lat="45.29797" lon="10.72124">
        <ele>71.752348</ele>
        <time>2021-08-27T14:18:56.000Z</time>
      </trkpt>
      <trkpt lat="45.29797" lon="10.72124">
        <ele>71.752348</ele>
        <time>2021-08-27T14:19:13.000Z</time>
      </trkpt>
      <trkpt lat="45.29797" lon="10.72124">
        <ele>71.752348</ele>
        <time>2021-08-27T14:19:15.000Z</time>
      </trkpt>
      <trkpt lat="45.29797" lon="10.72124">
        <ele>71.753194</ele>
        <time>2021-08-27T14:19:18.000Z</time>
      </trkpt>
      <trkpt lat="45.29804" lon="10.7212">
        <ele>71.785438</ele>
        <time>2021-08-27T14:19:21.000Z</time>
      </trkpt>
      <trkpt lat="45.29807" lon="10.72117">
        <ele>71.799756</ele>
        <time>2021-08-27T14:19:22.000Z</time>
      </trkpt>
      <trkpt lat="45.29821" lon="10.72101">
        <ele>71.871607</ele>
        <time>2021-08-27T14:19:26.000Z</time>
      </trkpt>
      <trkpt lat="45.29854" lon="10.72064">
        <ele>72.0371</ele>
        <time>2021-08-27T14:19:34.000Z</time>
      </trkpt>
      <trkpt lat="45.29862" lon="10.72058">
        <ele>72.075345</ele>
        <time>2021-08-27T14:19:36.000Z</time>
      </trkpt>
      <trkpt lat="45.2988" lon="10.72041">
        <ele>72.065214</ele>
        <time>2021-08-27T14:19:41.000Z</time>
      </trkpt>
      <trkpt lat="45.29884" lon="10.72037">
        <ele>72.053448</ele>
        <time>2021-08-27T14:19:42.000Z</time>
      </trkpt>
      <trkpt lat="45.29891" lon="10.72027">
        <ele>72.025785</ele>
        <time>2021-08-27T14:19:45.000Z</time>
      </trkpt>
      <trkpt lat="45.29892" lon="10.72022">
        <ele>72.015253</ele>
        <time>2021-08-27T14:19:47.000Z</time>
      </trkpt>
      <trkpt lat="45.29894" lon="10.72017">
        <ele>72.003706</ele>
        <time>2021-08-27T14:19:49.000Z</time>
      </trkpt>
      <trkpt lat="45.29905" lon="10.72001">
        <ele>71.960093</ele>
        <time>2021-08-27T14:19:53.000Z</time>
      </trkpt>
      <trkpt lat="45.29916" lon="10.71987">
        <ele>71.918405</ele>
        <time>2021-08-27T14:19:56.000Z</time>
      </trkpt>
      <trkpt lat="45.29928" lon="10.71974">
        <ele>71.875005</ele>
        <time>2021-08-27T14:19:59.000Z</time>
      </trkpt>
      <trkpt lat="45.29963" lon="10.71928">
        <ele>71.74235</ele>
        <time>2021-08-27T14:20:08.000Z</time>
      </trkpt>
      <trkpt lat="45.29966" lon="10.71923">
        <ele>71.727773</ele>
        <time>2021-08-27T14:20:09.000Z</time>
      </trkpt>
      <trkpt lat="45.3001" lon="10.71866">
        <ele>71.673129</ele>
        <time>2021-08-27T14:20:20.000Z</time>
      </trkpt>
      <trkpt lat="45.30014" lon="10.71861">
        <ele>71.703841</ele>
        <time>2021-08-27T14:20:21.000Z</time>
      </trkpt>
      <trkpt lat="45.30042" lon="10.71826">
        <ele>71.907576</ele>
        <time>2021-08-27T14:20:28.000Z</time>
      </trkpt>
      <trkpt lat="45.30049" lon="10.71816">
        <ele>71.958911</ele>
        <time>2021-08-27T14:20:30.000Z</time>
      </trkpt>
      <trkpt lat="45.30055" lon="10.71807">
        <ele>72.005334</ele>
        <time>2021-08-27T14:20:32.000Z</time>
      </trkpt>
      <trkpt lat="45.30058" lon="10.71803">
        <ele>72.029145</ele>
        <time>2021-08-27T14:20:33.000Z</time>
      </trkpt>
      <trkpt lat="45.30064" lon="10.71793">
        <ele>72.076862</ele>
        <time>2021-08-27T14:20:35.000Z</time>
      </trkpt>
      <trkpt lat="45.30082" lon="10.71764">
        <ele>72.225674</ele>
        <time>2021-08-27T14:20:42.000Z</time>
      </trkpt>
      <trkpt lat="45.30088" lon="10.71755">
        <ele>72.271927</ele>
        <time>2021-08-27T14:20:44.000Z</time>
      </trkpt>
      <trkpt lat="45.30094" lon="10.71747">
        <ele>72.313584</ele>
        <time>2021-08-27T14:20:46.000Z</time>
      </trkpt>
      <trkpt lat="45.30106" lon="10.71729">
        <ele>72.412253</ele>
        <time>2021-08-27T14:20:50.000Z</time>
      </trkpt>
      <trkpt lat="45.30129" lon="10.71696">
        <ele>72.577614</ele>
        <time>2021-08-27T14:20:57.000Z</time>
      </trkpt>
      <trkpt lat="45.30146" lon="10.71661">
        <ele>72.642275</ele>
        <time>2021-08-27T14:21:03.000Z</time>
      </trkpt>
      <trkpt lat="45.30152" lon="10.7165">
        <ele>72.663621</ele>
        <time>2021-08-27T14:21:05.000Z</time>
      </trkpt>
      <trkpt lat="45.30158" lon="10.71638">
        <ele>72.685106</ele>
        <time>2021-08-27T14:21:07.000Z</time>
      </trkpt>
      <trkpt lat="45.30169" lon="10.71616">
        <ele>72.726314</ele>
        <time>2021-08-27T14:21:11.000Z</time>
      </trkpt>
      <trkpt lat="45.30186" lon="10.71579">
        <ele>72.794465</ele>
        <time>2021-08-27T14:21:18.000Z</time>
      </trkpt>
      <trkpt lat="45.30189" lon="10.71573">
        <ele>72.804893</ele>
        <time>2021-08-27T14:21:19.000Z</time>
      </trkpt>
      <trkpt lat="45.30205" lon="10.71541">
        <ele>72.864226</ele>
        <time>2021-08-27T14:21:25.000Z</time>
      </trkpt>
      <trkpt lat="45.30209" lon="10.71531">
        <ele>72.882469</ele>
        <time>2021-08-27T14:21:27.000Z</time>
      </trkpt>
      <trkpt lat="45.30215" lon="10.71518">
        <ele>72.90471</ele>
        <time>2021-08-27T14:21:31.000Z</time>
      </trkpt>
      <trkpt lat="45.30228" lon="10.71491">
        <ele>72.954598</ele>
        <time>2021-08-27T14:21:38.000Z</time>
      </trkpt>
      <trkpt lat="45.3024" lon="10.71463">
        <ele>72.944098</ele>
        <time>2021-08-27T14:21:44.000Z</time>
      </trkpt>
      <trkpt lat="45.3025" lon="10.71442">
        <ele>72.93167</ele>
        <time>2021-08-27T14:21:48.000Z</time>
      </trkpt>
      <trkpt lat="45.30261" lon="10.71415">
        <ele>72.915591</ele>
        <time>2021-08-27T14:21:53.000Z</time>
      </trkpt>
      <trkpt lat="45.30271" lon="10.71394">
        <ele>72.902536</ele>
        <time>2021-08-27T14:21:57.000Z</time>
      </trkpt>
      <trkpt lat="45.30277" lon="10.71377">
        <ele>72.892857</ele>
        <time>2021-08-27T14:22:00.000Z</time>
      </trkpt>
      <trkpt lat="45.30279" lon="10.71372">
        <ele>72.889781</ele>
        <time>2021-08-27T14:22:01.000Z</time>
      </trkpt>
      <trkpt lat="45.3029" lon="10.71343">
        <ele>72.873048</ele>
        <time>2021-08-27T14:22:06.000Z</time>
      </trkpt>
      <trkpt lat="45.30309" lon="10.71283">
        <ele>72.839385</ele>
        <time>2021-08-27T14:22:16.000Z</time>
      </trkpt>
      <trkpt lat="45.30318" lon="10.71254">
        <ele>72.836783</ele>
        <time>2021-08-27T14:22:22.000Z</time>
      </trkpt>
      <trkpt lat="45.30318" lon="10.71254">
        <ele>72.837215</ele>
        <time>2021-08-27T14:22:25.000Z</time>
      </trkpt>
      <trkpt lat="45.30319" lon="10.71255">
        <ele>72.838435</ele>
        <time>2021-08-27T14:22:32.000Z</time>
      </trkpt>
      <trkpt lat="45.30319" lon="10.71255">
        <ele>72.838611</ele>
        <time>2021-08-27T14:22:33.000Z</time>
      </trkpt>
      <trkpt lat="45.30325" lon="10.7126">
        <ele>72.845894</ele>
        <time>2021-08-27T14:22:39.000Z</time>
      </trkpt>
      <trkpt lat="45.30327" lon="10.71262">
        <ele>72.848019</ele>
        <time>2021-08-27T14:22:40.000Z</time>
      </trkpt>
      <trkpt lat="45.30338" lon="10.7127">
        <ele>72.861005</ele>
        <time>2021-08-27T14:22:45.000Z</time>
      </trkpt>
      <trkpt lat="45.30341" lon="10.71273">
        <ele>72.864883</ele>
        <time>2021-08-27T14:22:47.000Z</time>
      </trkpt>
      <trkpt lat="45.30348" lon="10.71276">
        <ele>72.872369</ele>
        <time>2021-08-27T14:22:52.000Z</time>
      </trkpt>
      <trkpt lat="45.30351" lon="10.71276">
        <ele>72.87494</ele>
        <time>2021-08-27T14:22:54.000Z</time>
      </trkpt>
      <trkpt lat="45.30354" lon="10.71272">
        <ele>72.879314</ele>
        <time>2021-08-27T14:22:56.000Z</time>
      </trkpt>
      <trkpt lat="45.30356" lon="10.71263">
        <ele>72.88597</ele>
        <time>2021-08-27T14:22:59.000Z</time>
      </trkpt>
      <trkpt lat="45.30358" lon="10.71253">
        <ele>72.893433</ele>
        <time>2021-08-27T14:23:03.000Z</time>
      </trkpt>
      <trkpt lat="45.30358" lon="10.71253">
        <ele>72.893672</ele>
        <time>2021-08-27T14:23:04.000Z</time>
      </trkpt>
      <trkpt lat="45.30358" lon="10.71252">
        <ele>72.894839</ele>
        <time>2021-08-27T14:23:09.000Z</time>
      </trkpt>
      <trkpt lat="45.30358" lon="10.71252">
        <ele>72.894839</ele>
        <time>2021-08-27T14:23:11.000Z</time>
      </trkpt>
      <trkpt lat="45.30358" lon="10.71252">
        <ele>72.894839</ele>
        <time>2021-08-27T14:23:14.000Z</time>
      </trkpt>
      <trkpt lat="45.30359" lon="10.7125">
        <ele>72.896196</ele>
        <time>2021-08-27T14:23:17.000Z</time>
      </trkpt>
      <trkpt lat="45.30361" lon="10.71244">
        <ele>72.901146</ele>
        <time>2021-08-27T14:23:23.000Z</time>
      </trkpt>
      <trkpt lat="45.30362" lon="10.71243">
        <ele>72.902405</ele>
        <time>2021-08-27T14:23:26.000Z</time>
      </trkpt>
      <trkpt lat="45.30362" lon="10.71243">
        <ele>72.902405</ele>
        <time>2021-08-27T14:23:28.000Z</time>
      </trkpt>
      <trkpt lat="45.30362" lon="10.71243">
        <ele>72.902405</ele>
        <time>2021-08-27T14:23:29.000Z</time>
      </trkpt>
      <trkpt lat="45.30362" lon="10.71243">
        <ele>72.902405</ele>
        <time>2021-08-27T14:23:30.000Z</time>
      </trkpt>
      <trkpt lat="45.30362" lon="10.71242">
        <ele>72.902819</ele>
        <time>2021-08-27T14:23:33.000Z</time>
      </trkpt>
      <trkpt lat="45.30362" lon="10.71241">
        <ele>72.903429</ele>
        <time>2021-08-27T14:23:36.000Z</time>
      </trkpt>
      <trkpt lat="45.30362" lon="10.71241">
        <ele>72.903429</ele>
        <time>2021-08-27T14:23:37.000Z</time>
      </trkpt>
      <trkpt lat="45.30362" lon="10.71241">
        <ele>72.903429</ele>
        <time>2021-08-27T14:23:58.000Z</time>
      </trkpt>
      <trkpt lat="45.30362" lon="10.71241">
        <ele>72.903501</ele>
        <time>2021-08-27T14:24:06.000Z</time>
      </trkpt>
      <trkpt lat="45.30362" lon="10.71241">
        <ele>72.903573</ele>
        <time>2021-08-27T14:24:14.000Z</time>
      </trkpt>
      <trkpt lat="45.30362" lon="10.71241">
        <ele>72.903573</ele>
        <time>2021-08-27T14:24:17.000Z</time>
      </trkpt>
      <trkpt lat="45.30362" lon="10.71241">
        <ele>72.903777</ele>
        <time>2021-08-27T14:24:34.000Z</time>
      </trkpt>
      <trkpt lat="45.30362" lon="10.71241">
        <ele>72.903777</ele>
        <time>2021-08-27T14:24:41.000Z</time>
      </trkpt>
      <trkpt lat="45.30362" lon="10.71241">
        <ele>72.903777</ele>
        <time>2021-08-27T14:24:46.000Z</time>
      </trkpt>
      <trkpt lat="45.30362" lon="10.71241">
        <ele>72.903777</ele>
        <time>2021-08-27T14:24:52.000Z</time>
      </trkpt>
      <trkpt lat="45.30362" lon="10.71241">
        <ele>72.903777</ele>
        <time>2021-08-27T14:25:08.000Z</time>
      </trkpt>
      <trkpt lat="45.30362" lon="10.71241">
        <ele>72.903777</ele>
        <time>2021-08-27T14:25:12.000Z</time>
      </trkpt>
      <trkpt lat="45.30362" lon="10.71241">
        <ele>72.903777</ele>
        <time>2021-08-27T14:25:17.000Z</time>
      </trkpt>
      <trkpt lat="45.30362" lon="10.71241">
        <ele>72.903777</ele>
        <time>2021-08-27T14:25:25.000Z</time>
      </trkpt>
      <trkpt lat="45.30362" lon="10.71241">
        <ele>72.903777</ele>
        <time>2021-08-27T14:26:11.000Z</time>
      </trkpt>
      <trkpt lat="45.30362" lon="10.71241">
        <ele>72.903777</ele>
        <time>2021-08-27T14:26:16.000Z</time>
      </trkpt>
      <trkpt lat="45.30362" lon="10.71241">
        <ele>72.903777</ele>
        <time>2021-08-27T14:26:27.000Z</time>
      </trkpt>
      <trkpt lat="45.30362" lon="10.71241">
        <ele>72.903777</ele>
        <time>2021-08-27T14:26:33.000Z</time>
      </trkpt>
      <trkpt lat="45.30362" lon="10.71241">
        <ele>72.904394</ele>
        <time>2021-08-27T14:26:45.000Z</time>
      </trkpt>
      <trkpt lat="45.30365" lon="10.71239">
        <ele>72.907486</ele>
        <time>2021-08-27T14:26:58.000Z</time>
      </trkpt>
      <trkpt lat="45.30375" lon="10.71233">
        <ele>72.917913</ele>
        <time>2021-08-27T14:27:03.000Z</time>
      </trkpt>
      <trkpt lat="45.30375" lon="10.7123">
        <ele>72.920572</ele>
        <time>2021-08-27T14:27:05.000Z</time>
      </trkpt>
      <trkpt lat="45.30375" lon="10.71228">
        <ele>72.92174</ele>
        <time>2021-08-27T14:27:06.000Z</time>
      </trkpt>
      <trkpt lat="45.30375" lon="10.71228">
        <ele>72.922183</ele>
        <time>2021-08-27T14:27:11.000Z</time>
      </trkpt>
      <trkpt lat="45.30374" lon="10.71232">
        <ele>72.925264</ele>
        <time>2021-08-27T14:27:17.000Z</time>
      </trkpt>
      <trkpt lat="45.30373" lon="10.71231">
        <ele>72.925941</ele>
        <time>2021-08-27T14:27:18.000Z</time>
      </trkpt>
      <trkpt lat="45.30367" lon="10.71229">
        <ele>72.932821</ele>
        <time>2021-08-27T14:27:21.000Z</time>
      </trkpt>
      <trkpt lat="45.30365" lon="10.71229">
        <ele>72.935211</ele>
        <time>2021-08-27T14:27:22.000Z</time>
      </trkpt>
      <trkpt lat="45.30355" lon="10.71222">
        <ele>72.945929</ele>
        <time>2021-08-27T14:27:26.000Z</time>
      </trkpt>
      <trkpt lat="45.30347" lon="10.71219">
        <ele>72.954266</ele>
        <time>2021-08-27T14:27:27.000Z</time>
      </trkpt>
      <trkpt lat="45.30341" lon="10.71214">
        <ele>72.961958</ele>
        <time>2021-08-27T14:27:31.000Z</time>
      </trkpt>
      <trkpt lat="45.30332" lon="10.71215">
        <ele>72.970609</ele>
        <time>2021-08-27T14:27:33.000Z</time>
      </trkpt>
      <trkpt lat="45.30334" lon="10.7122">
        <ele>72.974372</ele>
        <time>2021-08-27T14:27:34.000Z</time>
      </trkpt>
      <trkpt lat="45.30362" lon="10.71227">
        <ele>73.003836</ele>
        <time>2021-08-27T14:27:36.000Z</time>
      </trkpt>
      <trkpt lat="45.30365" lon="10.71226">
        <ele>73.00716</ele>
        <time>2021-08-27T14:27:40.000Z</time>
      </trkpt>
      <trkpt lat="45.30367" lon="10.71224">
        <ele>73.009718</ele>
        <time>2021-08-27T14:27:41.000Z</time>
      </trkpt>
      <trkpt lat="45.30369" lon="10.71216">
        <ele>73.004907</ele>
        <time>2021-08-27T14:27:47.000Z</time>
      </trkpt>
      <trkpt lat="45.30381" lon="10.71217">
        <ele>72.974662</ele>
        <time>2021-08-27T14:27:49.000Z</time>
      </trkpt>
      <trkpt lat="45.3039" lon="10.71216">
        <ele>72.954397</ele>
        <time>2021-08-27T14:27:51.000Z</time>
      </trkpt>
      <trkpt lat="45.30388" lon="10.71215">
        <ele>72.95101</ele>
        <time>2021-08-27T14:27:53.000Z</time>
      </trkpt>
      <trkpt lat="45.30384" lon="10.71215">
        <ele>72.94101</ele>
        <time>2021-08-27T14:27:55.000Z</time>
      </trkpt>
      <trkpt lat="45.3038" lon="10.71217">
        <ele>72.930658</ele>
        <time>2021-08-27T14:28:01.000Z</time>
      </trkpt>
      <trkpt lat="45.30366" lon="10.71224">
        <ele>72.893517</ele>
        <time>2021-08-27T14:28:05.000Z</time>
      </trkpt>
      <trkpt lat="45.30363" lon="10.71225">
        <ele>72.885536</ele>
        <time>2021-08-27T14:28:07.000Z</time>
      </trkpt>
      <trkpt lat="45.30358" lon="10.71226">
        <ele>72.875372</ele>
        <time>2021-08-27T14:28:09.000Z</time>
      </trkpt>
      <trkpt lat="45.30358" lon="10.71226">
        <ele>72.874565</ele>
        <time>2021-08-27T14:28:10.000Z</time>
      </trkpt>
      <trkpt lat="45.30351" lon="10.71229">
        <ele>72.856589</ele>
        <time>2021-08-27T14:28:17.000Z</time>
      </trkpt>
      <trkpt lat="45.3036" lon="10.71237">
        <ele>72.829427</ele>
        <time>2021-08-27T14:56:57.000Z</time>
      </trkpt>
      <trkpt lat="45.30361" lon="10.71238">
        <ele>72.827042</ele>
        <time>2021-08-27T14:56:59.000Z</time>
      </trkpt>
      <trkpt lat="45.30361" lon="10.71239">
        <ele>72.825179</ele>
        <time>2021-08-27T14:57:00.000Z</time>
      </trkpt>
      <trkpt lat="45.30362" lon="10.7124">
        <ele>72.822835</ele>
        <time>2021-08-27T14:57:01.000Z</time>
      </trkpt>
      <trkpt lat="45.30361" lon="10.71242">
        <ele>72.819107</ele>
        <time>2021-08-27T14:57:02.000Z</time>
      </trkpt>
      <trkpt lat="45.3036" lon="10.71246">
        <ele>72.813202</ele>
        <time>2021-08-27T14:57:04.000Z</time>
      </trkpt>
      <trkpt lat="45.30359" lon="10.71248">
        <ele>72.808542</ele>
        <time>2021-08-27T14:57:06.000Z</time>
      </trkpt>
      <trkpt lat="45.3036" lon="10.71249">
        <ele>72.806812</ele>
        <time>2021-08-27T14:57:07.000Z</time>
      </trkpt>
      <trkpt lat="45.30359" lon="10.71252">
        <ele>72.80162</ele>
        <time>2021-08-27T14:57:12.000Z</time>
      </trkpt>
      <trkpt lat="45.30358" lon="10.71251">
        <ele>72.798737</ele>
        <time>2021-08-27T14:57:19.000Z</time>
      </trkpt>
      <trkpt lat="45.30356" lon="10.71251">
        <ele>72.793367</ele>
        <time>2021-08-27T14:57:26.000Z</time>
      </trkpt>
      <trkpt lat="45.30354" lon="10.7125">
        <ele>72.788071</ele>
        <time>2021-08-27T14:57:28.000Z</time>
      </trkpt>
      <trkpt lat="45.30349" lon="10.71247">
        <ele>72.77456</ele>
        <time>2021-08-27T14:57:32.000Z</time>
      </trkpt>
      <trkpt lat="45.30337" lon="10.71243">
        <ele>72.744298</ele>
        <time>2021-08-27T14:57:37.000Z</time>
      </trkpt>
      <trkpt lat="45.30323" lon="10.71236">
        <ele>72.707743</ele>
        <time>2021-08-27T14:57:43.000Z</time>
      </trkpt>
      <trkpt lat="45.30321" lon="10.71235">
        <ele>72.704146</ele>
        <time>2021-08-27T14:57:44.000Z</time>
      </trkpt>
      <trkpt lat="45.30321" lon="10.71229">
        <ele>72.693803</ele>
        <time>2021-08-27T14:57:46.000Z</time>
      </trkpt>
      <trkpt lat="45.30322" lon="10.71223">
        <ele>72.682809</ele>
        <time>2021-08-27T14:57:48.000Z</time>
      </trkpt>
      <trkpt lat="45.30323" lon="10.71219">
        <ele>72.675848</ele>
        <time>2021-08-27T14:57:49.000Z</time>
      </trkpt>
      <trkpt lat="45.30324" lon="10.71215">
        <ele>72.667763</ele>
        <time>2021-08-27T14:57:50.000Z</time>
      </trkpt>
      <trkpt lat="45.30325" lon="10.7121">
        <ele>72.660003</ele>
        <time>2021-08-27T14:57:51.000Z</time>
      </trkpt>
      <trkpt lat="45.30327" lon="10.71202">
        <ele>72.644405</ele>
        <time>2021-08-27T14:57:53.000Z</time>
      </trkpt>
      <trkpt lat="45.30331" lon="10.71182">
        <ele>72.608991</ele>
        <time>2021-08-27T14:57:57.000Z</time>
      </trkpt>
      <trkpt lat="45.30333" lon="10.71173">
        <ele>72.593477</ele>
        <time>2021-08-27T14:57:59.000Z</time>
      </trkpt>
      <trkpt lat="45.30336" lon="10.71158">
        <ele>72.596871</ele>
        <time>2021-08-27T14:58:03.000Z</time>
      </trkpt>
      <trkpt lat="45.30342" lon="10.71125">
        <ele>72.744776</ele>
        <time>2021-08-27T14:58:10.000Z</time>
      </trkpt>
      <trkpt lat="45.30351" lon="10.71089">
        <ele>72.916148</ele>
        <time>2021-08-27T14:58:17.000Z</time>
      </trkpt>
      <trkpt lat="45.30356" lon="10.7105">
        <ele>73.092886</ele>
        <time>2021-08-27T14:58:24.000Z</time>
      </trkpt>
      <trkpt lat="45.30357" lon="10.71038">
        <ele>73.146911</ele>
        <time>2021-08-27T14:58:26.000Z</time>
      </trkpt>
      <trkpt lat="45.3036" lon="10.71019">
        <ele>73.232696</ele>
        <time>2021-08-27T14:58:29.000Z</time>
      </trkpt>
      <trkpt lat="45.30361" lon="10.71006">
        <ele>73.291852</ele>
        <time>2021-08-27T14:58:31.000Z</time>
      </trkpt>
      <trkpt lat="45.30361" lon="10.70999">
        <ele>73.32208</ele>
        <time>2021-08-27T14:58:32.000Z</time>
      </trkpt>
      <trkpt lat="45.30365" lon="10.70953">
        <ele>73.529996</ele>
        <time>2021-08-27T14:58:39.000Z</time>
      </trkpt>
      <trkpt lat="45.30365" lon="10.70946">
        <ele>73.558872</ele>
        <time>2021-08-27T14:58:40.000Z</time>
      </trkpt>
      <trkpt lat="45.30365" lon="10.70932">
        <ele>73.619837</ele>
        <time>2021-08-27T14:58:42.000Z</time>
      </trkpt>
      <trkpt lat="45.30368" lon="10.70905">
        <ele>73.682303</ele>
        <time>2021-08-27T14:58:46.000Z</time>
      </trkpt>
      <trkpt lat="45.3037" lon="10.70885">
        <ele>73.60674</ele>
        <time>2021-08-27T14:58:49.000Z</time>
      </trkpt>
      <trkpt lat="45.30372" lon="10.70855">
        <ele>73.497479</ele>
        <time>2021-08-27T14:58:54.000Z</time>
      </trkpt>
      <trkpt lat="45.30375" lon="10.70837">
        <ele>73.428054</ele>
        <time>2021-08-27T14:58:58.000Z</time>
      </trkpt>
      <trkpt lat="45.30375" lon="10.70833">
        <ele>73.413304</ele>
        <time>2021-08-27T14:58:59.000Z</time>
      </trkpt>
      <trkpt lat="45.30377" lon="10.70826">
        <ele>73.38373</ele>
        <time>2021-08-27T14:59:01.000Z</time>
      </trkpt>
      <trkpt lat="45.30378" lon="10.70814">
        <ele>73.338948</ele>
        <time>2021-08-27T14:59:05.000Z</time>
      </trkpt>
      <trkpt lat="45.30377" lon="10.70804">
        <ele>73.303059</ele>
        <time>2021-08-27T14:59:08.000Z</time>
      </trkpt>
      <trkpt lat="45.30375" lon="10.70789">
        <ele>73.245352</ele>
        <time>2021-08-27T14:59:11.000Z</time>
      </trkpt>
      <trkpt lat="45.30375" lon="10.70765">
        <ele>73.158323</ele>
        <time>2021-08-27T14:59:14.000Z</time>
      </trkpt>
      <trkpt lat="45.30375" lon="10.70756">
        <ele>73.122609</ele>
        <time>2021-08-27T14:59:15.000Z</time>
      </trkpt>
      <trkpt lat="45.30374" lon="10.70746">
        <ele>73.085036</ele>
        <time>2021-08-27T14:59:16.000Z</time>
      </trkpt>
      <trkpt lat="45.30373" lon="10.70704">
        <ele>72.931226</ele>
        <time>2021-08-27T14:59:20.000Z</time>
      </trkpt>
      <trkpt lat="45.30372" lon="10.70684">
        <ele>72.855649</ele>
        <time>2021-08-27T14:59:22.000Z</time>
      </trkpt>
      <trkpt lat="45.30372" lon="10.70674">
        <ele>72.817627</ele>
        <time>2021-08-27T14:59:23.000Z</time>
      </trkpt>
      <trkpt lat="45.3037" lon="10.70644">
        <ele>72.773971</ele>
        <time>2021-08-27T14:59:26.000Z</time>
      </trkpt>
      <trkpt lat="45.30367" lon="10.70597">
        <ele>72.823405</ele>
        <time>2021-08-27T14:59:31.000Z</time>
      </trkpt>
      <trkpt lat="45.30365" lon="10.70525">
        <ele>72.897529</ele>
        <time>2021-08-27T14:59:39.000Z</time>
      </trkpt>
      <trkpt lat="45.30366" lon="10.70516">
        <ele>72.90668</ele>
        <time>2021-08-27T14:59:40.000Z</time>
      </trkpt>
      <trkpt lat="45.30368" lon="10.70499">
        <ele>72.924196</ele>
        <time>2021-08-27T14:59:42.000Z</time>
      </trkpt>
      <trkpt lat="45.30369" lon="10.70491">
        <ele>72.933053</ele>
        <time>2021-08-27T14:59:43.000Z</time>
      </trkpt>
      <trkpt lat="45.30375" lon="10.70458">
        <ele>72.96787</ele>
        <time>2021-08-27T14:59:47.000Z</time>
      </trkpt>
      <trkpt lat="45.30383" lon="10.70421">
        <ele>73.008217</ele>
        <time>2021-08-27T14:59:52.000Z</time>
      </trkpt>
      <trkpt lat="45.30391" lon="10.70389">
        <ele>73.051742</ele>
        <time>2021-08-27T14:59:56.000Z</time>
      </trkpt>
      <trkpt lat="45.30413" lon="10.70333">
        <ele>73.143917</ele>
        <time>2021-08-27T15:00:04.000Z</time>
      </trkpt>
      <trkpt lat="45.30437" lon="10.70298">
        <ele>73.214181</ele>
        <time>2021-08-27T15:00:10.000Z</time>
      </trkpt>
      <trkpt lat="45.30463" lon="10.70255">
        <ele>73.296922</ele>
        <time>2021-08-27T15:00:17.000Z</time>
      </trkpt>
      <trkpt lat="45.30466" lon="10.7025">
        <ele>73.305785</ele>
        <time>2021-08-27T15:00:18.000Z</time>
      </trkpt>
      <trkpt lat="45.30487" lon="10.70211">
        <ele>73.377243</ele>
        <time>2021-08-27T15:00:24.000Z</time>
      </trkpt>
      <trkpt lat="45.30493" lon="10.70198">
        <ele>73.399642</ele>
        <time>2021-08-27T15:00:26.000Z</time>
      </trkpt>
      <trkpt lat="45.30506" lon="10.70172">
        <ele>73.445116</ele>
        <time>2021-08-27T15:00:30.000Z</time>
      </trkpt>
      <trkpt lat="45.30512" lon="10.70159">
        <ele>73.467977</ele>
        <time>2021-08-27T15:00:32.000Z</time>
      </trkpt>
      <trkpt lat="45.30515" lon="10.70154">
        <ele>73.476532</ele>
        <time>2021-08-27T15:00:33.000Z</time>
      </trkpt>
      <trkpt lat="45.30519" lon="10.70147">
        <ele>73.489989</ele>
        <time>2021-08-27T15:00:34.000Z</time>
      </trkpt>
      <trkpt lat="45.30527" lon="10.70138">
        <ele>73.51061</ele>
        <time>2021-08-27T15:00:36.000Z</time>
      </trkpt>
      <trkpt lat="45.30542" lon="10.70123">
        <ele>73.548299</ele>
        <time>2021-08-27T15:00:39.000Z</time>
      </trkpt>
      <trkpt lat="45.30553" lon="10.70115">
        <ele>73.572072</ele>
        <time>2021-08-27T15:00:41.000Z</time>
      </trkpt>
      <trkpt lat="45.30557" lon="10.70111">
        <ele>73.583511</ele>
        <time>2021-08-27T15:00:42.000Z</time>
      </trkpt>
      <trkpt lat="45.30579" lon="10.70099">
        <ele>73.630561</ele>
        <time>2021-08-27T15:00:46.000Z</time>
      </trkpt>
      <trkpt lat="45.306" lon="10.70091">
        <ele>73.675869</ele>
        <time>2021-08-27T15:00:50.000Z</time>
      </trkpt>
      <trkpt lat="45.30606" lon="10.7009">
        <ele>73.686825</ele>
        <time>2021-08-27T15:00:51.000Z</time>
      </trkpt>
      <trkpt lat="45.30617" lon="10.70089">
        <ele>73.709052</ele>
        <time>2021-08-27T15:00:53.000Z</time>
      </trkpt>
      <trkpt lat="45.30628" lon="10.70088">
        <ele>73.731267</ele>
        <time>2021-08-27T15:00:55.000Z</time>
      </trkpt>
      <trkpt lat="45.30655" lon="10.70088">
        <ele>73.778861</ele>
        <time>2021-08-27T15:01:00.000Z</time>
      </trkpt>
      <trkpt lat="45.30671" lon="10.70088">
        <ele>73.801788</ele>
        <time>2021-08-27T15:01:03.000Z</time>
      </trkpt>
      <trkpt lat="45.30676" lon="10.70089">
        <ele>73.809433</ele>
        <time>2021-08-27T15:01:04.000Z</time>
      </trkpt>
      <trkpt lat="45.30702" lon="10.70091">
        <ele>73.846559</ele>
        <time>2021-08-27T15:01:09.000Z</time>
      </trkpt>
      <trkpt lat="45.30727" lon="10.70095">
        <ele>73.883695</ele>
        <time>2021-08-27T15:01:14.000Z</time>
      </trkpt>
      <trkpt lat="45.30738" lon="10.70095">
        <ele>73.898551</ele>
        <time>2021-08-27T15:01:16.000Z</time>
      </trkpt>
      <trkpt lat="45.30748" lon="10.70097">
        <ele>73.91305</ele>
        <time>2021-08-27T15:01:18.000Z</time>
      </trkpt>
      <trkpt lat="45.30758" lon="10.701">
        <ele>73.928297</ele>
        <time>2021-08-27T15:01:20.000Z</time>
      </trkpt>
      <trkpt lat="45.30782" lon="10.70109">
        <ele>73.964638</ele>
        <time>2021-08-27T15:01:25.000Z</time>
      </trkpt>
      <trkpt lat="45.30806" lon="10.7012">
        <ele>74.001212</ele>
        <time>2021-08-27T15:01:30.000Z</time>
      </trkpt>
      <trkpt lat="45.30816" lon="10.70124">
        <ele>74.01511</ele>
        <time>2021-08-27T15:01:32.000Z</time>
      </trkpt>
      <trkpt lat="45.30847" lon="10.70138">
        <ele>74.242705</ele>
        <time>2021-08-27T15:01:39.000Z</time>
      </trkpt>
      <trkpt lat="45.3086" lon="10.70146">
        <ele>74.34771</ele>
        <time>2021-08-27T15:01:42.000Z</time>
      </trkpt>
      <trkpt lat="45.30888" lon="10.7016">
        <ele>74.564651</ele>
        <time>2021-08-27T15:01:48.000Z</time>
      </trkpt>
      <trkpt lat="45.30921" lon="10.70175">
        <ele>74.823005</ele>
        <time>2021-08-27T15:01:55.000Z</time>
      </trkpt>
      <trkpt lat="45.30954" lon="10.70191">
        <ele>75.075394</ele>
        <time>2021-08-27T15:02:02.000Z</time>
      </trkpt>
      <trkpt lat="45.30976" lon="10.70201">
        <ele>75.248764</ele>
        <time>2021-08-27T15:02:07.000Z</time>
      </trkpt>
      <trkpt lat="45.30995" lon="10.70209">
        <ele>75.388799</ele>
        <time>2021-08-27T15:02:11.000Z</time>
      </trkpt>
      <trkpt lat="45.31003" lon="10.70211">
        <ele>75.448626</ele>
        <time>2021-08-27T15:02:13.000Z</time>
      </trkpt>
      <trkpt lat="45.31011" lon="10.70214">
        <ele>75.506596</ele>
        <time>2021-08-27T15:02:15.000Z</time>
      </trkpt>
      <trkpt lat="45.31028" lon="10.70219">
        <ele>75.626056</ele>
        <time>2021-08-27T15:02:20.000Z</time>
      </trkpt>
      <trkpt lat="45.31045" lon="10.70224">
        <ele>75.748355</ele>
        <time>2021-08-27T15:02:25.000Z</time>
      </trkpt>
      <trkpt lat="45.31048" lon="10.70225">
        <ele>75.772177</ele>
        <time>2021-08-27T15:02:26.000Z</time>
      </trkpt>
      <trkpt lat="45.31055" lon="10.70229">
        <ele>75.820134</ele>
        <time>2021-08-27T15:02:28.000Z</time>
      </trkpt>
      <trkpt lat="45.31085" lon="10.70254">
        <ele>76.06553</ele>
        <time>2021-08-27T15:02:37.000Z</time>
      </trkpt>
      <trkpt lat="45.31118" lon="10.70279">
        <ele>76.328967</ele>
        <time>2021-08-27T15:02:46.000Z</time>
      </trkpt>
      <trkpt lat="45.3114" lon="10.70294">
        <ele>76.500056</ele>
        <time>2021-08-27T15:02:52.000Z</time>
      </trkpt>
      <trkpt lat="45.31147" lon="10.70298">
        <ele>76.552721</ele>
        <time>2021-08-27T15:02:54.000Z</time>
      </trkpt>
      <trkpt lat="45.31165" lon="10.7031">
        <ele>76.605147</ele>
        <time>2021-08-27T15:02:59.000Z</time>
      </trkpt>
      <trkpt lat="45.31171" lon="10.70315">
        <ele>76.606457</ele>
        <time>2021-08-27T15:03:01.000Z</time>
      </trkpt>
      <trkpt lat="45.31178" lon="10.7032">
        <ele>76.607921</ele>
        <time>2021-08-27T15:03:03.000Z</time>
      </trkpt>
      <trkpt lat="45.31182" lon="10.70323">
        <ele>76.608708</ele>
        <time>2021-08-27T15:03:04.000Z</time>
      </trkpt>
      <trkpt lat="45.31209" lon="10.70345">
        <ele>76.614497</ele>
        <time>2021-08-27T15:03:11.000Z</time>
      </trkpt>
      <trkpt lat="45.31222" lon="10.70355">
        <ele>76.617137</ele>
        <time>2021-08-27T15:03:14.000Z</time>
      </trkpt>
      <trkpt lat="45.31231" lon="10.70361">
        <ele>76.618922</ele>
        <time>2021-08-27T15:03:16.000Z</time>
      </trkpt>
      <trkpt lat="45.31247" lon="10.70375">
        <ele>76.62247</ele>
        <time>2021-08-27T15:03:20.000Z</time>
      </trkpt>
      <trkpt lat="45.31252" lon="10.70379">
        <ele>76.623363</ele>
        <time>2021-08-27T15:03:21.000Z</time>
      </trkpt>
      <trkpt lat="45.3127" lon="10.70392">
        <ele>76.627103</ele>
        <time>2021-08-27T15:03:25.000Z</time>
      </trkpt>
      <trkpt lat="45.31287" lon="10.70405">
        <ele>76.630599</ele>
        <time>2021-08-27T15:03:29.000Z</time>
      </trkpt>
      <trkpt lat="45.31295" lon="10.70411">
        <ele>76.632316</ele>
        <time>2021-08-27T15:03:31.000Z</time>
      </trkpt>
      <trkpt lat="45.31311" lon="10.70423">
        <ele>76.635562</ele>
        <time>2021-08-27T15:03:35.000Z</time>
      </trkpt>
      <trkpt lat="45.31323" lon="10.70433">
        <ele>76.65444</ele>
        <time>2021-08-27T15:03:38.000Z</time>
      </trkpt>
      <trkpt lat="45.31331" lon="10.7044">
        <ele>76.668819</ele>
        <time>2021-08-27T15:03:40.000Z</time>
      </trkpt>
      <trkpt lat="45.31361" lon="10.70461">
        <ele>76.717972</ele>
        <time>2021-08-27T15:03:47.000Z</time>
      </trkpt>
      <trkpt lat="45.3138" lon="10.70477">
        <ele>76.752059</ele>
        <time>2021-08-27T15:03:52.000Z</time>
      </trkpt>
      <trkpt lat="45.31405" lon="10.70496">
        <ele>76.79408</ele>
        <time>2021-08-27T15:03:58.000Z</time>
      </trkpt>
      <trkpt lat="45.31409" lon="10.70499">
        <ele>76.800677</ele>
        <time>2021-08-27T15:03:59.000Z</time>
      </trkpt>
      <trkpt lat="45.31421" lon="10.70509">
        <ele>76.821062</ele>
        <time>2021-08-27T15:04:02.000Z</time>
      </trkpt>
      <trkpt lat="45.31452" lon="10.70531">
        <ele>76.873496</ele>
        <time>2021-08-27T15:04:09.000Z</time>
      </trkpt>
      <trkpt lat="45.31457" lon="10.70534">
        <ele>76.880908</ele>
        <time>2021-08-27T15:04:10.000Z</time>
      </trkpt>
      <trkpt lat="45.31461" lon="10.70538">
        <ele>76.888369</ele>
        <time>2021-08-27T15:04:11.000Z</time>
      </trkpt>
      <trkpt lat="45.3147" lon="10.70545">
        <ele>76.903081</ele>
        <time>2021-08-27T15:04:13.000Z</time>
      </trkpt>
      <trkpt lat="45.31483" lon="10.70554">
        <ele>76.901332</ele>
        <time>2021-08-27T15:04:16.000Z</time>
      </trkpt>
      <trkpt lat="45.31491" lon="10.70561">
        <ele>76.899701</ele>
        <time>2021-08-27T15:04:18.000Z</time>
      </trkpt>
      <trkpt lat="45.31509" lon="10.70577">
        <ele>76.896038</ele>
        <time>2021-08-27T15:04:23.000Z</time>
      </trkpt>
      <trkpt lat="45.31521" lon="10.70587">
        <ele>76.893651</ele>
        <time>2021-08-27T15:04:26.000Z</time>
      </trkpt>
      <trkpt lat="45.31546" lon="10.70604">
        <ele>76.888958</ele>
        <time>2021-08-27T15:04:32.000Z</time>
      </trkpt>
      <trkpt lat="45.31581" lon="10.70632">
        <ele>76.88204</ele>
        <time>2021-08-27T15:04:41.000Z</time>
      </trkpt>
      <trkpt lat="45.31588" lon="10.70639">
        <ele>76.880496</ele>
        <time>2021-08-27T15:04:43.000Z</time>
      </trkpt>
      <trkpt lat="45.3163" lon="10.70671">
        <ele>76.882177</ele>
        <time>2021-08-27T15:04:54.000Z</time>
      </trkpt>
      <trkpt lat="45.31667" lon="10.707">
        <ele>77.01081</ele>
        <time>2021-08-27T15:05:04.000Z</time>
      </trkpt>
      <trkpt lat="45.31694" lon="10.70722">
        <ele>77.109323</ele>
        <time>2021-08-27T15:05:11.000Z</time>
      </trkpt>
      <trkpt lat="45.31707" lon="10.70731">
        <ele>77.151834</ele>
        <time>2021-08-27T15:05:14.000Z</time>
      </trkpt>
      <trkpt lat="45.31723" lon="10.70743">
        <ele>77.209052</ele>
        <time>2021-08-27T15:05:18.000Z</time>
      </trkpt>
      <trkpt lat="45.31731" lon="10.7075">
        <ele>77.238975</ele>
        <time>2021-08-27T15:05:20.000Z</time>
      </trkpt>
      <trkpt lat="45.31748" lon="10.70763">
        <ele>77.298449</ele>
        <time>2021-08-27T15:05:24.000Z</time>
      </trkpt>
      <trkpt lat="45.31794" lon="10.70798">
        <ele>77.439604</ele>
        <time>2021-08-27T15:05:35.000Z</time>
      </trkpt>
      <trkpt lat="45.31803" lon="10.70803">
        <ele>77.450116</ele>
        <time>2021-08-27T15:05:37.000Z</time>
      </trkpt>
      <trkpt lat="45.31808" lon="10.70806">
        <ele>77.455142</ele>
        <time>2021-08-27T15:05:38.000Z</time>
      </trkpt>
      <trkpt lat="45.31823" lon="10.70819">
        <ele>77.474313</ele>
        <time>2021-08-27T15:05:42.000Z</time>
      </trkpt>
      <trkpt lat="45.31828" lon="10.70823">
        <ele>77.479381</ele>
        <time>2021-08-27T15:05:43.000Z</time>
      </trkpt>
      <trkpt lat="45.31832" lon="10.70826">
        <ele>77.484541</ele>
        <time>2021-08-27T15:05:44.000Z</time>
      </trkpt>
      <trkpt lat="45.3184" lon="10.70832">
        <ele>77.494626</ele>
        <time>2021-08-27T15:05:46.000Z</time>
      </trkpt>
      <trkpt lat="45.31865" lon="10.7085">
        <ele>77.523771</ele>
        <time>2021-08-27T15:05:52.000Z</time>
      </trkpt>
      <trkpt lat="45.31872" lon="10.70856">
        <ele>77.532496</ele>
        <time>2021-08-27T15:05:54.000Z</time>
      </trkpt>
      <trkpt lat="45.31893" lon="10.70873">
        <ele>77.558071</ele>
        <time>2021-08-27T15:06:00.000Z</time>
      </trkpt>
      <trkpt lat="45.31921" lon="10.70894">
        <ele>77.591014</ele>
        <time>2021-08-27T15:06:07.000Z</time>
      </trkpt>
      <trkpt lat="45.31925" lon="10.70897">
        <ele>77.595978</ele>
        <time>2021-08-27T15:06:08.000Z</time>
      </trkpt>
      <trkpt lat="45.31957" lon="10.70926">
        <ele>77.601167</ele>
        <time>2021-08-27T15:06:16.000Z</time>
      </trkpt>
      <trkpt lat="45.31965" lon="10.70934">
        <ele>77.590567</ele>
        <time>2021-08-27T15:06:18.000Z</time>
      </trkpt>
      <trkpt lat="45.31988" lon="10.70959">
        <ele>77.559156</ele>
        <time>2021-08-27T15:06:24.000Z</time>
      </trkpt>
      <trkpt lat="45.31992" lon="10.70963">
        <ele>77.553917</ele>
        <time>2021-08-27T15:06:25.000Z</time>
      </trkpt>
      <trkpt lat="45.32018" lon="10.70995">
        <ele>77.515702</ele>
        <time>2021-08-27T15:06:32.000Z</time>
      </trkpt>
      <trkpt lat="45.32022" lon="10.71">
        <ele>77.510175</ele>
        <time>2021-08-27T15:06:33.000Z</time>
      </trkpt>
      <trkpt lat="45.3203" lon="10.7101">
        <ele>77.498777</ele>
        <time>2021-08-27T15:06:35.000Z</time>
      </trkpt>
      <trkpt lat="45.32037" lon="10.7102">
        <ele>77.487645</ele>
        <time>2021-08-27T15:06:37.000Z</time>
      </trkpt>
      <trkpt lat="45.32041" lon="10.71025">
        <ele>77.482167</ele>
        <time>2021-08-27T15:06:38.000Z</time>
      </trkpt>
      <trkpt lat="45.32058" lon="10.71051">
        <ele>77.454151</ele>
        <time>2021-08-27T15:06:43.000Z</time>
      </trkpt>
      <trkpt lat="45.32069" lon="10.71068">
        <ele>77.437307</ele>
        <time>2021-08-27T15:06:46.000Z</time>
      </trkpt>
      <trkpt lat="45.32072" lon="10.71073">
        <ele>77.431663</ele>
        <time>2021-08-27T15:06:47.000Z</time>
      </trkpt>
      <trkpt lat="45.32082" lon="10.71089">
        <ele>77.418286</ele>
        <time>2021-08-27T15:06:50.000Z</time>
      </trkpt>
      <trkpt lat="45.32086" lon="10.71094">
        <ele>77.415063</ele>
        <time>2021-08-27T15:06:51.000Z</time>
      </trkpt>
      <trkpt lat="45.32092" lon="10.71104">
        <ele>77.40873</ele>
        <time>2021-08-27T15:06:53.000Z</time>
      </trkpt>
      <trkpt lat="45.32103" lon="10.7112">
        <ele>77.398661</ele>
        <time>2021-08-27T15:06:56.000Z</time>
      </trkpt>
      <trkpt lat="45.32125" lon="10.71154">
        <ele>77.377191</ele>
        <time>2021-08-27T15:07:02.000Z</time>
      </trkpt>
      <trkpt lat="45.32167" lon="10.71208">
        <ele>77.340364</ele>
        <time>2021-08-27T15:07:12.000Z</time>
      </trkpt>
      <trkpt lat="45.32184" lon="10.71227">
        <ele>77.326291</ele>
        <time>2021-08-27T15:07:16.000Z</time>
      </trkpt>
      <trkpt lat="45.3221" lon="10.71254">
        <ele>77.305273</ele>
        <time>2021-08-27T15:07:22.000Z</time>
      </trkpt>
      <trkpt lat="45.32242" lon="10.71284">
        <ele>77.416483</ele>
        <time>2021-08-27T15:07:29.000Z</time>
      </trkpt>
      <trkpt lat="45.32269" lon="10.71308">
        <ele>77.509212</ele>
        <time>2021-08-27T15:07:35.000Z</time>
      </trkpt>
      <trkpt lat="45.32314" lon="10.71339">
        <ele>77.657852</ele>
        <time>2021-08-27T15:07:45.000Z</time>
      </trkpt>
      <trkpt lat="45.32363" lon="10.71368">
        <ele>77.812818</ele>
        <time>2021-08-27T15:07:56.000Z</time>
      </trkpt>
      <trkpt lat="45.32416" lon="10.71392">
        <ele>77.798226</ele>
        <time>2021-08-27T15:08:08.000Z</time>
      </trkpt>
      <trkpt lat="45.32439" lon="10.714">
        <ele>77.78134</ele>
        <time>2021-08-27T15:08:13.000Z</time>
      </trkpt>
      <trkpt lat="45.32444" lon="10.71402">
        <ele>77.777955</ele>
        <time>2021-08-27T15:08:14.000Z</time>
      </trkpt>
      <trkpt lat="45.32453" lon="10.71404">
        <ele>77.771449</ele>
        <time>2021-08-27T15:08:16.000Z</time>
      </trkpt>
      <trkpt lat="45.32491" lon="10.71414">
        <ele>77.744081</ele>
        <time>2021-08-27T15:08:25.000Z</time>
      </trkpt>
      <trkpt lat="45.32535" lon="10.71426">
        <ele>77.712248</ele>
        <time>2021-08-27T15:08:35.000Z</time>
      </trkpt>
      <trkpt lat="45.32575" lon="10.71437">
        <ele>77.5865</ele>
        <time>2021-08-27T15:08:44.000Z</time>
      </trkpt>
      <trkpt lat="45.32603" lon="10.71445">
        <ele>77.480861</ele>
        <time>2021-08-27T15:08:50.000Z</time>
      </trkpt>
      <trkpt lat="45.32616" lon="10.71449">
        <ele>77.42727</ele>
        <time>2021-08-27T15:08:53.000Z</time>
      </trkpt>
      <trkpt lat="45.3266" lon="10.71462">
        <ele>77.257257</ele>
        <time>2021-08-27T15:09:03.000Z</time>
      </trkpt>
      <trkpt lat="45.32704" lon="10.71473">
        <ele>77.088073</ele>
        <time>2021-08-27T15:09:12.000Z</time>
      </trkpt>
      <trkpt lat="45.32751" lon="10.71488">
        <ele>77.154889</ele>
        <time>2021-08-27T15:09:22.000Z</time>
      </trkpt>
      <trkpt lat="45.32777" lon="10.71495">
        <ele>77.274319</ele>
        <time>2021-08-27T15:09:28.000Z</time>
      </trkpt>
      <trkpt lat="45.3281" lon="10.71504">
        <ele>77.416914</ele>
        <time>2021-08-27T15:09:35.000Z</time>
      </trkpt>
      <trkpt lat="45.32834" lon="10.71511">
        <ele>77.525928</ele>
        <time>2021-08-27T15:09:40.000Z</time>
      </trkpt>
      <trkpt lat="45.32869" lon="10.71521">
        <ele>77.682668</ele>
        <time>2021-08-27T15:09:47.000Z</time>
      </trkpt>
      <trkpt lat="45.3289" lon="10.71527">
        <ele>77.772722</ele>
        <time>2021-08-27T15:09:51.000Z</time>
      </trkpt>
      <trkpt lat="45.32931" lon="10.71539">
        <ele>77.953678</ele>
        <time>2021-08-27T15:09:59.000Z</time>
      </trkpt>
      <trkpt lat="45.32982" lon="10.71554">
        <ele>78.172658</ele>
        <time>2021-08-27T15:10:09.000Z</time>
      </trkpt>
      <trkpt lat="45.33031" lon="10.71566">
        <ele>78.382491</ele>
        <time>2021-08-27T15:10:18.000Z</time>
      </trkpt>
      <trkpt lat="45.33041" lon="10.71569">
        <ele>78.427746</ele>
        <time>2021-08-27T15:10:20.000Z</time>
      </trkpt>
      <trkpt lat="45.33055" lon="10.71572">
        <ele>78.486029</ele>
        <time>2021-08-27T15:10:23.000Z</time>
      </trkpt>
      <trkpt lat="45.33063" lon="10.71574">
        <ele>78.523407</ele>
        <time>2021-08-27T15:10:25.000Z</time>
      </trkpt>
      <trkpt lat="45.33114" lon="10.7158">
        <ele>78.69877</ele>
        <time>2021-08-27T15:10:36.000Z</time>
      </trkpt>
      <trkpt lat="45.33143" lon="10.71582">
        <ele>78.793243</ele>
        <time>2021-08-27T15:10:42.000Z</time>
      </trkpt>
      <trkpt lat="45.33173" lon="10.71584">
        <ele>78.890241</ele>
        <time>2021-08-27T15:10:48.000Z</time>
      </trkpt>
      <trkpt lat="45.33225" lon="10.71579">
        <ele>79.056988</ele>
        <time>2021-08-27T15:10:59.000Z</time>
      </trkpt>
      <trkpt lat="45.33249" lon="10.71576">
        <ele>79.137236</ele>
        <time>2021-08-27T15:11:04.000Z</time>
      </trkpt>
      <trkpt lat="45.33269" lon="10.71571">
        <ele>79.178896</ele>
        <time>2021-08-27T15:11:08.000Z</time>
      </trkpt>
      <trkpt lat="45.33315" lon="10.71559">
        <ele>79.266687</ele>
        <time>2021-08-27T15:11:18.000Z</time>
      </trkpt>
      <trkpt lat="45.33366" lon="10.71543">
        <ele>79.363663</ele>
        <time>2021-08-27T15:11:29.000Z</time>
      </trkpt>
      <trkpt lat="45.33404" lon="10.71526">
        <ele>79.436757</ele>
        <time>2021-08-27T15:11:37.000Z</time>
      </trkpt>
      <trkpt lat="45.33445" lon="10.71503">
        <ele>79.592403</ele>
        <time>2021-08-27T15:11:45.000Z</time>
      </trkpt>
      <trkpt lat="45.33496" lon="10.71473">
        <ele>79.920691</ele>
        <time>2021-08-27T15:11:55.000Z</time>
      </trkpt>
      <trkpt lat="45.33501" lon="10.7147">
        <ele>79.950763</ele>
        <time>2021-08-27T15:11:56.000Z</time>
      </trkpt>
      <trkpt lat="45.33505" lon="10.71468">
        <ele>79.97733</ele>
        <time>2021-08-27T15:11:57.000Z</time>
      </trkpt>
      <trkpt lat="45.33518" lon="10.71461">
        <ele>80.058587</ele>
        <time>2021-08-27T15:12:01.000Z</time>
      </trkpt>
      <trkpt lat="45.33536" lon="10.71449">
        <ele>80.17439</ele>
        <time>2021-08-27T15:12:08.000Z</time>
      </trkpt>
      <trkpt lat="45.33552" lon="10.71438">
        <ele>80.279405</ele>
        <time>2021-08-27T15:12:12.000Z</time>
      </trkpt>
      <trkpt lat="45.33557" lon="10.71435">
        <ele>80.310946</ele>
        <time>2021-08-27T15:12:13.000Z</time>
      </trkpt>
      <trkpt lat="45.33592" lon="10.71415">
        <ele>80.531645</ele>
        <time>2021-08-27T15:12:20.000Z</time>
      </trkpt>
      <trkpt lat="45.33644" lon="10.71384">
        <ele>80.574955</ele>
        <time>2021-08-27T15:12:31.000Z</time>
      </trkpt>
      <trkpt lat="45.33649" lon="10.71381">
        <ele>80.578101</ele>
        <time>2021-08-27T15:12:32.000Z</time>
      </trkpt>
      <trkpt lat="45.33658" lon="10.71376">
        <ele>80.584565</ele>
        <time>2021-08-27T15:12:34.000Z</time>
      </trkpt>
      <trkpt lat="45.3369" lon="10.71356">
        <ele>80.606284</ele>
        <time>2021-08-27T15:12:41.000Z</time>
      </trkpt>
      <trkpt lat="45.33722" lon="10.71338">
        <ele>80.62839</ele>
        <time>2021-08-27T15:12:48.000Z</time>
      </trkpt>
      <trkpt lat="45.33727" lon="10.71335">
        <ele>80.631646</ele>
        <time>2021-08-27T15:12:49.000Z</time>
      </trkpt>
      <trkpt lat="45.33771" lon="10.71306">
        <ele>80.632917</ele>
        <time>2021-08-27T15:12:58.000Z</time>
      </trkpt>
      <trkpt lat="45.33823" lon="10.71276">
        <ele>80.547375</ele>
        <time>2021-08-27T15:13:08.000Z</time>
      </trkpt>
      <trkpt lat="45.33828" lon="10.71273">
        <ele>80.538828</ele>
        <time>2021-08-27T15:13:09.000Z</time>
      </trkpt>
      <trkpt lat="45.33861" lon="10.71252">
        <ele>80.483458</ele>
        <time>2021-08-27T15:13:16.000Z</time>
      </trkpt>
      <trkpt lat="45.33908" lon="10.71224">
        <ele>80.405281</ele>
        <time>2021-08-27T15:13:26.000Z</time>
      </trkpt>
      <trkpt lat="45.3396" lon="10.71194">
        <ele>80.388741</ele>
        <time>2021-08-27T15:13:36.000Z</time>
      </trkpt>
      <trkpt lat="45.34012" lon="10.71162">
        <ele>80.404754</ele>
        <time>2021-08-27T15:13:46.000Z</time>
      </trkpt>
      <trkpt lat="45.34017" lon="10.71158">
        <ele>80.406279</ele>
        <time>2021-08-27T15:13:47.000Z</time>
      </trkpt>
      <trkpt lat="45.34065" lon="10.7113">
        <ele>80.420698</ele>
        <time>2021-08-27T15:13:56.000Z</time>
      </trkpt>
      <trkpt lat="45.34118" lon="10.711">
        <ele>80.435668</ele>
        <time>2021-08-27T15:14:06.000Z</time>
      </trkpt>
      <trkpt lat="45.34145" lon="10.71085">
        <ele>80.44264</ele>
        <time>2021-08-27T15:14:11.000Z</time>
      </trkpt>
      <trkpt lat="45.34199" lon="10.71062">
        <ele>80.456557</ele>
        <time>2021-08-27T15:14:21.000Z</time>
      </trkpt>
      <trkpt lat="45.3421" lon="10.71058">
        <ele>80.459344</ele>
        <time>2021-08-27T15:14:23.000Z</time>
      </trkpt>
      <trkpt lat="45.34262" lon="10.71041">
        <ele>80.472464</ele>
        <time>2021-08-27T15:14:33.000Z</time>
      </trkpt>
      <trkpt lat="45.34267" lon="10.71039">
        <ele>80.475864</ele>
        <time>2021-08-27T15:14:34.000Z</time>
      </trkpt>
      <trkpt lat="45.34322" lon="10.71027">
        <ele>80.510432</ele>
        <time>2021-08-27T15:14:44.000Z</time>
      </trkpt>
      <trkpt lat="45.34378" lon="10.71019">
        <ele>80.546335</ele>
        <time>2021-08-27T15:14:55.000Z</time>
      </trkpt>
      <trkpt lat="45.3442" lon="10.71018">
        <ele>80.572195</ele>
        <time>2021-08-27T15:15:03.000Z</time>
      </trkpt>
      <trkpt lat="45.34471" lon="10.71021">
        <ele>80.627809</ele>
        <time>2021-08-27T15:15:13.000Z</time>
      </trkpt>
      <trkpt lat="45.34513" lon="10.71027">
        <ele>80.686514</ele>
        <time>2021-08-27T15:15:22.000Z</time>
      </trkpt>
      <trkpt lat="45.34541" lon="10.71032">
        <ele>80.725005</ele>
        <time>2021-08-27T15:15:29.000Z</time>
      </trkpt>
      <trkpt lat="45.34591" lon="10.71044">
        <ele>80.796186</ele>
        <time>2021-08-27T15:15:40.000Z</time>
      </trkpt>
      <trkpt lat="45.34609" lon="10.7105">
        <ele>80.821097</ele>
        <time>2021-08-27T15:15:46.000Z</time>
      </trkpt>
      <trkpt lat="45.34609" lon="10.7105">
        <ele>80.821097</ele>
        <time>2021-08-27T15:15:53.000Z</time>
      </trkpt>
      <trkpt lat="45.34609" lon="10.7105">
        <ele>80.821097</ele>
        <time>2021-08-27T15:16:03.000Z</time>
      </trkpt>
      <trkpt lat="45.34609" lon="10.7105">
        <ele>80.821097</ele>
        <time>2021-08-27T15:16:05.000Z</time>
      </trkpt>
      <trkpt lat="45.34609" lon="10.7105">
        <ele>80.821097</ele>
        <time>2021-08-27T15:16:07.000Z</time>
      </trkpt>
      <trkpt lat="45.34609" lon="10.71051">
        <ele>80.8215</ele>
        <time>2021-08-27T15:16:20.000Z</time>
      </trkpt>
      <trkpt lat="45.34609" lon="10.71051">
        <ele>80.821598</ele>
        <time>2021-08-27T15:16:30.000Z</time>
      </trkpt>
      <trkpt lat="45.34609" lon="10.7105">
        <ele>80.82189</ele>
        <time>2021-08-27T15:16:34.000Z</time>
      </trkpt>
      <trkpt lat="45.34609" lon="10.7105">
        <ele>80.822085</ele>
        <time>2021-08-27T15:16:38.000Z</time>
      </trkpt>
      <trkpt lat="45.34609" lon="10.7105">
        <ele>80.822573</ele>
        <time>2021-08-27T15:16:54.000Z</time>
      </trkpt>
      <trkpt lat="45.34609" lon="10.7105">
        <ele>80.822573</ele>
        <time>2021-08-27T15:17:01.000Z</time>
      </trkpt>
      <trkpt lat="45.34609" lon="10.7105">
        <ele>80.822573</ele>
        <time>2021-08-27T15:17:13.000Z</time>
      </trkpt>
      <trkpt lat="45.34609" lon="10.7105">
        <ele>80.822573</ele>
        <time>2021-08-27T15:17:16.000Z</time>
      </trkpt>
      <trkpt lat="45.34609" lon="10.7105">
        <ele>80.822573</ele>
        <time>2021-08-27T15:17:24.000Z</time>
      </trkpt>
      <trkpt lat="45.34609" lon="10.7105">
        <ele>80.822573</ele>
        <time>2021-08-27T15:17:26.000Z</time>
      </trkpt>
      <trkpt lat="45.34609" lon="10.7105">
        <ele>80.822573</ele>
        <time>2021-08-27T15:17:37.000Z</time>
      </trkpt>
      <trkpt lat="45.34609" lon="10.7105">
        <ele>80.822573</ele>
        <time>2021-08-27T15:17:54.000Z</time>
      </trkpt>
      <trkpt lat="45.34609" lon="10.7105">
        <ele>80.822573</ele>
        <time>2021-08-27T15:17:56.000Z</time>
      </trkpt>
      <trkpt lat="45.34609" lon="10.7105">
        <ele>80.823052</ele>
        <time>2021-08-27T15:18:09.000Z</time>
      </trkpt>
      <trkpt lat="45.34609" lon="10.7105">
        <ele>80.823291</ele>
        <time>2021-08-27T15:18:11.000Z</time>
      </trkpt>
      <trkpt lat="45.34609" lon="10.7105">
        <ele>80.823461</ele>
        <time>2021-08-27T15:18:13.000Z</time>
      </trkpt>
      <trkpt lat="45.34609" lon="10.7105">
        <ele>80.8236</ele>
        <time>2021-08-27T15:18:14.000Z</time>
      </trkpt>
      <trkpt lat="45.34609" lon="10.7105">
        <ele>80.8236</ele>
        <time>2021-08-27T15:18:16.000Z</time>
      </trkpt>
      <trkpt lat="45.34609" lon="10.7105">
        <ele>80.8236</ele>
        <time>2021-08-27T15:18:19.000Z</time>
      </trkpt>
      <trkpt lat="45.34609" lon="10.7105">
        <ele>80.8236</ele>
        <time>2021-08-27T15:18:22.000Z</time>
      </trkpt>
      <trkpt lat="45.3461" lon="10.7105">
        <ele>80.824558</ele>
        <time>2021-08-27T15:18:38.000Z</time>
      </trkpt>
      <trkpt lat="45.3461" lon="10.7105">
        <ele>80.824558</ele>
        <time>2021-08-27T15:18:40.000Z</time>
      </trkpt>
      <trkpt lat="45.3461" lon="10.71049">
        <ele>80.825254</ele>
        <time>2021-08-27T15:18:45.000Z</time>
      </trkpt>
      <trkpt lat="45.3461" lon="10.71049">
        <ele>80.825449</ele>
        <time>2021-08-27T15:18:46.000Z</time>
      </trkpt>
      <trkpt lat="45.3461" lon="10.71048">
        <ele>80.825645</ele>
        <time>2021-08-27T15:18:48.000Z</time>
      </trkpt>
      <trkpt lat="45.3461" lon="10.71048">
        <ele>80.825814</ele>
        <time>2021-08-27T15:18:51.000Z</time>
      </trkpt>
      <trkpt lat="45.3461" lon="10.71048">
        <ele>80.825814</ele>
        <time>2021-08-27T15:18:54.000Z</time>
      </trkpt>
      <trkpt lat="45.3461" lon="10.71049">
        <ele>80.826054</ele>
        <time>2021-08-27T15:18:58.000Z</time>
      </trkpt>
      <trkpt lat="45.3461" lon="10.71048">
        <ele>80.826481</ele>
        <time>2021-08-27T15:19:00.000Z</time>
      </trkpt>
      <trkpt lat="45.3461" lon="10.71048">
        <ele>80.826481</ele>
        <time>2021-08-27T15:19:03.000Z</time>
      </trkpt>
      <trkpt lat="45.34611" lon="10.71049">
        <ele>80.826651</ele>
        <time>2021-08-27T15:19:08.000Z</time>
      </trkpt>
      <trkpt lat="45.34611" lon="10.71049">
        <ele>80.826651</ele>
        <time>2021-08-27T15:19:14.000Z</time>
      </trkpt>
      <trkpt lat="45.34611" lon="10.71049">
        <ele>80.826651</ele>
        <time>2021-08-27T15:19:18.000Z</time>
      </trkpt>
      <trkpt lat="45.34611" lon="10.71049">
        <ele>80.826975</ele>
        <time>2021-08-27T15:19:24.000Z</time>
      </trkpt>
      <trkpt lat="45.34617" lon="10.71051">
        <ele>80.835308</ele>
        <time>2021-08-27T15:19:27.000Z</time>
      </trkpt>
      <trkpt lat="45.34623" lon="10.71054">
        <ele>80.836029</ele>
        <time>2021-08-27T15:19:29.000Z</time>
      </trkpt>
      <trkpt lat="45.3463" lon="10.71056">
        <ele>80.836855</ele>
        <time>2021-08-27T15:19:31.000Z</time>
      </trkpt>
      <trkpt lat="45.34637" lon="10.71059">
        <ele>80.837732</ele>
        <time>2021-08-27T15:19:33.000Z</time>
      </trkpt>
      <trkpt lat="45.34649" lon="10.71064">
        <ele>80.839062</ele>
        <time>2021-08-27T15:19:36.000Z</time>
      </trkpt>
      <trkpt lat="45.34666" lon="10.71072">
        <ele>80.841128</ele>
        <time>2021-08-27T15:19:40.000Z</time>
      </trkpt>
      <trkpt lat="45.34708" lon="10.71093">
        <ele>80.846193</ele>
        <time>2021-08-27T15:19:49.000Z</time>
      </trkpt>
      <trkpt lat="45.34722" lon="10.711">
        <ele>80.847859</ele>
        <time>2021-08-27T15:19:52.000Z</time>
      </trkpt>
      <trkpt lat="45.3475" lon="10.71118">
        <ele>80.851347</ele>
        <time>2021-08-27T15:19:58.000Z</time>
      </trkpt>
      <trkpt lat="45.34791" lon="10.71149">
        <ele>80.86317</ele>
        <time>2021-08-27T15:20:07.000Z</time>
      </trkpt>
      <trkpt lat="45.3483" lon="10.71191">
        <ele>80.908678</ele>
        <time>2021-08-27T15:20:16.000Z</time>
      </trkpt>
      <trkpt lat="45.34847" lon="10.71212">
        <ele>80.929275</ele>
        <time>2021-08-27T15:20:20.000Z</time>
      </trkpt>
      <trkpt lat="45.34869" lon="10.71246">
        <ele>80.959424</ele>
        <time>2021-08-27T15:20:26.000Z</time>
      </trkpt>
      <trkpt lat="45.34892" lon="10.71288">
        <ele>80.993752</ele>
        <time>2021-08-27T15:20:33.000Z</time>
      </trkpt>
      <trkpt lat="45.34897" lon="10.71301">
        <ele>81.003274</ele>
        <time>2021-08-27T15:20:35.000Z</time>
      </trkpt>
      <trkpt lat="45.34908" lon="10.71324">
        <ele>81.02145</ele>
        <time>2021-08-27T15:20:39.000Z</time>
      </trkpt>
      <trkpt lat="45.34922" lon="10.71355">
        <ele>81.002948</ele>
        <time>2021-08-27T15:20:44.000Z</time>
      </trkpt>
      <trkpt lat="45.34942" lon="10.71394">
        <ele>80.977556</ele>
        <time>2021-08-27T15:20:51.000Z</time>
      </trkpt>
      <trkpt lat="45.34957" lon="10.7143">
        <ele>80.956214</ele>
        <time>2021-08-27T15:20:57.000Z</time>
      </trkpt>
      <trkpt lat="45.34978" lon="10.71476">
        <ele>80.927771</ele>
        <time>2021-08-27T15:21:05.000Z</time>
      </trkpt>
      <trkpt lat="45.34981" lon="10.71483">
        <ele>80.923489</ele>
        <time>2021-08-27T15:21:06.000Z</time>
      </trkpt>
      <trkpt lat="45.35005" lon="10.71543">
        <ele>80.8925</ele>
        <time>2021-08-27T15:21:16.000Z</time>
      </trkpt>
      <trkpt lat="45.35019" lon="10.71586">
        <ele>80.941048</ele>
        <time>2021-08-27T15:21:23.000Z</time>
      </trkpt>
      <trkpt lat="45.35023" lon="10.71605">
        <ele>80.960506</ele>
        <time>2021-08-27T15:21:26.000Z</time>
      </trkpt>
      <trkpt lat="45.35024" lon="10.71611">
        <ele>80.967497</ele>
        <time>2021-08-27T15:21:27.000Z</time>
      </trkpt>
      <trkpt lat="45.35031" lon="10.71637">
        <ele>80.995417</ele>
        <time>2021-08-27T15:21:31.000Z</time>
      </trkpt>
      <trkpt lat="45.35034" lon="10.71648">
        <ele>81.008335</ele>
        <time>2021-08-27T15:21:33.000Z</time>
      </trkpt>
      <trkpt lat="45.35043" lon="10.71679">
        <ele>81.04182</ele>
        <time>2021-08-27T15:21:38.000Z</time>
      </trkpt>
      <trkpt lat="45.35049" lon="10.71713">
        <ele>81.078157</ele>
        <time>2021-08-27T15:21:43.000Z</time>
      </trkpt>
      <trkpt lat="45.35052" lon="10.71734">
        <ele>81.100254</ele>
        <time>2021-08-27T15:21:46.000Z</time>
      </trkpt>
      <trkpt lat="45.35055" lon="10.71747">
        <ele>81.114025</ele>
        <time>2021-08-27T15:21:48.000Z</time>
      </trkpt>
      <trkpt lat="45.3506" lon="10.71765">
        <ele>81.133697</ele>
        <time>2021-08-27T15:21:51.000Z</time>
      </trkpt>
      <trkpt lat="45.35061" lon="10.71777">
        <ele>81.146204</ele>
        <time>2021-08-27T15:21:53.000Z</time>
      </trkpt>
      <trkpt lat="45.35065" lon="10.71802">
        <ele>81.185763</ele>
        <time>2021-08-27T15:21:57.000Z</time>
      </trkpt>
      <trkpt lat="45.3507" lon="10.71829">
        <ele>81.232354</ele>
        <time>2021-08-27T15:22:01.000Z</time>
      </trkpt>
      <trkpt lat="45.35073" lon="10.71841">
        <ele>81.254443</ele>
        <time>2021-08-27T15:22:03.000Z</time>
      </trkpt>
      <trkpt lat="45.35074" lon="10.71848">
        <ele>81.266373</ele>
        <time>2021-08-27T15:22:04.000Z</time>
      </trkpt>
      <trkpt lat="45.35076" lon="10.71855">
        <ele>81.278304</ele>
        <time>2021-08-27T15:22:05.000Z</time>
      </trkpt>
      <trkpt lat="45.35079" lon="10.71867">
        <ele>81.300313</ele>
        <time>2021-08-27T15:22:07.000Z</time>
      </trkpt>
      <trkpt lat="45.35084" lon="10.71885">
        <ele>81.332276</ele>
        <time>2021-08-27T15:22:10.000Z</time>
      </trkpt>
      <trkpt lat="45.3509" lon="10.7191">
        <ele>81.376921</ele>
        <time>2021-08-27T15:22:14.000Z</time>
      </trkpt>
      <trkpt lat="45.35095" lon="10.71928">
        <ele>81.41</ele>
        <time>2021-08-27T15:22:17.000Z</time>
      </trkpt>
      <trkpt lat="45.35099" lon="10.7194">
        <ele>81.432097</ele>
        <time>2021-08-27T15:22:19.000Z</time>
      </trkpt>
      <trkpt lat="45.351" lon="10.71946">
        <ele>81.442833</ele>
        <time>2021-08-27T15:22:20.000Z</time>
      </trkpt>
      <trkpt lat="45.35104" lon="10.71958">
        <ele>81.465</ele>
        <time>2021-08-27T15:22:22.000Z</time>
      </trkpt>
      <trkpt lat="45.35108" lon="10.71978">
        <ele>81.500124</ele>
        <time>2021-08-27T15:22:25.000Z</time>
      </trkpt>
      <trkpt lat="45.3511" lon="10.71985">
        <ele>81.511719</ele>
        <time>2021-08-27T15:22:26.000Z</time>
      </trkpt>
      <trkpt lat="45.35111" lon="10.71991">
        <ele>81.523169</ele>
        <time>2021-08-27T15:22:27.000Z</time>
      </trkpt>
      <trkpt lat="45.35122" lon="10.72027">
        <ele>81.599483</ele>
        <time>2021-08-27T15:22:33.000Z</time>
      </trkpt>
      <trkpt lat="45.35136" lon="10.72084">
        <ele>81.851943</ele>
        <time>2021-08-27T15:22:42.000Z</time>
      </trkpt>
      <trkpt lat="45.35146" lon="10.72121">
        <ele>82.014883</ele>
        <time>2021-08-27T15:22:48.000Z</time>
      </trkpt>
      <trkpt lat="45.35152" lon="10.7214">
        <ele>82.100391</ele>
        <time>2021-08-27T15:22:51.000Z</time>
      </trkpt>
      <trkpt lat="45.35158" lon="10.72159">
        <ele>82.189667</ele>
        <time>2021-08-27T15:22:55.000Z</time>
      </trkpt>
      <trkpt lat="45.35164" lon="10.72177">
        <ele>82.268952</ele>
        <time>2021-08-27T15:22:58.000Z</time>
      </trkpt>
      <trkpt lat="45.35178" lon="10.72227">
        <ele>82.495056</ele>
        <time>2021-08-27T15:23:07.000Z</time>
      </trkpt>
      <trkpt lat="45.3519" lon="10.72268">
        <ele>82.829933</ele>
        <time>2021-08-27T15:23:14.000Z</time>
      </trkpt>
      <trkpt lat="45.35193" lon="10.7228">
        <ele>83.15194</ele>
        <time>2021-08-27T15:23:16.000Z</time>
      </trkpt>
      <trkpt lat="45.35197" lon="10.72291">
        <ele>83.470828</ele>
        <time>2021-08-27T15:23:18.000Z</time>
      </trkpt>
      <trkpt lat="45.35198" lon="10.72298">
        <ele>83.64807</ele>
        <time>2021-08-27T15:23:19.000Z</time>
      </trkpt>
      <trkpt lat="45.352" lon="10.72309">
        <ele>83.922792</ele>
        <time>2021-08-27T15:23:21.000Z</time>
      </trkpt>
      <trkpt lat="45.35198" lon="10.72326">
        <ele>84.33056</ele>
        <time>2021-08-27T15:23:24.000Z</time>
      </trkpt>
      <trkpt lat="45.35196" lon="10.72329">
        <ele>84.433847</ele>
        <time>2021-08-27T15:23:25.000Z</time>
      </trkpt>
      <trkpt lat="45.35193" lon="10.72333">
        <ele>84.601612</ele>
        <time>2021-08-27T15:23:27.000Z</time>
      </trkpt>
      <trkpt lat="45.35192" lon="10.72334">
        <ele>84.624881</ele>
        <time>2021-08-27T15:23:29.000Z</time>
      </trkpt>
      <trkpt lat="45.35185" lon="10.72341">
        <ele>84.934018</ele>
        <time>2021-08-27T15:23:35.000Z</time>
      </trkpt>
      <trkpt lat="45.35184" lon="10.72342">
        <ele>84.982694</ele>
        <time>2021-08-27T15:23:36.000Z</time>
      </trkpt>
      <trkpt lat="45.35179" lon="10.72346">
        <ele>85.163605</ele>
        <time>2021-08-27T15:23:40.000Z</time>
      </trkpt>
      <trkpt lat="45.35174" lon="10.72352">
        <ele>85.412571</ele>
        <time>2021-08-27T15:23:45.000Z</time>
      </trkpt>
      <trkpt lat="45.35172" lon="10.72355">
        <ele>85.493268</ele>
        <time>2021-08-27T15:23:47.000Z</time>
      </trkpt>
      <trkpt lat="45.35172" lon="10.72355">
        <ele>85.506098</ele>
        <time>2021-08-27T15:23:50.000Z</time>
      </trkpt>
      <trkpt lat="45.35172" lon="10.72355">
        <ele>85.506098</ele>
        <time>2021-08-27T15:23:55.000Z</time>
      </trkpt>
      <trkpt lat="45.35172" lon="10.72355">
        <ele>85.506098</ele>
        <time>2021-08-27T15:23:57.000Z</time>
      </trkpt>
      <trkpt lat="45.35172" lon="10.72355">
        <ele>85.506098</ele>
        <time>2021-08-27T15:23:59.000Z</time>
      </trkpt>
      <trkpt lat="45.35172" lon="10.72355">
        <ele>85.506098</ele>
        <time>2021-08-27T15:24:01.000Z</time>
      </trkpt>
      <trkpt lat="45.35172" lon="10.72355">
        <ele>85.506098</ele>
        <time>2021-08-27T15:24:04.000Z</time>
      </trkpt>
      <trkpt lat="45.35172" lon="10.72355">
        <ele>85.506098</ele>
        <time>2021-08-27T15:24:14.000Z</time>
      </trkpt>
      <trkpt lat="45.35172" lon="10.72355">
        <ele>85.506098</ele>
        <time>2021-08-27T15:24:17.000Z</time>
      </trkpt>
      <trkpt lat="45.35172" lon="10.72355">
        <ele>85.506098</ele>
        <time>2021-08-27T15:24:25.000Z</time>
      </trkpt>
      <trkpt lat="45.35172" lon="10.72355">
        <ele>85.506098</ele>
        <time>2021-08-27T15:24:29.000Z</time>
      </trkpt>
      <trkpt lat="45.35172" lon="10.72355">
        <ele>85.506098</ele>
        <time>2021-08-27T15:24:31.000Z</time>
      </trkpt>
      <trkpt lat="45.35172" lon="10.72355">
        <ele>85.506098</ele>
        <time>2021-08-27T15:24:35.000Z</time>
      </trkpt>
      <trkpt lat="45.35172" lon="10.72355">
        <ele>85.506098</ele>
        <time>2021-08-27T15:24:38.000Z</time>
      </trkpt>
      <trkpt lat="45.35172" lon="10.72355">
        <ele>85.506098</ele>
        <time>2021-08-27T15:24:40.000Z</time>
      </trkpt>
      <trkpt lat="45.35172" lon="10.72355">
        <ele>85.506098</ele>
        <time>2021-08-27T15:24:42.000Z</time>
      </trkpt>
      <trkpt lat="45.35172" lon="10.72355">
        <ele>85.506098</ele>
        <time>2021-08-27T15:24:45.000Z</time>
      </trkpt>
      <trkpt lat="45.35172" lon="10.72355">
        <ele>85.506098</ele>
        <time>2021-08-27T15:25:05.000Z</time>
      </trkpt>
      <trkpt lat="45.35172" lon="10.72355">
        <ele>85.506098</ele>
        <time>2021-08-27T15:25:15.000Z</time>
      </trkpt>
      <trkpt lat="45.3517" lon="10.72355">
        <ele>85.577024</ele>
        <time>2021-08-27T15:25:25.000Z</time>
      </trkpt>
      <trkpt lat="45.3517" lon="10.72357">
        <ele>85.604172</ele>
        <time>2021-08-27T15:25:38.000Z</time>
      </trkpt>
      <trkpt lat="45.3517" lon="10.72357">
        <ele>85.607683</ele>
        <time>2021-08-27T15:25:59.000Z</time>
      </trkpt>
      <trkpt lat="45.3517" lon="10.72357">
        <ele>85.607683</ele>
        <time>2021-08-27T15:26:18.000Z</time>
      </trkpt>
      <trkpt lat="45.3517" lon="10.72357">
        <ele>85.607683</ele>
        <time>2021-08-27T15:26:24.000Z</time>
      </trkpt>
      <trkpt lat="45.3517" lon="10.72357">
        <ele>85.607683</ele>
        <time>2021-08-27T15:26:31.000Z</time>
      </trkpt>
      <trkpt lat="45.3517" lon="10.72356">
        <ele>85.626381</ele>
        <time>2021-08-27T15:26:37.000Z</time>
      </trkpt>
      <trkpt lat="45.3517" lon="10.72356">
        <ele>85.626381</ele>
        <time>2021-08-27T15:26:38.000Z</time>
      </trkpt>
      <trkpt lat="45.3517" lon="10.72356">
        <ele>85.626381</ele>
        <time>2021-08-27T15:26:41.000Z</time>
      </trkpt>
      <trkpt lat="45.3517" lon="10.72356">
        <ele>85.626381</ele>
        <time>2021-08-27T15:26:51.000Z</time>
      </trkpt>
      <trkpt lat="45.35169" lon="10.72356">
        <ele>85.661844</ele>
        <time>2021-08-27T15:26:56.000Z</time>
      </trkpt>
      <trkpt lat="45.35169" lon="10.72356">
        <ele>85.661844</ele>
        <time>2021-08-27T15:26:57.000Z</time>
      </trkpt>
      <trkpt lat="45.35169" lon="10.72356">
        <ele>85.661844</ele>
        <time>2021-08-27T15:26:59.000Z</time>
      </trkpt>
      <trkpt lat="45.35169" lon="10.72356">
        <ele>85.661844</ele>
        <time>2021-08-27T15:27:02.000Z</time>
      </trkpt>
      <trkpt lat="45.35169" lon="10.72356">
        <ele>85.661844</ele>
        <time>2021-08-27T15:27:05.000Z</time>
      </trkpt>
      <trkpt lat="45.35169" lon="10.72356">
        <ele>85.661844</ele>
        <time>2021-08-27T15:27:06.000Z</time>
      </trkpt>
      <trkpt lat="45.35169" lon="10.72356">
        <ele>85.661844</ele>
        <time>2021-08-27T15:27:11.000Z</time>
      </trkpt>
      <trkpt lat="45.35169" lon="10.72356">
        <ele>85.661844</ele>
        <time>2021-08-27T15:27:18.000Z</time>
      </trkpt>
      <trkpt lat="45.35169" lon="10.72356">
        <ele>85.661844</ele>
        <time>2021-08-27T15:27:31.000Z</time>
      </trkpt>
      <trkpt lat="45.35169" lon="10.72356">
        <ele>85.670428</ele>
        <time>2021-08-27T15:27:51.000Z</time>
      </trkpt>
      <trkpt lat="45.35167" lon="10.72355">
        <ele>85.744093</ele>
        <time>2021-08-27T15:28:14.000Z</time>
      </trkpt>
      <trkpt lat="45.35165" lon="10.72353">
        <ele>85.831486</ele>
        <time>2021-08-27T15:28:16.000Z</time>
      </trkpt>
      <trkpt lat="45.3516" lon="10.7235">
        <ele>86.014291</ele>
        <time>2021-08-27T15:28:20.000Z</time>
      </trkpt>
      <trkpt lat="45.35159" lon="10.7235">
        <ele>86.035506</ele>
        <time>2021-08-27T15:28:22.000Z</time>
      </trkpt>
      <trkpt lat="45.35159" lon="10.7235">
        <ele>86.035506</ele>
        <time>2021-08-27T15:28:25.000Z</time>
      </trkpt>
      <trkpt lat="45.35159" lon="10.7235">
        <ele>86.035506</ele>
        <time>2021-08-27T15:28:28.000Z</time>
      </trkpt>
      <trkpt lat="45.35159" lon="10.72355">
        <ele>86.145505</ele>
        <time>2021-08-27T15:28:33.000Z</time>
      </trkpt>
      <trkpt lat="45.35159" lon="10.72357">
        <ele>86.201452</ele>
        <time>2021-08-27T15:28:34.000Z</time>
      </trkpt>
      <trkpt lat="45.35161" lon="10.7236">
        <ele>86.284471</ele>
        <time>2021-08-27T15:28:36.000Z</time>
      </trkpt>
      <trkpt lat="45.35162" lon="10.72362">
        <ele>86.363737</ele>
        <time>2021-08-27T15:28:39.000Z</time>
      </trkpt>
      <trkpt lat="45.35162" lon="10.72361">
        <ele>86.377936</ele>
        <time>2021-08-27T15:28:45.000Z</time>
      </trkpt>
      <trkpt lat="45.35162" lon="10.72361">
        <ele>86.387807</ele>
        <time>2021-08-27T15:28:55.000Z</time>
      </trkpt>
      <trkpt lat="45.35162" lon="10.72361">
        <ele>86.387807</ele>
        <time>2021-08-27T15:28:57.000Z</time>
      </trkpt>
      <trkpt lat="45.35163" lon="10.72363">
        <ele>86.435575</ele>
        <time>2021-08-27T15:29:02.000Z</time>
      </trkpt>
      <trkpt lat="45.35164" lon="10.72369">
        <ele>86.590666</ele>
        <time>2021-08-27T15:29:05.000Z</time>
      </trkpt>
      <trkpt lat="45.35165" lon="10.72371">
        <ele>86.649618</ele>
        <time>2021-08-27T15:29:06.000Z</time>
      </trkpt>
      <trkpt lat="45.35166" lon="10.72374">
        <ele>86.742982</ele>
        <time>2021-08-27T15:29:08.000Z</time>
      </trkpt>
      <trkpt lat="45.35169" lon="10.72383">
        <ele>86.985889</ele>
        <time>2021-08-27T15:29:13.000Z</time>
      </trkpt>
      <trkpt lat="45.35167" lon="10.7239">
        <ele>87.184788</ele>
        <time>2021-08-27T15:29:20.000Z</time>
      </trkpt>
      <trkpt lat="45.35165" lon="10.72394">
        <ele>87.294214</ele>
        <time>2021-08-27T15:29:22.000Z</time>
      </trkpt>
      <trkpt lat="45.35164" lon="10.72394">
        <ele>87.316548</ele>
        <time>2021-08-27T15:29:28.000Z</time>
      </trkpt>
      <trkpt lat="45.35163" lon="10.72397">
        <ele>87.399357</ele>
        <time>2021-08-27T15:29:35.000Z</time>
      </trkpt>
      <trkpt lat="45.35161" lon="10.72399">
        <ele>87.469881</ele>
        <time>2021-08-27T15:29:37.000Z</time>
      </trkpt>
      <trkpt lat="45.35161" lon="10.72399">
        <ele>87.488529</ele>
        <time>2021-08-27T15:29:41.000Z</time>
      </trkpt>
      <trkpt lat="45.35161" lon="10.724">
        <ele>87.496724</ele>
        <time>2021-08-27T15:29:43.000Z</time>
      </trkpt>
      <trkpt lat="45.35162" lon="10.72402">
        <ele>87.56386</ele>
        <time>2021-08-27T15:29:44.000Z</time>
      </trkpt>
      <trkpt lat="45.35163" lon="10.72406">
        <ele>87.663749</ele>
        <time>2021-08-27T15:29:46.000Z</time>
      </trkpt>
      <trkpt lat="45.35167" lon="10.72411">
        <ele>87.850151</ele>
        <time>2021-08-27T15:29:49.000Z</time>
      </trkpt>
      <trkpt lat="45.35169" lon="10.72415">
        <ele>87.959299</ele>
        <time>2021-08-27T15:29:51.000Z</time>
      </trkpt>
      <trkpt lat="45.35175" lon="10.72432">
        <ele>88.433082</ele>
        <time>2021-08-27T15:30:01.000Z</time>
      </trkpt>
      <trkpt lat="45.3518" lon="10.72441">
        <ele>88.709728</ele>
        <time>2021-08-27T15:30:07.000Z</time>
      </trkpt>
      <trkpt lat="45.35182" lon="10.72445">
        <ele>88.841136</ele>
        <time>2021-08-27T15:30:10.000Z</time>
      </trkpt>
      <trkpt lat="45.35187" lon="10.72461">
        <ele>88.966431</ele>
        <time>2021-08-27T15:30:19.000Z</time>
      </trkpt>
      <trkpt lat="45.35191" lon="10.72471">
        <ele>88.968604</ele>
        <time>2021-08-27T15:30:25.000Z</time>
      </trkpt>
      <trkpt lat="45.35195" lon="10.72478">
        <ele>88.970158</ele>
        <time>2021-08-27T15:30:29.000Z</time>
      </trkpt>
      <trkpt lat="45.35199" lon="10.72493">
        <ele>88.973065</ele>
        <time>2021-08-27T15:30:37.000Z</time>
      </trkpt>
      <trkpt lat="45.35201" lon="10.72496">
        <ele>88.97382</ele>
        <time>2021-08-27T15:30:40.000Z</time>
      </trkpt>
      <trkpt lat="45.35204" lon="10.72502">
        <ele>88.975209</ele>
        <time>2021-08-27T15:30:45.000Z</time>
      </trkpt>
      <trkpt lat="45.35204" lon="10.72505">
        <ele>88.975772</ele>
        <time>2021-08-27T15:30:46.000Z</time>
      </trkpt>
      <trkpt lat="45.35209" lon="10.7252">
        <ele>88.978656</ele>
        <time>2021-08-27T15:30:50.000Z</time>
      </trkpt>
      <trkpt lat="45.35215" lon="10.72563">
        <ele>88.986568</ele>
        <time>2021-08-27T15:30:59.000Z</time>
      </trkpt>
      <trkpt lat="45.35218" lon="10.72586">
        <ele>88.990844</ele>
        <time>2021-08-27T15:31:04.000Z</time>
      </trkpt>
      <trkpt lat="45.35219" lon="10.72597">
        <ele>88.992768</ele>
        <time>2021-08-27T15:31:06.000Z</time>
      </trkpt>
      <trkpt lat="45.3522" lon="10.72602">
        <ele>88.993777</ele>
        <time>2021-08-27T15:31:07.000Z</time>
      </trkpt>
      <trkpt lat="45.35224" lon="10.72617">
        <ele>88.996676</ele>
        <time>2021-08-27T15:31:10.000Z</time>
      </trkpt>
      <trkpt lat="45.35226" lon="10.72623">
        <ele>88.997898</ele>
        <time>2021-08-27T15:31:11.000Z</time>
      </trkpt>
      <trkpt lat="45.3523" lon="10.72633">
        <ele>88.99992</ele>
        <time>2021-08-27T15:31:13.000Z</time>
      </trkpt>
      <trkpt lat="45.35237" lon="10.72648">
        <ele>89.003159</ele>
        <time>2021-08-27T15:31:16.000Z</time>
      </trkpt>
      <trkpt lat="45.3524" lon="10.72653">
        <ele>89.0043</ele>
        <time>2021-08-27T15:31:17.000Z</time>
      </trkpt>
      <trkpt lat="45.35247" lon="10.72672">
        <ele>89.008221</ele>
        <time>2021-08-27T15:31:21.000Z</time>
      </trkpt>
      <trkpt lat="45.35261" lon="10.72705">
        <ele>89.442093</ele>
        <time>2021-08-27T15:31:28.000Z</time>
      </trkpt>
      <trkpt lat="45.35272" lon="10.72733">
        <ele>89.995769</ele>
        <time>2021-08-27T15:31:35.000Z</time>
      </trkpt>
      <trkpt lat="45.35281" lon="10.72745">
        <ele>90.283375</ele>
        <time>2021-08-27T15:31:39.000Z</time>
      </trkpt>
      <trkpt lat="45.35284" lon="10.72746">
        <ele>90.359954</ele>
        <time>2021-08-27T15:31:40.000Z</time>
      </trkpt>
      <trkpt lat="45.35291" lon="10.72744">
        <ele>90.544966</ele>
        <time>2021-08-27T15:31:43.000Z</time>
      </trkpt>
      <trkpt lat="45.35293" lon="10.72743">
        <ele>90.594439</ele>
        <time>2021-08-27T15:31:44.000Z</time>
      </trkpt>
      <trkpt lat="45.35295" lon="10.72743">
        <ele>90.643323</ele>
        <time>2021-08-27T15:31:45.000Z</time>
      </trkpt>
      <trkpt lat="45.35296" lon="10.72745">
        <ele>90.674985</ele>
        <time>2021-08-27T15:31:46.000Z</time>
      </trkpt>
      <trkpt lat="45.35298" lon="10.72753">
        <ele>90.825033</ele>
        <time>2021-08-27T15:31:49.000Z</time>
      </trkpt>
      <trkpt lat="45.35299" lon="10.72754">
        <ele>90.839475</ele>
        <time>2021-08-27T15:31:53.000Z</time>
      </trkpt>
      <trkpt lat="45.35299" lon="10.72754">
        <ele>90.839475</ele>
        <time>2021-08-27T15:31:54.000Z</time>
      </trkpt>
      <trkpt lat="45.35299" lon="10.72757">
        <ele>90.903562</ele>
        <time>2021-08-27T15:31:58.000Z</time>
      </trkpt>
      <trkpt lat="45.353" lon="10.7276">
        <ele>90.952702</ele>
        <time>2021-08-27T15:31:59.000Z</time>
      </trkpt>
      <trkpt lat="45.35303" lon="10.72778">
        <ele>91.266864</ele>
        <time>2021-08-27T15:32:04.000Z</time>
      </trkpt>
      <trkpt lat="45.35316" lon="10.72801">
        <ele>91.769566</ele>
        <time>2021-08-27T15:32:11.000Z</time>
      </trkpt>
      <trkpt lat="45.35328" lon="10.72812">
        <ele>92.11371</ele>
        <time>2021-08-27T15:32:16.000Z</time>
      </trkpt>
      <trkpt lat="45.35332" lon="10.72816">
        <ele>92.237414</ele>
        <time>2021-08-27T15:32:18.000Z</time>
      </trkpt>
      <trkpt lat="45.35343" lon="10.72828">
        <ele>92.563901</ele>
        <time>2021-08-27T15:32:23.000Z</time>
      </trkpt>
      <trkpt lat="45.35353" lon="10.72837">
        <ele>92.851026</ele>
        <time>2021-08-27T15:32:27.000Z</time>
      </trkpt>
      <trkpt lat="45.35359" lon="10.72844">
        <ele>93.046274</ele>
        <time>2021-08-27T15:32:30.000Z</time>
      </trkpt>
      <trkpt lat="45.35365" lon="10.7285">
        <ele>93.220412</ele>
        <time>2021-08-27T15:32:33.000Z</time>
      </trkpt>
      <trkpt lat="45.35368" lon="10.72854">
        <ele>93.318494</ele>
        <time>2021-08-27T15:32:35.000Z</time>
      </trkpt>
      <trkpt lat="45.35371" lon="10.72859">
        <ele>93.332979</ele>
        <time>2021-08-27T15:32:40.000Z</time>
      </trkpt>
      <trkpt lat="45.35371" lon="10.72859">
        <ele>93.328446</ele>
        <time>2021-08-27T15:32:46.000Z</time>
      </trkpt>
      <trkpt lat="45.35373" lon="10.72861">
        <ele>93.302384</ele>
        <time>2021-08-27T15:32:48.000Z</time>
      </trkpt>
      <trkpt lat="45.35377" lon="10.72863">
        <ele>93.258738</ele>
        <time>2021-08-27T15:32:52.000Z</time>
      </trkpt>
      <trkpt lat="45.35378" lon="10.72864">
        <ele>93.249103</ele>
        <time>2021-08-27T15:32:53.000Z</time>
      </trkpt>
      <trkpt lat="45.35382" lon="10.72868">
        <ele>93.195976</ele>
        <time>2021-08-27T15:32:57.000Z</time>
      </trkpt>
      <trkpt lat="45.35383" lon="10.72869">
        <ele>93.182498</ele>
        <time>2021-08-27T15:32:58.000Z</time>
      </trkpt>
      <trkpt lat="45.35387" lon="10.72871">
        <ele>93.131563</ele>
        <time>2021-08-27T15:33:02.000Z</time>
      </trkpt>
      <trkpt lat="45.35389" lon="10.72873">
        <ele>93.104154</ele>
        <time>2021-08-27T15:33:04.000Z</time>
      </trkpt>
      <trkpt lat="45.3539" lon="10.72874">
        <ele>93.087042</ele>
        <time>2021-08-27T15:33:05.000Z</time>
      </trkpt>
      <trkpt lat="45.35393" lon="10.72877">
        <ele>93.055126</ele>
        <time>2021-08-27T15:33:07.000Z</time>
      </trkpt>
      <trkpt lat="45.35396" lon="10.72881">
        <ele>93.009258</ele>
        <time>2021-08-27T15:33:10.000Z</time>
      </trkpt>
      <trkpt lat="45.35397" lon="10.72882">
        <ele>92.995266</ele>
        <time>2021-08-27T15:33:11.000Z</time>
      </trkpt>
      <trkpt lat="45.35397" lon="10.72883">
        <ele>92.984328</ele>
        <time>2021-08-27T15:33:12.000Z</time>
      </trkpt>
      <trkpt lat="45.35401" lon="10.72886">
        <ele>92.939666</ele>
        <time>2021-08-27T15:33:15.000Z</time>
      </trkpt>
      <trkpt lat="45.35402" lon="10.72887">
        <ele>92.922578</ele>
        <time>2021-08-27T15:33:16.000Z</time>
      </trkpt>
      <trkpt lat="45.35404" lon="10.72887">
        <ele>92.901497</ele>
        <time>2021-08-27T15:33:18.000Z</time>
      </trkpt>
      <trkpt lat="45.35405" lon="10.72887">
        <ele>92.888242</ele>
        <time>2021-08-27T15:33:19.000Z</time>
      </trkpt>
      <trkpt lat="45.35408" lon="10.72888">
        <ele>92.862305</ele>
        <time>2021-08-27T15:33:21.000Z</time>
      </trkpt>
      <trkpt lat="45.35414" lon="10.72891">
        <ele>92.792677</ele>
        <time>2021-08-27T15:33:26.000Z</time>
      </trkpt>
      <trkpt lat="45.35589" lon="10.72856">
        <ele>91.042639</ele>
        <time>2021-08-27T16:17:03.000Z</time>
      </trkpt>
      <trkpt lat="45.3559" lon="10.72857">
        <ele>91.034214</ele>
        <time>2021-08-27T16:17:04.000Z</time>
      </trkpt>
      <trkpt lat="45.35613" lon="10.72861">
        <ele>90.870892</ele>
        <time>2021-08-27T16:17:12.000Z</time>
      </trkpt>
      <trkpt lat="45.35632" lon="10.72863">
        <ele>90.740321</ele>
        <time>2021-08-27T16:17:20.000Z</time>
      </trkpt>
      <trkpt lat="45.35648" lon="10.72863">
        <ele>90.629304</ele>
        <time>2021-08-27T16:17:26.000Z</time>
      </trkpt>
      <trkpt lat="45.3566" lon="10.72865">
        <ele>90.549783</ele>
        <time>2021-08-27T16:17:30.000Z</time>
      </trkpt>
      <trkpt lat="45.35665" lon="10.72864">
        <ele>90.514625</ele>
        <time>2021-08-27T16:17:32.000Z</time>
      </trkpt>
      <trkpt lat="45.35679" lon="10.72867">
        <ele>90.418538</ele>
        <time>2021-08-27T16:17:37.000Z</time>
      </trkpt>
      <trkpt lat="45.35691" lon="10.72865">
        <ele>90.333504</ele>
        <time>2021-08-27T16:17:41.000Z</time>
      </trkpt>
      <trkpt lat="45.35697" lon="10.72865">
        <ele>90.288696</ele>
        <time>2021-08-27T16:17:43.000Z</time>
      </trkpt>
      <trkpt lat="45.35715" lon="10.72863">
        <ele>90.16716</ele>
        <time>2021-08-27T16:17:49.000Z</time>
      </trkpt>
      <trkpt lat="45.35718" lon="10.72863">
        <ele>90.144392</ele>
        <time>2021-08-27T16:17:50.000Z</time>
      </trkpt>
      <trkpt lat="45.3574" lon="10.72867">
        <ele>90.318093</ele>
        <time>2021-08-27T16:17:57.000Z</time>
      </trkpt>
      <trkpt lat="45.35763" lon="10.72872">
        <ele>90.519908</ele>
        <time>2021-08-27T16:18:04.000Z</time>
      </trkpt>
      <trkpt lat="45.35768" lon="10.72873">
        <ele>90.558801</ele>
        <time>2021-08-27T16:18:06.000Z</time>
      </trkpt>
      <trkpt lat="45.35776" lon="10.72873">
        <ele>90.628022</ele>
        <time>2021-08-27T16:18:09.000Z</time>
      </trkpt>
      <trkpt lat="45.35788" lon="10.72875">
        <ele>90.72801</ele>
        <time>2021-08-27T16:18:13.000Z</time>
      </trkpt>
      <trkpt lat="45.35799" lon="10.72878">
        <ele>90.824607</ele>
        <time>2021-08-27T16:18:16.000Z</time>
      </trkpt>
      <trkpt lat="45.35824" lon="10.72884">
        <ele>91.035952</ele>
        <time>2021-08-27T16:18:23.000Z</time>
      </trkpt>
      <trkpt lat="45.35828" lon="10.72885">
        <ele>91.069044</ele>
        <time>2021-08-27T16:18:24.000Z</time>
      </trkpt>
      <trkpt lat="45.35849" lon="10.7289">
        <ele>91.250207</ele>
        <time>2021-08-27T16:18:30.000Z</time>
      </trkpt>
      <trkpt lat="45.35856" lon="10.72893">
        <ele>91.313798</ele>
        <time>2021-08-27T16:18:32.000Z</time>
      </trkpt>
      <trkpt lat="45.35866" lon="10.72898">
        <ele>91.402845</ele>
        <time>2021-08-27T16:18:35.000Z</time>
      </trkpt>
      <trkpt lat="45.35872" lon="10.72899">
        <ele>91.45348</ele>
        <time>2021-08-27T16:18:37.000Z</time>
      </trkpt>
      <trkpt lat="45.35893" lon="10.72904">
        <ele>91.630015</ele>
        <time>2021-08-27T16:18:43.000Z</time>
      </trkpt>
      <trkpt lat="45.35897" lon="10.72904">
        <ele>91.656784</ele>
        <time>2021-08-27T16:18:44.000Z</time>
      </trkpt>
      <trkpt lat="45.35921" lon="10.72906">
        <ele>91.648813</ele>
        <time>2021-08-27T16:18:50.000Z</time>
      </trkpt>
      <trkpt lat="45.35956" lon="10.72905">
        <ele>91.637146</ele>
        <time>2021-08-27T16:18:58.000Z</time>
      </trkpt>
      <trkpt lat="45.35985" lon="10.72908">
        <ele>91.62776</ele>
        <time>2021-08-27T16:19:04.000Z</time>
      </trkpt>
      <trkpt lat="45.35998" lon="10.7291">
        <ele>91.623351</ele>
        <time>2021-08-27T16:19:07.000Z</time>
      </trkpt>
      <trkpt lat="45.36021" lon="10.72909">
        <ele>91.615814</ele>
        <time>2021-08-27T16:19:13.000Z</time>
      </trkpt>
      <trkpt lat="45.36036" lon="10.72908">
        <ele>91.610785</ele>
        <time>2021-08-27T16:19:17.000Z</time>
      </trkpt>
      <trkpt lat="45.3606" lon="10.72906">
        <ele>91.602873</ele>
        <time>2021-08-27T16:19:23.000Z</time>
      </trkpt>
      <trkpt lat="45.36097" lon="10.729">
        <ele>91.683664</ele>
        <time>2021-08-27T16:19:32.000Z</time>
      </trkpt>
      <trkpt lat="45.36101" lon="10.72899">
        <ele>91.70048</ele>
        <time>2021-08-27T16:19:33.000Z</time>
      </trkpt>
      <trkpt lat="45.36122" lon="10.72895">
        <ele>91.786915</ele>
        <time>2021-08-27T16:19:38.000Z</time>
      </trkpt>
      <trkpt lat="45.36134" lon="10.72894">
        <ele>91.837361</ele>
        <time>2021-08-27T16:19:41.000Z</time>
      </trkpt>
      <trkpt lat="45.36142" lon="10.72892">
        <ele>91.871628</ele>
        <time>2021-08-27T16:19:43.000Z</time>
      </trkpt>
      <trkpt lat="45.36151" lon="10.72891">
        <ele>91.905895</ele>
        <time>2021-08-27T16:19:45.000Z</time>
      </trkpt>
      <trkpt lat="45.36165" lon="10.72887">
        <ele>91.964082</ele>
        <time>2021-08-27T16:19:49.000Z</time>
      </trkpt>
      <trkpt lat="45.36174" lon="10.72886">
        <ele>92.003031</ele>
        <time>2021-08-27T16:19:52.000Z</time>
      </trkpt>
      <trkpt lat="45.36183" lon="10.72886">
        <ele>92.039813</ele>
        <time>2021-08-27T16:19:55.000Z</time>
      </trkpt>
      <trkpt lat="45.3619" lon="10.72885">
        <ele>92.067654</ele>
        <time>2021-08-27T16:19:57.000Z</time>
      </trkpt>
      <trkpt lat="45.36198" lon="10.72883">
        <ele>92.100148</ele>
        <time>2021-08-27T16:19:59.000Z</time>
      </trkpt>
      <trkpt lat="45.36201" lon="10.72882">
        <ele>92.114859</ele>
        <time>2021-08-27T16:20:00.000Z</time>
      </trkpt>
      <trkpt lat="45.36205" lon="10.7288">
        <ele>92.13058</ele>
        <time>2021-08-27T16:20:01.000Z</time>
      </trkpt>
      <trkpt lat="45.36223" lon="10.72867">
        <ele>92.212551</ele>
        <time>2021-08-27T16:20:06.000Z</time>
      </trkpt>
      <trkpt lat="45.36254" lon="10.72846">
        <ele>92.361376</ele>
        <time>2021-08-27T16:20:15.000Z</time>
      </trkpt>
      <trkpt lat="45.36261" lon="10.72842">
        <ele>92.400034</ele>
        <time>2021-08-27T16:20:17.000Z</time>
      </trkpt>
      <trkpt lat="45.36272" lon="10.72837">
        <ele>92.458847</ele>
        <time>2021-08-27T16:20:20.000Z</time>
      </trkpt>
      <trkpt lat="45.36292" lon="10.72822">
        <ele>92.579899</ele>
        <time>2021-08-27T16:20:26.000Z</time>
      </trkpt>
      <trkpt lat="45.36322" lon="10.72799">
        <ele>92.755388</ele>
        <time>2021-08-27T16:20:34.000Z</time>
      </trkpt>
      <trkpt lat="45.36339" lon="10.72783">
        <ele>92.86299</ele>
        <time>2021-08-27T16:20:39.000Z</time>
      </trkpt>
      <trkpt lat="45.36343" lon="10.7278">
        <ele>92.885406</ele>
        <time>2021-08-27T16:20:40.000Z</time>
      </trkpt>
      <trkpt lat="45.36357" lon="10.72768">
        <ele>92.970837</ele>
        <time>2021-08-27T16:20:44.000Z</time>
      </trkpt>
      <trkpt lat="45.36366" lon="10.72759">
        <ele>93.029733</ele>
        <time>2021-08-27T16:20:47.000Z</time>
      </trkpt>
      <trkpt lat="45.36376" lon="10.72751">
        <ele>93.090808</ele>
        <time>2021-08-27T16:20:50.000Z</time>
      </trkpt>
      <trkpt lat="45.36379" lon="10.72748">
        <ele>93.110854</ele>
        <time>2021-08-27T16:20:51.000Z</time>
      </trkpt>
      <trkpt lat="45.36393" lon="10.72736">
        <ele>93.19584</ele>
        <time>2021-08-27T16:20:55.000Z</time>
      </trkpt>
      <trkpt lat="45.36426" lon="10.72706">
        <ele>92.771929</ele>
        <time>2021-08-27T16:21:04.000Z</time>
      </trkpt>
      <trkpt lat="45.36439" lon="10.72694">
        <ele>92.421235</ele>
        <time>2021-08-27T16:21:08.000Z</time>
      </trkpt>
      <trkpt lat="45.3646" lon="10.72675">
        <ele>91.906183</ele>
        <time>2021-08-27T16:21:14.000Z</time>
      </trkpt>
      <trkpt lat="45.36486" lon="10.72649">
        <ele>91.233214</ele>
        <time>2021-08-27T16:21:22.000Z</time>
      </trkpt>
      <trkpt lat="45.36489" lon="10.72646">
        <ele>91.1541</ele>
        <time>2021-08-27T16:21:23.000Z</time>
      </trkpt>
      <trkpt lat="45.36509" lon="10.72624">
        <ele>90.605603</ele>
        <time>2021-08-27T16:21:31.000Z</time>
      </trkpt>
      <trkpt lat="45.36513" lon="10.72613">
        <ele>90.415821</ele>
        <time>2021-08-27T16:21:35.000Z</time>
      </trkpt>
      <trkpt lat="45.36512" lon="10.72604">
        <ele>90.278854</ele>
        <time>2021-08-27T16:21:37.000Z</time>
      </trkpt>
      <trkpt lat="45.36508" lon="10.72588">
        <ele>90.029813</ele>
        <time>2021-08-27T16:21:40.000Z</time>
      </trkpt>
      <trkpt lat="45.36503" lon="10.72574">
        <ele>89.792379</ele>
        <time>2021-08-27T16:21:43.000Z</time>
      </trkpt>
      <trkpt lat="45.36501" lon="10.7257">
        <ele>89.712395</ele>
        <time>2021-08-27T16:21:44.000Z</time>
      </trkpt>
      <trkpt lat="45.36497" lon="10.72567">
        <ele>89.625458</ele>
        <time>2021-08-27T16:21:45.000Z</time>
      </trkpt>
      <trkpt lat="45.36494" lon="10.72563">
        <ele>89.532421</ele>
        <time>2021-08-27T16:21:46.000Z</time>
      </trkpt>
      <trkpt lat="45.36485" lon="10.72557">
        <ele>89.357095</ele>
        <time>2021-08-27T16:21:48.000Z</time>
      </trkpt>
      <trkpt lat="45.36482" lon="10.72552">
        <ele>89.286475</ele>
        <time>2021-08-27T16:21:49.000Z</time>
      </trkpt>
      <trkpt lat="45.36473" lon="10.72536">
        <ele>89.043872</ele>
        <time>2021-08-27T16:21:52.000Z</time>
      </trkpt>
      <trkpt lat="45.36465" lon="10.72513">
        <ele>88.74414</ele>
        <time>2021-08-27T16:21:56.000Z</time>
      </trkpt>
      <trkpt lat="45.36458" lon="10.72498">
        <ele>88.548829</ele>
        <time>2021-08-27T16:22:00.000Z</time>
      </trkpt>
      <trkpt lat="45.36458" lon="10.72494">
        <ele>88.505272</ele>
        <time>2021-08-27T16:22:01.000Z</time>
      </trkpt>
      <trkpt lat="45.3646" lon="10.72487">
        <ele>88.418185</ele>
        <time>2021-08-27T16:22:03.000Z</time>
      </trkpt>
      <trkpt lat="45.36464" lon="10.7248">
        <ele>88.322509</ele>
        <time>2021-08-27T16:22:05.000Z</time>
      </trkpt>
      <trkpt lat="45.36466" lon="10.72477">
        <ele>88.27119</ele>
        <time>2021-08-27T16:22:06.000Z</time>
      </trkpt>
      <trkpt lat="45.36481" lon="10.72456">
        <ele>87.924796</ele>
        <time>2021-08-27T16:22:13.000Z</time>
      </trkpt>
      <trkpt lat="45.36493" lon="10.7244">
        <ele>87.654036</ele>
        <time>2021-08-27T16:22:18.000Z</time>
      </trkpt>
      <trkpt lat="45.36507" lon="10.72421">
        <ele>87.336473</ele>
        <time>2021-08-27T16:22:23.000Z</time>
      </trkpt>
      <trkpt lat="45.36514" lon="10.72415">
        <ele>87.210064</ele>
        <time>2021-08-27T16:22:25.000Z</time>
      </trkpt>
      <trkpt lat="45.36526" lon="10.72399">
        <ele>86.947227</ele>
        <time>2021-08-27T16:22:29.000Z</time>
      </trkpt>
      <trkpt lat="45.36538" lon="10.72385">
        <ele>86.685935</ele>
        <time>2021-08-27T16:22:33.000Z</time>
      </trkpt>
      <trkpt lat="45.36567" lon="10.72351">
        <ele>86.500723</ele>
        <time>2021-08-27T16:22:42.000Z</time>
      </trkpt>
      <trkpt lat="45.36573" lon="10.72343">
        <ele>86.500515</ele>
        <time>2021-08-27T16:22:44.000Z</time>
      </trkpt>
      <trkpt lat="45.36588" lon="10.72324">
        <ele>86.499986</ele>
        <time>2021-08-27T16:22:49.000Z</time>
      </trkpt>
      <trkpt lat="45.36613" lon="10.72291">
        <ele>86.499097</ele>
        <time>2021-08-27T16:22:57.000Z</time>
      </trkpt>
      <trkpt lat="45.36641" lon="10.72252">
        <ele>86.498066</ele>
        <time>2021-08-27T16:23:06.000Z</time>
      </trkpt>
      <trkpt lat="45.36664" lon="10.72216">
        <ele>86.497184</ele>
        <time>2021-08-27T16:23:14.000Z</time>
      </trkpt>
      <trkpt lat="45.36671" lon="10.72202">
        <ele>86.496866</ele>
        <time>2021-08-27T16:23:17.000Z</time>
      </trkpt>
      <trkpt lat="45.36674" lon="10.72197">
        <ele>86.496758</ele>
        <time>2021-08-27T16:23:18.000Z</time>
      </trkpt>
      <trkpt lat="45.36701" lon="10.72146">
        <ele>86.584162</ele>
        <time>2021-08-27T16:23:29.000Z</time>
      </trkpt>
      <trkpt lat="45.36713" lon="10.72122">
        <ele>86.625836</ele>
        <time>2021-08-27T16:23:34.000Z</time>
      </trkpt>
      <trkpt lat="45.36721" lon="10.72106">
        <ele>86.652619</ele>
        <time>2021-08-27T16:23:37.000Z</time>
      </trkpt>
      <trkpt lat="45.36727" lon="10.72091">
        <ele>86.677469</ele>
        <time>2021-08-27T16:23:40.000Z</time>
      </trkpt>
      <trkpt lat="45.36734" lon="10.72075">
        <ele>86.704723</ele>
        <time>2021-08-27T16:23:43.000Z</time>
      </trkpt>
      <trkpt lat="45.36738" lon="10.72064">
        <ele>86.722905</ele>
        <time>2021-08-27T16:23:45.000Z</time>
      </trkpt>
      <trkpt lat="45.36756" lon="10.7202">
        <ele>86.794114</ele>
        <time>2021-08-27T16:23:53.000Z</time>
      </trkpt>
      <trkpt lat="45.36772" lon="10.71978">
        <ele>86.855846</ele>
        <time>2021-08-27T16:24:01.000Z</time>
      </trkpt>
      <trkpt lat="45.36776" lon="10.71966">
        <ele>86.845773</ele>
        <time>2021-08-27T16:24:03.000Z</time>
      </trkpt>
      <trkpt lat="45.36795" lon="10.71905">
        <ele>86.793086</ele>
        <time>2021-08-27T16:24:14.000Z</time>
      </trkpt>
      <trkpt lat="45.36807" lon="10.71862">
        <ele>86.756602</ele>
        <time>2021-08-27T16:24:23.000Z</time>
      </trkpt>
      <trkpt lat="45.3681" lon="10.71848">
        <ele>86.745544</ele>
        <time>2021-08-27T16:24:25.000Z</time>
      </trkpt>
      <trkpt lat="45.36814" lon="10.71838">
        <ele>86.736905</ele>
        <time>2021-08-27T16:24:27.000Z</time>
      </trkpt>
      <trkpt lat="45.36816" lon="10.71827">
        <ele>86.727659</ele>
        <time>2021-08-27T16:24:29.000Z</time>
      </trkpt>
      <trkpt lat="45.36819" lon="10.71815">
        <ele>86.718007</ele>
        <time>2021-08-27T16:24:31.000Z</time>
      </trkpt>
      <trkpt lat="45.3682" lon="10.71809">
        <ele>86.713235</ele>
        <time>2021-08-27T16:24:32.000Z</time>
      </trkpt>
      <trkpt lat="45.36823" lon="10.71798">
        <ele>86.703656</ele>
        <time>2021-08-27T16:24:34.000Z</time>
      </trkpt>
      <trkpt lat="45.36828" lon="10.71774">
        <ele>86.684018</ele>
        <time>2021-08-27T16:24:38.000Z</time>
      </trkpt>
      <trkpt lat="45.3683" lon="10.71767">
        <ele>86.678174</ele>
        <time>2021-08-27T16:24:39.000Z</time>
      </trkpt>
      <trkpt lat="45.36842" lon="10.71713">
        <ele>86.639634</ele>
        <time>2021-08-27T16:24:48.000Z</time>
      </trkpt>
      <trkpt lat="45.36843" lon="10.71708">
        <ele>86.636411</ele>
        <time>2021-08-27T16:24:49.000Z</time>
      </trkpt>
      <trkpt lat="45.36843" lon="10.71708">
        <ele>86.636411</ele>
        <time>2021-08-27T16:24:50.000Z</time>
      </trkpt>
      <trkpt lat="45.36846" lon="10.71695">
        <ele>86.628597</ele>
        <time>2021-08-27T16:24:51.000Z</time>
      </trkpt>
      <trkpt lat="45.36864" lon="10.71622">
        <ele>86.583185</ele>
        <time>2021-08-27T16:25:03.000Z</time>
      </trkpt>
      <trkpt lat="45.36871" lon="10.71592">
        <ele>86.56465</ele>
        <time>2021-08-27T16:25:08.000Z</time>
      </trkpt>
      <trkpt lat="45.36881" lon="10.71551">
        <ele>86.539074</ele>
        <time>2021-08-27T16:25:15.000Z</time>
      </trkpt>
      <trkpt lat="45.36889" lon="10.71521">
        <ele>86.520448</ele>
        <time>2021-08-27T16:25:20.000Z</time>
      </trkpt>
      <trkpt lat="45.36893" lon="10.71503">
        <ele>86.509255</ele>
        <time>2021-08-27T16:25:23.000Z</time>
      </trkpt>
      <trkpt lat="45.36896" lon="10.71491">
        <ele>86.51333</ele>
        <time>2021-08-27T16:25:25.000Z</time>
      </trkpt>
      <trkpt lat="45.36902" lon="10.71464">
        <ele>86.535145</ele>
        <time>2021-08-27T16:25:30.000Z</time>
      </trkpt>
      <trkpt lat="45.36903" lon="10.71458">
        <ele>86.539404</ele>
        <time>2021-08-27T16:25:31.000Z</time>
      </trkpt>
      <trkpt lat="45.36915" lon="10.71404">
        <ele>86.583232</ele>
        <time>2021-08-27T16:25:41.000Z</time>
      </trkpt>
      <trkpt lat="45.36922" lon="10.71355">
        <ele>86.621296</ele>
        <time>2021-08-27T16:25:50.000Z</time>
      </trkpt>
      <trkpt lat="45.36923" lon="10.71298">
        <ele>86.664576</ele>
        <time>2021-08-27T16:26:00.000Z</time>
      </trkpt>
      <trkpt lat="45.36921" lon="10.71246">
        <ele>86.701521</ele>
        <time>2021-08-27T16:26:09.000Z</time>
      </trkpt>
      <trkpt lat="45.36921" lon="10.7124">
        <ele>86.700313</ele>
        <time>2021-08-27T16:26:10.000Z</time>
      </trkpt>
      <trkpt lat="45.36919" lon="10.71172">
        <ele>86.686807</ele>
        <time>2021-08-27T16:26:21.000Z</time>
      </trkpt>
      <trkpt lat="45.36918" lon="10.71143">
        <ele>86.68116</ele>
        <time>2021-08-27T16:26:26.000Z</time>
      </trkpt>
      <trkpt lat="45.36918" lon="10.7112">
        <ele>86.676624</ele>
        <time>2021-08-27T16:26:30.000Z</time>
      </trkpt>
      <trkpt lat="45.36917" lon="10.71103">
        <ele>86.673156</ele>
        <time>2021-08-27T16:26:34.000Z</time>
      </trkpt>
      <trkpt lat="45.36915" lon="10.7106">
        <ele>86.664608</ele>
        <time>2021-08-27T16:26:40.000Z</time>
      </trkpt>
      <trkpt lat="45.36915" lon="10.71037">
        <ele>86.660114</ele>
        <time>2021-08-27T16:26:44.000Z</time>
      </trkpt>
      <trkpt lat="45.36914" lon="10.71026">
        <ele>86.657912</ele>
        <time>2021-08-27T16:26:46.000Z</time>
      </trkpt>
      <trkpt lat="45.36913" lon="10.70998">
        <ele>86.6523</ele>
        <time>2021-08-27T16:26:52.000Z</time>
      </trkpt>
      <trkpt lat="45.36913" lon="10.70976">
        <ele>86.643772</ele>
        <time>2021-08-27T16:26:55.000Z</time>
      </trkpt>
      <trkpt lat="45.36913" lon="10.7096">
        <ele>86.636705</ele>
        <time>2021-08-27T16:26:58.000Z</time>
      </trkpt>
      <trkpt lat="45.36916" lon="10.7091">
        <ele>86.614326</ele>
        <time>2021-08-27T16:27:07.000Z</time>
      </trkpt>
      <trkpt lat="45.36917" lon="10.70893">
        <ele>86.606915</ele>
        <time>2021-08-27T16:27:10.000Z</time>
      </trkpt>
      <trkpt lat="45.36923" lon="10.70861">
        <ele>86.592102</ele>
        <time>2021-08-27T16:27:16.000Z</time>
      </trkpt>
      <trkpt lat="45.36926" lon="10.70839">
        <ele>86.582077</ele>
        <time>2021-08-27T16:27:20.000Z</time>
      </trkpt>
      <trkpt lat="45.36935" lon="10.70807">
        <ele>86.566918</ele>
        <time>2021-08-27T16:27:26.000Z</time>
      </trkpt>
      <trkpt lat="45.36953" lon="10.70756">
        <ele>86.541742</ele>
        <time>2021-08-27T16:27:36.000Z</time>
      </trkpt>
      <trkpt lat="45.36977" lon="10.70705">
        <ele>86.539386</ele>
        <time>2021-08-27T16:27:47.000Z</time>
      </trkpt>
      <trkpt lat="45.36982" lon="10.70696">
        <ele>86.53977</ele>
        <time>2021-08-27T16:27:49.000Z</time>
      </trkpt>
      <trkpt lat="45.37008" lon="10.70658">
        <ele>86.541496</ele>
        <time>2021-08-27T16:27:58.000Z</time>
      </trkpt>
      <trkpt lat="45.37021" lon="10.70642">
        <ele>86.54228</ele>
        <time>2021-08-27T16:28:03.000Z</time>
      </trkpt>
      <trkpt lat="45.37043" lon="10.70615">
        <ele>86.543666</ele>
        <time>2021-08-27T16:28:09.000Z</time>
      </trkpt>
      <trkpt lat="45.37072" lon="10.70581">
        <ele>86.545374</ele>
        <time>2021-08-27T16:28:18.000Z</time>
      </trkpt>
      <trkpt lat="45.37078" lon="10.70574">
        <ele>86.545741</ele>
        <time>2021-08-27T16:28:20.000Z</time>
      </trkpt>
      <trkpt lat="45.37092" lon="10.70557">
        <ele>86.591097</ele>
        <time>2021-08-27T16:28:26.000Z</time>
      </trkpt>
      <trkpt lat="45.37102" lon="10.70543">
        <ele>86.642905</ele>
        <time>2021-08-27T16:28:30.000Z</time>
      </trkpt>
      <trkpt lat="45.37127" lon="10.70515">
        <ele>86.756712</ele>
        <time>2021-08-27T16:28:37.000Z</time>
      </trkpt>
      <trkpt lat="45.37132" lon="10.70508">
        <ele>86.782734</ele>
        <time>2021-08-27T16:28:39.000Z</time>
      </trkpt>
      <trkpt lat="45.37161" lon="10.70473">
        <ele>86.921658</ele>
        <time>2021-08-27T16:28:49.000Z</time>
      </trkpt>
      <trkpt lat="45.37167" lon="10.70465">
        <ele>86.948558</ele>
        <time>2021-08-27T16:28:51.000Z</time>
      </trkpt>
      <trkpt lat="45.37185" lon="10.70443">
        <ele>87.037997</ele>
        <time>2021-08-27T16:28:57.000Z</time>
      </trkpt>
      <trkpt lat="45.37191" lon="10.70435">
        <ele>87.066033</ele>
        <time>2021-08-27T16:28:59.000Z</time>
      </trkpt>
      <trkpt lat="45.37199" lon="10.70425">
        <ele>87.103533</ele>
        <time>2021-08-27T16:29:02.000Z</time>
      </trkpt>
      <trkpt lat="45.37204" lon="10.70419">
        <ele>87.127949</ele>
        <time>2021-08-27T16:29:05.000Z</time>
      </trkpt>
      <trkpt lat="45.37226" lon="10.70396">
        <ele>87.205856</ele>
        <time>2021-08-27T16:29:12.000Z</time>
      </trkpt>
      <trkpt lat="45.37235" lon="10.70386">
        <ele>87.216893</ele>
        <time>2021-08-27T16:29:15.000Z</time>
      </trkpt>
      <trkpt lat="45.37246" lon="10.70373">
        <ele>87.230936</ele>
        <time>2021-08-27T16:29:19.000Z</time>
      </trkpt>
      <trkpt lat="45.37284" lon="10.70329">
        <ele>87.279254</ele>
        <time>2021-08-27T16:29:32.000Z</time>
      </trkpt>
      <trkpt lat="45.37299" lon="10.70312">
        <ele>87.298489</ele>
        <time>2021-08-27T16:29:37.000Z</time>
      </trkpt>
      <trkpt lat="45.37325" lon="10.70282">
        <ele>87.331352</ele>
        <time>2021-08-27T16:29:46.000Z</time>
      </trkpt>
      <trkpt lat="45.37339" lon="10.70267">
        <ele>87.349148</ele>
        <time>2021-08-27T16:29:51.000Z</time>
      </trkpt>
      <trkpt lat="45.37342" lon="10.70264">
        <ele>87.352692</ele>
        <time>2021-08-27T16:29:52.000Z</time>
      </trkpt>
      <trkpt lat="45.37342" lon="10.70264">
        <ele>87.352692</ele>
        <time>2021-08-27T16:29:53.000Z</time>
      </trkpt>
      <trkpt lat="45.37351" lon="10.70255">
        <ele>87.363366</ele>
        <time>2021-08-27T16:29:55.000Z</time>
      </trkpt>
      <trkpt lat="45.37367" lon="10.70237">
        <ele>87.343131</ele>
        <time>2021-08-27T16:30:01.000Z</time>
      </trkpt>
      <trkpt lat="45.37383" lon="10.70222">
        <ele>87.269718</ele>
        <time>2021-08-27T16:30:06.000Z</time>
      </trkpt>
      <trkpt lat="45.37391" lon="10.70214">
        <ele>87.229517</ele>
        <time>2021-08-27T16:30:09.000Z</time>
      </trkpt>
      <trkpt lat="45.37407" lon="10.702">
        <ele>87.157776</ele>
        <time>2021-08-27T16:30:14.000Z</time>
      </trkpt>
      <trkpt lat="45.3742" lon="10.7019">
        <ele>87.099336</ele>
        <time>2021-08-27T16:30:18.000Z</time>
      </trkpt>
      <trkpt lat="45.3742" lon="10.7019">
        <ele>87.099336</ele>
        <time>2021-08-27T16:30:19.000Z</time>
      </trkpt>
      <trkpt lat="45.37444" lon="10.7017">
        <ele>86.991473</ele>
        <time>2021-08-27T16:30:27.000Z</time>
      </trkpt>
      <trkpt lat="45.37462" lon="10.70158">
        <ele>86.913579</ele>
        <time>2021-08-27T16:30:32.000Z</time>
      </trkpt>
      <trkpt lat="45.37472" lon="10.70151">
        <ele>86.870685</ele>
        <time>2021-08-27T16:30:34.000Z</time>
      </trkpt>
      <trkpt lat="45.37496" lon="10.70134">
        <ele>86.766253</ele>
        <time>2021-08-27T16:30:41.000Z</time>
      </trkpt>
      <trkpt lat="45.37503" lon="10.7013">
        <ele>86.73571</ele>
        <time>2021-08-27T16:30:43.000Z</time>
      </trkpt>
      <trkpt lat="45.3752" lon="10.70118">
        <ele>86.650928</ele>
        <time>2021-08-27T16:30:48.000Z</time>
      </trkpt>
      <trkpt lat="45.37524" lon="10.70116">
        <ele>86.621154</ele>
        <time>2021-08-27T16:30:51.000Z</time>
      </trkpt>
      <trkpt lat="45.37524" lon="10.70116">
        <ele>86.621154</ele>
        <time>2021-08-27T16:30:57.000Z</time>
      </trkpt>
      <trkpt lat="45.37522" lon="10.70116">
        <ele>86.606597</ele>
        <time>2021-08-27T16:30:59.000Z</time>
      </trkpt>
      <trkpt lat="45.3752" lon="10.70118">
        <ele>86.59368</ele>
        <time>2021-08-27T16:31:01.000Z</time>
      </trkpt>
      <trkpt lat="45.3752" lon="10.7012">
        <ele>86.583441</ele>
        <time>2021-08-27T16:31:02.000Z</time>
      </trkpt>
      <trkpt lat="45.3752" lon="10.7012">
        <ele>86.583441</ele>
        <time>2021-08-27T16:31:04.000Z</time>
      </trkpt>
      <trkpt lat="45.3752" lon="10.7012">
        <ele>86.583441</ele>
        <time>2021-08-27T16:31:08.000Z</time>
      </trkpt>
      <trkpt lat="45.3752" lon="10.70119">
        <ele>86.579793</ele>
        <time>2021-08-27T16:31:17.000Z</time>
      </trkpt>
      <trkpt lat="45.37522" lon="10.70119">
        <ele>86.571651</ele>
        <time>2021-08-27T16:31:34.000Z</time>
      </trkpt>
      <trkpt lat="45.37522" lon="10.70118">
        <ele>86.568985</ele>
        <time>2021-08-27T16:31:45.000Z</time>
      </trkpt>
      <trkpt lat="45.37522" lon="10.70118">
        <ele>86.568258</ele>
        <time>2021-08-27T16:31:48.000Z</time>
      </trkpt>
      <trkpt lat="45.37522" lon="10.70118">
        <ele>86.568258</ele>
        <time>2021-08-27T16:31:50.000Z</time>
      </trkpt>
      <trkpt lat="45.37522" lon="10.70118">
        <ele>86.566482</ele>
        <time>2021-08-27T16:31:52.000Z</time>
      </trkpt>
      <trkpt lat="45.37522" lon="10.70118">
        <ele>86.566482</ele>
        <time>2021-08-27T16:31:56.000Z</time>
      </trkpt>
      <trkpt lat="45.37522" lon="10.70118">
        <ele>86.563543</ele>
        <time>2021-08-27T16:31:58.000Z</time>
      </trkpt>
      <trkpt lat="45.37524" lon="10.70117">
        <ele>86.553608</ele>
        <time>2021-08-27T16:32:04.000Z</time>
      </trkpt>
      <trkpt lat="45.37524" lon="10.70117">
        <ele>86.549217</ele>
        <time>2021-08-27T16:32:09.000Z</time>
      </trkpt>
      <trkpt lat="45.37524" lon="10.70117">
        <ele>86.549217</ele>
        <time>2021-08-27T16:32:14.000Z</time>
      </trkpt>
      <trkpt lat="45.37524" lon="10.70117">
        <ele>86.54849</ele>
        <time>2021-08-27T16:32:18.000Z</time>
      </trkpt>
      <trkpt lat="45.37526" lon="10.70115">
        <ele>86.532696</ele>
        <time>2021-08-27T16:32:32.000Z</time>
      </trkpt>
      <trkpt lat="45.3753" lon="10.70113">
        <ele>86.503546</ele>
        <time>2021-08-27T16:32:34.000Z</time>
      </trkpt>
      <trkpt lat="45.37532" lon="10.70112">
        <ele>86.485556</ele>
        <time>2021-08-27T16:32:35.000Z</time>
      </trkpt>
      <trkpt lat="45.3754" lon="10.70106">
        <ele>86.42052</ele>
        <time>2021-08-27T16:32:38.000Z</time>
      </trkpt>
      <trkpt lat="45.37549" lon="10.701">
        <ele>86.351088</ele>
        <time>2021-08-27T16:32:41.000Z</time>
      </trkpt>
      <trkpt lat="45.37556" lon="10.70094">
        <ele>86.287911</ele>
        <time>2021-08-27T16:32:45.000Z</time>
      </trkpt>
      <trkpt lat="45.37556" lon="10.70094">
        <ele>86.285799</ele>
        <time>2021-08-27T16:32:46.000Z</time>
      </trkpt>
      <trkpt lat="45.37557" lon="10.70093">
        <ele>86.27837</ele>
        <time>2021-08-27T16:32:56.000Z</time>
      </trkpt>
      <trkpt lat="45.37557" lon="10.70093">
        <ele>86.275862</ele>
        <time>2021-08-27T16:33:05.000Z</time>
      </trkpt>
      <trkpt lat="45.37557" lon="10.70093">
        <ele>86.275862</ele>
        <time>2021-08-27T16:33:07.000Z</time>
      </trkpt>
      <trkpt lat="45.37557" lon="10.70093">
        <ele>86.275862</ele>
        <time>2021-08-27T16:33:10.000Z</time>
      </trkpt>
      <trkpt lat="45.37557" lon="10.70093">
        <ele>86.275862</ele>
        <time>2021-08-27T16:33:15.000Z</time>
      </trkpt>
      <trkpt lat="45.37561" lon="10.70091">
        <ele>86.249139</ele>
        <time>2021-08-27T16:33:24.000Z</time>
      </trkpt>
      <trkpt lat="45.37561" lon="10.70091">
        <ele>86.248412</ele>
        <time>2021-08-27T16:33:26.000Z</time>
      </trkpt>
      <trkpt lat="45.37561" lon="10.70091">
        <ele>86.248412</ele>
        <time>2021-08-27T16:33:27.000Z</time>
      </trkpt>
      <trkpt lat="45.37561" lon="10.70091">
        <ele>86.245473</ele>
        <time>2021-08-27T16:33:48.000Z</time>
      </trkpt>
      <trkpt lat="45.37561" lon="10.70091">
        <ele>86.244963</ele>
        <time>2021-08-27T16:33:58.000Z</time>
      </trkpt>
      <trkpt lat="45.37561" lon="10.70091">
        <ele>86.241881</ele>
        <time>2021-08-27T16:34:12.000Z</time>
      </trkpt>
      <trkpt lat="45.37561" lon="10.70091">
        <ele>86.241881</ele>
        <time>2021-08-27T16:34:28.000Z</time>
      </trkpt>
      <trkpt lat="45.37561" lon="10.70091">
        <ele>86.241881</ele>
        <time>2021-08-27T16:34:42.000Z</time>
      </trkpt>
      <trkpt lat="45.37561" lon="10.70091">
        <ele>86.241881</ele>
        <time>2021-08-27T16:34:44.000Z</time>
      </trkpt>
      <trkpt lat="45.37561" lon="10.70091">
        <ele>86.241881</ele>
        <time>2021-08-27T16:34:46.000Z</time>
      </trkpt>
      <trkpt lat="45.37561" lon="10.70091">
        <ele>86.241881</ele>
        <time>2021-08-27T16:34:52.000Z</time>
      </trkpt>
      <trkpt lat="45.37561" lon="10.70091">
        <ele>86.241881</ele>
        <time>2021-08-27T16:35:04.000Z</time>
      </trkpt>
      <trkpt lat="45.37561" lon="10.70091">
        <ele>86.241881</ele>
        <time>2021-08-27T16:35:09.000Z</time>
      </trkpt>
      <trkpt lat="45.37561" lon="10.70091">
        <ele>86.241881</ele>
        <time>2021-08-27T16:35:13.000Z</time>
      </trkpt>
      <trkpt lat="45.37561" lon="10.70091">
        <ele>86.241881</ele>
        <time>2021-08-27T16:35:16.000Z</time>
      </trkpt>
      <trkpt lat="45.37561" lon="10.70091">
        <ele>86.239327</ele>
        <time>2021-08-27T16:35:30.000Z</time>
      </trkpt>
      <trkpt lat="45.37567" lon="10.70086">
        <ele>86.189542</ele>
        <time>2021-08-27T16:35:35.000Z</time>
      </trkpt>
      <trkpt lat="45.37569" lon="10.70085">
        <ele>86.173444</ele>
        <time>2021-08-27T16:35:36.000Z</time>
      </trkpt>
      <trkpt lat="45.37573" lon="10.70083">
        <ele>86.142569</ele>
        <time>2021-08-27T16:35:38.000Z</time>
      </trkpt>
      <trkpt lat="45.37574" lon="10.70082">
        <ele>86.136405</ele>
        <time>2021-08-27T16:35:40.000Z</time>
      </trkpt>
      <trkpt lat="45.37574" lon="10.70083">
        <ele>86.134293</ele>
        <time>2021-08-27T16:35:45.000Z</time>
      </trkpt>
      <trkpt lat="45.37573" lon="10.70083">
        <ele>86.130739</ele>
        <time>2021-08-27T16:35:48.000Z</time>
      </trkpt>
      <trkpt lat="45.37573" lon="10.70083">
        <ele>86.128627</ele>
        <time>2021-08-27T16:35:52.000Z</time>
      </trkpt>
      <trkpt lat="45.37573" lon="10.70083">
        <ele>86.128627</ele>
        <time>2021-08-27T16:35:56.000Z</time>
      </trkpt>
      <trkpt lat="45.37573" lon="10.70083">
        <ele>86.128627</ele>
        <time>2021-08-27T16:36:01.000Z</time>
      </trkpt>
      <trkpt lat="45.37573" lon="10.70083">
        <ele>86.128627</ele>
        <time>2021-08-27T16:36:06.000Z</time>
      </trkpt>
      <trkpt lat="45.37573" lon="10.70083">
        <ele>86.128627</ele>
        <time>2021-08-27T16:36:08.000Z</time>
      </trkpt>
      <trkpt lat="45.37573" lon="10.70083">
        <ele>86.128627</ele>
        <time>2021-08-27T16:36:10.000Z</time>
      </trkpt>
      <trkpt lat="45.37573" lon="10.70083">
        <ele>86.128627</ele>
        <time>2021-08-27T16:36:12.000Z</time>
      </trkpt>
      <trkpt lat="45.37573" lon="10.70083">
        <ele>86.128627</ele>
        <time>2021-08-27T16:36:19.000Z</time>
      </trkpt>
      <trkpt lat="45.37573" lon="10.70083">
        <ele>86.128627</ele>
        <time>2021-08-27T16:36:21.000Z</time>
      </trkpt>
      <trkpt lat="45.37573" lon="10.70083">
        <ele>86.128627</ele>
        <time>2021-08-27T16:36:24.000Z</time>
      </trkpt>
      <trkpt lat="45.37573" lon="10.70083">
        <ele>86.128627</ele>
        <time>2021-08-27T16:36:26.000Z</time>
      </trkpt>
      <trkpt lat="45.37573" lon="10.70083">
        <ele>86.128627</ele>
        <time>2021-08-27T16:36:31.000Z</time>
      </trkpt>
      <trkpt lat="45.37573" lon="10.70083">
        <ele>86.128627</ele>
        <time>2021-08-27T16:36:37.000Z</time>
      </trkpt>
      <trkpt lat="45.37573" lon="10.70083">
        <ele>86.128627</ele>
        <time>2021-08-27T16:36:40.000Z</time>
      </trkpt>
      <trkpt lat="45.37573" lon="10.70083">
        <ele>86.128627</ele>
        <time>2021-08-27T16:36:46.000Z</time>
      </trkpt>
      <trkpt lat="45.37573" lon="10.70083">
        <ele>86.127373</ele>
        <time>2021-08-27T16:37:14.000Z</time>
      </trkpt>
      <trkpt lat="45.37573" lon="10.70083">
        <ele>86.127373</ele>
        <time>2021-08-27T16:37:19.000Z</time>
      </trkpt>
      <trkpt lat="45.37574" lon="10.70084">
        <ele>86.125261</ele>
        <time>2021-08-27T16:37:31.000Z</time>
      </trkpt>
      <trkpt lat="45.37574" lon="10.70084">
        <ele>86.123807</ele>
        <time>2021-08-27T16:37:37.000Z</time>
      </trkpt>
      <trkpt lat="45.37574" lon="10.70084">
        <ele>86.120173</ele>
        <time>2021-08-27T16:37:49.000Z</time>
      </trkpt>
      <trkpt lat="45.37574" lon="10.70084">
        <ele>86.120173</ele>
        <time>2021-08-27T16:37:51.000Z</time>
      </trkpt>
      <trkpt lat="45.37574" lon="10.70084">
        <ele>86.120173</ele>
        <time>2021-08-27T16:37:59.000Z</time>
      </trkpt>
      <trkpt lat="45.37574" lon="10.70084">
        <ele>86.120173</ele>
        <time>2021-08-27T16:38:02.000Z</time>
      </trkpt>
      <trkpt lat="45.37574" lon="10.70084">
        <ele>86.120173</ele>
        <time>2021-08-27T16:38:14.000Z</time>
      </trkpt>
      <trkpt lat="45.37574" lon="10.70084">
        <ele>86.120173</ele>
        <time>2021-08-27T16:38:27.000Z</time>
      </trkpt>
      <trkpt lat="45.37578" lon="10.70081">
        <ele>86.091233</ele>
        <time>2021-08-27T16:38:34.000Z</time>
      </trkpt>
      <trkpt lat="45.37582" lon="10.70078">
        <ele>86.059479</ele>
        <time>2021-08-27T16:38:36.000Z</time>
      </trkpt>
      <trkpt lat="45.37587" lon="10.70074">
        <ele>86.016901</ele>
        <time>2021-08-27T16:38:40.000Z</time>
      </trkpt>
      <trkpt lat="45.37587" lon="10.70074">
        <ele>86.014492</ele>
        <time>2021-08-27T16:38:42.000Z</time>
      </trkpt>
      <trkpt lat="45.37587" lon="10.70074">
        <ele>86.01296</ele>
        <time>2021-08-27T16:38:48.000Z</time>
      </trkpt>
      <trkpt lat="45.37587" lon="10.70074">
        <ele>86.01296</ele>
        <time>2021-08-27T16:38:52.000Z</time>
      </trkpt>
      <trkpt lat="45.37587" lon="10.70074">
        <ele>86.01296</ele>
        <time>2021-08-27T16:38:56.000Z</time>
      </trkpt>
      <trkpt lat="45.37587" lon="10.70074">
        <ele>86.01296</ele>
        <time>2021-08-27T16:39:03.000Z</time>
      </trkpt>
      <trkpt lat="45.37587" lon="10.70074">
        <ele>86.01296</ele>
        <time>2021-08-27T16:39:11.000Z</time>
      </trkpt>
      <trkpt lat="45.37587" lon="10.70074">
        <ele>86.01296</ele>
        <time>2021-08-27T16:39:15.000Z</time>
      </trkpt>
      <trkpt lat="45.37588" lon="10.70073">
        <ele>86.009016</ele>
        <time>2021-08-27T16:39:22.000Z</time>
      </trkpt>
      <trkpt lat="45.37588" lon="10.70073">
        <ele>86.009016</ele>
        <time>2021-08-27T16:39:36.000Z</time>
      </trkpt>
      <trkpt lat="45.37588" lon="10.70073">
        <ele>86.009016</ele>
        <time>2021-08-27T16:39:43.000Z</time>
      </trkpt>
      <trkpt lat="45.37588" lon="10.70073">
        <ele>86.009016</ele>
        <time>2021-08-27T16:39:50.000Z</time>
      </trkpt>
      <trkpt lat="45.37588" lon="10.70073">
        <ele>86.009016</ele>
        <time>2021-08-27T16:39:57.000Z</time>
      </trkpt>
      <trkpt lat="45.37588" lon="10.70073">
        <ele>86.006608</ele>
        <time>2021-08-27T16:39:59.000Z</time>
      </trkpt>
      <trkpt lat="45.37588" lon="10.70073">
        <ele>86.006608</ele>
        <time>2021-08-27T16:40:00.000Z</time>
      </trkpt>
      <trkpt lat="45.37594" lon="10.70069">
        <ele>85.95691</ele>
        <time>2021-08-27T16:40:02.000Z</time>
      </trkpt>
      <trkpt lat="45.37606" lon="10.70061">
        <ele>85.857513</ele>
        <time>2021-08-27T16:40:07.000Z</time>
      </trkpt>
      <trkpt lat="45.37607" lon="10.7006">
        <ele>85.851573</ele>
        <time>2021-08-27T16:40:08.000Z</time>
      </trkpt>
      <trkpt lat="45.37607" lon="10.7006">
        <ele>85.851573</ele>
        <time>2021-08-27T16:40:13.000Z</time>
      </trkpt>
      <trkpt lat="45.37609" lon="10.7006">
        <ele>85.83623</ele>
        <time>2021-08-27T16:40:19.000Z</time>
      </trkpt>
      <trkpt lat="45.37609" lon="10.7006">
        <ele>85.83623</ele>
        <time>2021-08-27T16:40:22.000Z</time>
      </trkpt>
      <trkpt lat="45.37609" lon="10.7006">
        <ele>85.83623</ele>
        <time>2021-08-27T16:40:24.000Z</time>
      </trkpt>
      <trkpt lat="45.37609" lon="10.7006">
        <ele>85.83623</ele>
        <time>2021-08-27T16:40:30.000Z</time>
      </trkpt>
      <trkpt lat="45.37609" lon="10.7006">
        <ele>85.83623</ele>
        <time>2021-08-27T16:40:38.000Z</time>
      </trkpt>
      <trkpt lat="45.37609" lon="10.7006">
        <ele>85.83623</ele>
        <time>2021-08-27T16:40:41.000Z</time>
      </trkpt>
      <trkpt lat="45.37609" lon="10.7006">
        <ele>85.83623</ele>
        <time>2021-08-27T16:40:45.000Z</time>
      </trkpt>
      <trkpt lat="45.37609" lon="10.7006">
        <ele>85.83623</ele>
        <time>2021-08-27T16:40:59.000Z</time>
      </trkpt>
      <trkpt lat="45.37611" lon="10.70058">
        <ele>85.817524</ele>
        <time>2021-08-27T16:41:14.000Z</time>
      </trkpt>
      <trkpt lat="45.37614" lon="10.70055">
        <ele>85.792111</ele>
        <time>2021-08-27T16:41:16.000Z</time>
      </trkpt>
      <trkpt lat="45.37618" lon="10.70053">
        <ele>85.765817</ele>
        <time>2021-08-27T16:41:19.000Z</time>
      </trkpt>
      <trkpt lat="45.37618" lon="10.70053">
        <ele>85.76509</ele>
        <time>2021-08-27T16:41:21.000Z</time>
      </trkpt>
      <trkpt lat="45.37618" lon="10.70053">
        <ele>85.76509</ele>
        <time>2021-08-27T16:41:27.000Z</time>
      </trkpt>
      <trkpt lat="45.37618" lon="10.70053">
        <ele>85.76509</ele>
        <time>2021-08-27T16:41:28.000Z</time>
      </trkpt>
      <trkpt lat="45.37618" lon="10.70052">
        <ele>85.756641</ele>
        <time>2021-08-27T16:41:34.000Z</time>
      </trkpt>
      <trkpt lat="45.3762" lon="10.70051">
        <ele>85.746533</ele>
        <time>2021-08-27T16:41:36.000Z</time>
      </trkpt>
      <trkpt lat="45.37626" lon="10.70047">
        <ele>85.696385</ele>
        <time>2021-08-27T16:41:40.000Z</time>
      </trkpt>
      <trkpt lat="45.37627" lon="10.70046">
        <ele>85.687139</ele>
        <time>2021-08-27T16:41:42.000Z</time>
      </trkpt>
      <trkpt lat="45.37628" lon="10.70046">
        <ele>85.6815</ele>
        <time>2021-08-27T16:41:45.000Z</time>
      </trkpt>
      <trkpt lat="45.37629" lon="10.70045">
        <ele>85.669855</ele>
        <time>2021-08-27T16:41:54.000Z</time>
      </trkpt>
      <trkpt lat="45.37629" lon="10.70045">
        <ele>85.669855</ele>
        <time>2021-08-27T16:41:59.000Z</time>
      </trkpt>
      <trkpt lat="45.37629" lon="10.70045">
        <ele>85.669855</ele>
        <time>2021-08-27T16:42:08.000Z</time>
      </trkpt>
      <trkpt lat="45.37631" lon="10.70043">
        <ele>85.652975</ele>
        <time>2021-08-27T16:42:10.000Z</time>
      </trkpt>
      <trkpt lat="45.37638" lon="10.70038">
        <ele>85.593403</ele>
        <time>2021-08-27T16:42:13.000Z</time>
      </trkpt>
      <trkpt lat="45.37643" lon="10.70034">
        <ele>85.55202</ele>
        <time>2021-08-27T16:42:15.000Z</time>
      </trkpt>
      <trkpt lat="45.37661" lon="10.70023">
        <ele>85.413648</ele>
        <time>2021-08-27T16:42:22.000Z</time>
      </trkpt>
      <trkpt lat="45.37698" lon="10.7">
        <ele>85.457236</ele>
        <time>2021-08-27T16:42:33.000Z</time>
      </trkpt>
      <trkpt lat="45.3771" lon="10.69991">
        <ele>85.495534</ele>
        <time>2021-08-27T16:42:37.000Z</time>
      </trkpt>
      <trkpt lat="45.37728" lon="10.69979">
        <ele>85.548233</ele>
        <time>2021-08-27T16:42:43.000Z</time>
      </trkpt>
      <trkpt lat="45.37737" lon="10.69973">
        <ele>85.575134</ele>
        <time>2021-08-27T16:42:46.000Z</time>
      </trkpt>
      <trkpt lat="45.37743" lon="10.69968">
        <ele>85.59306</ele>
        <time>2021-08-27T16:42:48.000Z</time>
      </trkpt>
      <trkpt lat="45.3777" lon="10.69948">
        <ele>85.676863</ele>
        <time>2021-08-27T16:42:57.000Z</time>
      </trkpt>
      <trkpt lat="45.3778" lon="10.69941">
        <ele>85.706023</ele>
        <time>2021-08-27T16:43:01.000Z</time>
      </trkpt>
      <trkpt lat="45.37803" lon="10.69926">
        <ele>85.775507</ele>
        <time>2021-08-27T16:43:08.000Z</time>
      </trkpt>
      <trkpt lat="45.37806" lon="10.69924">
        <ele>85.785118</ele>
        <time>2021-08-27T16:43:09.000Z</time>
      </trkpt>
      <trkpt lat="45.37839" lon="10.69901">
        <ele>85.886685</ele>
        <time>2021-08-27T16:43:18.000Z</time>
      </trkpt>
      <trkpt lat="45.37865" lon="10.69885">
        <ele>85.968204</ele>
        <time>2021-08-27T16:43:26.000Z</time>
      </trkpt>
      <trkpt lat="45.37875" lon="10.69878">
        <ele>86.000774</ele>
        <time>2021-08-27T16:43:29.000Z</time>
      </trkpt>
      <trkpt lat="45.37875" lon="10.69878">
        <ele>86.000774</ele>
        <time>2021-08-27T16:43:30.000Z</time>
      </trkpt>
      <trkpt lat="45.37881" lon="10.69874">
        <ele>86.021203</ele>
        <time>2021-08-27T16:43:31.000Z</time>
      </trkpt>
      <trkpt lat="45.37885" lon="10.69871">
        <ele>86.032497</ele>
        <time>2021-08-27T16:43:33.000Z</time>
      </trkpt>
      <trkpt lat="45.37919" lon="10.69849">
        <ele>86.141503</ele>
        <time>2021-08-27T16:43:42.000Z</time>
      </trkpt>
      <trkpt lat="45.37954" lon="10.69825">
        <ele>86.253832</ele>
        <time>2021-08-27T16:43:53.000Z</time>
      </trkpt>
      <trkpt lat="45.37976" lon="10.69812">
        <ele>86.324897</ele>
        <time>2021-08-27T16:44:00.000Z</time>
      </trkpt>
      <trkpt lat="45.37982" lon="10.69807">
        <ele>86.34526</ele>
        <time>2021-08-27T16:44:02.000Z</time>
      </trkpt>
      <trkpt lat="45.38001" lon="10.69795">
        <ele>86.404429</ele>
        <time>2021-08-27T16:44:08.000Z</time>
      </trkpt>
      <trkpt lat="45.38004" lon="10.69793">
        <ele>86.41502</ele>
        <time>2021-08-27T16:44:09.000Z</time>
      </trkpt>
      <trkpt lat="45.38019" lon="10.69783">
        <ele>86.461231</ele>
        <time>2021-08-27T16:44:14.000Z</time>
      </trkpt>
      <trkpt lat="45.38051" lon="10.69761">
        <ele>86.562315</ele>
        <time>2021-08-27T16:44:24.000Z</time>
      </trkpt>
      <trkpt lat="45.3809" lon="10.69736">
        <ele>86.686646</ele>
        <time>2021-08-27T16:44:36.000Z</time>
      </trkpt>
      <trkpt lat="45.38106" lon="10.69724">
        <ele>86.738848</ele>
        <time>2021-08-27T16:44:41.000Z</time>
      </trkpt>
      <trkpt lat="45.38125" lon="10.69711">
        <ele>86.800931</ele>
        <time>2021-08-27T16:44:47.000Z</time>
      </trkpt>
      <trkpt lat="45.38129" lon="10.69709">
        <ele>86.811446</ele>
        <time>2021-08-27T16:44:48.000Z</time>
      </trkpt>
      <trkpt lat="45.38158" lon="10.69689">
        <ele>86.89997</ele>
        <time>2021-08-27T16:44:57.000Z</time>
      </trkpt>
      <trkpt lat="45.38165" lon="10.69684">
        <ele>86.910511</ele>
        <time>2021-08-27T16:44:59.000Z</time>
      </trkpt>
      <trkpt lat="45.38185" lon="10.69671">
        <ele>86.943665</ele>
        <time>2021-08-27T16:45:05.000Z</time>
      </trkpt>
      <trkpt lat="45.38196" lon="10.69665">
        <ele>86.961208</ele>
        <time>2021-08-27T16:45:08.000Z</time>
      </trkpt>
      <trkpt lat="45.38232" lon="10.69646">
        <ele>87.019049</ele>
        <time>2021-08-27T16:45:18.000Z</time>
      </trkpt>
      <trkpt lat="45.38239" lon="10.69643">
        <ele>87.030269</ele>
        <time>2021-08-27T16:45:20.000Z</time>
      </trkpt>
      <trkpt lat="45.3826" lon="10.69634">
        <ele>87.062179</ele>
        <time>2021-08-27T16:45:26.000Z</time>
      </trkpt>
      <trkpt lat="45.38263" lon="10.69634">
        <ele>87.067628</ele>
        <time>2021-08-27T16:45:27.000Z</time>
      </trkpt>
      <trkpt lat="45.38271" lon="10.69632">
        <ele>87.078348</ele>
        <time>2021-08-27T16:45:30.000Z</time>
      </trkpt>
      <trkpt lat="45.38289" lon="10.69628">
        <ele>87.106582</ele>
        <time>2021-08-27T16:45:34.000Z</time>
      </trkpt>
      <trkpt lat="45.383" lon="10.69626">
        <ele>87.123545</ele>
        <time>2021-08-27T16:45:37.000Z</time>
      </trkpt>
      <trkpt lat="45.38304" lon="10.69626">
        <ele>87.128485</ele>
        <time>2021-08-27T16:45:38.000Z</time>
      </trkpt>
      <trkpt lat="45.38339" lon="10.69622">
        <ele>87.214461</ele>
        <time>2021-08-27T16:45:48.000Z</time>
      </trkpt>
      <trkpt lat="45.3837" lon="10.69623">
        <ele>87.337552</ele>
        <time>2021-08-27T16:45:56.000Z</time>
      </trkpt>
      <trkpt lat="45.38387" lon="10.69625">
        <ele>87.40689</ele>
        <time>2021-08-27T16:46:01.000Z</time>
      </trkpt>
      <trkpt lat="45.38402" lon="10.69627">
        <ele>87.468309</ele>
        <time>2021-08-27T16:46:05.000Z</time>
      </trkpt>
      <trkpt lat="45.38419" lon="10.69627">
        <ele>87.538344</ele>
        <time>2021-08-27T16:46:12.000Z</time>
      </trkpt>
      <trkpt lat="45.3842" lon="10.69627">
        <ele>87.539988</ele>
        <time>2021-08-27T16:46:13.000Z</time>
      </trkpt>
      <trkpt lat="45.3842" lon="10.69627">
        <ele>87.54373</ele>
        <time>2021-08-27T16:46:15.000Z</time>
      </trkpt>
      <trkpt lat="45.38425" lon="10.69628">
        <ele>87.563639</ele>
        <time>2021-08-27T16:46:18.000Z</time>
      </trkpt>
      <trkpt lat="45.38428" lon="10.69628">
        <ele>87.575006</ele>
        <time>2021-08-27T16:46:20.000Z</time>
      </trkpt>
      <trkpt lat="45.38433" lon="10.69629">
        <ele>87.596554</ele>
        <time>2021-08-27T16:46:24.000Z</time>
      </trkpt>
      <trkpt lat="45.38438" lon="10.69629">
        <ele>87.614044</ele>
        <time>2021-08-27T16:46:28.000Z</time>
      </trkpt>
      <trkpt lat="45.38438" lon="10.6963">
        <ele>87.615874</ele>
        <time>2021-08-27T16:46:34.000Z</time>
      </trkpt>
      <trkpt lat="45.38441" lon="10.69631">
        <ele>87.626649</ele>
        <time>2021-08-27T16:46:41.000Z</time>
      </trkpt>
      <trkpt lat="45.38444" lon="10.69633">
        <ele>87.639572</ele>
        <time>2021-08-27T16:46:43.000Z</time>
      </trkpt>
      <trkpt lat="45.38452" lon="10.69634">
        <ele>87.675672</ele>
        <time>2021-08-27T16:46:49.000Z</time>
      </trkpt>
      <trkpt lat="45.38455" lon="10.69634">
        <ele>87.68465</ele>
        <time>2021-08-27T16:46:50.000Z</time>
      </trkpt>
      <trkpt lat="45.3847" lon="10.69639">
        <ele>87.746252</ele>
        <time>2021-08-27T16:46:54.000Z</time>
      </trkpt>
      <trkpt lat="45.38489" lon="10.69648">
        <ele>87.830744</ele>
        <time>2021-08-27T16:46:58.000Z</time>
      </trkpt>
      <trkpt lat="45.38499" lon="10.69653">
        <ele>87.870409</ele>
        <time>2021-08-27T16:47:00.000Z</time>
      </trkpt>
      <trkpt lat="45.38503" lon="10.69655">
        <ele>87.889964</ele>
        <time>2021-08-27T16:47:01.000Z</time>
      </trkpt>
      <trkpt lat="45.38534" lon="10.69676">
        <ele>87.867277</ele>
        <time>2021-08-27T16:47:09.000Z</time>
      </trkpt>
      <trkpt lat="45.38537" lon="10.69679">
        <ele>87.864637</ele>
        <time>2021-08-27T16:47:10.000Z</time>
      </trkpt>
      <trkpt lat="45.38557" lon="10.69696">
        <ele>87.848773</ele>
        <time>2021-08-27T16:47:16.000Z</time>
      </trkpt>
      <trkpt lat="45.38575" lon="10.69711">
        <ele>87.834849</ele>
        <time>2021-08-27T16:47:22.000Z</time>
      </trkpt>
      <trkpt lat="45.38596" lon="10.69728">
        <ele>87.818241</ele>
        <time>2021-08-27T16:47:29.000Z</time>
      </trkpt>
      <trkpt lat="45.38621" lon="10.69745">
        <ele>87.799727</ele>
        <time>2021-08-27T16:47:37.000Z</time>
      </trkpt>
      <trkpt lat="45.3863" lon="10.69752">
        <ele>87.792732</ele>
        <time>2021-08-27T16:47:40.000Z</time>
      </trkpt>
      <trkpt lat="45.38642" lon="10.6976">
        <ele>87.783754</ele>
        <time>2021-08-27T16:47:44.000Z</time>
      </trkpt>
      <trkpt lat="45.38654" lon="10.6977">
        <ele>87.774183</ele>
        <time>2021-08-27T16:47:48.000Z</time>
      </trkpt>
      <trkpt lat="45.38657" lon="10.69772">
        <ele>87.771875</ele>
        <time>2021-08-27T16:47:49.000Z</time>
      </trkpt>
      <trkpt lat="45.3866" lon="10.69775">
        <ele>87.769436</ele>
        <time>2021-08-27T16:47:50.000Z</time>
      </trkpt>
      <trkpt lat="45.3867" lon="10.69784">
        <ele>87.781207</ele>
        <time>2021-08-27T16:47:53.000Z</time>
      </trkpt>
      <trkpt lat="45.38685" lon="10.69795">
        <ele>87.803801</ele>
        <time>2021-08-27T16:47:57.000Z</time>
      </trkpt>
      <trkpt lat="45.38692" lon="10.698">
        <ele>87.814951</ele>
        <time>2021-08-27T16:47:59.000Z</time>
      </trkpt>
      <trkpt lat="45.38699" lon="10.69805">
        <ele>87.825382</ele>
        <time>2021-08-27T16:48:01.000Z</time>
      </trkpt>
      <trkpt lat="45.38713" lon="10.69816">
        <ele>87.846836</ele>
        <time>2021-08-27T16:48:05.000Z</time>
      </trkpt>
      <trkpt lat="45.38727" lon="10.69825">
        <ele>87.867608</ele>
        <time>2021-08-27T16:48:09.000Z</time>
      </trkpt>
      <trkpt lat="45.38734" lon="10.6983">
        <ele>87.87755</ele>
        <time>2021-08-27T16:48:11.000Z</time>
      </trkpt>
      <trkpt lat="45.38747" lon="10.6984">
        <ele>87.89755</ele>
        <time>2021-08-27T16:48:15.000Z</time>
      </trkpt>
      <trkpt lat="45.38757" lon="10.69845">
        <ele>87.911401</ele>
        <time>2021-08-27T16:48:18.000Z</time>
      </trkpt>
      <trkpt lat="45.38784" lon="10.69868">
        <ele>87.952915</ele>
        <time>2021-08-27T16:48:26.000Z</time>
      </trkpt>
      <trkpt lat="45.38787" lon="10.69871">
        <ele>87.958098</ele>
        <time>2021-08-27T16:48:27.000Z</time>
      </trkpt>
      <trkpt lat="45.38806" lon="10.69886">
        <ele>87.987946</ele>
        <time>2021-08-27T16:48:33.000Z</time>
      </trkpt>
      <trkpt lat="45.3881" lon="10.69889">
        <ele>87.992898</ele>
        <time>2021-08-27T16:48:35.000Z</time>
      </trkpt>
      <trkpt lat="45.38829" lon="10.69902">
        <ele>88.010307</ele>
        <time>2021-08-27T16:48:40.000Z</time>
      </trkpt>
      <trkpt lat="45.38833" lon="10.69904">
        <ele>88.010963</ele>
        <time>2021-08-27T16:48:42.000Z</time>
      </trkpt>
      <trkpt lat="45.38853" lon="10.69923">
        <ele>88.01507</ele>
        <time>2021-08-27T16:48:48.000Z</time>
      </trkpt>
      <trkpt lat="45.38872" lon="10.69943">
        <ele>88.019017</ele>
        <time>2021-08-27T16:48:54.000Z</time>
      </trkpt>
      <trkpt lat="45.38875" lon="10.69946">
        <ele>88.019697</ele>
        <time>2021-08-27T16:48:56.000Z</time>
      </trkpt>
      <trkpt lat="45.38888" lon="10.69961">
        <ele>88.022493</ele>
        <time>2021-08-27T16:48:59.000Z</time>
      </trkpt>
      <trkpt lat="45.38895" lon="10.69968">
        <ele>88.02394</ele>
        <time>2021-08-27T16:49:01.000Z</time>
      </trkpt>
      <trkpt lat="45.38898" lon="10.69972">
        <ele>88.024654</ele>
        <time>2021-08-27T16:49:02.000Z</time>
      </trkpt>
      <trkpt lat="45.38917" lon="10.69994">
        <ele>88.028872</ele>
        <time>2021-08-27T16:49:08.000Z</time>
      </trkpt>
      <trkpt lat="45.38928" lon="10.70004">
        <ele>88.031039</ele>
        <time>2021-08-27T16:49:11.000Z</time>
      </trkpt>
      <trkpt lat="45.38934" lon="10.70012">
        <ele>88.032426</ele>
        <time>2021-08-27T16:49:13.000Z</time>
      </trkpt>
      <trkpt lat="45.3894" lon="10.70019">
        <ele>88.033795</ele>
        <time>2021-08-27T16:49:15.000Z</time>
      </trkpt>
      <trkpt lat="45.38963" lon="10.70052">
        <ele>88.039597</ele>
        <time>2021-08-27T16:49:23.000Z</time>
      </trkpt>
      <trkpt lat="45.38985" lon="10.70078">
        <ele>88.058553</ele>
        <time>2021-08-27T16:49:31.000Z</time>
      </trkpt>
      <trkpt lat="45.39" lon="10.70102">
        <ele>88.073495</ele>
        <time>2021-08-27T16:49:37.000Z</time>
      </trkpt>
      <trkpt lat="45.39005" lon="10.7011">
        <ele>88.078763</ele>
        <time>2021-08-27T16:49:39.000Z</time>
      </trkpt>
      <trkpt lat="45.39016" lon="10.70128">
        <ele>88.089374</ele>
        <time>2021-08-27T16:49:43.000Z</time>
      </trkpt>
      <trkpt lat="45.39025" lon="10.70148">
        <ele>88.100379</ele>
        <time>2021-08-27T16:49:47.000Z</time>
      </trkpt>
      <trkpt lat="45.39035" lon="10.70167">
        <ele>88.111346</ele>
        <time>2021-08-27T16:49:51.000Z</time>
      </trkpt>
      <trkpt lat="45.3904" lon="10.70176">
        <ele>88.1168</ele>
        <time>2021-08-27T16:49:53.000Z</time>
      </trkpt>
      <trkpt lat="45.39055" lon="10.70203">
        <ele>88.132869</ele>
        <time>2021-08-27T16:49:59.000Z</time>
      </trkpt>
      <trkpt lat="45.39058" lon="10.70207">
        <ele>88.135458</ele>
        <time>2021-08-27T16:50:00.000Z</time>
      </trkpt>
      <trkpt lat="45.39065" lon="10.7022">
        <ele>88.143465</ele>
        <time>2021-08-27T16:50:03.000Z</time>
      </trkpt>
      <trkpt lat="45.39075" lon="10.70239">
        <ele>88.154324</ele>
        <time>2021-08-27T16:50:07.000Z</time>
      </trkpt>
      <trkpt lat="45.39082" lon="10.70254">
        <ele>88.16818</ele>
        <time>2021-08-27T16:50:10.000Z</time>
      </trkpt>
      <trkpt lat="45.391" lon="10.70291">
        <ele>88.215679</ele>
        <time>2021-08-27T16:50:19.000Z</time>
      </trkpt>
      <trkpt lat="45.39117" lon="10.7033">
        <ele>88.262413</ele>
        <time>2021-08-27T16:50:26.000Z</time>
      </trkpt>
      <trkpt lat="45.39125" lon="10.70351">
        <ele>88.288389</ele>
        <time>2021-08-27T16:50:31.000Z</time>
      </trkpt>
      <trkpt lat="45.39132" lon="10.7037">
        <ele>88.310623</ele>
        <time>2021-08-27T16:50:35.000Z</time>
      </trkpt>
      <trkpt lat="45.39139" lon="10.7039">
        <ele>88.333723</ele>
        <time>2021-08-27T16:50:39.000Z</time>
      </trkpt>
      <trkpt lat="45.3915" lon="10.70426">
        <ele>88.374381</ele>
        <time>2021-08-27T16:50:46.000Z</time>
      </trkpt>
      <trkpt lat="45.39152" lon="10.70431">
        <ele>88.380116</ele>
        <time>2021-08-27T16:50:47.000Z</time>
      </trkpt>
      <trkpt lat="45.39159" lon="10.70451">
        <ele>88.403944</ele>
        <time>2021-08-27T16:50:51.000Z</time>
      </trkpt>
      <trkpt lat="45.39162" lon="10.70461">
        <ele>88.415776</ele>
        <time>2021-08-27T16:50:53.000Z</time>
      </trkpt>
      <trkpt lat="45.39165" lon="10.70471">
        <ele>88.436246</ele>
        <time>2021-08-27T16:50:55.000Z</time>
      </trkpt>
      <trkpt lat="45.39168" lon="10.70481">
        <ele>88.496854</ele>
        <time>2021-08-27T16:50:57.000Z</time>
      </trkpt>
      <trkpt lat="45.39181" lon="10.70527">
        <ele>88.775445</ele>
        <time>2021-08-27T16:51:06.000Z</time>
      </trkpt>
      <trkpt lat="45.39192" lon="10.70569">
        <ele>89.023933</ele>
        <time>2021-08-27T16:51:14.000Z</time>
      </trkpt>
      <trkpt lat="45.39192" lon="10.70569">
        <ele>89.023933</ele>
        <time>2021-08-27T16:51:15.000Z</time>
      </trkpt>
      <trkpt lat="45.39203" lon="10.70611">
        <ele>89.276343</ele>
        <time>2021-08-27T16:51:22.000Z</time>
      </trkpt>
      <trkpt lat="45.39206" lon="10.70622">
        <ele>89.338713</ele>
        <time>2021-08-27T16:51:24.000Z</time>
      </trkpt>
      <trkpt lat="45.39215" lon="10.70656">
        <ele>89.542481</ele>
        <time>2021-08-27T16:51:31.000Z</time>
      </trkpt>
      <trkpt lat="45.39216" lon="10.7066">
        <ele>89.564168</ele>
        <time>2021-08-27T16:51:32.000Z</time>
      </trkpt>
      <trkpt lat="45.39221" lon="10.70679">
        <ele>89.68126</ele>
        <time>2021-08-27T16:51:38.000Z</time>
      </trkpt>
      <trkpt lat="45.3923" lon="10.7071">
        <ele>89.859953</ele>
        <time>2021-08-27T16:51:46.000Z</time>
      </trkpt>
      <trkpt lat="45.39238" lon="10.70728">
        <ele>89.858667</ele>
        <time>2021-08-27T16:51:52.000Z</time>
      </trkpt>
      <trkpt lat="45.39244" lon="10.70745">
        <ele>89.857501</ele>
        <time>2021-08-27T16:51:55.000Z</time>
      </trkpt>
      <trkpt lat="45.39259" lon="10.70789">
        <ele>89.85445</ele>
        <time>2021-08-27T16:52:06.000Z</time>
      </trkpt>
      <trkpt lat="45.39267" lon="10.70818">
        <ele>89.852537</ele>
        <time>2021-08-27T16:52:12.000Z</time>
      </trkpt>
      <trkpt lat="45.39271" lon="10.70834">
        <ele>89.851462</ele>
        <time>2021-08-27T16:52:14.000Z</time>
      </trkpt>
      <trkpt lat="45.39277" lon="10.70859">
        <ele>89.849794</ele>
        <time>2021-08-27T16:52:19.000Z</time>
      </trkpt>
      <trkpt lat="45.39278" lon="10.70864">
        <ele>89.849505</ele>
        <time>2021-08-27T16:52:20.000Z</time>
      </trkpt>
      <trkpt lat="45.39279" lon="10.7087">
        <ele>89.849123</ele>
        <time>2021-08-27T16:52:21.000Z</time>
      </trkpt>
      <trkpt lat="45.39289" lon="10.70906">
        <ele>89.846721</ele>
        <time>2021-08-27T16:52:29.000Z</time>
      </trkpt>
      <trkpt lat="45.39296" lon="10.70928">
        <ele>89.845201</ele>
        <time>2021-08-27T16:52:35.000Z</time>
      </trkpt>
      <trkpt lat="45.39298" lon="10.70938">
        <ele>89.844567</ele>
        <time>2021-08-27T16:52:37.000Z</time>
      </trkpt>
      <trkpt lat="45.39304" lon="10.70958">
        <ele>89.926345</ele>
        <time>2021-08-27T16:52:40.000Z</time>
      </trkpt>
      <trkpt lat="45.39314" lon="10.70993">
        <ele>90.135705</ele>
        <time>2021-08-27T16:52:47.000Z</time>
      </trkpt>
      <trkpt lat="45.39316" lon="10.70998">
        <ele>90.161293</ele>
        <time>2021-08-27T16:52:49.000Z</time>
      </trkpt>
      <trkpt lat="45.39317" lon="10.71002">
        <ele>90.183982</ele>
        <time>2021-08-27T16:52:50.000Z</time>
      </trkpt>
      <trkpt lat="45.39317" lon="10.7101">
        <ele>90.229492</ele>
        <time>2021-08-27T16:52:51.000Z</time>
      </trkpt>
      <trkpt lat="45.39316" lon="10.71015">
        <ele>90.255478</ele>
        <time>2021-08-27T16:52:53.000Z</time>
      </trkpt>
      <trkpt lat="45.39311" lon="10.71022">
        <ele>90.311063</ele>
        <time>2021-08-27T16:52:54.000Z</time>
      </trkpt>
      <trkpt lat="45.39302" lon="10.71031">
        <ele>90.397486</ele>
        <time>2021-08-27T16:52:57.000Z</time>
      </trkpt>
      <trkpt lat="45.39278" lon="10.71055">
        <ele>90.619804</ele>
        <time>2021-08-27T16:53:05.000Z</time>
      </trkpt>
      <trkpt lat="45.3927" lon="10.71073">
        <ele>90.736012</ele>
        <time>2021-08-27T16:53:11.000Z</time>
      </trkpt>
      <trkpt lat="45.3927" lon="10.71075">
        <ele>90.747052</ele>
        <time>2021-08-27T16:53:12.000Z</time>
      </trkpt>
      <trkpt lat="45.39273" lon="10.71082">
        <ele>90.791395</ele>
        <time>2021-08-27T16:53:16.000Z</time>
      </trkpt>
      <trkpt lat="45.39279" lon="10.71102">
        <ele>90.903929</ele>
        <time>2021-08-27T16:53:24.000Z</time>
      </trkpt>
      <trkpt lat="45.39285" lon="10.71118">
        <ele>91.007586</ele>
        <time>2021-08-27T16:53:28.000Z</time>
      </trkpt>
      <trkpt lat="45.39288" lon="10.71126">
        <ele>91.053257</ele>
        <time>2021-08-27T16:53:30.000Z</time>
      </trkpt>
      <trkpt lat="45.39289" lon="10.7113">
        <ele>91.075671</ele>
        <time>2021-08-27T16:53:32.000Z</time>
      </trkpt>
      <trkpt lat="45.39301" lon="10.71163">
        <ele>91.299186</ele>
        <time>2021-08-27T16:53:39.000Z</time>
      </trkpt>
      <trkpt lat="45.39304" lon="10.71166">
        <ele>91.336888</ele>
        <time>2021-08-27T16:53:40.000Z</time>
      </trkpt>
      <trkpt lat="45.39317" lon="10.71177">
        <ele>91.515012</ele>
        <time>2021-08-27T16:53:45.000Z</time>
      </trkpt>
      <trkpt lat="45.3932" lon="10.71189">
        <ele>91.617592</ele>
        <time>2021-08-27T16:53:49.000Z</time>
      </trkpt>
      <trkpt lat="45.39319" lon="10.71192">
        <ele>91.644226</ele>
        <time>2021-08-27T16:53:50.000Z</time>
      </trkpt>
      <trkpt lat="45.39315" lon="10.71195">
        <ele>91.692947</ele>
        <time>2021-08-27T16:53:52.000Z</time>
      </trkpt>
      <trkpt lat="45.39313" lon="10.71196">
        <ele>91.717512</ele>
        <time>2021-08-27T16:53:55.000Z</time>
      </trkpt>
      <trkpt lat="45.39312" lon="10.71196">
        <ele>91.723381</ele>
        <time>2021-08-27T16:53:57.000Z</time>
      </trkpt>
      <trkpt lat="45.39312" lon="10.71196">
        <ele>91.734036</ele>
        <time>2021-08-27T16:54:00.000Z</time>
      </trkpt>
      <trkpt lat="45.39309" lon="10.71197">
        <ele>91.763849</ele>
        <time>2021-08-27T16:54:01.000Z</time>
      </trkpt>
      <trkpt lat="45.39301" lon="10.71201">
        <ele>91.85519</ele>
        <time>2021-08-27T16:54:06.000Z</time>
      </trkpt>
      <trkpt lat="45.39299" lon="10.71203">
        <ele>91.889587</ele>
        <time>2021-08-27T16:54:08.000Z</time>
      </trkpt>
      <trkpt lat="45.39299" lon="10.71203">
        <ele>91.889587</ele>
        <time>2021-08-27T16:54:09.000Z</time>
      </trkpt>
      <trkpt lat="45.39296" lon="10.71204">
        <ele>91.920022</ele>
        <time>2021-08-27T16:54:10.000Z</time>
      </trkpt>
      <trkpt lat="45.39296" lon="10.71204">
        <ele>91.920022</ele>
        <time>2021-08-27T16:54:11.000Z</time>
      </trkpt>
      <trkpt lat="45.39295" lon="10.71204">
        <ele>91.931611</ele>
        <time>2021-08-27T16:54:12.000Z</time>
      </trkpt>
      <trkpt lat="45.39291" lon="10.71208">
        <ele>91.985925</ele>
        <time>2021-08-27T16:54:14.000Z</time>
      </trkpt>
      <trkpt lat="45.39289" lon="10.7121">
        <ele>92.008525</ele>
        <time>2021-08-27T16:54:15.000Z</time>
      </trkpt>
      <trkpt lat="45.39287" lon="10.71217">
        <ele>92.0726</ele>
        <time>2021-08-27T16:54:18.000Z</time>
      </trkpt>
      <trkpt lat="45.39286" lon="10.71219">
        <ele>92.092466</ele>
        <time>2021-08-27T16:54:19.000Z</time>
      </trkpt>
      <trkpt lat="45.39287" lon="10.71223">
        <ele>92.120988</ele>
        <time>2021-08-27T16:54:21.000Z</time>
      </trkpt>
      <trkpt lat="45.39288" lon="10.71224">
        <ele>92.133018</ele>
        <time>2021-08-27T16:54:22.000Z</time>
      </trkpt>
      <trkpt lat="45.39291" lon="10.71225">
        <ele>92.167145</ele>
        <time>2021-08-27T16:54:26.000Z</time>
      </trkpt>
      <trkpt lat="45.39294" lon="10.71226">
        <ele>92.208685</ele>
        <time>2021-08-27T16:54:28.000Z</time>
      </trkpt>
      <trkpt lat="45.39298" lon="10.7123">
        <ele>92.254771</ele>
        <time>2021-08-27T16:54:32.000Z</time>
      </trkpt>
      <trkpt lat="45.393" lon="10.71232">
        <ele>92.28333</ele>
        <time>2021-08-27T16:54:33.000Z</time>
      </trkpt>
      <trkpt lat="45.39302" lon="10.71234">
        <ele>92.311029</ele>
        <time>2021-08-27T16:54:35.000Z</time>
      </trkpt>
      <trkpt lat="45.39304" lon="10.71235">
        <ele>92.335873</ele>
        <time>2021-08-27T16:54:38.000Z</time>
      </trkpt>
      <trkpt lat="45.39304" lon="10.71236">
        <ele>92.33977</ele>
        <time>2021-08-27T16:54:40.000Z</time>
      </trkpt>
      <trkpt lat="45.39304" lon="10.71236">
        <ele>92.33977</ele>
        <time>2021-08-27T16:54:41.000Z</time>
      </trkpt>
      <trkpt lat="45.39304" lon="10.71236">
        <ele>92.33977</ele>
        <time>2021-08-27T16:54:45.000Z</time>
      </trkpt>
      <trkpt lat="45.39304" lon="10.71236">
        <ele>92.33977</ele>
        <time>2021-08-27T16:54:50.000Z</time>
      </trkpt>
      <trkpt lat="45.39306" lon="10.71238">
        <ele>92.369548</ele>
        <time>2021-08-27T16:54:58.000Z</time>
      </trkpt>
      <trkpt lat="45.39307" lon="10.71241">
        <ele>92.395009</ele>
        <time>2021-08-27T16:54:59.000Z</time>
      </trkpt>
      <trkpt lat="45.39311" lon="10.71255">
        <ele>92.510751</ele>
        <time>2021-08-27T16:55:06.000Z</time>
      </trkpt>
      <trkpt lat="45.39317" lon="10.7127">
        <ele>92.651754</ele>
        <time>2021-08-27T16:55:14.000Z</time>
      </trkpt>
      <trkpt lat="45.39322" lon="10.71289">
        <ele>92.813256</ele>
        <time>2021-08-27T16:55:24.000Z</time>
      </trkpt>
      <trkpt lat="45.39325" lon="10.713">
        <ele>92.903646</ele>
        <time>2021-08-27T16:55:29.000Z</time>
      </trkpt>
      <trkpt lat="45.3933" lon="10.7131">
        <ele>92.997232</ele>
        <time>2021-08-27T16:55:35.000Z</time>
      </trkpt>
      <trkpt lat="45.39337" lon="10.71325">
        <ele>93.145373</ele>
        <time>2021-08-27T16:55:44.000Z</time>
      </trkpt>
      <trkpt lat="45.39338" lon="10.71329">
        <ele>93.182268</ele>
        <time>2021-08-27T16:55:47.000Z</time>
      </trkpt>
      <trkpt lat="45.39338" lon="10.71332">
        <ele>93.206868</ele>
        <time>2021-08-27T16:55:49.000Z</time>
      </trkpt>
      <trkpt lat="45.39339" lon="10.71336">
        <ele>93.233466</ele>
        <time>2021-08-27T16:55:51.000Z</time>
      </trkpt>
      <trkpt lat="45.39342" lon="10.71344">
        <ele>93.256657</ele>
        <time>2021-08-27T16:55:56.000Z</time>
      </trkpt>
      <trkpt lat="45.39344" lon="10.71349">
        <ele>93.253793</ele>
        <time>2021-08-27T16:56:04.000Z</time>
      </trkpt>
      <trkpt lat="45.39347" lon="10.7135">
        <ele>93.251944</ele>
        <time>2021-08-27T16:56:07.000Z</time>
      </trkpt>
      <trkpt lat="45.39349" lon="10.71353">
        <ele>93.24976</ele>
        <time>2021-08-27T16:56:09.000Z</time>
      </trkpt>
      <trkpt lat="45.39355" lon="10.71364">
        <ele>93.243216</ele>
        <time>2021-08-27T16:56:13.000Z</time>
      </trkpt>
      <trkpt lat="45.39361" lon="10.71371">
        <ele>93.238041</ele>
        <time>2021-08-27T16:56:16.000Z</time>
      </trkpt>
      <trkpt lat="45.39369" lon="10.71384">
        <ele>93.229612</ele>
        <time>2021-08-27T16:56:20.000Z</time>
      </trkpt>
      <trkpt lat="45.39374" lon="10.71394">
        <ele>93.223448</ele>
        <time>2021-08-27T16:56:23.000Z</time>
      </trkpt>
      <trkpt lat="45.39391" lon="10.71416">
        <ele>93.207806</ele>
        <time>2021-08-27T16:56:31.000Z</time>
      </trkpt>
      <trkpt lat="45.39417" lon="10.71446">
        <ele>93.184952</ele>
        <time>2021-08-27T16:56:40.000Z</time>
      </trkpt>
      <trkpt lat="45.39437" lon="10.71469">
        <ele>93.166949</ele>
        <time>2021-08-27T16:56:47.000Z</time>
      </trkpt>
      <trkpt lat="45.39443" lon="10.71476">
        <ele>93.161575</ele>
        <time>2021-08-27T16:56:49.000Z</time>
      </trkpt>
      <trkpt lat="45.39446" lon="10.71479">
        <ele>93.158878</ele>
        <time>2021-08-27T16:56:51.000Z</time>
      </trkpt>
      <trkpt lat="45.39467" lon="10.71503">
        <ele>93.140258</ele>
        <time>2021-08-27T16:56:57.000Z</time>
      </trkpt>
      <trkpt lat="45.39488" lon="10.71529">
        <ele>93.128246</ele>
        <time>2021-08-27T16:57:05.000Z</time>
      </trkpt>
      <trkpt lat="45.39499" lon="10.71542">
        <ele>93.123025</ele>
        <time>2021-08-27T16:57:09.000Z</time>
      </trkpt>
      <trkpt lat="45.39514" lon="10.71552">
        <ele>93.117048</ele>
        <time>2021-08-27T16:57:12.000Z</time>
      </trkpt>
      <trkpt lat="45.39518" lon="10.71554">
        <ele>93.115629</ele>
        <time>2021-08-27T16:57:13.000Z</time>
      </trkpt>
      <trkpt lat="45.39527" lon="10.71562">
        <ele>93.111816</ele>
        <time>2021-08-27T16:57:16.000Z</time>
      </trkpt>
      <trkpt lat="45.39534" lon="10.71567">
        <ele>93.109218</ele>
        <time>2021-08-27T16:57:19.000Z</time>
      </trkpt>
      <trkpt lat="45.39546" lon="10.71577">
        <ele>93.104242</ele>
        <time>2021-08-27T16:57:22.000Z</time>
      </trkpt>
      <trkpt lat="45.39575" lon="10.716">
        <ele>93.092359</ele>
        <time>2021-08-27T16:57:31.000Z</time>
      </trkpt>
      <trkpt lat="45.39604" lon="10.71621">
        <ele>93.080655</ele>
        <time>2021-08-27T16:57:41.000Z</time>
      </trkpt>
      <trkpt lat="45.39617" lon="10.7163">
        <ele>93.075415</ele>
        <time>2021-08-27T16:57:44.000Z</time>
      </trkpt>
      <trkpt lat="45.39631" lon="10.71638">
        <ele>93.075494</ele>
        <time>2021-08-27T16:57:49.000Z</time>
      </trkpt>
      <trkpt lat="45.39637" lon="10.71641">
        <ele>93.083815</ele>
        <time>2021-08-27T16:57:51.000Z</time>
      </trkpt>
      <trkpt lat="45.3965" lon="10.71649">
        <ele>93.103115</ele>
        <time>2021-08-27T16:57:55.000Z</time>
      </trkpt>
      <trkpt lat="45.39662" lon="10.71655">
        <ele>93.119734</ele>
        <time>2021-08-27T16:58:00.000Z</time>
      </trkpt>
      <trkpt lat="45.39672" lon="10.71661">
        <ele>93.133928</ele>
        <time>2021-08-27T16:58:03.000Z</time>
      </trkpt>
      <trkpt lat="45.39683" lon="10.71665">
        <ele>93.149186</ele>
        <time>2021-08-27T16:58:05.000Z</time>
      </trkpt>
      <trkpt lat="45.39689" lon="10.71668">
        <ele>93.158805</ele>
        <time>2021-08-27T16:58:08.000Z</time>
      </trkpt>
      <trkpt lat="45.397" lon="10.71673">
        <ele>93.173439</ele>
        <time>2021-08-27T16:58:10.000Z</time>
      </trkpt>
      <trkpt lat="45.39707" lon="10.71677">
        <ele>93.183865</ele>
        <time>2021-08-27T16:58:12.000Z</time>
      </trkpt>
      <trkpt lat="45.39719" lon="10.71682">
        <ele>93.20038</ele>
        <time>2021-08-27T16:58:15.000Z</time>
      </trkpt>
      <trkpt lat="45.39737" lon="10.71689">
        <ele>93.22523</ele>
        <time>2021-08-27T16:58:20.000Z</time>
      </trkpt>
      <trkpt lat="45.39744" lon="10.71692">
        <ele>93.235217</ele>
        <time>2021-08-27T16:58:22.000Z</time>
      </trkpt>
      <trkpt lat="45.39758" lon="10.71698">
        <ele>93.254476</ele>
        <time>2021-08-27T16:58:27.000Z</time>
      </trkpt>
      <trkpt lat="45.39771" lon="10.71703">
        <ele>93.272968</ele>
        <time>2021-08-27T16:58:30.000Z</time>
      </trkpt>
      <trkpt lat="45.39797" lon="10.71713">
        <ele>93.308182</ele>
        <time>2021-08-27T16:58:37.000Z</time>
      </trkpt>
      <trkpt lat="45.39808" lon="10.71717">
        <ele>93.331296</ele>
        <time>2021-08-27T16:58:41.000Z</time>
      </trkpt>
      <trkpt lat="45.39841" lon="10.71729">
        <ele>93.408578</ele>
        <time>2021-08-27T16:58:50.000Z</time>
      </trkpt>
      <trkpt lat="45.39856" lon="10.71734">
        <ele>93.443931</ele>
        <time>2021-08-27T16:58:53.000Z</time>
      </trkpt>
      <trkpt lat="45.3987" lon="10.71739">
        <ele>93.478034</ele>
        <time>2021-08-27T16:58:57.000Z</time>
      </trkpt>
      <trkpt lat="45.39895" lon="10.71749">
        <ele>93.536532</ele>
        <time>2021-08-27T16:59:03.000Z</time>
      </trkpt>
      <trkpt lat="45.39898" lon="10.71751">
        <ele>93.545172</ele>
        <time>2021-08-27T16:59:04.000Z</time>
      </trkpt>
      <trkpt lat="45.39917" lon="10.71759">
        <ele>93.59009</ele>
        <time>2021-08-27T16:59:10.000Z</time>
      </trkpt>
      <trkpt lat="45.3992" lon="10.71759">
        <ele>93.596066</ele>
        <time>2021-08-27T16:59:11.000Z</time>
      </trkpt>
      <trkpt lat="45.39933" lon="10.71765">
        <ele>93.62768</ele>
        <time>2021-08-27T16:59:17.000Z</time>
      </trkpt>
      <trkpt lat="45.39942" lon="10.71769">
        <ele>93.649859</ele>
        <time>2021-08-27T16:59:24.000Z</time>
      </trkpt>
      <trkpt lat="45.39947" lon="10.7177">
        <ele>93.659944</ele>
        <time>2021-08-27T16:59:32.000Z</time>
      </trkpt>
      <trkpt lat="45.39949" lon="10.71772">
        <ele>93.664973</ele>
        <time>2021-08-27T16:59:34.000Z</time>
      </trkpt>
      <trkpt lat="45.39953" lon="10.71774">
        <ele>93.675329</ele>
        <time>2021-08-27T16:59:37.000Z</time>
      </trkpt>
      <trkpt lat="45.39954" lon="10.71774">
        <ele>93.678442</ele>
        <time>2021-08-27T16:59:38.000Z</time>
      </trkpt>
      <trkpt lat="45.39959" lon="10.71777">
        <ele>93.69011</ele>
        <time>2021-08-27T16:59:43.000Z</time>
      </trkpt>
      <trkpt lat="45.39963" lon="10.71778">
        <ele>93.699391</ele>
        <time>2021-08-27T16:59:46.000Z</time>
      </trkpt>
      <trkpt lat="45.39978" lon="10.71782">
        <ele>93.745857</ele>
        <time>2021-08-27T16:59:56.000Z</time>
      </trkpt>
      <trkpt lat="45.39981" lon="10.71783">
        <ele>93.75932</ele>
        <time>2021-08-27T16:59:58.000Z</time>
      </trkpt>
      <trkpt lat="45.39983" lon="10.71784">
        <ele>93.770816</ele>
        <time>2021-08-27T17:00:00.000Z</time>
      </trkpt>
      <trkpt lat="45.39986" lon="10.71786">
        <ele>93.78509</ele>
        <time>2021-08-27T17:00:02.000Z</time>
      </trkpt>
      <trkpt lat="45.3999" lon="10.71788">
        <ele>93.802892</ele>
        <time>2021-08-27T17:00:05.000Z</time>
      </trkpt>
      <trkpt lat="45.39996" lon="10.71792">
        <ele>93.83488</ele>
        <time>2021-08-27T17:00:10.000Z</time>
      </trkpt>
      <trkpt lat="45.40004" lon="10.71792">
        <ele>93.86884</ele>
        <time>2021-08-27T17:00:15.000Z</time>
      </trkpt>
      <trkpt lat="45.4001" lon="10.71796">
        <ele>93.900664</ele>
        <time>2021-08-27T17:00:20.000Z</time>
      </trkpt>
      <trkpt lat="45.4002" lon="10.71799">
        <ele>93.944198</ele>
        <time>2021-08-27T17:00:28.000Z</time>
      </trkpt>
      <trkpt lat="45.40021" lon="10.71799">
        <ele>93.950274</ele>
        <time>2021-08-27T17:00:30.000Z</time>
      </trkpt>
      <trkpt lat="45.40027" lon="10.71801">
        <ele>93.976044</ele>
        <time>2021-08-27T17:00:35.000Z</time>
      </trkpt>
      <trkpt lat="45.40027" lon="10.71801">
        <ele>93.976044</ele>
        <time>2021-08-27T17:00:36.000Z</time>
      </trkpt>
      <trkpt lat="45.40033" lon="10.71801">
        <ele>94.002673</ele>
        <time>2021-08-27T17:00:43.000Z</time>
      </trkpt>
      <trkpt lat="45.40034" lon="10.71801">
        <ele>94.009471</ele>
        <time>2021-08-27T17:00:44.000Z</time>
      </trkpt>
      <trkpt lat="45.40034" lon="10.71802">
        <ele>94.011026</ele>
        <time>2021-08-27T17:00:49.000Z</time>
      </trkpt>
      <trkpt lat="45.40035" lon="10.71803">
        <ele>94.018499</ele>
        <time>2021-08-27T17:00:51.000Z</time>
      </trkpt>
      <trkpt lat="45.40038" lon="10.71803">
        <ele>94.030501</ele>
        <time>2021-08-27T17:00:53.000Z</time>
      </trkpt>
      <trkpt lat="45.40038" lon="10.71803">
        <ele>94.030501</ele>
        <time>2021-08-27T17:00:54.000Z</time>
      </trkpt>
      <trkpt lat="45.40051" lon="10.71809">
        <ele>94.091947</ele>
        <time>2021-08-27T17:01:02.000Z</time>
      </trkpt>
      <trkpt lat="45.40053" lon="10.71809">
        <ele>94.098544</ele>
        <time>2021-08-27T17:01:04.000Z</time>
      </trkpt>
      <trkpt lat="45.40066" lon="10.71815">
        <ele>94.162516</ele>
        <time>2021-08-27T17:01:13.000Z</time>
      </trkpt>
      <trkpt lat="45.40078" lon="10.7182">
        <ele>94.219165</ele>
        <time>2021-08-27T17:01:22.000Z</time>
      </trkpt>
      <trkpt lat="45.40086" lon="10.71823">
        <ele>94.253712</ele>
        <time>2021-08-27T17:01:28.000Z</time>
      </trkpt>
      <trkpt lat="45.4009" lon="10.71825">
        <ele>94.272812</ele>
        <time>2021-08-27T17:01:31.000Z</time>
      </trkpt>
      <trkpt lat="45.40091" lon="10.71825">
        <ele>94.279697</ele>
        <time>2021-08-27T17:01:32.000Z</time>
      </trkpt>
      <trkpt lat="45.40096" lon="10.71827">
        <ele>94.30183</ele>
        <time>2021-08-27T17:01:36.000Z</time>
      </trkpt>
      <trkpt lat="45.40099" lon="10.71828">
        <ele>94.315222</ele>
        <time>2021-08-27T17:01:38.000Z</time>
      </trkpt>
      <trkpt lat="45.40103" lon="10.71831">
        <ele>94.335603</ele>
        <time>2021-08-27T17:01:41.000Z</time>
      </trkpt>
      <trkpt lat="45.40106" lon="10.71832">
        <ele>94.348628</ele>
        <time>2021-08-27T17:01:43.000Z</time>
      </trkpt>
      <trkpt lat="45.40109" lon="10.71833">
        <ele>94.365385</ele>
        <time>2021-08-27T17:01:46.000Z</time>
      </trkpt>
      <trkpt lat="45.40119" lon="10.71838">
        <ele>94.412611</ele>
        <time>2021-08-27T17:01:54.000Z</time>
      </trkpt>
      <trkpt lat="45.40122" lon="10.71842">
        <ele>94.431011</ele>
        <time>2021-08-27T17:01:57.000Z</time>
      </trkpt>
      <trkpt lat="45.40126" lon="10.7185">
        <ele>94.45956</ele>
        <time>2021-08-27T17:02:02.000Z</time>
      </trkpt>
      <trkpt lat="45.40128" lon="10.71867">
        <ele>94.514984</ele>
        <time>2021-08-27T17:02:11.000Z</time>
      </trkpt>
      <trkpt lat="45.40129" lon="10.71883">
        <ele>94.921007</ele>
        <time>2021-08-27T17:02:19.000Z</time>
      </trkpt>
      <trkpt lat="45.40129" lon="10.71889">
        <ele>95.159872</ele>
        <time>2021-08-27T17:02:23.000Z</time>
      </trkpt>
      <trkpt lat="45.4013" lon="10.71895">
        <ele>95.371853</ele>
        <time>2021-08-27T17:02:26.000Z</time>
      </trkpt>
      <trkpt lat="45.40134" lon="10.71903">
        <ele>95.729978</ele>
        <time>2021-08-27T17:02:32.000Z</time>
      </trkpt>
      <trkpt lat="45.40144" lon="10.71906">
        <ele>96.218546</ele>
        <time>2021-08-27T17:02:39.000Z</time>
      </trkpt>
      <trkpt lat="45.40148" lon="10.71908">
        <ele>96.450396</ele>
        <time>2021-08-27T17:02:43.000Z</time>
      </trkpt>
      <trkpt lat="45.40151" lon="10.7191">
        <ele>96.624192</ele>
        <time>2021-08-27T17:02:46.000Z</time>
      </trkpt>
      <trkpt lat="45.40163" lon="10.71915">
        <ele>97.26136</ele>
        <time>2021-08-27T17:02:54.000Z</time>
      </trkpt>
      <trkpt lat="45.40171" lon="10.71921">
        <ele>97.717415</ele>
        <time>2021-08-27T17:03:00.000Z</time>
      </trkpt>
      <trkpt lat="45.40174" lon="10.71924">
        <ele>97.910422</ele>
        <time>2021-08-27T17:03:03.000Z</time>
      </trkpt>
      <trkpt lat="45.40177" lon="10.71928">
        <ele>98.150071</ele>
        <time>2021-08-27T17:03:06.000Z</time>
      </trkpt>
      <trkpt lat="45.40183" lon="10.71936">
        <ele>98.562174</ele>
        <time>2021-08-27T17:03:11.000Z</time>
      </trkpt>
      <trkpt lat="45.40195" lon="10.71946">
        <ele>99.265637</ele>
        <time>2021-08-27T17:03:21.000Z</time>
      </trkpt>
      <trkpt lat="45.40199" lon="10.7195">
        <ele>99.538804</ele>
        <time>2021-08-27T17:03:25.000Z</time>
      </trkpt>
      <trkpt lat="45.40207" lon="10.71955">
        <ele>99.968366</ele>
        <time>2021-08-27T17:03:31.000Z</time>
      </trkpt>
      <trkpt lat="45.40208" lon="10.71956">
        <ele>100.024997</ele>
        <time>2021-08-27T17:03:32.000Z</time>
      </trkpt>
      <trkpt lat="45.4021" lon="10.7196">
        <ele>100.220451</ele>
        <time>2021-08-27T17:03:35.000Z</time>
      </trkpt>
      <trkpt lat="45.40213" lon="10.71963">
        <ele>100.390343</ele>
        <time>2021-08-27T17:03:37.000Z</time>
      </trkpt>
      <trkpt lat="45.40216" lon="10.71964">
        <ele>100.549872</ele>
        <time>2021-08-27T17:03:40.000Z</time>
      </trkpt>
      <trkpt lat="45.40224" lon="10.7197">
        <ele>101.004239</ele>
        <time>2021-08-27T17:03:46.000Z</time>
      </trkpt>
      <trkpt lat="45.40225" lon="10.7197">
        <ele>101.080649</ele>
        <time>2021-08-27T17:03:47.000Z</time>
      </trkpt>
      <trkpt lat="45.40227" lon="10.71972">
        <ele>101.198779</ele>
        <time>2021-08-27T17:03:49.000Z</time>
      </trkpt>
      <trkpt lat="45.40228" lon="10.71973">
        <ele>101.259696</ele>
        <time>2021-08-27T17:03:51.000Z</time>
      </trkpt>
      <trkpt lat="45.4023" lon="10.71975">
        <ele>101.369325</ele>
        <time>2021-08-27T17:03:53.000Z</time>
      </trkpt>
      <trkpt lat="45.40232" lon="10.71977">
        <ele>101.503573</ele>
        <time>2021-08-27T17:03:55.000Z</time>
      </trkpt>
      <trkpt lat="45.40237" lon="10.71981">
        <ele>101.810615</ele>
        <time>2021-08-27T17:03:59.000Z</time>
      </trkpt>
      <trkpt lat="45.40239" lon="10.71983">
        <ele>101.935147</ele>
        <time>2021-08-27T17:04:01.000Z</time>
      </trkpt>
      <trkpt lat="45.40248" lon="10.71988">
        <ele>102.440082</ele>
        <time>2021-08-27T17:04:10.000Z</time>
      </trkpt>
      <trkpt lat="45.40249" lon="10.71989">
        <ele>102.500999</ele>
        <time>2021-08-27T17:04:11.000Z</time>
      </trkpt>
      <trkpt lat="45.40251" lon="10.7199">
        <ele>102.61276</ele>
        <time>2021-08-27T17:04:12.000Z</time>
      </trkpt>
      <trkpt lat="45.40256" lon="10.71993">
        <ele>102.859483</ele>
        <time>2021-08-27T17:04:16.000Z</time>
      </trkpt>
      <trkpt lat="45.40258" lon="10.71996">
        <ele>103.033631</ele>
        <time>2021-08-27T17:04:19.000Z</time>
      </trkpt>
      <trkpt lat="45.4026" lon="10.71999">
        <ele>103.195565</ele>
        <time>2021-08-27T17:04:22.000Z</time>
      </trkpt>
      <trkpt lat="45.40268" lon="10.72004">
        <ele>103.639166</ele>
        <time>2021-08-27T17:04:30.000Z</time>
      </trkpt>
      <trkpt lat="45.40269" lon="10.72004">
        <ele>103.70621</ele>
        <time>2021-08-27T17:04:31.000Z</time>
      </trkpt>
      <trkpt lat="45.40272" lon="10.72005">
        <ele>103.794921</ele>
        <time>2021-08-27T17:04:33.000Z</time>
      </trkpt>
      <trkpt lat="45.40277" lon="10.72007">
        <ele>103.794921</ele>
        <time>2021-08-27T17:04:36.000Z</time>
      </trkpt>
      <trkpt lat="45.40282" lon="10.72009">
        <ele>103.794921</ele>
        <time>2021-08-27T17:04:40.000Z</time>
      </trkpt>
      <trkpt lat="45.40284" lon="10.72011">
        <ele>103.794921</ele>
        <time>2021-08-27T17:04:42.000Z</time>
      </trkpt>
      <trkpt lat="45.40287" lon="10.72012">
        <ele>103.794921</ele>
        <time>2021-08-27T17:04:45.000Z</time>
      </trkpt>
      <trkpt lat="45.40294" lon="10.72011">
        <ele>103.794921</ele>
        <time>2021-08-27T17:04:50.000Z</time>
      </trkpt>
      <trkpt lat="45.403" lon="10.72013">
        <ele>103.794921</ele>
        <time>2021-08-27T17:04:56.000Z</time>
      </trkpt>
      <trkpt lat="45.40305" lon="10.72014">
        <ele>103.794921</ele>
        <time>2021-08-27T17:05:00.000Z</time>
      </trkpt>
      <trkpt lat="45.4031" lon="10.72014">
        <ele>103.794921</ele>
        <time>2021-08-27T17:05:04.000Z</time>
      </trkpt>
      <trkpt lat="45.40312" lon="10.72015">
        <ele>103.794921</ele>
        <time>2021-08-27T17:05:06.000Z</time>
      </trkpt>
      <trkpt lat="45.40313" lon="10.72015">
        <ele>103.794921</ele>
        <time>2021-08-27T17:05:07.000Z</time>
      </trkpt>
      <trkpt lat="45.40315" lon="10.72014">
        <ele>103.794921</ele>
        <time>2021-08-27T17:05:08.000Z</time>
      </trkpt>
      <trkpt lat="45.40322" lon="10.72015">
        <ele>103.794921</ele>
        <time>2021-08-27T17:05:14.000Z</time>
      </trkpt>
      <trkpt lat="45.40323" lon="10.72016">
        <ele>103.794921</ele>
        <time>2021-08-27T17:05:15.000Z</time>
      </trkpt>
      <trkpt lat="45.40326" lon="10.72018">
        <ele>103.794921</ele>
        <time>2021-08-27T17:05:18.000Z</time>
      </trkpt>
      <trkpt lat="45.40327" lon="10.72018">
        <ele>103.794921</ele>
        <time>2021-08-27T17:05:20.000Z</time>
      </trkpt>
      <trkpt lat="45.4033" lon="10.72019">
        <ele>103.794921</ele>
        <time>2021-08-27T17:05:21.000Z</time>
      </trkpt>
      <trkpt lat="45.40331" lon="10.7202">
        <ele>103.794921</ele>
        <time>2021-08-27T17:05:22.000Z</time>
      </trkpt>
      <trkpt lat="45.40332" lon="10.72021">
        <ele>103.794921</ele>
        <time>2021-08-27T17:05:23.000Z</time>
      </trkpt>
      <trkpt lat="45.40334" lon="10.72022">
        <ele>103.794921</ele>
        <time>2021-08-27T17:05:25.000Z</time>
      </trkpt>
      <trkpt lat="45.40337" lon="10.72024">
        <ele>103.794921</ele>
        <time>2021-08-27T17:05:28.000Z</time>
      </trkpt>
      <trkpt lat="45.40338" lon="10.72025">
        <ele>103.794921</ele>
        <time>2021-08-27T17:05:29.000Z</time>
      </trkpt>
      <trkpt lat="45.40343" lon="10.72026">
        <ele>103.794921</ele>
        <time>2021-08-27T17:05:34.000Z</time>
      </trkpt>
      <trkpt lat="45.40346" lon="10.72028">
        <ele>103.794921</ele>
        <time>2021-08-27T17:05:36.000Z</time>
      </trkpt>
      <trkpt lat="45.40348" lon="10.72028">
        <ele>103.794921</ele>
        <time>2021-08-27T17:05:38.000Z</time>
      </trkpt>
      <trkpt lat="45.40357" lon="10.72027">
        <ele>103.794921</ele>
        <time>2021-08-27T17:05:43.000Z</time>
      </trkpt>
      <trkpt lat="45.40358" lon="10.72028">
        <ele>103.794921</ele>
        <time>2021-08-27T17:05:45.000Z</time>
      </trkpt>
      <trkpt lat="45.40358" lon="10.72028">
        <ele>103.794921</ele>
        <time>2021-08-27T17:05:46.000Z</time>
      </trkpt>
      <trkpt lat="45.4036" lon="10.7203">
        <ele>103.794921</ele>
        <time>2021-08-27T17:05:48.000Z</time>
      </trkpt>
      <trkpt lat="45.40361" lon="10.72033">
        <ele>103.794921</ele>
        <time>2021-08-27T17:05:51.000Z</time>
      </trkpt>
      <trkpt lat="45.40359" lon="10.72034">
        <ele>103.794921</ele>
        <time>2021-08-27T17:05:53.000Z</time>
      </trkpt>
      <trkpt lat="45.40359" lon="10.72035">
        <ele>103.794921</ele>
        <time>2021-08-27T17:05:54.000Z</time>
      </trkpt>
      <trkpt lat="45.40357" lon="10.72039">
        <ele>103.794921</ele>
        <time>2021-08-27T17:05:59.000Z</time>
      </trkpt>
      <trkpt lat="45.40357" lon="10.72039">
        <ele>103.794921</ele>
        <time>2021-08-27T17:06:00.000Z</time>
      </trkpt>
      <trkpt lat="45.40355" lon="10.72042">
        <ele>103.794921</ele>
        <time>2021-08-27T17:06:02.000Z</time>
      </trkpt>
      <trkpt lat="45.40354" lon="10.72045">
        <ele>103.794921</ele>
        <time>2021-08-27T17:06:04.000Z</time>
      </trkpt>
      <trkpt lat="45.40353" lon="10.72047">
        <ele>103.794921</ele>
        <time>2021-08-27T17:06:06.000Z</time>
      </trkpt>
      <trkpt lat="45.40353" lon="10.7205">
        <ele>103.794921</ele>
        <time>2021-08-27T17:06:08.000Z</time>
      </trkpt>
      <trkpt lat="45.40353" lon="10.72051">
        <ele>103.794921</ele>
        <time>2021-08-27T17:06:09.000Z</time>
      </trkpt>
      <trkpt lat="45.40352" lon="10.72052">
        <ele>103.794921</ele>
        <time>2021-08-27T17:06:10.000Z</time>
      </trkpt>
      <trkpt lat="45.40351" lon="10.72056">
        <ele>103.794921</ele>
        <time>2021-08-27T17:06:13.000Z</time>
      </trkpt>
      <trkpt lat="45.40349" lon="10.72064">
        <ele>103.794921</ele>
        <time>2021-08-27T17:06:18.000Z</time>
      </trkpt>
      <trkpt lat="45.40349" lon="10.72065">
        <ele>103.794921</ele>
        <time>2021-08-27T17:06:19.000Z</time>
      </trkpt>
      <trkpt lat="45.40349" lon="10.72066">
        <ele>103.794921</ele>
        <time>2021-08-27T17:06:21.000Z</time>
      </trkpt>
      <trkpt lat="45.40348" lon="10.72069">
        <ele>103.794921</ele>
        <time>2021-08-27T17:06:23.000Z</time>
      </trkpt>
      <trkpt lat="45.40347" lon="10.72072">
        <ele>103.794921</ele>
        <time>2021-08-27T17:06:25.000Z</time>
      </trkpt>
      <trkpt lat="45.40346" lon="10.72074">
        <ele>103.794921</ele>
        <time>2021-08-27T17:06:28.000Z</time>
      </trkpt>
      <trkpt lat="45.40344" lon="10.72085">
        <ele>103.794921</ele>
        <time>2021-08-27T17:06:35.000Z</time>
      </trkpt>
      <trkpt lat="45.40343" lon="10.72087">
        <ele>103.794921</ele>
        <time>2021-08-27T17:06:36.000Z</time>
      </trkpt>
      <trkpt lat="45.40342" lon="10.72091">
        <ele>103.794921</ele>
        <time>2021-08-27T17:06:39.000Z</time>
      </trkpt>
      <trkpt lat="45.40342" lon="10.72094">
        <ele>103.794921</ele>
        <time>2021-08-27T17:06:41.000Z</time>
      </trkpt>
      <trkpt lat="45.40342" lon="10.72097">
        <ele>103.794921</ele>
        <time>2021-08-27T17:06:43.000Z</time>
      </trkpt>
      <trkpt lat="45.40342" lon="10.72097">
        <ele>103.794921</ele>
        <time>2021-08-27T17:06:44.000Z</time>
      </trkpt>
      <trkpt lat="45.40342" lon="10.721">
        <ele>103.794921</ele>
        <time>2021-08-27T17:06:48.000Z</time>
      </trkpt>
      <trkpt lat="45.40342" lon="10.721">
        <ele>103.794921</ele>
        <time>2021-08-27T17:06:51.000Z</time>
      </trkpt>
      <trkpt lat="45.40343" lon="10.72103">
        <ele>103.794921</ele>
        <time>2021-08-27T17:06:54.000Z</time>
      </trkpt>
      <trkpt lat="45.40344" lon="10.72104">
        <ele>103.794921</ele>
        <time>2021-08-27T17:06:56.000Z</time>
      </trkpt>
      <trkpt lat="45.40346" lon="10.72106">
        <ele>103.794921</ele>
        <time>2021-08-27T17:06:57.000Z</time>
      </trkpt>
      <trkpt lat="45.40346" lon="10.72106">
        <ele>103.794921</ele>
        <time>2021-08-27T17:06:58.000Z</time>
      </trkpt>
      <trkpt lat="45.40352" lon="10.7211">
        <ele>103.794921</ele>
        <time>2021-08-27T17:07:03.000Z</time>
      </trkpt>
      <trkpt lat="45.40353" lon="10.72112">
        <ele>103.794921</ele>
        <time>2021-08-27T17:07:05.000Z</time>
      </trkpt>
      <trkpt lat="45.40357" lon="10.72118">
        <ele>103.794921</ele>
        <time>2021-08-27T17:07:09.000Z</time>
      </trkpt>
      <trkpt lat="45.40361" lon="10.72116">
        <ele>103.794921</ele>
        <time>2021-08-27T17:07:11.000Z</time>
      </trkpt>
      <trkpt lat="45.40362" lon="10.72116">
        <ele>103.794921</ele>
        <time>2021-08-27T17:07:16.000Z</time>
      </trkpt>
      <trkpt lat="45.40362" lon="10.72116">
        <ele>103.794921</ele>
        <time>2021-08-27T17:07:18.000Z</time>
      </trkpt>
      <trkpt lat="45.40365" lon="10.72119">
        <ele>103.794921</ele>
        <time>2021-08-27T17:07:25.000Z</time>
      </trkpt>
      <trkpt lat="45.40368" lon="10.72121">
        <ele>103.794921</ele>
        <time>2021-08-27T17:07:28.000Z</time>
      </trkpt>
      <trkpt lat="45.40374" lon="10.72124">
        <ele>103.794921</ele>
        <time>2021-08-27T17:07:36.000Z</time>
      </trkpt>
      <trkpt lat="45.40377" lon="10.72123">
        <ele>103.794921</ele>
        <time>2021-08-27T17:07:40.000Z</time>
      </trkpt>
      <trkpt lat="45.40379" lon="10.72122">
        <ele>103.794921</ele>
        <time>2021-08-27T17:07:42.000Z</time>
      </trkpt>
      <trkpt lat="45.40387" lon="10.72124">
        <ele>103.794921</ele>
        <time>2021-08-27T17:07:51.000Z</time>
      </trkpt>
      <trkpt lat="45.4039" lon="10.72131">
        <ele>103.794921</ele>
        <time>2021-08-27T17:07:55.000Z</time>
      </trkpt>
      <trkpt lat="45.40391" lon="10.72133">
        <ele>103.794921</ele>
        <time>2021-08-27T17:07:59.000Z</time>
      </trkpt>
      <trkpt lat="45.40392" lon="10.72135">
        <ele>103.794921</ele>
        <time>2021-08-27T17:08:02.000Z</time>
      </trkpt>
      <trkpt lat="45.40392" lon="10.72135">
        <ele>103.794921</ele>
        <time>2021-08-27T17:08:03.000Z</time>
      </trkpt>
      <trkpt lat="45.4039" lon="10.72141">
        <ele>103.794921</ele>
        <time>2021-08-27T17:08:07.000Z</time>
      </trkpt>
      <trkpt lat="45.40389" lon="10.72143">
        <ele>103.794921</ele>
        <time>2021-08-27T17:08:09.000Z</time>
      </trkpt>
      <trkpt lat="45.40389" lon="10.72143">
        <ele>103.794921</ele>
        <time>2021-08-27T17:08:11.000Z</time>
      </trkpt>
      <trkpt lat="45.40389" lon="10.72143">
        <ele>103.794921</ele>
        <time>2021-08-27T17:08:15.000Z</time>
      </trkpt>
      <trkpt lat="45.40389" lon="10.72143">
        <ele>103.794921</ele>
        <time>2021-08-27T17:08:23.000Z</time>
      </trkpt>
      <trkpt lat="45.40388" lon="10.72144">
        <ele>103.794921</ele>
        <time>2021-08-27T17:08:25.000Z</time>
      </trkpt>
      <trkpt lat="45.40387" lon="10.72151">
        <ele>103.794921</ele>
        <time>2021-08-27T17:08:28.000Z</time>
      </trkpt>
      <trkpt lat="45.40389" lon="10.72152">
        <ele>103.794921</ele>
        <time>2021-08-27T17:08:30.000Z</time>
      </trkpt>
      <trkpt lat="45.4039" lon="10.72156">
        <ele>103.794921</ele>
        <time>2021-08-27T17:08:31.000Z</time>
      </trkpt>
      <trkpt lat="45.40391" lon="10.72161">
        <ele>103.794921</ele>
        <time>2021-08-27T17:08:34.000Z</time>
      </trkpt>
      <trkpt lat="45.40391" lon="10.72161">
        <ele>103.794921</ele>
        <time>2021-08-27T17:08:35.000Z</time>
      </trkpt>
      <trkpt lat="45.40387" lon="10.72169">
        <ele>103.794921</ele>
        <time>2021-08-27T17:08:42.000Z</time>
      </trkpt>
      <trkpt lat="45.40388" lon="10.72168">
        <ele>103.794921</ele>
        <time>2021-08-27T17:08:48.000Z</time>
      </trkpt>
      <trkpt lat="45.40388" lon="10.72168">
        <ele>103.794921</ele>
        <time>2021-08-27T17:08:56.000Z</time>
      </trkpt>
      <trkpt lat="45.40388" lon="10.72168">
        <ele>103.794921</ele>
        <time>2021-08-27T17:09:06.000Z</time>
      </trkpt>
      <trkpt lat="45.40388" lon="10.72168">
        <ele>103.794921</ele>
        <time>2021-08-27T17:09:10.000Z</time>
      </trkpt>
      <trkpt lat="45.40388" lon="10.72168">
        <ele>103.794921</ele>
        <time>2021-08-27T17:09:12.000Z</time>
      </trkpt>
      <trkpt lat="45.40388" lon="10.72169">
        <ele>103.794921</ele>
        <time>2021-08-27T17:09:27.000Z</time>
      </trkpt>
    </trkseg>
  </trk>
</gpx>